<?xml version="1.0" encoding="utf-8"?>
<gpx xmlns:xsi="http://www.w3.org/2001/XMLSchema-instance" xmlns:xsd="http://www.w3.org/2001/XMLSchema" version="1.1" creator="Shapelink.com" xmlns="http://www.topografix.com/GPX/1/1" xmlns:gpxtpx="http://www.garmin.com/xmlschemas/TrackPointExtension/v1">
  <metadata>
    <name>Cykling 60.77 km, 2016-05-05</name>
    <desc></desc>
    <author><name>Alexander Engvall</name></author> 
    <time>2016-05-05T08:49:53Z</time>
  </metadata>
  <trk>
    <name>Cykling 60.77 km, 2016-05-05</name>
    <trkseg>
      <trkpt lat="59.340700070324" lon="17.935794892731">
        <ele>13.4</ele>
        <time>2016-05-05T08:49:53Z</time>
      </trkpt>
      <trkpt lat="59.340750110267" lon="17.935823055915">
        <ele>13.4</ele>
        <time>2016-05-05T08:49:54Z</time>
      </trkpt>
      <trkpt lat="59.340856644216" lon="17.935914167168">
        <ele>13.4</ele>
        <time>2016-05-05T08:49:56Z</time>
      </trkpt>
      <trkpt lat="59.340910707471" lon="17.935971667002">
        <ele>13</ele>
        <time>2016-05-05T08:49:57Z</time>
      </trkpt>
      <trkpt lat="59.340969632228" lon="17.936031094673">
        <ele>13</ele>
        <time>2016-05-05T08:49:58Z</time>
      </trkpt>
      <trkpt lat="59.34107675291" lon="17.936140646106">
        <ele>13</ele>
        <time>2016-05-05T08:50:00Z</time>
      </trkpt>
      <trkpt lat="59.341182616307" lon="17.936287496994">
        <ele>13</ele>
        <time>2016-05-05T08:50:02Z</time>
      </trkpt>
      <trkpt lat="59.341284707849" lon="17.936438287375">
        <ele>13</ele>
        <time>2016-05-05T08:50:04Z</time>
      </trkpt>
      <trkpt lat="59.341420662267" lon="17.936637860414">
        <ele>13</ele>
        <time>2016-05-05T08:50:07Z</time>
      </trkpt>
      <trkpt lat="59.341449663641" lon="17.936752357168">
        <ele>13</ele>
        <time>2016-05-05T08:50:10Z</time>
      </trkpt>
      <trkpt lat="59.341446813795" lon="17.936777502868">
        <ele>13.4</ele>
        <time>2016-05-05T08:50:11Z</time>
      </trkpt>
      <trkpt lat="59.34143130728" lon="17.936827878087">
        <ele>13.8</ele>
        <time>2016-05-05T08:50:12Z</time>
      </trkpt>
      <trkpt lat="59.341421165181" lon="17.93689635821">
        <ele>14.2</ele>
        <time>2016-05-05T08:50:13Z</time>
      </trkpt>
      <trkpt lat="59.341410017254" lon="17.936958887184">
        <ele>14.6</ele>
        <time>2016-05-05T08:50:14Z</time>
      </trkpt>
      <trkpt lat="59.341383362812" lon="17.937050082256">
        <ele>15</ele>
        <time>2016-05-05T08:50:15Z</time>
      </trkpt>
      <trkpt lat="59.341306333151" lon="17.937196178773">
        <ele>15</ele>
        <time>2016-05-05T08:50:17Z</time>
      </trkpt>
      <trkpt lat="59.341196781718" lon="17.93752248614">
        <ele>15</ele>
        <time>2016-05-05T08:50:20Z</time>
      </trkpt>
      <trkpt lat="59.341157554426" lon="17.937636060885">
        <ele>15</ele>
        <time>2016-05-05T08:50:21Z</time>
      </trkpt>
      <trkpt lat="59.340864774659" lon="17.938462600044">
        <ele>15</ele>
        <time>2016-05-05T08:50:28Z</time>
      </trkpt>
      <trkpt lat="59.340618514437" lon="17.939039023307">
        <ele>15</ele>
        <time>2016-05-05T08:50:34Z</time>
      </trkpt>
      <trkpt lat="59.340430592239" lon="17.939356613498">
        <ele>15</ele>
        <time>2016-05-05T08:50:38Z</time>
      </trkpt>
      <trkpt lat="59.340325231756" lon="17.939432972607">
        <ele>15</ele>
        <time>2016-05-05T08:50:40Z</time>
      </trkpt>
      <trkpt lat="59.340180057248" lon="17.939609327783">
        <ele>15</ele>
        <time>2016-05-05T08:50:44Z</time>
      </trkpt>
      <trkpt lat="59.340132280418" lon="17.939807140623">
        <ele>15</ele>
        <time>2016-05-05T08:50:47Z</time>
      </trkpt>
      <trkpt lat="59.340101435026" lon="17.939952985683">
        <ele>15</ele>
        <time>2016-05-05T08:50:49Z</time>
      </trkpt>
      <trkpt lat="59.340080564095" lon="17.940222463768">
        <ele>15</ele>
        <time>2016-05-05T08:50:53Z</time>
      </trkpt>
      <trkpt lat="59.340147535476" lon="17.940426730671">
        <ele>15</ele>
        <time>2016-05-05T08:50:56Z</time>
      </trkpt>
      <trkpt lat="59.34025532671" lon="17.94058439421">
        <ele>15</ele>
        <time>2016-05-05T08:51:00Z</time>
      </trkpt>
      <trkpt lat="59.340306875395" lon="17.940436118399">
        <ele>15</ele>
        <time>2016-05-05T08:51:03Z</time>
      </trkpt>
      <trkpt lat="59.340364459048" lon="17.940296978859">
        <ele>15</ele>
        <time>2016-05-05T08:51:07Z</time>
      </trkpt>
      <trkpt lat="59.340369488188" lon="17.940014005915">
        <ele>13</ele>
        <time>2016-05-05T09:04:46Z</time>
      </trkpt>
      <trkpt lat="59.34038356978" lon="17.939822730957">
        <ele>12.6</ele>
        <time>2016-05-05T09:04:49Z</time>
      </trkpt>
      <trkpt lat="59.340396645544" lon="17.939759531431">
        <ele>12.2</ele>
        <time>2016-05-05T09:04:50Z</time>
      </trkpt>
      <trkpt lat="59.340417013561" lon="17.939709910583">
        <ele>11.8</ele>
        <time>2016-05-05T09:04:51Z</time>
      </trkpt>
      <trkpt lat="59.340427574755" lon="17.939662301391">
        <ele>11.2</ele>
        <time>2016-05-05T09:04:52Z</time>
      </trkpt>
      <trkpt lat="59.340427323298" lon="17.939635144035">
        <ele>10.8</ele>
        <time>2016-05-05T09:04:53Z</time>
      </trkpt>
      <trkpt lat="59.340428077669" lon="17.939632880922">
        <ele>10.8</ele>
        <time>2016-05-05T09:04:54Z</time>
      </trkpt>
      <trkpt lat="59.340428915859" lon="17.939589965594">
        <ele>10.8</ele>
        <time>2016-05-05T09:04:55Z</time>
      </trkpt>
      <trkpt lat="59.340372924767" lon="17.939407156355">
        <ele>10.8</ele>
        <time>2016-05-05T09:04:58Z</time>
      </trkpt>
      <trkpt lat="59.340269240664" lon="17.939381172465">
        <ele>10.8</ele>
        <time>2016-05-05T09:05:01Z</time>
      </trkpt>
      <trkpt lat="59.340201011998" lon="17.939383100302">
        <ele>10.8</ele>
        <time>2016-05-05T09:05:04Z</time>
      </trkpt>
      <trkpt lat="59.340157090842" lon="17.939372120013">
        <ele>10.8</ele>
        <time>2016-05-05T09:05:06Z</time>
      </trkpt>
      <trkpt lat="59.340040498613" lon="17.939243960762">
        <ele>10.8</ele>
        <time>2016-05-05T09:05:10Z</time>
      </trkpt>
      <trkpt lat="59.339857689374" lon="17.93895579104">
        <ele>10.8</ele>
        <time>2016-05-05T09:05:15Z</time>
      </trkpt>
      <trkpt lat="59.339651997548" lon="17.938915474101">
        <ele>10.8</ele>
        <time>2016-05-05T09:05:19Z</time>
      </trkpt>
      <trkpt lat="59.33950766123" lon="17.938850514376">
        <ele>10.8</ele>
        <time>2016-05-05T09:05:23Z</time>
      </trkpt>
      <trkpt lat="59.339471702879" lon="17.938801396442">
        <ele>10.8</ele>
        <time>2016-05-05T09:05:29Z</time>
      </trkpt>
      <trkpt lat="59.339409928276" lon="17.93862470599">
        <ele>10.8</ele>
        <time>2016-05-05T09:05:35Z</time>
      </trkpt>
      <trkpt lat="59.339403809489" lon="17.938578186445">
        <ele>10.8</ele>
        <time>2016-05-05T09:05:36Z</time>
      </trkpt>
      <trkpt lat="59.339384195843" lon="17.93843024591">
        <ele>10.8</ele>
        <time>2016-05-05T09:05:39Z</time>
      </trkpt>
      <trkpt lat="59.339342034886" lon="17.938294542949">
        <ele>10.8</ele>
        <time>2016-05-05T09:05:41Z</time>
      </trkpt>
      <trkpt lat="59.339311021856" lon="17.938192367588">
        <ele>10.8</ele>
        <time>2016-05-05T09:05:42Z</time>
      </trkpt>
      <trkpt lat="59.339270118184" lon="17.938085666001">
        <ele>10.8</ele>
        <time>2016-05-05T09:05:43Z</time>
      </trkpt>
      <trkpt lat="59.339167188452" lon="17.937907969721">
        <ele>10.8</ele>
        <time>2016-05-05T09:05:45Z</time>
      </trkpt>
      <trkpt lat="59.339074568457" lon="17.937739912626">
        <ele>10.4</ele>
        <time>2016-05-05T09:05:47Z</time>
      </trkpt>
      <trkpt lat="59.339035005889" lon="17.937651818857">
        <ele>10</ele>
        <time>2016-05-05T09:05:48Z</time>
      </trkpt>
      <trkpt lat="59.338993515484" lon="17.937557354844">
        <ele>9.4</ele>
        <time>2016-05-05T09:05:49Z</time>
      </trkpt>
      <trkpt lat="59.338948923776" lon="17.937461801184">
        <ele>9</ele>
        <time>2016-05-05T09:05:50Z</time>
      </trkpt>
      <trkpt lat="59.338904918801" lon="17.937373036863">
        <ele>8.6</ele>
        <time>2016-05-05T09:05:51Z</time>
      </trkpt>
      <trkpt lat="59.338819842516" lon="17.937210008908">
        <ele>8.6</ele>
        <time>2016-05-05T09:05:53Z</time>
      </trkpt>
      <trkpt lat="59.338778352111" lon="17.937118646198">
        <ele>8.6</ele>
        <time>2016-05-05T09:05:54Z</time>
      </trkpt>
      <trkpt lat="59.338695958034" lon="17.936940530823">
        <ele>8.6</ele>
        <time>2016-05-05T09:05:56Z</time>
      </trkpt>
      <trkpt lat="59.338577186511" lon="17.936630819618">
        <ele>8.6</ele>
        <time>2016-05-05T09:05:59Z</time>
      </trkpt>
      <trkpt lat="59.338537623943" lon="17.936539959822">
        <ele>8.6</ele>
        <time>2016-05-05T09:06:00Z</time>
      </trkpt>
      <trkpt lat="59.338426982863" lon="17.936271319927">
        <ele>8.6</ele>
        <time>2016-05-05T09:06:03Z</time>
      </trkpt>
      <trkpt lat="59.338268145858" lon="17.935922968163">
        <ele>8.6</ele>
        <time>2016-05-05T09:06:08Z</time>
      </trkpt>
      <trkpt lat="59.338188685446" lon="17.935759856389">
        <ele>8.6</ele>
        <time>2016-05-05T09:06:10Z</time>
      </trkpt>
      <trkpt lat="59.338107632473" lon="17.935596576977">
        <ele>8.6</ele>
        <time>2016-05-05T09:06:12Z</time>
      </trkpt>
      <trkpt lat="59.338069243371" lon="17.935513428529">
        <ele>8.6</ele>
        <time>2016-05-05T09:06:13Z</time>
      </trkpt>
      <trkpt lat="59.337866904305" lon="17.935089388208">
        <ele>8.6</ele>
        <time>2016-05-05T09:06:18Z</time>
      </trkpt>
      <trkpt lat="59.337623158653" lon="17.934515395696">
        <ele>8.6</ele>
        <time>2016-05-05T09:06:24Z</time>
      </trkpt>
      <trkpt lat="59.337325265927" lon="17.933829421">
        <ele>8.6</ele>
        <time>2016-05-05T09:06:30Z</time>
      </trkpt>
      <trkpt lat="59.337066181398" lon="17.933264229483">
        <ele>8.6</ele>
        <time>2016-05-05T09:06:35Z</time>
      </trkpt>
      <trkpt lat="59.336833248397" lon="17.932749161728">
        <ele>8.6</ele>
        <time>2016-05-05T09:06:40Z</time>
      </trkpt>
      <trkpt lat="59.336788489051" lon="17.93263583844">
        <ele>8.6</ele>
        <time>2016-05-05T09:06:41Z</time>
      </trkpt>
      <trkpt lat="59.336607942925" lon="17.932198973812">
        <ele>8.6</ele>
        <time>2016-05-05T09:06:45Z</time>
      </trkpt>
      <trkpt lat="59.336547006512" lon="17.932098391012">
        <ele>8.6</ele>
        <time>2016-05-05T09:06:46Z</time>
      </trkpt>
      <trkpt lat="59.336449860291" lon="17.931914408307">
        <ele>8.6</ele>
        <time>2016-05-05T09:06:48Z</time>
      </trkpt>
      <trkpt lat="59.336179627835" lon="17.931335135198">
        <ele>9</ele>
        <time>2016-05-05T09:06:54Z</time>
      </trkpt>
      <trkpt lat="59.336134449394" lon="17.931252238207">
        <ele>9.4</ele>
        <time>2016-05-05T09:06:55Z</time>
      </trkpt>
      <trkpt lat="59.336092707532" lon="17.931162803334">
        <ele>9.8</ele>
        <time>2016-05-05T09:06:56Z</time>
      </trkpt>
      <trkpt lat="59.336052977326" lon="17.931073955194">
        <ele>10.2</ele>
        <time>2016-05-05T09:06:57Z</time>
      </trkpt>
      <trkpt lat="59.336014839681" lon="17.9309879569">
        <ele>10.8</ele>
        <time>2016-05-05T09:06:58Z</time>
      </trkpt>
      <trkpt lat="59.335947952119" lon="17.93081528976">
        <ele>10.8</ele>
        <time>2016-05-05T09:07:00Z</time>
      </trkpt>
      <trkpt lat="59.335748546718" lon="17.930254373012">
        <ele>10.8</ele>
        <time>2016-05-05T09:07:06Z</time>
      </trkpt>
      <trkpt lat="59.335620890381" lon="17.929948014567">
        <ele>10.8</ele>
        <time>2016-05-05T09:07:09Z</time>
      </trkpt>
      <trkpt lat="59.335524330893" lon="17.929780041291">
        <ele>10.8</ele>
        <time>2016-05-05T09:07:11Z</time>
      </trkpt>
      <trkpt lat="59.335475715873" lon="17.929683481803">
        <ele>10.8</ele>
        <time>2016-05-05T09:07:12Z</time>
      </trkpt>
      <trkpt lat="59.33528318363" lon="17.929283748992">
        <ele>10.8</ele>
        <time>2016-05-05T09:07:16Z</time>
      </trkpt>
      <trkpt lat="59.335023931463" lon="17.928676647975">
        <ele>10.8</ele>
        <time>2016-05-05T09:07:22Z</time>
      </trkpt>
      <trkpt lat="59.334711035136" lon="17.927998300808">
        <ele>10.8</ele>
        <time>2016-05-05T09:07:29Z</time>
      </trkpt>
      <trkpt lat="59.334336448025" lon="17.927151309813">
        <ele>10.8</ele>
        <time>2016-05-05T09:07:38Z</time>
      </trkpt>
      <trkpt lat="59.334099910807" lon="17.926586369753">
        <ele>10.8</ele>
        <time>2016-05-05T09:07:44Z</time>
      </trkpt>
      <trkpt lat="59.334015588893" lon="17.926404314885">
        <ele>11.2</ele>
        <time>2016-05-05T09:07:46Z</time>
      </trkpt>
      <trkpt lat="59.333974601402" lon="17.926309683234">
        <ele>11.6</ele>
        <time>2016-05-05T09:07:47Z</time>
      </trkpt>
      <trkpt lat="59.333934452101" lon="17.926214129574">
        <ele>12</ele>
        <time>2016-05-05T09:07:48Z</time>
      </trkpt>
      <trkpt lat="59.333891452954" lon="17.926124527063">
        <ele>12.4</ele>
        <time>2016-05-05T09:07:49Z</time>
      </trkpt>
      <trkpt lat="59.333849627273" lon="17.926034673095">
        <ele>12.8</ele>
        <time>2016-05-05T09:07:50Z</time>
      </trkpt>
      <trkpt lat="59.333568665985" lon="17.925392451917">
        <ele>12.8</ele>
        <time>2016-05-05T09:07:57Z</time>
      </trkpt>
      <trkpt lat="59.333294326398" lon="17.924765653435">
        <ele>12.8</ele>
        <time>2016-05-05T09:08:04Z</time>
      </trkpt>
      <trkpt lat="59.332995679301" lon="17.924124521904">
        <ele>12.8</ele>
        <time>2016-05-05T09:08:11Z</time>
      </trkpt>
      <trkpt lat="59.332785545068" lon="17.923645663957">
        <ele>12.8</ele>
        <time>2016-05-05T09:08:16Z</time>
      </trkpt>
      <trkpt lat="59.332700887878" lon="17.923456652112">
        <ele>12.8</ele>
        <time>2016-05-05T09:08:18Z</time>
      </trkpt>
      <trkpt lat="59.3324107065" lon="17.922804875568">
        <ele>13.2</ele>
        <time>2016-05-05T09:08:25Z</time>
      </trkpt>
      <trkpt lat="59.332368545543" lon="17.922709489546">
        <ele>13.6</ele>
        <time>2016-05-05T09:08:26Z</time>
      </trkpt>
      <trkpt lat="59.332327641871" lon="17.922620054673">
        <ele>14.4</ele>
        <time>2016-05-05T09:08:27Z</time>
      </trkpt>
      <trkpt lat="59.332287911665" lon="17.922528691963">
        <ele>14.8</ele>
        <time>2016-05-05T09:08:28Z</time>
      </trkpt>
      <trkpt lat="59.332120944217" lon="17.922155613594">
        <ele>14.8</ele>
        <time>2016-05-05T09:08:32Z</time>
      </trkpt>
      <trkpt lat="59.331991946776" lon="17.921861157447">
        <ele>14.8</ele>
        <time>2016-05-05T09:08:35Z</time>
      </trkpt>
      <trkpt lat="59.331862614059" lon="17.921577346313">
        <ele>14.8</ele>
        <time>2016-05-05T09:08:38Z</time>
      </trkpt>
      <trkpt lat="59.331626328298" lon="17.921039731247">
        <ele>14.8</ele>
        <time>2016-05-05T09:08:44Z</time>
      </trkpt>
      <trkpt lat="59.331316617093" lon="17.920361886994">
        <ele>14.8</ele>
        <time>2016-05-05T09:08:51Z</time>
      </trkpt>
      <trkpt lat="59.331019730195" lon="17.919742213127">
        <ele>14.8</ele>
        <time>2016-05-05T09:08:58Z</time>
      </trkpt>
      <trkpt lat="59.330986873147" lon="17.919656131014">
        <ele>15.2</ele>
        <time>2016-05-05T09:08:59Z</time>
      </trkpt>
      <trkpt lat="59.330955692479" lon="17.919573569299">
        <ele>15.6</ele>
        <time>2016-05-05T09:09:00Z</time>
      </trkpt>
      <trkpt lat="59.330927864571" lon="17.919492851602">
        <ele>16</ele>
        <time>2016-05-05T09:09:01Z</time>
      </trkpt>
      <trkpt lat="59.330918979757" lon="17.919391262974">
        <ele>16.4</ele>
        <time>2016-05-05T09:09:02Z</time>
      </trkpt>
      <trkpt lat="59.330942784353" lon="17.919300906092">
        <ele>16.8</ele>
        <time>2016-05-05T09:09:03Z</time>
      </trkpt>
      <trkpt lat="59.331027776819" lon="17.919096052456">
        <ele>17.4</ele>
        <time>2016-05-05T09:09:06Z</time>
      </trkpt>
      <trkpt lat="59.331033225054" lon="17.919011311447">
        <ele>17.8</ele>
        <time>2016-05-05T09:09:07Z</time>
      </trkpt>
      <trkpt lat="59.331024256421" lon="17.918934868519">
        <ele>18.2</ele>
        <time>2016-05-05T09:09:08Z</time>
      </trkpt>
      <trkpt lat="59.331010174829" lon="17.918863622369">
        <ele>18.6</ele>
        <time>2016-05-05T09:09:09Z</time>
      </trkpt>
      <trkpt lat="59.330981760188" lon="17.918806960725">
        <ele>19</ele>
        <time>2016-05-05T09:09:10Z</time>
      </trkpt>
      <trkpt lat="59.330929038037" lon="17.918692380152">
        <ele>19.4</ele>
        <time>2016-05-05T09:09:12Z</time>
      </trkpt>
      <trkpt lat="59.330889978383" lon="17.918628258617">
        <ele>19.8</ele>
        <time>2016-05-05T09:09:13Z</time>
      </trkpt>
      <trkpt lat="59.330854103851" lon="17.918569752955">
        <ele>20.2</ele>
        <time>2016-05-05T09:09:14Z</time>
      </trkpt>
      <trkpt lat="59.330815295654" lon="17.918515941157">
        <ele>20.6</ele>
        <time>2016-05-05T09:09:15Z</time>
      </trkpt>
      <trkpt lat="59.330778415294" lon="17.918456010572">
        <ele>21.2</ele>
        <time>2016-05-05T09:09:16Z</time>
      </trkpt>
      <trkpt lat="59.330589235811" lon="17.918215282404">
        <ele>21.2</ele>
        <time>2016-05-05T09:09:20Z</time>
      </trkpt>
      <trkpt lat="59.330546907216" lon="17.918150909412">
        <ele>21.2</ele>
        <time>2016-05-05T09:09:21Z</time>
      </trkpt>
      <trkpt lat="59.330411371893" lon="17.917933482926">
        <ele>21.2</ele>
        <time>2016-05-05T09:09:24Z</time>
      </trkpt>
      <trkpt lat="59.330369881488" lon="17.917869696667">
        <ele>21.6</ele>
        <time>2016-05-05T09:09:25Z</time>
      </trkpt>
      <trkpt lat="59.330329145454" lon="17.917794091929">
        <ele>22</ele>
        <time>2016-05-05T09:09:26Z</time>
      </trkpt>
      <trkpt lat="59.330288157963" lon="17.917709937653">
        <ele>22.4</ele>
        <time>2016-05-05T09:09:27Z</time>
      </trkpt>
      <trkpt lat="59.330247170472" lon="17.917623687902">
        <ele>22.8</ele>
        <time>2016-05-05T09:09:28Z</time>
      </trkpt>
      <trkpt lat="59.330201572936" lon="17.917535175038">
        <ele>23.2</ele>
        <time>2016-05-05T09:09:29Z</time>
      </trkpt>
      <trkpt lat="59.329971322143" lon="17.916977862507">
        <ele>23.2</ele>
        <time>2016-05-05T09:09:35Z</time>
      </trkpt>
      <trkpt lat="59.329860681063" lon="17.916671755519">
        <ele>23.2</ele>
        <time>2016-05-05T09:09:38Z</time>
      </trkpt>
      <trkpt lat="59.329709723044" lon="17.916262467342">
        <ele>23.2</ele>
        <time>2016-05-05T09:09:42Z</time>
      </trkpt>
      <trkpt lat="59.32961534285" lon="17.916049064168">
        <ele>23.2</ele>
        <time>2016-05-05T09:09:45Z</time>
      </trkpt>
      <trkpt lat="59.329561028138" lon="17.916014614559">
        <ele>23.2</ele>
        <time>2016-05-05T09:09:47Z</time>
      </trkpt>
      <trkpt lat="59.329528338728" lon="17.915967256824">
        <ele>23.2</ele>
        <time>2016-05-05T09:09:48Z</time>
      </trkpt>
      <trkpt lat="59.329403783694" lon="17.915611445169">
        <ele>23.2</ele>
        <time>2016-05-05T09:09:52Z</time>
      </trkpt>
      <trkpt lat="59.32922390812" lon="17.91497768971">
        <ele>23.2</ele>
        <time>2016-05-05T09:09:57Z</time>
      </trkpt>
      <trkpt lat="59.328956274053" lon="17.914032546666">
        <ele>23.2</ele>
        <time>2016-05-05T09:10:04Z</time>
      </trkpt>
      <trkpt lat="59.328678078792" lon="17.913033172729">
        <ele>23.2</ele>
        <time>2016-05-05T09:10:11Z</time>
      </trkpt>
      <trkpt lat="59.328638683862" lon="17.912890848067">
        <ele>23.2</ele>
        <time>2016-05-05T09:10:12Z</time>
      </trkpt>
      <trkpt lat="59.328353783081" lon="17.911864149136">
        <ele>23.2</ele>
        <time>2016-05-05T09:10:19Z</time>
      </trkpt>
      <trkpt lat="59.328070139585" lon="17.910830996142">
        <ele>23.2</ele>
        <time>2016-05-05T09:10:26Z</time>
      </trkpt>
      <trkpt lat="59.327989840983" lon="17.910538132556">
        <ele>23.2</ele>
        <time>2016-05-05T09:10:28Z</time>
      </trkpt>
      <trkpt lat="59.327821113336" lon="17.909946538054">
        <ele>22.8</ele>
        <time>2016-05-05T09:10:32Z</time>
      </trkpt>
      <trkpt lat="59.327778449465" lon="17.909791389085">
        <ele>22.4</ele>
        <time>2016-05-05T09:10:33Z</time>
      </trkpt>
      <trkpt lat="59.327735701775" lon="17.90963255208">
        <ele>22</ele>
        <time>2016-05-05T09:10:34Z</time>
      </trkpt>
      <trkpt lat="59.327692870266" lon="17.909474720903">
        <ele>21.6</ele>
        <time>2016-05-05T09:10:35Z</time>
      </trkpt>
      <trkpt lat="59.327649703481" lon="17.909316302993">
        <ele>21</ele>
        <time>2016-05-05T09:10:36Z</time>
      </trkpt>
      <trkpt lat="59.327604105945" lon="17.909149503183">
        <ele>20.4</ele>
        <time>2016-05-05T09:10:37Z</time>
      </trkpt>
      <trkpt lat="59.32756093916" lon="17.908994605671">
        <ele>19.8</ele>
        <time>2016-05-05T09:10:38Z</time>
      </trkpt>
      <trkpt lat="59.327520789859" lon="17.908836523037">
        <ele>19.2</ele>
        <time>2016-05-05T09:10:39Z</time>
      </trkpt>
      <trkpt lat="59.327477539255" lon="17.90867953005">
        <ele>18.8</ele>
        <time>2016-05-05T09:10:40Z</time>
      </trkpt>
      <trkpt lat="59.327346111063" lon="17.908196564972">
        <ele>18.8</ele>
        <time>2016-05-05T09:10:43Z</time>
      </trkpt>
      <trkpt lat="59.327212168301" lon="17.907693064239">
        <ele>18.4</ele>
        <time>2016-05-05T09:10:46Z</time>
      </trkpt>
      <trkpt lat="59.327167325136" lon="17.907523833678">
        <ele>17.8</ele>
        <time>2016-05-05T09:10:47Z</time>
      </trkpt>
      <trkpt lat="59.327120135039" lon="17.907358710248">
        <ele>17.4</ele>
        <time>2016-05-05T09:10:48Z</time>
      </trkpt>
      <trkpt lat="59.327075878607" lon="17.907193502999">
        <ele>17</ele>
        <time>2016-05-05T09:10:49Z</time>
      </trkpt>
      <trkpt lat="59.327032963279" lon="17.907026367913">
        <ele>16.4</ele>
        <time>2016-05-05T09:10:50Z</time>
      </trkpt>
      <trkpt lat="59.326989377399" lon="17.906858394637">
        <ele>15.8</ele>
        <time>2016-05-05T09:10:51Z</time>
      </trkpt>
      <trkpt lat="59.326940594741" lon="17.906682374737">
        <ele>15.2</ele>
        <time>2016-05-05T09:10:52Z</time>
      </trkpt>
      <trkpt lat="59.326893907558" lon="17.9065128089">
        <ele>14.6</ele>
        <time>2016-05-05T09:10:53Z</time>
      </trkpt>
      <trkpt lat="59.326846549823" lon="17.906336956638">
        <ele>14</ele>
        <time>2016-05-05T09:10:54Z</time>
      </trkpt>
      <trkpt lat="59.326751499077" lon="17.905988688693">
        <ele>13.6</ele>
        <time>2016-05-05T09:10:56Z</time>
      </trkpt>
      <trkpt lat="59.326703219333" lon="17.905813255526">
        <ele>13.2</ele>
        <time>2016-05-05T09:10:57Z</time>
      </trkpt>
      <trkpt lat="59.326654352856" lon="17.905633966685">
        <ele>12.6</ele>
        <time>2016-05-05T09:10:58Z</time>
      </trkpt>
      <trkpt lat="59.326606492207" lon="17.905452414731">
        <ele>12.2</ele>
        <time>2016-05-05T09:10:59Z</time>
      </trkpt>
      <trkpt lat="59.326552345133" lon="17.90525971485">
        <ele>11.8</ele>
        <time>2016-05-05T09:11:00Z</time>
      </trkpt>
      <trkpt lat="59.326501047905" lon="17.905080090733">
        <ele>11.4</ele>
        <time>2016-05-05T09:11:01Z</time>
      </trkpt>
      <trkpt lat="59.3264511756" lon="17.904898622598">
        <ele>11</ele>
        <time>2016-05-05T09:11:02Z</time>
      </trkpt>
      <trkpt lat="59.326402644399" lon="17.904719249938">
        <ele>10.4</ele>
        <time>2016-05-05T09:11:03Z</time>
      </trkpt>
      <trkpt lat="59.326353275008" lon="17.904542727124">
        <ele>10</ele>
        <time>2016-05-05T09:11:04Z</time>
      </trkpt>
      <trkpt lat="59.326307593653" lon="17.904364444111">
        <ele>9.6</ele>
        <time>2016-05-05T09:11:05Z</time>
      </trkpt>
      <trkpt lat="59.326261660841" lon="17.904190268229">
        <ele>9.6</ele>
        <time>2016-05-05T09:11:06Z</time>
      </trkpt>
      <trkpt lat="59.326175159633" lon="17.903825068846">
        <ele>9.6</ele>
        <time>2016-05-05T09:11:08Z</time>
      </trkpt>
      <trkpt lat="59.326103997302" lon="17.90347269377">
        <ele>9.6</ele>
        <time>2016-05-05T09:11:10Z</time>
      </trkpt>
      <trkpt lat="59.326059405594" lon="17.903309917272">
        <ele>9.6</ele>
        <time>2016-05-05T09:11:11Z</time>
      </trkpt>
      <trkpt lat="59.325902328788" lon="17.902851008247">
        <ele>9.6</ele>
        <time>2016-05-05T09:11:14Z</time>
      </trkpt>
      <trkpt lat="59.325803590006" lon="17.902495448049">
        <ele>9.2</ele>
        <time>2016-05-05T09:11:16Z</time>
      </trkpt>
      <trkpt lat="59.325755729357" lon="17.902329234972">
        <ele>8.8</ele>
        <time>2016-05-05T09:11:17Z</time>
      </trkpt>
      <trkpt lat="59.325707114337" lon="17.90216427918">
        <ele>8.4</ele>
        <time>2016-05-05T09:11:18Z</time>
      </trkpt>
      <trkpt lat="59.325660008059" lon="17.901997563189">
        <ele>7.4</ele>
        <time>2016-05-05T09:11:19Z</time>
      </trkpt>
      <trkpt lat="59.325614829618" lon="17.901831769207">
        <ele>7.4</ele>
        <time>2016-05-05T09:11:20Z</time>
      </trkpt>
      <trkpt lat="59.325433026207" lon="17.901077901121">
        <ele>7.4</ele>
        <time>2016-05-05T09:11:25Z</time>
      </trkpt>
      <trkpt lat="59.325306962431" lon="17.900435009391">
        <ele>7.4</ele>
        <time>2016-05-05T09:11:29Z</time>
      </trkpt>
      <trkpt lat="59.325123315002" lon="17.900019183332">
        <ele>7.4</ele>
        <time>2016-05-05T09:11:32Z</time>
      </trkpt>
      <trkpt lat="59.324991300077" lon="17.899550383665">
        <ele>7.4</ele>
        <time>2016-05-05T09:11:35Z</time>
      </trkpt>
      <trkpt lat="59.324950564043" lon="17.899396827257">
        <ele>7.4</ele>
        <time>2016-05-05T09:11:36Z</time>
      </trkpt>
      <trkpt lat="59.324693323532" lon="17.898453779688">
        <ele>7.4</ele>
        <time>2016-05-05T09:11:42Z</time>
      </trkpt>
      <trkpt lat="59.324563236444" lon="17.897975173198">
        <ele>7.4</ele>
        <time>2016-05-05T09:11:45Z</time>
      </trkpt>
      <trkpt lat="59.324300463879" lon="17.896996921649">
        <ele>7</ele>
        <time>2016-05-05T09:11:51Z</time>
      </trkpt>
      <trkpt lat="59.324255872171" lon="17.896826182346">
        <ele>6.4</ele>
        <time>2016-05-05T09:11:52Z</time>
      </trkpt>
      <trkpt lat="59.32421656106" lon="17.896654940129">
        <ele>6</ele>
        <time>2016-05-05T09:11:53Z</time>
      </trkpt>
      <trkpt lat="59.32418219527" lon="17.896485290473">
        <ele>5.4</ele>
        <time>2016-05-05T09:11:54Z</time>
      </trkpt>
      <trkpt lat="59.324152942439" lon="17.896316981921">
        <ele>5</ele>
        <time>2016-05-05T09:11:55Z</time>
      </trkpt>
      <trkpt lat="59.324125701264" lon="17.896149595378">
        <ele>4.6</ele>
        <time>2016-05-05T09:11:56Z</time>
      </trkpt>
      <trkpt lat="59.324104495057" lon="17.895977431152">
        <ele>4.2</ele>
        <time>2016-05-05T09:11:57Z</time>
      </trkpt>
      <trkpt lat="59.32408328885" lon="17.895805937478">
        <ele>3.8</ele>
        <time>2016-05-05T09:11:58Z</time>
      </trkpt>
      <trkpt lat="59.324061915005" lon="17.895639640582">
        <ele>3.2</ele>
        <time>2016-05-05T09:11:59Z</time>
      </trkpt>
      <trkpt lat="59.324044061558" lon="17.895468566003">
        <ele>2.8</ele>
        <time>2016-05-05T09:12:00Z</time>
      </trkpt>
      <trkpt lat="59.323961080748" lon="17.894819387848">
        <ele>2.8</ele>
        <time>2016-05-05T09:12:04Z</time>
      </trkpt>
      <trkpt lat="59.323865024174" lon="17.893999889485">
        <ele>3.2</ele>
        <time>2016-05-05T09:12:09Z</time>
      </trkpt>
      <trkpt lat="59.323845410528" lon="17.893834514598">
        <ele>3.6</ele>
        <time>2016-05-05T09:12:10Z</time>
      </trkpt>
      <trkpt lat="59.323824958692" lon="17.893672408652">
        <ele>4</ele>
        <time>2016-05-05T09:12:11Z</time>
      </trkpt>
      <trkpt lat="59.323805680322" lon="17.893514493656">
        <ele>4.4</ele>
        <time>2016-05-05T09:12:12Z</time>
      </trkpt>
      <trkpt lat="59.323785060848" lon="17.893359344687">
        <ele>4.8</ele>
        <time>2016-05-05T09:12:13Z</time>
      </trkpt>
      <trkpt lat="59.32367592851" lon="17.892401377336">
        <ele>4.8</ele>
        <time>2016-05-05T09:12:19Z</time>
      </trkpt>
      <trkpt lat="59.323619183047" lon="17.891766029316">
        <ele>4.8</ele>
        <time>2016-05-05T09:12:23Z</time>
      </trkpt>
      <trkpt lat="59.323618512495" lon="17.891603252818">
        <ele>4.8</ele>
        <time>2016-05-05T09:12:24Z</time>
      </trkpt>
      <trkpt lat="59.323668133343" lon="17.890823065566">
        <ele>4.8</ele>
        <time>2016-05-05T09:12:29Z</time>
      </trkpt>
      <trkpt lat="59.323747342298" lon="17.890414112665">
        <ele>4.8</ele>
        <time>2016-05-05T09:12:32Z</time>
      </trkpt>
      <trkpt lat="59.323772655636" lon="17.890293329486">
        <ele>4.8</ele>
        <time>2016-05-05T09:12:33Z</time>
      </trkpt>
      <trkpt lat="59.323827976176" lon="17.890075651543">
        <ele>4.8</ele>
        <time>2016-05-05T09:12:35Z</time>
      </trkpt>
      <trkpt lat="59.323883045259" lon="17.889850765166">
        <ele>5.4</ele>
        <time>2016-05-05T09:12:37Z</time>
      </trkpt>
      <trkpt lat="59.323904000009" lon="17.889724869028">
        <ele>5.8</ele>
        <time>2016-05-05T09:12:38Z</time>
      </trkpt>
      <trkpt lat="59.323923697474" lon="17.889601068365">
        <ele>6.4</ele>
        <time>2016-05-05T09:12:39Z</time>
      </trkpt>
      <trkpt lat="59.323938030523" lon="17.88950258104">
        <ele>6.8</ele>
        <time>2016-05-05T09:12:40Z</time>
      </trkpt>
      <trkpt lat="59.323945658052" lon="17.889417504755">
        <ele>7.2</ele>
        <time>2016-05-05T09:12:41Z</time>
      </trkpt>
      <trkpt lat="59.324016568926" lon="17.888956248798">
        <ele>7.2</ele>
        <time>2016-05-05T09:12:45Z</time>
      </trkpt>
      <trkpt lat="59.324122432323" lon="17.888366498314">
        <ele>7.2</ele>
        <time>2016-05-05T09:12:49Z</time>
      </trkpt>
      <trkpt lat="59.324205329314" lon="17.887981433828">
        <ele>7.6</ele>
        <time>2016-05-05T09:12:52Z</time>
      </trkpt>
      <trkpt lat="59.324231229385" lon="17.887853106939">
        <ele>8</ele>
        <time>2016-05-05T09:12:53Z</time>
      </trkpt>
      <trkpt lat="59.324256291266" lon="17.88772478005">
        <ele>8.6</ele>
        <time>2016-05-05T09:12:54Z</time>
      </trkpt>
      <trkpt lat="59.324277832749" lon="17.887590334374">
        <ele>9</ele>
        <time>2016-05-05T09:12:55Z</time>
      </trkpt>
      <trkpt lat="59.324303229906" lon="17.887450775739">
        <ele>9.4</ele>
        <time>2016-05-05T09:12:56Z</time>
      </trkpt>
      <trkpt lat="59.324388976743" lon="17.887016174224">
        <ele>9.4</ele>
        <time>2016-05-05T09:12:59Z</time>
      </trkpt>
      <trkpt lat="59.324569187593" lon="17.88617496674">
        <ele>9.8</ele>
        <time>2016-05-05T09:13:05Z</time>
      </trkpt>
      <trkpt lat="59.324612354378" lon="17.886041023978">
        <ele>10.2</ele>
        <time>2016-05-05T09:13:06Z</time>
      </trkpt>
      <trkpt lat="59.324659460656" lon="17.885921414265">
        <ele>10.6</ele>
        <time>2016-05-05T09:13:07Z</time>
      </trkpt>
      <trkpt lat="59.324711260798" lon="17.885799373801">
        <ele>11.2</ele>
        <time>2016-05-05T09:13:08Z</time>
      </trkpt>
      <trkpt lat="59.324766329881" lon="17.885676495147">
        <ele>11.6</ele>
        <time>2016-05-05T09:13:09Z</time>
      </trkpt>
      <trkpt lat="59.325085931728" lon="17.885095461839">
        <ele>11.6</ele>
        <time>2016-05-05T09:13:14Z</time>
      </trkpt>
      <trkpt lat="59.325423219384" lon="17.884325668143">
        <ele>11.6</ele>
        <time>2016-05-05T09:13:20Z</time>
      </trkpt>
      <trkpt lat="59.325629833219" lon="17.883648159166">
        <ele>11.2</ele>
        <time>2016-05-05T09:13:25Z</time>
      </trkpt>
      <trkpt lat="59.325671155986" lon="17.883509941635">
        <ele>10.8</ele>
        <time>2016-05-05T09:13:26Z</time>
      </trkpt>
      <trkpt lat="59.325715831513" lon="17.883364264213">
        <ele>10.4</ele>
        <time>2016-05-05T09:13:27Z</time>
      </trkpt>
      <trkpt lat="59.325765117085" lon="17.883219676438">
        <ele>10</ele>
        <time>2016-05-05T09:13:28Z</time>
      </trkpt>
      <trkpt lat="59.325811720449" lon="17.88306947279">
        <ele>9.6</ele>
        <time>2016-05-05T09:13:29Z</time>
      </trkpt>
      <trkpt lat="59.325861173659" lon="17.882898733487">
        <ele>9.2</ele>
        <time>2016-05-05T09:13:30Z</time>
      </trkpt>
      <trkpt lat="59.325910375412" lon="17.882732604229">
        <ele>8.8</ele>
        <time>2016-05-05T09:13:31Z</time>
      </trkpt>
      <trkpt lat="59.32595915807" lon="17.882565888238">
        <ele>8.4</ele>
        <time>2016-05-05T09:13:32Z</time>
      </trkpt>
      <trkpt lat="59.326006431986" lon="17.882407135052">
        <ele>8</ele>
        <time>2016-05-05T09:13:33Z</time>
      </trkpt>
      <trkpt lat="59.326052029522" lon="17.882251231712">
        <ele>7.6</ele>
        <time>2016-05-05T09:13:34Z</time>
      </trkpt>
      <trkpt lat="59.326227211232" lon="17.881626863981">
        <ele>7.6</ele>
        <time>2016-05-05T09:13:38Z</time>
      </trkpt>
      <trkpt lat="59.32642267714" lon="17.88062614894">
        <ele>7.6</ele>
        <time>2016-05-05T09:13:44Z</time>
      </trkpt>
      <trkpt lat="59.326457964939" lon="17.880273773864">
        <ele>7.2</ele>
        <time>2016-05-05T09:13:46Z</time>
      </trkpt>
      <trkpt lat="59.326469699599" lon="17.880098005421">
        <ele>6.2</ele>
        <time>2016-05-05T09:13:47Z</time>
      </trkpt>
      <trkpt lat="59.326469448142" lon="17.87992793667">
        <ele>5.8</ele>
        <time>2016-05-05T09:13:48Z</time>
      </trkpt>
      <trkpt lat="59.326471375979" lon="17.879756275358">
        <ele>5.4</ele>
        <time>2016-05-05T09:13:49Z</time>
      </trkpt>
      <trkpt lat="59.32646542483" lon="17.879141882088">
        <ele>5.4</ele>
        <time>2016-05-05T09:13:53Z</time>
      </trkpt>
      <trkpt lat="59.326421503674" lon="17.878664197607">
        <ele>5.4</ele>
        <time>2016-05-05T09:13:57Z</time>
      </trkpt>
      <trkpt lat="59.3264008842" lon="17.878373764772">
        <ele>5.4</ele>
        <time>2016-05-05T09:14:01Z</time>
      </trkpt>
      <trkpt lat="59.326376660509" lon="17.878226578608">
        <ele>6</ele>
        <time>2016-05-05T09:14:04Z</time>
      </trkpt>
      <trkpt lat="59.32636903298" lon="17.87818953061">
        <ele>6.4</ele>
        <time>2016-05-05T09:14:05Z</time>
      </trkpt>
      <trkpt lat="59.326363668564" lon="17.878157595571">
        <ele>6.8</ele>
        <time>2016-05-05T09:14:06Z</time>
      </trkpt>
      <trkpt lat="59.326359058519" lon="17.878128678016">
        <ele>7.2</ele>
        <time>2016-05-05T09:14:07Z</time>
      </trkpt>
      <trkpt lat="59.326353023551" lon="17.878093054941">
        <ele>7.6</ele>
        <time>2016-05-05T09:14:08Z</time>
      </trkpt>
      <trkpt lat="59.326326452928" lon="17.877999429118">
        <ele>7.6</ele>
        <time>2016-05-05T09:14:10Z</time>
      </trkpt>
      <trkpt lat="59.326310108223" lon="17.877923321466">
        <ele>7.6</ele>
        <time>2016-05-05T09:14:11Z</time>
      </trkpt>
      <trkpt lat="59.32627767027" lon="17.87771008593">
        <ele>7.6</ele>
        <time>2016-05-05T09:14:13Z</time>
      </trkpt>
      <trkpt lat="59.32624833362" lon="17.877448654469">
        <ele>7.6</ele>
        <time>2016-05-05T09:14:15Z</time>
      </trkpt>
      <trkpt lat="59.326215225115" lon="17.877170962122">
        <ele>7.6</ele>
        <time>2016-05-05T09:14:17Z</time>
      </trkpt>
      <trkpt lat="59.326155965082" lon="17.876814144639">
        <ele>7.6</ele>
        <time>2016-05-05T09:14:20Z</time>
      </trkpt>
      <trkpt lat="59.326098632886" lon="17.876628653192">
        <ele>7.6</ele>
        <time>2016-05-05T09:14:22Z</time>
      </trkpt>
      <trkpt lat="59.326079605973" lon="17.876535195007">
        <ele>7.6</ele>
        <time>2016-05-05T09:14:23Z</time>
      </trkpt>
      <trkpt lat="59.326021351768" lon="17.876118446939">
        <ele>7.6</ele>
        <time>2016-05-05T09:14:27Z</time>
      </trkpt>
      <trkpt lat="59.325991931299" lon="17.875902696833">
        <ele>8</ele>
        <time>2016-05-05T09:14:29Z</time>
      </trkpt>
      <trkpt lat="59.325972820567" lon="17.875784847319">
        <ele>8.4</ele>
        <time>2016-05-05T09:14:30Z</time>
      </trkpt>
      <trkpt lat="59.325953877473" lon="17.875671272574">
        <ele>8.8</ele>
        <time>2016-05-05T09:14:31Z</time>
      </trkpt>
      <trkpt lat="59.32593736513" lon="17.875558955114">
        <ele>9.2</ele>
        <time>2016-05-05T09:14:32Z</time>
      </trkpt>
      <trkpt lat="59.32592060133" lon="17.875452337346">
        <ele>9.6</ele>
        <time>2016-05-05T09:14:33Z</time>
      </trkpt>
      <trkpt lat="59.325905178634" lon="17.875347563596">
        <ele>9.6</ele>
        <time>2016-05-05T09:14:34Z</time>
      </trkpt>
      <trkpt lat="59.325793531726" lon="17.87460962112">
        <ele>9.6</ele>
        <time>2016-05-05T09:14:40Z</time>
      </trkpt>
      <trkpt lat="59.325620277853" lon="17.873516872817">
        <ele>9.6</ele>
        <time>2016-05-05T09:14:49Z</time>
      </trkpt>
      <trkpt lat="59.325605190433" lon="17.873390138489">
        <ele>9.6</ele>
        <time>2016-05-05T09:14:50Z</time>
      </trkpt>
      <trkpt lat="59.325459848287" lon="17.872507356781">
        <ele>9.6</ele>
        <time>2016-05-05T09:14:57Z</time>
      </trkpt>
      <trkpt lat="59.325354990718" lon="17.871768073201">
        <ele>9.6</ele>
        <time>2016-05-05T09:15:03Z</time>
      </trkpt>
      <trkpt lat="59.325189783469" lon="17.870883950389">
        <ele>9.6</ele>
        <time>2016-05-05T09:15:10Z</time>
      </trkpt>
      <trkpt lat="59.325057517087" lon="17.870405846813">
        <ele>9.6</ele>
        <time>2016-05-05T09:15:14Z</time>
      </trkpt>
      <trkpt lat="59.325020217632" lon="17.870301659796">
        <ele>9.6</ele>
        <time>2016-05-05T09:15:15Z</time>
      </trkpt>
      <trkpt lat="59.324817291833" lon="17.869823053306">
        <ele>9.6</ele>
        <time>2016-05-05T09:15:20Z</time>
      </trkpt>
      <trkpt lat="59.324768341537" lon="17.86973638446">
        <ele>9.6</ele>
        <time>2016-05-05T09:15:21Z</time>
      </trkpt>
      <trkpt lat="59.324550579775" lon="17.869384260841">
        <ele>9.6</ele>
        <time>2016-05-05T09:15:25Z</time>
      </trkpt>
      <trkpt lat="59.324486374421" lon="17.869308656103">
        <ele>9.6</ele>
        <time>2016-05-05T09:15:26Z</time>
      </trkpt>
      <trkpt lat="59.324233660136" lon="17.869040602941">
        <ele>9.6</ele>
        <time>2016-05-05T09:15:30Z</time>
      </trkpt>
      <trkpt lat="59.324116145898" lon="17.868941025969">
        <ele>9.6</ele>
        <time>2016-05-05T09:15:32Z</time>
      </trkpt>
      <trkpt lat="59.323817163525" lon="17.868800629144">
        <ele>9.6</ele>
        <time>2016-05-05T09:15:37Z</time>
      </trkpt>
      <trkpt lat="59.323430506478" lon="17.868713541203">
        <ele>9.6</ele>
        <time>2016-05-05T09:15:43Z</time>
      </trkpt>
      <trkpt lat="59.323353895912" lon="17.868701806543">
        <ele>10</ele>
        <time>2016-05-05T09:15:44Z</time>
      </trkpt>
      <trkpt lat="59.323281057201" lon="17.868702141819">
        <ele>10.4</ele>
        <time>2016-05-05T09:15:45Z</time>
      </trkpt>
      <trkpt lat="59.323208889042" lon="17.868688563141">
        <ele>11</ele>
        <time>2016-05-05T09:15:46Z</time>
      </trkpt>
      <trkpt lat="59.323134709227" lon="17.868673727178">
        <ele>11.4</ele>
        <time>2016-05-05T09:15:47Z</time>
      </trkpt>
      <trkpt lat="59.323063714534" lon="17.868659142672">
        <ele>11.8</ele>
        <time>2016-05-05T09:15:48Z</time>
      </trkpt>
      <trkpt lat="59.322644870991" lon="17.868570378351">
        <ele>11.8</ele>
        <time>2016-05-05T09:15:54Z</time>
      </trkpt>
      <trkpt lat="59.322096275636" lon="17.868444482213">
        <ele>11.8</ele>
        <time>2016-05-05T09:16:02Z</time>
      </trkpt>
      <trkpt lat="59.322026538228" lon="17.86842964625">
        <ele>11.8</ele>
        <time>2016-05-05T09:16:03Z</time>
      </trkpt>
      <trkpt lat="59.321733674642" lon="17.868370805312">
        <ele>12.2</ele>
        <time>2016-05-05T09:16:07Z</time>
      </trkpt>
      <trkpt lat="59.321661925578" lon="17.868352029856">
        <ele>12.6</ele>
        <time>2016-05-05T09:16:08Z</time>
      </trkpt>
      <trkpt lat="59.32158883541" lon="17.868330823649">
        <ele>13</ele>
        <time>2016-05-05T09:16:09Z</time>
      </trkpt>
      <trkpt lat="59.321516499613" lon="17.868311377641">
        <ele>13.4</ele>
        <time>2016-05-05T09:16:10Z</time>
      </trkpt>
      <trkpt lat="59.321440727237" lon="17.868292350728">
        <ele>13.8</ele>
        <time>2016-05-05T09:16:11Z</time>
      </trkpt>
      <trkpt lat="59.321048454317" lon="17.868095040802">
        <ele>13.8</ele>
        <time>2016-05-05T09:16:16Z</time>
      </trkpt>
      <trkpt lat="59.320894562633" lon="17.867978867668">
        <ele>13.4</ele>
        <time>2016-05-05T09:16:18Z</time>
      </trkpt>
      <trkpt lat="59.320821556284" lon="17.867908627346">
        <ele>13</ele>
        <time>2016-05-05T09:16:19Z</time>
      </trkpt>
      <trkpt lat="59.32075315998" lon="17.86782531126">
        <ele>12.6</ele>
        <time>2016-05-05T09:16:20Z</time>
      </trkpt>
      <trkpt lat="59.320685937142" lon="17.867723554994">
        <ele>12.2</ele>
        <time>2016-05-05T09:16:21Z</time>
      </trkpt>
      <trkpt lat="59.320627263842" lon="17.867608555326">
        <ele>11.8</ele>
        <time>2016-05-05T09:16:22Z</time>
      </trkpt>
      <trkpt lat="59.320573032949" lon="17.867484251749">
        <ele>11.4</ele>
        <time>2016-05-05T09:16:23Z</time>
      </trkpt>
      <trkpt lat="59.320520729893" lon="17.867369838814">
        <ele>11</ele>
        <time>2016-05-05T09:16:24Z</time>
      </trkpt>
      <trkpt lat="59.320474377986" lon="17.867266825263">
        <ele>10.6</ele>
        <time>2016-05-05T09:16:25Z</time>
      </trkpt>
      <trkpt lat="59.320412519564" lon="17.867176971295">
        <ele>10.2</ele>
        <time>2016-05-05T09:16:26Z</time>
      </trkpt>
      <trkpt lat="59.320347895115" lon="17.867126009343">
        <ele>9.8</ele>
        <time>2016-05-05T09:16:27Z</time>
      </trkpt>
      <trkpt lat="59.320291065833" lon="17.867088626069">
        <ele>9.8</ele>
        <time>2016-05-05T09:16:28Z</time>
      </trkpt>
      <trkpt lat="59.320138515253" lon="17.86695778461">
        <ele>9.8</ele>
        <time>2016-05-05T09:16:32Z</time>
      </trkpt>
      <trkpt lat="59.320114207743" lon="17.866921574802">
        <ele>9.8</ele>
        <time>2016-05-05T09:16:33Z</time>
      </trkpt>
      <trkpt lat="59.320043799783" lon="17.866843958408">
        <ele>10.2</ele>
        <time>2016-05-05T09:16:37Z</time>
      </trkpt>
      <trkpt lat="59.320037680996" lon="17.86683205611">
        <ele>10.6</ele>
        <time>2016-05-05T09:16:38Z</time>
      </trkpt>
      <trkpt lat="59.3200306402" lon="17.866819567079">
        <ele>11</ele>
        <time>2016-05-05T09:16:39Z</time>
      </trkpt>
      <trkpt lat="59.32001974373" lon="17.866798277053">
        <ele>11.8</ele>
        <time>2016-05-05T09:16:40Z</time>
      </trkpt>
      <trkpt lat="59.319971799262" lon="17.866733484966">
        <ele>11.8</ele>
        <time>2016-05-05T09:16:43Z</time>
      </trkpt>
      <trkpt lat="59.319830061333" lon="17.866573474495">
        <ele>11.8</ele>
        <time>2016-05-05T09:16:47Z</time>
      </trkpt>
      <trkpt lat="59.319541472516" lon="17.866231492975">
        <ele>11.8</ele>
        <time>2016-05-05T09:16:54Z</time>
      </trkpt>
      <trkpt lat="59.319194294218" lon="17.865850870896">
        <ele>11.8</ele>
        <time>2016-05-05T09:17:01Z</time>
      </trkpt>
      <trkpt lat="59.318938981544" lon="17.865554989826">
        <ele>11.8</ele>
        <time>2016-05-05T09:17:06Z</time>
      </trkpt>
      <trkpt lat="59.318788694077" lon="17.865355500606">
        <ele>11.8</ele>
        <time>2016-05-05T09:17:09Z</time>
      </trkpt>
      <trkpt lat="59.318646956148" lon="17.865160789069">
        <ele>11.8</ele>
        <time>2016-05-05T09:17:12Z</time>
      </trkpt>
      <trkpt lat="59.318260634377" lon="17.864647313875">
        <ele>11.8</ele>
        <time>2016-05-05T09:17:20Z</time>
      </trkpt>
      <trkpt lat="59.317912114975" lon="17.864179520036">
        <ele>11.8</ele>
        <time>2016-05-05T09:17:27Z</time>
      </trkpt>
      <trkpt lat="59.317694939946" lon="17.863894283979">
        <ele>12.2</ele>
        <time>2016-05-05T09:17:31Z</time>
      </trkpt>
      <trkpt lat="59.317638278302" lon="17.863820774716">
        <ele>12.6</ele>
        <time>2016-05-05T09:17:32Z</time>
      </trkpt>
      <trkpt lat="59.317580024097" lon="17.863746762539">
        <ele>13</ele>
        <time>2016-05-05T09:17:33Z</time>
      </trkpt>
      <trkpt lat="59.317518333313" lon="17.863670654887">
        <ele>13.4</ele>
        <time>2016-05-05T09:17:34Z</time>
      </trkpt>
      <trkpt lat="59.317455301425" lon="17.863595217787">
        <ele>13.8</ele>
        <time>2016-05-05T09:17:35Z</time>
      </trkpt>
      <trkpt lat="59.317062022677" lon="17.863190372017">
        <ele>13.8</ele>
        <time>2016-05-05T09:17:41Z</time>
      </trkpt>
      <trkpt lat="59.316543350705" lon="17.862690056406">
        <ele>13.8</ele>
        <time>2016-05-05T09:17:49Z</time>
      </trkpt>
      <trkpt lat="59.316416197282" lon="17.862562148612">
        <ele>13.8</ele>
        <time>2016-05-05T09:17:51Z</time>
      </trkpt>
      <trkpt lat="59.315957958809" lon="17.86211891374">
        <ele>13.8</ele>
        <time>2016-05-05T09:17:58Z</time>
      </trkpt>
      <trkpt lat="59.315566943174" lon="17.861730496494">
        <ele>13.8</ele>
        <time>2016-05-05T09:18:04Z</time>
      </trkpt>
      <trkpt lat="59.315287406809" lon="17.861466299006">
        <ele>13.4</ele>
        <time>2016-05-05T09:18:08Z</time>
      </trkpt>
      <trkpt lat="59.315215406288" lon="17.861405027317">
        <ele>13</ele>
        <time>2016-05-05T09:18:09Z</time>
      </trkpt>
      <trkpt lat="59.315145585061" lon="17.86134023523">
        <ele>12.4</ele>
        <time>2016-05-05T09:18:10Z</time>
      </trkpt>
      <trkpt lat="59.315074925644" lon="17.861281813387">
        <ele>12</ele>
        <time>2016-05-05T09:18:11Z</time>
      </trkpt>
      <trkpt lat="59.315005942607" lon="17.861223223906">
        <ele>11.6</ele>
        <time>2016-05-05T09:18:12Z</time>
      </trkpt>
      <trkpt lat="59.314737135074" lon="17.860923487162">
        <ele>11.6</ele>
        <time>2016-05-05T09:18:16Z</time>
      </trkpt>
      <trkpt lat="59.31469220809" lon="17.860796417558">
        <ele>11.6</ele>
        <time>2016-05-05T09:18:17Z</time>
      </trkpt>
      <trkpt lat="59.314620291388" lon="17.860371874323">
        <ele>11.6</ele>
        <time>2016-05-05T09:18:20Z</time>
      </trkpt>
      <trkpt lat="59.314478804916" lon="17.860026037129">
        <ele>11.6</ele>
        <time>2016-05-05T09:18:23Z</time>
      </trkpt>
      <trkpt lat="59.314432201552" lon="17.859924197044">
        <ele>11.6</ele>
        <time>2016-05-05T09:18:24Z</time>
      </trkpt>
      <trkpt lat="59.314231371228" lon="17.859461767621">
        <ele>12</ele>
        <time>2016-05-05T09:18:29Z</time>
      </trkpt>
      <trkpt lat="59.314191305746" lon="17.859377026612">
        <ele>12.4</ele>
        <time>2016-05-05T09:18:30Z</time>
      </trkpt>
      <trkpt lat="59.314158700155" lon="17.859321286977">
        <ele>13</ele>
        <time>2016-05-05T09:18:31Z</time>
      </trkpt>
      <trkpt lat="59.31412223889" lon="17.85926739136">
        <ele>13.4</ele>
        <time>2016-05-05T09:18:32Z</time>
      </trkpt>
      <trkpt lat="59.314085777625" lon="17.859218692521">
        <ele>13.8</ele>
        <time>2016-05-05T09:18:33Z</time>
      </trkpt>
      <trkpt lat="59.31404428722" lon="17.859167898207">
        <ele>14.4</ele>
        <time>2016-05-05T09:18:34Z</time>
      </trkpt>
      <trkpt lat="59.313997516218" lon="17.859113667314">
        <ele>15</ele>
        <time>2016-05-05T09:18:35Z</time>
      </trkpt>
      <trkpt lat="59.31395040994" lon="17.859064633199">
        <ele>15.4</ele>
        <time>2016-05-05T09:18:36Z</time>
      </trkpt>
      <trkpt lat="59.313911685562" lon="17.859020628224">
        <ele>16</ele>
        <time>2016-05-05T09:18:37Z</time>
      </trkpt>
      <trkpt lat="59.313862819085" lon="17.858988777004">
        <ele>16.4</ele>
        <time>2016-05-05T09:18:38Z</time>
      </trkpt>
      <trkpt lat="59.31381294678" lon="17.858957009603">
        <ele>17</ele>
        <time>2016-05-05T09:18:39Z</time>
      </trkpt>
      <trkpt lat="59.313762823018" lon="17.858924906926">
        <ele>17.4</ele>
        <time>2016-05-05T09:18:40Z</time>
      </trkpt>
      <trkpt lat="59.313715046188" lon="17.858889619127">
        <ele>17.8</ele>
        <time>2016-05-05T09:18:41Z</time>
      </trkpt>
      <trkpt lat="59.313667269358" lon="17.858842512849">
        <ele>18.2</ele>
        <time>2016-05-05T09:18:42Z</time>
      </trkpt>
      <trkpt lat="59.313619073433" lon="17.858805716308">
        <ele>19.2</ele>
        <time>2016-05-05T09:18:43Z</time>
      </trkpt>
      <trkpt lat="59.313568362938" lon="17.858791718535">
        <ele>19.6</ele>
        <time>2016-05-05T09:18:44Z</time>
      </trkpt>
      <trkpt lat="59.313524190325" lon="17.85878207935">
        <ele>20.2</ele>
        <time>2016-05-05T09:18:45Z</time>
      </trkpt>
      <trkpt lat="59.313475910581" lon="17.858787862861">
        <ele>20.6</ele>
        <time>2016-05-05T09:18:46Z</time>
      </trkpt>
      <trkpt lat="59.313388571183" lon="17.858893810077">
        <ele>20.6</ele>
        <time>2016-05-05T09:18:48Z</time>
      </trkpt>
      <trkpt lat="59.313300058319" lon="17.85917267589">
        <ele>20.6</ele>
        <time>2016-05-05T09:18:51Z</time>
      </trkpt>
      <trkpt lat="59.313178269312" lon="17.859464952743">
        <ele>20.6</ele>
        <time>2016-05-05T09:18:54Z</time>
      </trkpt>
      <trkpt lat="59.313129486654" lon="17.859545251345">
        <ele>20.6</ele>
        <time>2016-05-05T09:18:55Z</time>
      </trkpt>
      <trkpt lat="59.312888590848" lon="17.85983903694">
        <ele>20.6</ele>
        <time>2016-05-05T09:18:59Z</time>
      </trkpt>
      <trkpt lat="59.312824804589" lon="17.859893686928">
        <ele>20.6</ele>
        <time>2016-05-05T09:19:00Z</time>
      </trkpt>
      <trkpt lat="59.312568318449" lon="17.860112203061">
        <ele>20.6</ele>
        <time>2016-05-05T09:19:04Z</time>
      </trkpt>
      <trkpt lat="59.312496485566" lon="17.860131900526">
        <ele>21</ele>
        <time>2016-05-05T09:19:05Z</time>
      </trkpt>
      <trkpt lat="59.31242238957" lon="17.860144389557">
        <ele>21.4</ele>
        <time>2016-05-05T09:19:06Z</time>
      </trkpt>
      <trkpt lat="59.312356926931" lon="17.860164673755">
        <ele>22.2</ele>
        <time>2016-05-05T09:19:07Z</time>
      </trkpt>
      <trkpt lat="59.312292889215" lon="17.860184035944">
        <ele>22.6</ele>
        <time>2016-05-05T09:19:08Z</time>
      </trkpt>
      <trkpt lat="59.312019471637" lon="17.860248492755">
        <ele>22.6</ele>
        <time>2016-05-05T09:19:12Z</time>
      </trkpt>
      <trkpt lat="59.311498285095" lon="17.860432643098">
        <ele>22.6</ele>
        <time>2016-05-05T09:19:19Z</time>
      </trkpt>
      <trkpt lat="59.310929237904" lon="17.860540350513">
        <ele>22.6</ele>
        <time>2016-05-05T09:19:26Z</time>
      </trkpt>
      <trkpt lat="59.310467562852" lon="17.860560886168">
        <ele>22.2</ele>
        <time>2016-05-05T09:19:31Z</time>
      </trkpt>
      <trkpt lat="59.310374607581" lon="17.860561053806">
        <ele>21.4</ele>
        <time>2016-05-05T09:19:32Z</time>
      </trkpt>
      <trkpt lat="59.310280646482" lon="17.860574213389">
        <ele>20.8</ele>
        <time>2016-05-05T09:19:33Z</time>
      </trkpt>
      <trkpt lat="59.310185344279" lon="17.860578823434">
        <ele>20</ele>
        <time>2016-05-05T09:19:34Z</time>
      </trkpt>
      <trkpt lat="59.310091047904" lon="17.860587875886">
        <ele>19.4</ele>
        <time>2016-05-05T09:19:35Z</time>
      </trkpt>
      <trkpt lat="59.309987615258" lon="17.860591144827">
        <ele>18.8</ele>
        <time>2016-05-05T09:19:36Z</time>
      </trkpt>
      <trkpt lat="59.309890804313" lon="17.860597095976">
        <ele>18.2</ele>
        <time>2016-05-05T09:19:37Z</time>
      </trkpt>
      <trkpt lat="59.309686453591" lon="17.860583517298">
        <ele>17.6</ele>
        <time>2016-05-05T09:19:39Z</time>
      </trkpt>
      <trkpt lat="59.309581093108" lon="17.860570022439">
        <ele>17.2</ele>
        <time>2016-05-05T09:19:40Z</time>
      </trkpt>
      <trkpt lat="59.309478079557" lon="17.860544373825">
        <ele>16.6</ele>
        <time>2016-05-05T09:19:41Z</time>
      </trkpt>
      <trkpt lat="59.309376658567" lon="17.860513444614">
        <ele>16.2</ele>
        <time>2016-05-05T09:19:42Z</time>
      </trkpt>
      <trkpt lat="59.309277584509" lon="17.860474971693">
        <ele>15.6</ele>
        <time>2016-05-05T09:19:43Z</time>
      </trkpt>
      <trkpt lat="59.308894615498" lon="17.860256623198">
        <ele>15.2</ele>
        <time>2016-05-05T09:19:47Z</time>
      </trkpt>
      <trkpt lat="59.308802079322" lon="17.8601944295">
        <ele>14.8</ele>
        <time>2016-05-05T09:19:48Z</time>
      </trkpt>
      <trkpt lat="59.308709459327" lon="17.860120249685">
        <ele>14.4</ele>
        <time>2016-05-05T09:19:49Z</time>
      </trkpt>
      <trkpt lat="59.308621868472" lon="17.860049003535">
        <ele>13.8</ele>
        <time>2016-05-05T09:19:50Z</time>
      </trkpt>
      <trkpt lat="59.308530505762" lon="17.859972057693">
        <ele>13.4</ele>
        <time>2016-05-05T09:19:51Z</time>
      </trkpt>
      <trkpt lat="59.308363957409" lon="17.859826967004">
        <ele>13.4</ele>
        <time>2016-05-05T09:19:53Z</time>
      </trkpt>
      <trkpt lat="59.30781988828" lon="17.859353389654">
        <ele>13.4</ele>
        <time>2016-05-05T09:20:00Z</time>
      </trkpt>
      <trkpt lat="59.3073320617" lon="17.858916860302">
        <ele>13.4</ele>
        <time>2016-05-05T09:20:06Z</time>
      </trkpt>
      <trkpt lat="59.307157047628" lon="17.858762298066">
        <ele>13</ele>
        <time>2016-05-05T09:20:08Z</time>
      </trkpt>
      <trkpt lat="59.30706887004" lon="17.858685184586">
        <ele>12.6</ele>
        <time>2016-05-05T09:20:09Z</time>
      </trkpt>
      <trkpt lat="59.306980189538" lon="17.858606813821">
        <ele>12.2</ele>
        <time>2016-05-05T09:20:10Z</time>
      </trkpt>
      <trkpt lat="59.306883210955" lon="17.858523497735">
        <ele>11.8</ele>
        <time>2016-05-05T09:20:11Z</time>
      </trkpt>
      <trkpt lat="59.306791345331" lon="17.858447138626">
        <ele>11.4</ele>
        <time>2016-05-05T09:20:12Z</time>
      </trkpt>
      <trkpt lat="59.306611888852" lon="17.858289726544">
        <ele>10.8</ele>
        <time>2016-05-05T09:20:14Z</time>
      </trkpt>
      <trkpt lat="59.306521029056" lon="17.858212529245">
        <ele>10.4</ele>
        <time>2016-05-05T09:20:15Z</time>
      </trkpt>
      <trkpt lat="59.306427319414" lon="17.858129716073">
        <ele>10</ele>
        <time>2016-05-05T09:20:16Z</time>
      </trkpt>
      <trkpt lat="59.306333358315" lon="17.85804950129">
        <ele>9.6</ele>
        <time>2016-05-05T09:20:17Z</time>
      </trkpt>
      <trkpt lat="59.306240235406" lon="17.857964676462">
        <ele>9</ele>
        <time>2016-05-05T09:20:18Z</time>
      </trkpt>
      <trkpt lat="59.306048960448" lon="17.857780861395">
        <ele>8.6</ele>
        <time>2016-05-05T09:20:20Z</time>
      </trkpt>
      <trkpt lat="59.305955921358" lon="17.857701484802">
        <ele>8.2</ele>
        <time>2016-05-05T09:20:21Z</time>
      </trkpt>
      <trkpt lat="59.305864474829" lon="17.857624203684">
        <ele>7.4</ele>
        <time>2016-05-05T09:20:22Z</time>
      </trkpt>
      <trkpt lat="59.305776045784" lon="17.857538875942">
        <ele>7</ele>
        <time>2016-05-05T09:20:23Z</time>
      </trkpt>
      <trkpt lat="59.305687952015" lon="17.857458158245">
        <ele>7</ele>
        <time>2016-05-05T09:20:24Z</time>
      </trkpt>
      <trkpt lat="59.305245639152" lon="17.857062700203">
        <ele>6.6</ele>
        <time>2016-05-05T09:20:29Z</time>
      </trkpt>
      <trkpt lat="59.305161736333" lon="17.856986005818">
        <ele>6.2</ele>
        <time>2016-05-05T09:20:30Z</time>
      </trkpt>
      <trkpt lat="59.305079174618" lon="17.85691207746">
        <ele>5.8</ele>
        <time>2016-05-05T09:20:31Z</time>
      </trkpt>
      <trkpt lat="59.304996948179" lon="17.856844016432">
        <ele>5.4</ele>
        <time>2016-05-05T09:20:32Z</time>
      </trkpt>
      <trkpt lat="59.304917152491" lon="17.856775368671">
        <ele>5</ele>
        <time>2016-05-05T09:20:33Z</time>
      </trkpt>
      <trkpt lat="59.30443946801" lon="17.856348227047">
        <ele>5.4</ele>
        <time>2016-05-05T09:20:39Z</time>
      </trkpt>
      <trkpt lat="59.304360007598" lon="17.856280333657">
        <ele>5.8</ele>
        <time>2016-05-05T09:20:40Z</time>
      </trkpt>
      <trkpt lat="59.304281133919" lon="17.856213110819">
        <ele>6.2</ele>
        <time>2016-05-05T09:20:41Z</time>
      </trkpt>
      <trkpt lat="59.304203182249" lon="17.856142283764">
        <ele>6.6</ele>
        <time>2016-05-05T09:20:42Z</time>
      </trkpt>
      <trkpt lat="59.304123638018" lon="17.85606885832">
        <ele>7</ele>
        <time>2016-05-05T09:20:43Z</time>
      </trkpt>
      <trkpt lat="59.303971422714" lon="17.855930137875">
        <ele>7.4</ele>
        <time>2016-05-05T09:20:45Z</time>
      </trkpt>
      <trkpt lat="59.30389296813" lon="17.855860568105">
        <ele>8.4</ele>
        <time>2016-05-05T09:20:46Z</time>
      </trkpt>
      <trkpt lat="59.303814513546" lon="17.855790243964">
        <ele>8.8</ele>
        <time>2016-05-05T09:20:47Z</time>
      </trkpt>
      <trkpt lat="59.30373706479" lon="17.855729726646">
        <ele>9.4</ele>
        <time>2016-05-05T09:20:48Z</time>
      </trkpt>
      <trkpt lat="59.303584011296" lon="17.855586982889">
        <ele>9.4</ele>
        <time>2016-05-05T09:20:50Z</time>
      </trkpt>
      <trkpt lat="59.303125437547" lon="17.855192614494">
        <ele>9.4</ele>
        <time>2016-05-05T09:20:56Z</time>
      </trkpt>
      <trkpt lat="59.302780187086" lon="17.85486186472">
        <ele>9.4</ele>
        <time>2016-05-05T09:21:01Z</time>
      </trkpt>
      <trkpt lat="59.302765351123" lon="17.854727335225">
        <ele>9.4</ele>
        <time>2016-05-05T09:21:02Z</time>
      </trkpt>
      <trkpt lat="59.302781612009" lon="17.85448551741">
        <ele>9.4</ele>
        <time>2016-05-05T09:21:04Z</time>
      </trkpt>
      <trkpt lat="59.302673569318" lon="17.854226013786">
        <ele>9.4</ele>
        <time>2016-05-05T09:21:07Z</time>
      </trkpt>
      <trkpt lat="59.302490508622" lon="17.854101123476">
        <ele>9.4</ele>
        <time>2016-05-05T09:21:10Z</time>
      </trkpt>
      <trkpt lat="59.302414820065" lon="17.854062818193">
        <ele>8.4</ele>
        <time>2016-05-05T09:21:11Z</time>
      </trkpt>
      <trkpt lat="59.302329827599" lon="17.854026273109">
        <ele>8</ele>
        <time>2016-05-05T09:21:12Z</time>
      </trkpt>
      <trkpt lat="59.30224508659" lon="17.853996098269">
        <ele>7.6</ele>
        <time>2016-05-05T09:21:13Z</time>
      </trkpt>
      <trkpt lat="59.302159423572" lon="17.853945303955">
        <ele>7</ele>
        <time>2016-05-05T09:21:14Z</time>
      </trkpt>
      <trkpt lat="59.302075939848" lon="17.853873973986">
        <ele>6.6</ele>
        <time>2016-05-05T09:21:15Z</time>
      </trkpt>
      <trkpt lat="59.301991282658" lon="17.853796273773">
        <ele>6</ele>
        <time>2016-05-05T09:21:16Z</time>
      </trkpt>
      <trkpt lat="59.301904529993" lon="17.853724608528">
        <ele>5.2</ele>
        <time>2016-05-05T09:21:17Z</time>
      </trkpt>
      <trkpt lat="59.301817442052" lon="17.853648249419">
        <ele>4.6</ele>
        <time>2016-05-05T09:21:18Z</time>
      </trkpt>
      <trkpt lat="59.301729348283" lon="17.853577590002">
        <ele>4</ele>
        <time>2016-05-05T09:21:19Z</time>
      </trkpt>
      <trkpt lat="59.301637650297" lon="17.85350818787">
        <ele>3.2</ele>
        <time>2016-05-05T09:21:20Z</time>
      </trkpt>
      <trkpt lat="59.301536480764" lon="17.853432415494">
        <ele>2.8</ele>
        <time>2016-05-05T09:21:21Z</time>
      </trkpt>
      <trkpt lat="59.301441597656" lon="17.853356643118">
        <ele>2.2</ele>
        <time>2016-05-05T09:21:22Z</time>
      </trkpt>
      <trkpt lat="59.301343780883" lon="17.853283972045">
        <ele>1.6</ele>
        <time>2016-05-05T09:21:23Z</time>
      </trkpt>
      <trkpt lat="59.301250322698" lon="17.853210462782">
        <ele>1</ele>
        <time>2016-05-05T09:21:24Z</time>
      </trkpt>
      <trkpt lat="59.301149488441" lon="17.853151370387">
        <ele>0.6</ele>
        <time>2016-05-05T09:21:25Z</time>
      </trkpt>
      <trkpt lat="59.301049157098" lon="17.853115663493">
        <ele>0.6</ele>
        <time>2016-05-05T09:21:26Z</time>
      </trkpt>
      <trkpt lat="59.300948155203" lon="17.853096468942">
        <ele>0.6</ele>
        <time>2016-05-05T09:21:27Z</time>
      </trkpt>
      <trkpt lat="59.300758808082" lon="17.853012985218">
        <ele>0.6</ele>
        <time>2016-05-05T09:21:29Z</time>
      </trkpt>
      <trkpt lat="59.300596869774" lon="17.852864541769">
        <ele>0.6</ele>
        <time>2016-05-05T09:21:31Z</time>
      </trkpt>
      <trkpt lat="59.300521516493" lon="17.852773514335">
        <ele>0.6</ele>
        <time>2016-05-05T09:21:32Z</time>
      </trkpt>
      <trkpt lat="59.300319093608" lon="17.852453661031">
        <ele>0.6</ele>
        <time>2016-05-05T09:21:35Z</time>
      </trkpt>
      <trkpt lat="59.299960935021" lon="17.851986537744">
        <ele>0.6</ele>
        <time>2016-05-05T09:21:40Z</time>
      </trkpt>
      <trkpt lat="59.299816933979" lon="17.851832813698">
        <ele>0.6</ele>
        <time>2016-05-05T09:21:42Z</time>
      </trkpt>
      <trkpt lat="59.299678297353" lon="17.85188712841">
        <ele>0.6</ele>
        <time>2016-05-05T09:21:44Z</time>
      </trkpt>
      <trkpt lat="59.299594059258" lon="17.852154259563">
        <ele>0.6</ele>
        <time>2016-05-05T09:21:46Z</time>
      </trkpt>
      <trkpt lat="59.299484340187" lon="17.852553154184">
        <ele>0.6</ele>
        <time>2016-05-05T09:21:49Z</time>
      </trkpt>
      <trkpt lat="59.299454584442" lon="17.852702184366">
        <ele>0.6</ele>
        <time>2016-05-05T09:21:50Z</time>
      </trkpt>
      <trkpt lat="59.299392809839" lon="17.852974679935">
        <ele>1</ele>
        <time>2016-05-05T09:21:52Z</time>
      </trkpt>
      <trkpt lat="59.299346877027" lon="17.853075011278">
        <ele>1.4</ele>
        <time>2016-05-05T09:21:53Z</time>
      </trkpt>
      <trkpt lat="59.29929130503" lon="17.853172660413">
        <ele>1.8</ele>
        <time>2016-05-05T09:21:54Z</time>
      </trkpt>
      <trkpt lat="59.299234643386" lon="17.853270058091">
        <ele>2.2</ele>
        <time>2016-05-05T09:21:55Z</time>
      </trkpt>
      <trkpt lat="59.299177897923" lon="17.853381285904">
        <ele>2.6</ele>
        <time>2016-05-05T09:21:56Z</time>
      </trkpt>
      <trkpt lat="59.298993160847" lon="17.853736594645">
        <ele>2.6</ele>
        <time>2016-05-05T09:21:59Z</time>
      </trkpt>
      <trkpt lat="59.298790402686" lon="17.854013867897">
        <ele>2.6</ele>
        <time>2016-05-05T09:22:02Z</time>
      </trkpt>
      <trkpt lat="59.298710020265" lon="17.854073882301">
        <ele>2.6</ele>
        <time>2016-05-05T09:22:03Z</time>
      </trkpt>
      <trkpt lat="59.298469124459" lon="17.854083940581">
        <ele>2.6</ele>
        <time>2016-05-05T09:22:06Z</time>
      </trkpt>
      <trkpt lat="59.29824272934" lon="17.85391303364">
        <ele>2.6</ele>
        <time>2016-05-05T09:22:09Z</time>
      </trkpt>
      <trkpt lat="59.298075258978" lon="17.85363307818">
        <ele>2.6</ele>
        <time>2016-05-05T09:22:12Z</time>
      </trkpt>
      <trkpt lat="59.298034187668" lon="17.853519754892">
        <ele>3.2</ele>
        <time>2016-05-05T09:22:13Z</time>
      </trkpt>
      <trkpt lat="59.297997307308" lon="17.853397379152">
        <ele>3.6</ele>
        <time>2016-05-05T09:22:14Z</time>
      </trkpt>
      <trkpt lat="59.297962606242" lon="17.853278775267">
        <ele>4.2</ele>
        <time>2016-05-05T09:22:15Z</time>
      </trkpt>
      <trkpt lat="59.297932934316" lon="17.853159081735">
        <ele>4.6</ele>
        <time>2016-05-05T09:22:16Z</time>
      </trkpt>
      <trkpt lat="59.297903430028" lon="17.853037376547">
        <ele>5.2</ele>
        <time>2016-05-05T09:22:17Z</time>
      </trkpt>
      <trkpt lat="59.297868226048" lon="17.85290972021">
        <ele>5.6</ele>
        <time>2016-05-05T09:22:18Z</time>
      </trkpt>
      <trkpt lat="59.297837967389" lon="17.852783740253">
        <ele>6.2</ele>
        <time>2016-05-05T09:22:19Z</time>
      </trkpt>
      <trkpt lat="59.297815671535" lon="17.852660107228">
        <ele>6.6</ele>
        <time>2016-05-05T09:22:20Z</time>
      </trkpt>
      <trkpt lat="59.297791615482" lon="17.852531361244">
        <ele>7.2</ele>
        <time>2016-05-05T09:22:21Z</time>
      </trkpt>
      <trkpt lat="59.297769068171" lon="17.852405213649">
        <ele>7.6</ele>
        <time>2016-05-05T09:22:22Z</time>
      </trkpt>
      <trkpt lat="59.29774652086" lon="17.852280574796">
        <ele>8</ele>
        <time>2016-05-05T09:22:23Z</time>
      </trkpt>
      <trkpt lat="59.297724392644" lon="17.852150990622">
        <ele>8.8</ele>
        <time>2016-05-05T09:22:24Z</time>
      </trkpt>
      <trkpt lat="59.297703437894" lon="17.852032805832">
        <ele>9.2</ele>
        <time>2016-05-05T09:22:25Z</time>
      </trkpt>
      <trkpt lat="59.297682986058" lon="17.851908166979">
        <ele>9.6</ele>
        <time>2016-05-05T09:22:26Z</time>
      </trkpt>
      <trkpt lat="59.297652392123" lon="17.851775481502">
        <ele>10</ele>
        <time>2016-05-05T09:22:27Z</time>
      </trkpt>
      <trkpt lat="59.297626492052" lon="17.851641035826">
        <ele>10.4</ele>
        <time>2016-05-05T09:22:28Z</time>
      </trkpt>
      <trkpt lat="59.297600424343" lon="17.851495861318">
        <ele>10.8</ele>
        <time>2016-05-05T09:22:29Z</time>
      </trkpt>
      <trkpt lat="59.297579637231" lon="17.851357224692">
        <ele>11.2</ele>
        <time>2016-05-05T09:22:30Z</time>
      </trkpt>
      <trkpt lat="59.297458099681" lon="17.850671501453">
        <ele>11.2</ele>
        <time>2016-05-05T09:22:35Z</time>
      </trkpt>
      <trkpt lat="59.29727545808" lon="17.849705152202">
        <ele>11.2</ele>
        <time>2016-05-05T09:22:42Z</time>
      </trkpt>
      <trkpt lat="59.297101198379" lon="17.849169297335">
        <ele>11.2</ele>
        <time>2016-05-05T09:22:46Z</time>
      </trkpt>
      <trkpt lat="59.296922412452" lon="17.848580385041">
        <ele>10.8</ele>
        <time>2016-05-05T09:22:50Z</time>
      </trkpt>
      <trkpt lat="59.296876731097" lon="17.848422972959">
        <ele>10.4</ele>
        <time>2016-05-05T09:22:51Z</time>
      </trkpt>
      <trkpt lat="59.296828032258" lon="17.848274110415">
        <ele>9.8</ele>
        <time>2016-05-05T09:22:52Z</time>
      </trkpt>
      <trkpt lat="59.2967792496" lon="17.848122314206">
        <ele>9.4</ele>
        <time>2016-05-05T09:22:53Z</time>
      </trkpt>
      <trkpt lat="59.296732646236" lon="17.847965572676">
        <ele>9</ele>
        <time>2016-05-05T09:22:54Z</time>
      </trkpt>
      <trkpt lat="59.296641115888" lon="17.847652676349">
        <ele>8.4</ele>
        <time>2016-05-05T09:22:56Z</time>
      </trkpt>
      <trkpt lat="59.296602223872" lon="17.847480595942">
        <ele>8</ele>
        <time>2016-05-05T09:22:57Z</time>
      </trkpt>
      <trkpt lat="59.29659987694" lon="17.84727456884">
        <ele>7.6</ele>
        <time>2016-05-05T09:22:58Z</time>
      </trkpt>
      <trkpt lat="59.296646899399" lon="17.847097543112">
        <ele>7</ele>
        <time>2016-05-05T09:22:59Z</time>
      </trkpt>
      <trkpt lat="59.296719151377" lon="17.846975502648">
        <ele>6.6</ele>
        <time>2016-05-05T09:23:00Z</time>
      </trkpt>
      <trkpt lat="59.296775226288" lon="17.846839045316">
        <ele>6</ele>
        <time>2016-05-05T09:23:01Z</time>
      </trkpt>
      <trkpt lat="59.296830295371" lon="17.846700073414">
        <ele>5.6</ele>
        <time>2016-05-05T09:23:02Z</time>
      </trkpt>
      <trkpt lat="59.296863320057" lon="17.84654450535">
        <ele>5</ele>
        <time>2016-05-05T09:23:03Z</time>
      </trkpt>
      <trkpt lat="59.296866086084" lon="17.846378124635">
        <ele>4.6</ele>
        <time>2016-05-05T09:23:04Z</time>
      </trkpt>
      <trkpt lat="59.296801377816" lon="17.845934554487">
        <ele>4.6</ele>
        <time>2016-05-05T09:23:07Z</time>
      </trkpt>
      <trkpt lat="59.296790313708" lon="17.845788374151">
        <ele>5</ele>
        <time>2016-05-05T09:23:08Z</time>
      </trkpt>
      <trkpt lat="59.296780842161" lon="17.845650827172">
        <ele>5.4</ele>
        <time>2016-05-05T09:23:09Z</time>
      </trkpt>
      <trkpt lat="59.296768185492" lon="17.845519734256">
        <ele>5.8</ele>
        <time>2016-05-05T09:23:10Z</time>
      </trkpt>
      <trkpt lat="59.296757037565" lon="17.845384282752">
        <ele>6.6</ele>
        <time>2016-05-05T09:23:11Z</time>
      </trkpt>
      <trkpt lat="59.296743961801" lon="17.845247406325">
        <ele>7.2</ele>
        <time>2016-05-05T09:23:12Z</time>
      </trkpt>
      <trkpt lat="59.296730383123" lon="17.845114469391">
        <ele>8.8</ele>
        <time>2016-05-05T09:23:13Z</time>
      </trkpt>
      <trkpt lat="59.2967205763" lon="17.844971809453">
        <ele>9.4</ele>
        <time>2016-05-05T09:23:14Z</time>
      </trkpt>
      <trkpt lat="59.296679588809" lon="17.844366971549">
        <ele>9.4</ele>
        <time>2016-05-05T09:23:18Z</time>
      </trkpt>
      <trkpt lat="59.296586382081" lon="17.843201133078">
        <ele>9.4</ele>
        <time>2016-05-05T09:23:25Z</time>
      </trkpt>
      <trkpt lat="59.296492169525" lon="17.842221288968">
        <ele>9.4</ele>
        <time>2016-05-05T09:23:31Z</time>
      </trkpt>
      <trkpt lat="59.296396783503" lon="17.841193416571">
        <ele>9.4</ele>
        <time>2016-05-05T09:23:37Z</time>
      </trkpt>
      <trkpt lat="59.296377588952" lon="17.841010020599">
        <ele>9</ele>
        <time>2016-05-05T09:23:38Z</time>
      </trkpt>
      <trkpt lat="59.296358059125" lon="17.840832827233">
        <ele>8.6</ele>
        <time>2016-05-05T09:23:39Z</time>
      </trkpt>
      <trkpt lat="59.296329644484" lon="17.840653035478">
        <ele>8</ele>
        <time>2016-05-05T09:23:40Z</time>
      </trkpt>
      <trkpt lat="59.296299385825" lon="17.840469890963">
        <ele>7.4</ele>
        <time>2016-05-05T09:23:41Z</time>
      </trkpt>
      <trkpt lat="59.296269965356" lon="17.840278699824">
        <ele>6.6</ele>
        <time>2016-05-05T09:23:42Z</time>
      </trkpt>
      <trkpt lat="59.296235515747" lon="17.84009798606">
        <ele>6</ele>
        <time>2016-05-05T09:23:43Z</time>
      </trkpt>
      <trkpt lat="59.29620257488" lon="17.839920960332">
        <ele>5.4</ele>
        <time>2016-05-05T09:23:44Z</time>
      </trkpt>
      <trkpt lat="59.295962265807" lon="17.839089475852">
        <ele>5.4</ele>
        <time>2016-05-05T09:23:49Z</time>
      </trkpt>
      <trkpt lat="59.295892863675" lon="17.838965004637">
        <ele>5.4</ele>
        <time>2016-05-05T09:23:50Z</time>
      </trkpt>
      <trkpt lat="59.295674263723" lon="17.838611456095">
        <ele>5.4</ele>
        <time>2016-05-05T09:23:53Z</time>
      </trkpt>
      <trkpt lat="59.295261790424" lon="17.837896731482">
        <ele>5.4</ele>
        <time>2016-05-05T09:23:59Z</time>
      </trkpt>
      <trkpt lat="59.295039418617" lon="17.837335144182">
        <ele>5.4</ele>
        <time>2016-05-05T09:24:03Z</time>
      </trkpt>
      <trkpt lat="59.294914444488" lon="17.836689234968">
        <ele>5.4</ele>
        <time>2016-05-05T09:24:07Z</time>
      </trkpt>
      <trkpt lat="59.29491260047" lon="17.835974845631">
        <ele>5.4</ele>
        <time>2016-05-05T09:24:11Z</time>
      </trkpt>
      <trkpt lat="59.294940176921" lon="17.834839433457">
        <ele>5.4</ele>
        <time>2016-05-05T09:24:17Z</time>
      </trkpt>
      <trkpt lat="59.294929699546" lon="17.834113141822">
        <ele>5.4</ele>
        <time>2016-05-05T09:24:21Z</time>
      </trkpt>
      <trkpt lat="59.294811682394" lon="17.833081665208">
        <ele>5.4</ele>
        <time>2016-05-05T09:24:27Z</time>
      </trkpt>
      <trkpt lat="59.294662484574" lon="17.832109364808">
        <ele>5.4</ele>
        <time>2016-05-05T09:24:33Z</time>
      </trkpt>
      <trkpt lat="59.29453457678" lon="17.830307759222">
        <ele>5.4</ele>
        <time>2016-05-05T09:24:44Z</time>
      </trkpt>
      <trkpt lat="59.294471293435" lon="17.829858908477">
        <ele>5.4</ele>
        <time>2016-05-05T09:24:47Z</time>
      </trkpt>
      <trkpt lat="59.294402645674" lon="17.829566380167">
        <ele>5.4</ele>
        <time>2016-05-05T09:24:49Z</time>
      </trkpt>
      <trkpt lat="59.294358305423" lon="17.829430425749">
        <ele>5.4</ele>
        <time>2016-05-05T09:24:50Z</time>
      </trkpt>
      <trkpt lat="59.294327376212" lon="17.82928784963">
        <ele>6.2</ele>
        <time>2016-05-05T09:24:51Z</time>
      </trkpt>
      <trkpt lat="59.2942898253" lon="17.82915206285">
        <ele>6.6</ele>
        <time>2016-05-05T09:24:52Z</time>
      </trkpt>
      <trkpt lat="59.294254202225" lon="17.82900789417">
        <ele>7</ele>
        <time>2016-05-05T09:24:53Z</time>
      </trkpt>
      <trkpt lat="59.29421019725" lon="17.828867581164">
        <ele>7.4</ele>
        <time>2016-05-05T09:24:54Z</time>
      </trkpt>
      <trkpt lat="59.29403501554" lon="17.828304820398">
        <ele>7.4</ele>
        <time>2016-05-05T09:24:58Z</time>
      </trkpt>
      <trkpt lat="59.293829156076" lon="17.8275804566">
        <ele>7.4</ele>
        <time>2016-05-05T09:25:03Z</time>
      </trkpt>
      <trkpt lat="59.293640898602" lon="17.82661821448">
        <ele>7.4</ele>
        <time>2016-05-05T09:25:09Z</time>
      </trkpt>
      <trkpt lat="59.29359999493" lon="17.826307916542">
        <ele>7</ele>
        <time>2016-05-05T09:25:11Z</time>
      </trkpt>
      <trkpt lat="59.293594546695" lon="17.826132399556">
        <ele>6.6</ele>
        <time>2016-05-05T09:25:12Z</time>
      </trkpt>
      <trkpt lat="59.293595636342" lon="17.825956295837">
        <ele>6</ele>
        <time>2016-05-05T09:25:13Z</time>
      </trkpt>
      <trkpt lat="59.293588176451" lon="17.825763763594">
        <ele>5.6</ele>
        <time>2016-05-05T09:25:14Z</time>
      </trkpt>
      <trkpt lat="59.293594379057" lon="17.825595455042">
        <ele>5</ele>
        <time>2016-05-05T09:25:15Z</time>
      </trkpt>
      <trkpt lat="59.293584320777" lon="17.825240062482">
        <ele>5</ele>
        <time>2016-05-05T09:25:17Z</time>
      </trkpt>
      <trkpt lat="59.293550206444" lon="17.824500359807">
        <ele>4.6</ele>
        <time>2016-05-05T09:25:21Z</time>
      </trkpt>
      <trkpt lat="59.293546183132" lon="17.824315287455">
        <ele>4.2</ele>
        <time>2016-05-05T09:25:22Z</time>
      </trkpt>
      <trkpt lat="59.29353964525" lon="17.824133903139">
        <ele>3.8</ele>
        <time>2016-05-05T09:25:23Z</time>
      </trkpt>
      <trkpt lat="59.293529084056" lon="17.823960816904">
        <ele>3.4</ele>
        <time>2016-05-05T09:25:24Z</time>
      </trkpt>
      <trkpt lat="59.293517600853" lon="17.823795442017">
        <ele>2.8</ele>
        <time>2016-05-05T09:25:25Z</time>
      </trkpt>
      <trkpt lat="59.293482564511" lon="17.823426806055">
        <ele>2.8</ele>
        <time>2016-05-05T09:25:27Z</time>
      </trkpt>
      <trkpt lat="59.293344933713" lon="17.822347887887">
        <ele>2.8</ele>
        <time>2016-05-05T09:25:33Z</time>
      </trkpt>
      <trkpt lat="59.293217612652" lon="17.821279279456">
        <ele>2.8</ele>
        <time>2016-05-05T09:25:39Z</time>
      </trkpt>
      <trkpt lat="59.293199256291" lon="17.820918690118">
        <ele>2.8</ele>
        <time>2016-05-05T09:25:41Z</time>
      </trkpt>
      <trkpt lat="59.293225072543" lon="17.820132803174">
        <ele>2.8</ele>
        <time>2016-05-05T09:25:44Z</time>
      </trkpt>
      <trkpt lat="59.293225072543" lon="17.820132803174">
        <ele>2.8</ele>
        <time>2016-05-05T09:25:45Z</time>
      </trkpt>
      <trkpt lat="59.293255666478" lon="17.819738183322">
        <ele>2.4</ele>
        <time>2016-05-05T09:25:47Z</time>
      </trkpt>
      <trkpt lat="59.29326555712" lon="17.819548836201">
        <ele>2</ele>
        <time>2016-05-05T09:25:48Z</time>
      </trkpt>
      <trkpt lat="59.293277710875" lon="17.819363177116">
        <ele>1.6</ele>
        <time>2016-05-05T09:25:49Z</time>
      </trkpt>
      <trkpt lat="59.293290283725" lon="17.819183636818">
        <ele>1.2</ele>
        <time>2016-05-05T09:25:50Z</time>
      </trkpt>
      <trkpt lat="59.293303191851" lon="17.819000408484">
        <ele>0.6</ele>
        <time>2016-05-05T09:25:51Z</time>
      </trkpt>
      <trkpt lat="59.293359685857" lon="17.817946468378">
        <ele>0.6</ele>
        <time>2016-05-05T09:25:57Z</time>
      </trkpt>
      <trkpt lat="59.293367397205" lon="17.817782099319">
        <ele>0.6</ele>
        <time>2016-05-05T09:25:58Z</time>
      </trkpt>
      <trkpt lat="59.29341894589" lon="17.81697400034">
        <ele>1.2</ele>
        <time>2016-05-05T09:26:03Z</time>
      </trkpt>
      <trkpt lat="59.293432776025" lon="17.816807535806">
        <ele>2</ele>
        <time>2016-05-05T09:26:04Z</time>
      </trkpt>
      <trkpt lat="59.29344409159" lon="17.816643334385">
        <ele>2.6</ele>
        <time>2016-05-05T09:26:05Z</time>
      </trkpt>
      <trkpt lat="59.2934516353" lon="17.816480390249">
        <ele>3</ele>
        <time>2016-05-05T09:26:06Z</time>
      </trkpt>
      <trkpt lat="59.293526066572" lon="17.815669609062">
        <ele>3</ele>
        <time>2016-05-05T09:26:11Z</time>
      </trkpt>
      <trkpt lat="59.293628409571" lon="17.814895121502">
        <ele>3.4</ele>
        <time>2016-05-05T09:26:16Z</time>
      </trkpt>
      <trkpt lat="59.29364693357" lon="17.814740810723">
        <ele>3.8</ele>
        <time>2016-05-05T09:26:17Z</time>
      </trkpt>
      <trkpt lat="59.293666463397" lon="17.814590020342">
        <ele>4.4</ele>
        <time>2016-05-05T09:26:18Z</time>
      </trkpt>
      <trkpt lat="59.293683311016" lon="17.814424729274">
        <ele>4.8</ele>
        <time>2016-05-05T09:26:19Z</time>
      </trkpt>
      <trkpt lat="59.293698314617" lon="17.814272178694">
        <ele>5.2</ele>
        <time>2016-05-05T09:26:20Z</time>
      </trkpt>
      <trkpt lat="59.2937701475" lon="17.813369699521">
        <ele>5.2</ele>
        <time>2016-05-05T09:26:26Z</time>
      </trkpt>
      <trkpt lat="59.293811134991" lon="17.812824289288">
        <ele>5.6</ele>
        <time>2016-05-05T09:26:30Z</time>
      </trkpt>
      <trkpt lat="59.293819684529" lon="17.812694872752">
        <ele>6</ele>
        <time>2016-05-05T09:26:31Z</time>
      </trkpt>
      <trkpt lat="59.293831000094" lon="17.812572748469">
        <ele>6.4</ele>
        <time>2016-05-05T09:26:32Z</time>
      </trkpt>
      <trkpt lat="59.293839549632" lon="17.81245196529">
        <ele>6.8</ele>
        <time>2016-05-05T09:26:33Z</time>
      </trkpt>
      <trkpt lat="59.293848350627" lon="17.812337217079">
        <ele>7.4</ele>
        <time>2016-05-05T09:26:34Z</time>
      </trkpt>
      <trkpt lat="59.293901408054" lon="17.812045191683">
        <ele>7.4</ele>
        <time>2016-05-05T09:26:38Z</time>
      </trkpt>
      <trkpt lat="59.293952789101" lon="17.811898927528">
        <ele>7.4</ele>
        <time>2016-05-05T09:26:42Z</time>
      </trkpt>
      <trkpt lat="59.293868048092" lon="17.811671275124">
        <ele>7.4</ele>
        <time>2016-05-05T09:26:46Z</time>
      </trkpt>
      <trkpt lat="59.293704517223" lon="17.811586701753">
        <ele>7.4</ele>
        <time>2016-05-05T09:26:49Z</time>
      </trkpt>
      <trkpt lat="59.293643496991" lon="17.811575972921">
        <ele>7.4</ele>
        <time>2016-05-05T09:26:50Z</time>
      </trkpt>
      <trkpt lat="59.293531766264" lon="17.811496931604">
        <ele>7.4</ele>
        <time>2016-05-05T09:26:52Z</time>
      </trkpt>
      <trkpt lat="59.293480469036" lon="17.811415208079">
        <ele>7.4</ele>
        <time>2016-05-05T09:26:53Z</time>
      </trkpt>
      <trkpt lat="59.293097500025" lon="17.810950599362">
        <ele>7.4</ele>
        <time>2016-05-05T09:26:59Z</time>
      </trkpt>
      <trkpt lat="59.292598441699" lon="17.810395382306">
        <ele>7.4</ele>
        <time>2016-05-05T09:27:06Z</time>
      </trkpt>
      <trkpt lat="59.29210801673" lon="17.809871932651">
        <ele>7.4</ele>
        <time>2016-05-05T09:27:13Z</time>
      </trkpt>
      <trkpt lat="59.29172161114" lon="17.809400786052">
        <ele>7.4</ele>
        <time>2016-05-05T09:27:19Z</time>
      </trkpt>
      <trkpt lat="59.291409217727" lon="17.809045812587">
        <ele>7.4</ele>
        <time>2016-05-05T09:27:24Z</time>
      </trkpt>
      <trkpt lat="59.29134861659" lon="17.808988731848">
        <ele>7.4</ele>
        <time>2016-05-05T09:27:25Z</time>
      </trkpt>
      <trkpt lat="59.291110486811" lon="17.808718834668">
        <ele>7.4</ele>
        <time>2016-05-05T09:27:30Z</time>
      </trkpt>
      <trkpt lat="59.291035804082" lon="17.808615737298">
        <ele>7.4</ele>
        <time>2016-05-05T09:27:34Z</time>
      </trkpt>
      <trkpt lat="59.291020465205" lon="17.808558237464">
        <ele>7.4</ele>
        <time>2016-05-05T09:27:36Z</time>
      </trkpt>
      <trkpt lat="59.290989284537" lon="17.80851833962">
        <ele>7.8</ele>
        <time>2016-05-05T09:27:39Z</time>
      </trkpt>
      <trkpt lat="59.290981154094" lon="17.808509538625">
        <ele>8.2</ele>
        <time>2016-05-05T09:27:40Z</time>
      </trkpt>
      <trkpt lat="59.290974029479" lon="17.808501240544">
        <ele>8.6</ele>
        <time>2016-05-05T09:27:41Z</time>
      </trkpt>
      <trkpt lat="59.290965396122" lon="17.808492523368">
        <ele>9</ele>
        <time>2016-05-05T09:27:42Z</time>
      </trkpt>
      <trkpt lat="59.290959780249" lon="17.808478190319">
        <ele>9.4</ele>
        <time>2016-05-05T09:27:43Z</time>
      </trkpt>
      <trkpt lat="59.290922145518" lon="17.808427312186">
        <ele>9.4</ele>
        <time>2016-05-05T09:27:47Z</time>
      </trkpt>
      <trkpt lat="59.290916613464" lon="17.808420439028">
        <ele>9.4</ele>
        <time>2016-05-05T09:27:53Z</time>
      </trkpt>
      <trkpt lat="59.290889120832" lon="17.808387079066">
        <ele>9.4</ele>
        <time>2016-05-05T09:28:04Z</time>
      </trkpt>
      <trkpt lat="59.290840589631" lon="17.80832974687">
        <ele>9.4</ele>
        <time>2016-05-05T09:28:06Z</time>
      </trkpt>
      <trkpt lat="59.290721063737" lon="17.808263362222">
        <ele>9.4</ele>
        <time>2016-05-05T09:28:09Z</time>
      </trkpt>
      <trkpt lat="59.290676974943" lon="17.808292531234">
        <ele>9.4</ele>
        <time>2016-05-05T09:28:10Z</time>
      </trkpt>
      <trkpt lat="59.290587372432" lon="17.808550861392">
        <ele>9.4</ele>
        <time>2016-05-05T09:28:13Z</time>
      </trkpt>
      <trkpt lat="59.29056658532" lon="17.808655132228">
        <ele>9.4</ele>
        <time>2016-05-05T09:28:14Z</time>
      </trkpt>
      <trkpt lat="59.290447227064" lon="17.809050338813">
        <ele>9.4</ele>
        <time>2016-05-05T09:28:18Z</time>
      </trkpt>
      <trkpt lat="59.290347314816" lon="17.809358122181">
        <ele>9.4</ele>
        <time>2016-05-05T09:28:21Z</time>
      </trkpt>
      <trkpt lat="59.290293083923" lon="17.809555264469">
        <ele>9.4</ele>
        <time>2016-05-05T09:28:23Z</time>
      </trkpt>
      <trkpt lat="59.290129469235" lon="17.810109140421">
        <ele>9.4</ele>
        <time>2016-05-05T09:28:29Z</time>
      </trkpt>
      <trkpt lat="59.289856973666" lon="17.810792600547">
        <ele>9.4</ele>
        <time>2016-05-05T09:28:36Z</time>
      </trkpt>
      <trkpt lat="59.289556734008" lon="17.811366173964">
        <ele>9.4</ele>
        <time>2016-05-05T09:28:42Z</time>
      </trkpt>
      <trkpt lat="59.289285411905" lon="17.811825502084">
        <ele>9.4</ele>
        <time>2016-05-05T09:28:48Z</time>
      </trkpt>
      <trkpt lat="59.28919865924" lon="17.811901190641">
        <ele>9.4</ele>
        <time>2016-05-05T09:28:51Z</time>
      </trkpt>
      <trkpt lat="59.289154905722" lon="17.811932538947">
        <ele>9.4</ele>
        <time>2016-05-05T09:28:54Z</time>
      </trkpt>
      <trkpt lat="59.289138393379" lon="17.811921558658">
        <ele>9.4</ele>
        <time>2016-05-05T09:28:55Z</time>
      </trkpt>
      <trkpt lat="59.28911064929" lon="17.812142170266">
        <ele>9.4</ele>
        <time>2016-05-05T09:31:36Z</time>
      </trkpt>
      <trkpt lat="59.289106625978" lon="17.812183995947">
        <ele>9.4</ele>
        <time>2016-05-05T09:31:37Z</time>
      </trkpt>
      <trkpt lat="59.289100255734" lon="17.812232443329">
        <ele>9.4</ele>
        <time>2016-05-05T09:31:38Z</time>
      </trkpt>
      <trkpt lat="59.289059352062" lon="17.812356663087">
        <ele>9.4</ele>
        <time>2016-05-05T09:31:40Z</time>
      </trkpt>
      <trkpt lat="59.289026495014" lon="17.812421036079">
        <ele>9.4</ele>
        <time>2016-05-05T09:31:41Z</time>
      </trkpt>
      <trkpt lat="59.288861623041" lon="17.812782715064">
        <ele>9.4</ele>
        <time>2016-05-05T09:31:46Z</time>
      </trkpt>
      <trkpt lat="59.288667582056" lon="17.813242127003">
        <ele>9.4</ele>
        <time>2016-05-05T09:31:51Z</time>
      </trkpt>
      <trkpt lat="59.288466416456" lon="17.81376792359">
        <ele>9.4</ele>
        <time>2016-05-05T09:31:56Z</time>
      </trkpt>
      <trkpt lat="59.288296431524" lon="17.814202776562">
        <ele>9.4</ele>
        <time>2016-05-05T09:32:00Z</time>
      </trkpt>
      <trkpt lat="59.288038436642" lon="17.814894534769">
        <ele>9.4</ele>
        <time>2016-05-05T09:32:06Z</time>
      </trkpt>
      <trkpt lat="59.287953611814" lon="17.815141800819">
        <ele>9.8</ele>
        <time>2016-05-05T09:32:08Z</time>
      </trkpt>
      <trkpt lat="59.287910025934" lon="17.815266104396">
        <ele>10.2</ele>
        <time>2016-05-05T09:32:09Z</time>
      </trkpt>
      <trkpt lat="59.287865350407" lon="17.815388899231">
        <ele>10.6</ele>
        <time>2016-05-05T09:32:10Z</time>
      </trkpt>
      <trkpt lat="59.287822854174" lon="17.815522758174">
        <ele>11</ele>
        <time>2016-05-05T09:32:11Z</time>
      </trkpt>
      <trkpt lat="59.287784548891" lon="17.815656533298">
        <ele>11.6</ele>
        <time>2016-05-05T09:32:12Z</time>
      </trkpt>
      <trkpt lat="59.287540384144" lon="17.816454825454">
        <ele>11.6</ele>
        <time>2016-05-05T09:32:18Z</time>
      </trkpt>
      <trkpt lat="59.287245592721" lon="17.817252698515">
        <ele>11.6</ele>
        <time>2016-05-05T09:32:24Z</time>
      </trkpt>
      <trkpt lat="59.286920123544" lon="17.81798653386">
        <ele>11.6</ele>
        <time>2016-05-05T09:32:30Z</time>
      </trkpt>
      <trkpt lat="59.286550984668" lon="17.818644932105">
        <ele>11.6</ele>
        <time>2016-05-05T09:32:36Z</time>
      </trkpt>
      <trkpt lat="59.286087800874" lon="17.819400141295">
        <ele>11.6</ele>
        <time>2016-05-05T09:32:43Z</time>
      </trkpt>
      <trkpt lat="59.285677255412" lon="17.820098437384">
        <ele>11.6</ele>
        <time>2016-05-05T09:32:49Z</time>
      </trkpt>
      <trkpt lat="59.28523402054" lon="17.820833278557">
        <ele>11.6</ele>
        <time>2016-05-05T09:32:55Z</time>
      </trkpt>
      <trkpt lat="59.285159505449" lon="17.820958923238">
        <ele>11.6</ele>
        <time>2016-05-05T09:32:56Z</time>
      </trkpt>
      <trkpt lat="59.284709900333" lon="17.821731985875">
        <ele>11.6</ele>
        <time>2016-05-05T09:33:02Z</time>
      </trkpt>
      <trkpt lat="59.284317375956" lon="17.822433634724">
        <ele>11</ele>
        <time>2016-05-05T09:33:07Z</time>
      </trkpt>
      <trkpt lat="59.284255098439" lon="17.822593477557">
        <ele>10.6</ele>
        <time>2016-05-05T09:33:08Z</time>
      </trkpt>
      <trkpt lat="59.284215535871" lon="17.822777292624">
        <ele>10.2</ele>
        <time>2016-05-05T09:33:09Z</time>
      </trkpt>
      <trkpt lat="59.284202124831" lon="17.822978961138">
        <ele>9.6</ele>
        <time>2016-05-05T09:33:10Z</time>
      </trkpt>
      <trkpt lat="59.284211847835" lon="17.823185323516">
        <ele>9.2</ele>
        <time>2016-05-05T09:33:11Z</time>
      </trkpt>
      <trkpt lat="59.28424579453" lon="17.823394284283">
        <ele>9.2</ele>
        <time>2016-05-05T09:33:12Z</time>
      </trkpt>
      <trkpt lat="59.284335983774" lon="17.82377423581">
        <ele>9.2</ele>
        <time>2016-05-05T09:33:14Z</time>
      </trkpt>
      <trkpt lat="59.284472022011" lon="17.824313527256">
        <ele>9.2</ele>
        <time>2016-05-05T09:33:17Z</time>
      </trkpt>
      <trkpt lat="59.284746110141" lon="17.825390433768">
        <ele>9.2</ele>
        <time>2016-05-05T09:33:23Z</time>
      </trkpt>
      <trkpt lat="59.284840322697" lon="17.825734678401">
        <ele>9.2</ele>
        <time>2016-05-05T09:33:25Z</time>
      </trkpt>
      <trkpt lat="59.285170485738" lon="17.826768166671">
        <ele>9.2</ele>
        <time>2016-05-05T09:33:31Z</time>
      </trkpt>
      <trkpt lat="59.28522731502" lon="17.82693253573">
        <ele>8.8</ele>
        <time>2016-05-05T09:33:32Z</time>
      </trkpt>
      <trkpt lat="59.28528431194" lon="17.827094809314">
        <ele>8.4</ele>
        <time>2016-05-05T09:33:33Z</time>
      </trkpt>
      <trkpt lat="59.285339129566" lon="17.827252389034">
        <ele>8</ele>
        <time>2016-05-05T09:33:34Z</time>
      </trkpt>
      <trkpt lat="59.28539411483" lon="17.82740192213">
        <ele>7.6</ele>
        <time>2016-05-05T09:33:35Z</time>
      </trkpt>
      <trkpt lat="59.28544608261" lon="17.827534607607">
        <ele>7</ele>
        <time>2016-05-05T09:33:36Z</time>
      </trkpt>
      <trkpt lat="59.285494865268" lon="17.827673328052">
        <ele>6.6</ele>
        <time>2016-05-05T09:33:37Z</time>
      </trkpt>
      <trkpt lat="59.28552571066" lon="17.827832416514">
        <ele>6.2</ele>
        <time>2016-05-05T09:33:38Z</time>
      </trkpt>
      <trkpt lat="59.2855223579" lon="17.828014303744">
        <ele>5.8</ele>
        <time>2016-05-05T09:33:39Z</time>
      </trkpt>
      <trkpt lat="59.28548296297" lon="17.828193927861">
        <ele>5.4</ele>
        <time>2016-05-05T09:33:40Z</time>
      </trkpt>
      <trkpt lat="59.285418925254" lon="17.828340946387">
        <ele>4.8</ele>
        <time>2016-05-05T09:33:41Z</time>
      </trkpt>
      <trkpt lat="59.285338961928" lon="17.828457119521">
        <ele>4.4</ele>
        <time>2016-05-05T09:33:42Z</time>
      </trkpt>
      <trkpt lat="59.285250449064" lon="17.828569939895">
        <ele>3.8</ele>
        <time>2016-05-05T09:33:43Z</time>
      </trkpt>
      <trkpt lat="59.285165121322" lon="17.82868435283">
        <ele>3.4</ele>
        <time>2016-05-05T09:33:44Z</time>
      </trkpt>
      <trkpt lat="59.285080547951" lon="17.828803962543">
        <ele>2.8</ele>
        <time>2016-05-05T09:33:45Z</time>
      </trkpt>
      <trkpt lat="59.284746361598" lon="17.829321628687">
        <ele>2.8</ele>
        <time>2016-05-05T09:33:49Z</time>
      </trkpt>
      <trkpt lat="59.284211680197" lon="17.830026965572">
        <ele>2.8</ele>
        <time>2016-05-05T09:33:55Z</time>
      </trkpt>
      <trkpt lat="59.283763583823" lon="17.830627444888">
        <ele>2.8</ele>
        <time>2016-05-05T09:34:00Z</time>
      </trkpt>
      <trkpt lat="59.283592173968" lon="17.830854594378">
        <ele>2.8</ele>
        <time>2016-05-05T09:34:02Z</time>
      </trkpt>
      <trkpt lat="59.283162936869" lon="17.8314948039">
        <ele>2.8</ele>
        <time>2016-05-05T09:34:07Z</time>
      </trkpt>
      <trkpt lat="59.28309244509" lon="17.83165322181">
        <ele>2.8</ele>
        <time>2016-05-05T09:34:08Z</time>
      </trkpt>
      <trkpt lat="59.282916173733" lon="17.832178515483">
        <ele>2.8</ele>
        <time>2016-05-05T09:34:11Z</time>
      </trkpt>
      <trkpt lat="59.282613503324" lon="17.833097926094">
        <ele>2.8</ele>
        <time>2016-05-05T09:34:16Z</time>
      </trkpt>
      <trkpt lat="59.282546112848" lon="17.833282914627">
        <ele>2.8</ele>
        <time>2016-05-05T09:34:17Z</time>
      </trkpt>
      <trkpt lat="59.282472435947" lon="17.833446613134">
        <ele>2.8</ele>
        <time>2016-05-05T09:34:18Z</time>
      </trkpt>
      <trkpt lat="59.282304630309" lon="17.833735704865">
        <ele>2.8</ele>
        <time>2016-05-05T09:34:20Z</time>
      </trkpt>
      <trkpt lat="59.282209998658" lon="17.83386101427">
        <ele>2.4</ele>
        <time>2016-05-05T09:34:21Z</time>
      </trkpt>
      <trkpt lat="59.282112265704" lon="17.833972242083">
        <ele>2</ele>
        <time>2016-05-05T09:34:22Z</time>
      </trkpt>
      <trkpt lat="59.282011766723" lon="17.834062347508">
        <ele>1.6</ele>
        <time>2016-05-05T09:34:23Z</time>
      </trkpt>
      <trkpt lat="59.281911016285" lon="17.834139209531">
        <ele>1.2</ele>
        <time>2016-05-05T09:34:24Z</time>
      </trkpt>
      <trkpt lat="59.281810265847" lon="17.834206600007">
        <ele>0.6</ele>
        <time>2016-05-05T09:34:25Z</time>
      </trkpt>
      <trkpt lat="59.281202661916" lon="17.834609937035">
        <ele>0.6</ele>
        <time>2016-05-05T09:34:31Z</time>
      </trkpt>
      <trkpt lat="59.281101492383" lon="17.834688726895">
        <ele>0.6</ele>
        <time>2016-05-05T09:34:32Z</time>
      </trkpt>
      <trkpt lat="59.280745010176" lon="17.835092650656">
        <ele>0.6</ele>
        <time>2016-05-05T09:34:36Z</time>
      </trkpt>
      <trkpt lat="59.280585334981" lon="17.835347879511">
        <ele>0.6</ele>
        <time>2016-05-05T09:34:38Z</time>
      </trkpt>
      <trkpt lat="59.280457427187" lon="17.835663793322">
        <ele>0.6</ele>
        <time>2016-05-05T09:34:40Z</time>
      </trkpt>
      <trkpt lat="59.280353659265" lon="17.836013067095">
        <ele>0.6</ele>
        <time>2016-05-05T09:34:42Z</time>
      </trkpt>
      <trkpt lat="59.280225583833" lon="17.836518495665">
        <ele>0.6</ele>
        <time>2016-05-05T09:34:45Z</time>
      </trkpt>
      <trkpt lat="59.280142603023" lon="17.836848239611">
        <ele>1.2</ele>
        <time>2016-05-05T09:34:47Z</time>
      </trkpt>
      <trkpt lat="59.28010094498" lon="17.837003137123">
        <ele>1.6</ele>
        <time>2016-05-05T09:34:48Z</time>
      </trkpt>
      <trkpt lat="59.280056017996" lon="17.837153340771">
        <ele>2</ele>
        <time>2016-05-05T09:34:49Z</time>
      </trkpt>
      <trkpt lat="59.280009414632" lon="17.837299102012">
        <ele>2.6</ele>
        <time>2016-05-05T09:34:50Z</time>
      </trkpt>
      <trkpt lat="59.2799651582" lon="17.837439666475">
        <ele>3.2</ele>
        <time>2016-05-05T09:34:51Z</time>
      </trkpt>
      <trkpt lat="59.279916626999" lon="17.837578806015">
        <ele>3.8</ele>
        <time>2016-05-05T09:34:52Z</time>
      </trkpt>
      <trkpt lat="59.279862815201" lon="17.837715933899">
        <ele>4.6</ele>
        <time>2016-05-05T09:34:53Z</time>
      </trkpt>
      <trkpt lat="59.279810428326" lon="17.837854235249">
        <ele>5.4</ele>
        <time>2016-05-05T09:34:54Z</time>
      </trkpt>
      <trkpt lat="59.279757957632" lon="17.837987172183">
        <ele>6</ele>
        <time>2016-05-05T09:34:55Z</time>
      </trkpt>
      <trkpt lat="59.279700876893" lon="17.838109045009">
        <ele>6.8</ele>
        <time>2016-05-05T09:34:56Z</time>
      </trkpt>
      <trkpt lat="59.279640527213" lon="17.838229828188">
        <ele>7.4</ele>
        <time>2016-05-05T09:34:57Z</time>
      </trkpt>
      <trkpt lat="59.279574896936" lon="17.838329991893">
        <ele>8</ele>
        <time>2016-05-05T09:34:58Z</time>
      </trkpt>
      <trkpt lat="59.279504321338" lon="17.838418923852">
        <ele>8.6</ele>
        <time>2016-05-05T09:34:59Z</time>
      </trkpt>
      <trkpt lat="59.279431650265" lon="17.838505257422">
        <ele>9</ele>
        <time>2016-05-05T09:35:00Z</time>
      </trkpt>
      <trkpt lat="59.279354788242" lon="17.838584131101">
        <ele>9.6</ele>
        <time>2016-05-05T09:35:01Z</time>
      </trkpt>
      <trkpt lat="59.279106767821" lon="17.838766688883">
        <ele>9.6</ele>
        <time>2016-05-05T09:35:04Z</time>
      </trkpt>
      <trkpt lat="59.279019260785" lon="17.838805413261">
        <ele>10</ele>
        <time>2016-05-05T09:35:05Z</time>
      </trkpt>
      <trkpt lat="59.278927395161" lon="17.83883818649">
        <ele>10.6</ele>
        <time>2016-05-05T09:35:06Z</time>
      </trkpt>
      <trkpt lat="59.278831506225" lon="17.838871127357">
        <ele>11</ele>
        <time>2016-05-05T09:35:07Z</time>
      </trkpt>
      <trkpt lat="59.278734611461" lon="17.838901469835">
        <ele>11.4</ele>
        <time>2016-05-05T09:35:08Z</time>
      </trkpt>
      <trkpt lat="59.278636207955" lon="17.838931644675">
        <ele>11.8</ele>
        <time>2016-05-05T09:35:09Z</time>
      </trkpt>
      <trkpt lat="59.278016031174" lon="17.839174803594">
        <ele>11.8</ele>
        <time>2016-05-05T09:35:15Z</time>
      </trkpt>
      <trkpt lat="59.277910000139" lon="17.83923632674">
        <ele>11.4</ele>
        <time>2016-05-05T09:35:16Z</time>
      </trkpt>
      <trkpt lat="59.27781268628" lon="17.839316625342">
        <ele>10.8</ele>
        <time>2016-05-05T09:35:17Z</time>
      </trkpt>
      <trkpt lat="59.277719898647" lon="17.839413855382">
        <ele>10.4</ele>
        <time>2016-05-05T09:35:18Z</time>
      </trkpt>
      <trkpt lat="59.277632559249" lon="17.839524915557">
        <ele>9.8</ele>
        <time>2016-05-05T09:35:19Z</time>
      </trkpt>
      <trkpt lat="59.277548404973" lon="17.839658103948">
        <ele>9.4</ele>
        <time>2016-05-05T09:35:20Z</time>
      </trkpt>
      <trkpt lat="59.277461987584" lon="17.839811744175">
        <ele>9</ele>
        <time>2016-05-05T09:35:21Z</time>
      </trkpt>
      <trkpt lat="59.277377749489" lon="17.839982818754">
        <ele>8.6</ele>
        <time>2016-05-05T09:35:22Z</time>
      </trkpt>
      <trkpt lat="59.277301977113" lon="17.840168980753">
        <ele>8.2</ele>
        <time>2016-05-05T09:35:23Z</time>
      </trkpt>
      <trkpt lat="59.27723182061" lon="17.840364781937">
        <ele>7.8</ele>
        <time>2016-05-05T09:35:24Z</time>
      </trkpt>
      <trkpt lat="59.277164597772" lon="17.840559912569">
        <ele>7.2</ele>
        <time>2016-05-05T09:35:25Z</time>
      </trkpt>
      <trkpt lat="59.277099805685" lon="17.840753199183">
        <ele>7.2</ele>
        <time>2016-05-05T09:35:26Z</time>
      </trkpt>
      <trkpt lat="59.276846085572" lon="17.841477898257">
        <ele>6.4</ele>
        <time>2016-05-05T09:35:30Z</time>
      </trkpt>
      <trkpt lat="59.276777940725" lon="17.841650733035">
        <ele>5.8</ele>
        <time>2016-05-05T09:35:31Z</time>
      </trkpt>
      <trkpt lat="59.276703677091" lon="17.841818287216">
        <ele>5.4</ele>
        <time>2016-05-05T09:35:32Z</time>
      </trkpt>
      <trkpt lat="59.27662497105" lon="17.841981315171">
        <ele>5</ele>
        <time>2016-05-05T09:35:33Z</time>
      </trkpt>
      <trkpt lat="59.276368987824" lon="17.842489258311">
        <ele>5</ele>
        <time>2016-05-05T09:35:36Z</time>
      </trkpt>
      <trkpt lat="59.276188106422" lon="17.842824199035">
        <ele>4.6</ele>
        <time>2016-05-05T09:35:38Z</time>
      </trkpt>
      <trkpt lat="59.276096408436" lon="17.842989993017">
        <ele>4</ele>
        <time>2016-05-05T09:35:39Z</time>
      </trkpt>
      <trkpt lat="59.276004878088" lon="17.843153020972">
        <ele>3.6</ele>
        <time>2016-05-05T09:35:40Z</time>
      </trkpt>
      <trkpt lat="59.275917790147" lon="17.8433216648">
        <ele>3.2</ele>
        <time>2016-05-05T09:35:41Z</time>
      </trkpt>
      <trkpt lat="59.275830199292" lon="17.84350522841">
        <ele>2.8</ele>
        <time>2016-05-05T09:35:42Z</time>
      </trkpt>
      <trkpt lat="59.275749649233" lon="17.843673956057">
        <ele>2.4</ele>
        <time>2016-05-05T09:35:43Z</time>
      </trkpt>
      <trkpt lat="59.275672871029" lon="17.843840169134">
        <ele>2</ele>
        <time>2016-05-05T09:35:44Z</time>
      </trkpt>
      <trkpt lat="59.275596260463" lon="17.844003448546">
        <ele>1.4</ele>
        <time>2016-05-05T09:35:45Z</time>
      </trkpt>
      <trkpt lat="59.275521242458" lon="17.844164213388">
        <ele>1</ele>
        <time>2016-05-05T09:35:46Z</time>
      </trkpt>
      <trkpt lat="59.275448906661" lon="17.844323469488">
        <ele>0.6</ele>
        <time>2016-05-05T09:35:47Z</time>
      </trkpt>
      <trkpt lat="59.275307001094" lon="17.844618680006">
        <ele>0.6</ele>
        <time>2016-05-05T09:35:49Z</time>
      </trkpt>
      <trkpt lat="59.275141290931" lon="17.844839291614">
        <ele>0.6</ele>
        <time>2016-05-05T09:35:51Z</time>
      </trkpt>
      <trkpt lat="59.274966612135" lon="17.84503492516">
        <ele>1</ele>
        <time>2016-05-05T09:35:53Z</time>
      </trkpt>
      <trkpt lat="59.274872818674" lon="17.845119833807">
        <ele>1.6</ele>
        <time>2016-05-05T09:35:54Z</time>
      </trkpt>
      <trkpt lat="59.274771481503" lon="17.845192001966">
        <ele>2.4</ele>
        <time>2016-05-05T09:35:55Z</time>
      </trkpt>
      <trkpt lat="59.274672575083" lon="17.845242544823">
        <ele>3</ele>
        <time>2016-05-05T09:35:56Z</time>
      </trkpt>
      <trkpt lat="59.274258844499" lon="17.845296691897">
        <ele>3</ele>
        <time>2016-05-05T09:36:00Z</time>
      </trkpt>
      <trkpt lat="59.273985678378" lon="17.84517825565">
        <ele>3</ele>
        <time>2016-05-05T09:36:03Z</time>
      </trkpt>
      <trkpt lat="59.273902278473" lon="17.845121342549">
        <ele>3</ele>
        <time>2016-05-05T09:36:04Z</time>
      </trkpt>
      <trkpt lat="59.273825919364" lon="17.845058645937">
        <ele>3.4</ele>
        <time>2016-05-05T09:36:05Z</time>
      </trkpt>
      <trkpt lat="59.273751739549" lon="17.844999050628">
        <ele>3.8</ele>
        <time>2016-05-05T09:36:06Z</time>
      </trkpt>
      <trkpt lat="59.273679403752" lon="17.844945741744">
        <ele>4.4</ele>
        <time>2016-05-05T09:36:07Z</time>
      </trkpt>
      <trkpt lat="59.273610504534" lon="17.844896707629">
        <ele>4.8</ele>
        <time>2016-05-05T09:36:08Z</time>
      </trkpt>
      <trkpt lat="59.273549400483" lon="17.844830742076">
        <ele>5.2</ele>
        <time>2016-05-05T09:36:09Z</time>
      </trkpt>
      <trkpt lat="59.273473125193" lon="17.844631085218">
        <ele>5.2</ele>
        <time>2016-05-05T09:36:11Z</time>
      </trkpt>
      <trkpt lat="59.273485530405" lon="17.844240404859">
        <ele>5.2</ele>
        <time>2016-05-05T09:36:14Z</time>
      </trkpt>
      <trkpt lat="59.273491733011" lon="17.844110569228">
        <ele>5.2</ele>
        <time>2016-05-05T09:36:15Z</time>
      </trkpt>
      <trkpt lat="59.273495085771" lon="17.843984002538">
        <ele>5.6</ele>
        <time>2016-05-05T09:36:16Z</time>
      </trkpt>
      <trkpt lat="59.27349265502" lon="17.843859028409">
        <ele>6.2</ele>
        <time>2016-05-05T09:36:17Z</time>
      </trkpt>
      <trkpt lat="59.2734859495" lon="17.843744280198">
        <ele>6.6</ele>
        <time>2016-05-05T09:36:18Z</time>
      </trkpt>
      <trkpt lat="59.273477819057" lon="17.84363347148">
        <ele>7</ele>
        <time>2016-05-05T09:36:19Z</time>
      </trkpt>
      <trkpt lat="59.273464827112" lon="17.843508832627">
        <ele>7.8</ele>
        <time>2016-05-05T09:36:20Z</time>
      </trkpt>
      <trkpt lat="59.273450829339" lon="17.84338536724">
        <ele>8.4</ele>
        <time>2016-05-05T09:36:21Z</time>
      </trkpt>
      <trkpt lat="59.273435909557" lon="17.843258716731">
        <ele>8.8</ele>
        <time>2016-05-05T09:36:22Z</time>
      </trkpt>
      <trkpt lat="59.273422079422" lon="17.843135251344">
        <ele>9.2</ele>
        <time>2016-05-05T09:36:23Z</time>
      </trkpt>
      <trkpt lat="59.273406656726" lon="17.843008014102">
        <ele>9.6</ele>
        <time>2016-05-05T09:36:24Z</time>
      </trkpt>
      <trkpt lat="59.273376314248" lon="17.842740212397">
        <ele>9.6</ele>
        <time>2016-05-05T09:36:26Z</time>
      </trkpt>
      <trkpt lat="59.273368351443" lon="17.842475176719">
        <ele>9.6</ele>
        <time>2016-05-05T09:36:28Z</time>
      </trkpt>
      <trkpt lat="59.273369524909" lon="17.842341401595">
        <ele>9.6</ele>
        <time>2016-05-05T09:36:29Z</time>
      </trkpt>
      <trkpt lat="59.273411099133" lon="17.841738575347">
        <ele>10</ele>
        <time>2016-05-05T09:36:34Z</time>
      </trkpt>
      <trkpt lat="59.273422079422" lon="17.841632292855">
        <ele>10.6</ele>
        <time>2016-05-05T09:36:35Z</time>
      </trkpt>
      <trkpt lat="59.273431886245" lon="17.841526345639">
        <ele>11</ele>
        <time>2016-05-05T09:36:36Z</time>
      </trkpt>
      <trkpt lat="59.273447644217" lon="17.841423751183">
        <ele>11.6</ele>
        <time>2016-05-05T09:36:37Z</time>
      </trkpt>
      <trkpt lat="59.273465916759" lon="17.841323252202">
        <ele>12</ele>
        <time>2016-05-05T09:36:38Z</time>
      </trkpt>
      <trkpt lat="59.273484859853" lon="17.841224345782">
        <ele>12.6</ele>
        <time>2016-05-05T09:36:39Z</time>
      </trkpt>
      <trkpt lat="59.273499695816" lon="17.841123846801">
        <ele>13</ele>
        <time>2016-05-05T09:36:40Z</time>
      </trkpt>
      <trkpt lat="59.273514364141" lon="17.841028209322">
        <ele>13.6</ele>
        <time>2016-05-05T09:36:41Z</time>
      </trkpt>
      <trkpt lat="59.27352953538" lon="17.840928380893">
        <ele>14</ele>
        <time>2016-05-05T09:36:42Z</time>
      </trkpt>
      <trkpt lat="59.273543030239" lon="17.840831067034">
        <ele>14.6</ele>
        <time>2016-05-05T09:36:43Z</time>
      </trkpt>
      <trkpt lat="59.273567002473" lon="17.840650772365">
        <ele>15.4</ele>
        <time>2016-05-05T09:36:45Z</time>
      </trkpt>
      <trkpt lat="59.273574127088" lon="17.84056318151">
        <ele>15.8</ele>
        <time>2016-05-05T09:36:46Z</time>
      </trkpt>
      <trkpt lat="59.273579575323" lon="17.840466873479">
        <ele>16.2</ele>
        <time>2016-05-05T09:36:47Z</time>
      </trkpt>
      <trkpt lat="59.273584772101" lon="17.840363524652">
        <ele>16.6</ele>
        <time>2016-05-05T09:36:48Z</time>
      </trkpt>
      <trkpt lat="59.273584520644" lon="17.84025137483">
        <ele>17.2</ele>
        <time>2016-05-05T09:36:49Z</time>
      </trkpt>
      <trkpt lat="59.273579659142" lon="17.840139392646">
        <ele>17.6</ele>
        <time>2016-05-05T09:36:50Z</time>
      </trkpt>
      <trkpt lat="59.273575049097" lon="17.840029673575">
        <ele>18</ele>
        <time>2016-05-05T09:36:51Z</time>
      </trkpt>
      <trkpt lat="59.273563230618" lon="17.839922049979">
        <ele>18.4</ele>
        <time>2016-05-05T09:36:52Z</time>
      </trkpt>
      <trkpt lat="59.273546131542" lon="17.839810989804">
        <ele>18.8</ele>
        <time>2016-05-05T09:36:53Z</time>
      </trkpt>
      <trkpt lat="59.273447895674" lon="17.839374544271">
        <ele>18.8</ele>
        <time>2016-05-05T09:36:57Z</time>
      </trkpt>
      <trkpt lat="59.273409087477" lon="17.839268764693">
        <ele>18.8</ele>
        <time>2016-05-05T09:36:58Z</time>
      </trkpt>
      <trkpt lat="59.273278413656" lon="17.839000040979">
        <ele>18.8</ele>
        <time>2016-05-05T09:37:01Z</time>
      </trkpt>
      <trkpt lat="59.273234241043" lon="17.838913372133">
        <ele>18.8</ele>
        <time>2016-05-05T09:37:02Z</time>
      </trkpt>
      <trkpt lat="59.273184284919" lon="17.838828463486">
        <ele>18.8</ele>
        <time>2016-05-05T09:37:03Z</time>
      </trkpt>
      <trkpt lat="59.273129802569" lon="17.838742716649">
        <ele>19.4</ele>
        <time>2016-05-05T09:37:04Z</time>
      </trkpt>
      <trkpt lat="59.273079762626" lon="17.838663675332">
        <ele>19.8</ele>
        <time>2016-05-05T09:37:05Z</time>
      </trkpt>
      <trkpt lat="59.273030393235" lon="17.838584801653">
        <ele>20.2</ele>
        <time>2016-05-05T09:37:06Z</time>
      </trkpt>
      <trkpt lat="59.27298219731" lon="17.838498635721">
        <ele>20.6</ele>
        <time>2016-05-05T09:37:07Z</time>
      </trkpt>
      <trkpt lat="59.27293861143" lon="17.838411044866">
        <ele>21</ele>
        <time>2016-05-05T09:37:08Z</time>
      </trkpt>
      <trkpt lat="59.272857055543" lon="17.838236617527">
        <ele>21</ele>
        <time>2016-05-05T09:37:10Z</time>
      </trkpt>
      <trkpt lat="59.272825371961" lon="17.838138633116">
        <ele>21.4</ele>
        <time>2016-05-05T09:37:11Z</time>
      </trkpt>
      <trkpt lat="59.272793436922" lon="17.838030422787">
        <ele>21.8</ele>
        <time>2016-05-05T09:37:12Z</time>
      </trkpt>
      <trkpt lat="59.272764603186" lon="17.837921374268">
        <ele>22.4</ele>
        <time>2016-05-05T09:37:13Z</time>
      </trkpt>
      <trkpt lat="59.272738619296" lon="17.837810481731">
        <ele>22.8</ele>
        <time>2016-05-05T09:37:14Z</time>
      </trkpt>
      <trkpt lat="59.272713054501" lon="17.837699337737">
        <ele>23.4</ele>
        <time>2016-05-05T09:37:15Z</time>
      </trkpt>
      <trkpt lat="59.272667959879" lon="17.837474786636">
        <ele>23.4</ele>
        <time>2016-05-05T09:37:17Z</time>
      </trkpt>
      <trkpt lat="59.272646334577" lon="17.837366576307">
        <ele>23.8</ele>
        <time>2016-05-05T09:37:18Z</time>
      </trkpt>
      <trkpt lat="59.272623535809" lon="17.837257779245">
        <ele>24.2</ele>
        <time>2016-05-05T09:37:19Z</time>
      </trkpt>
      <trkpt lat="59.272600401765" lon="17.837144455957">
        <ele>24.6</ele>
        <time>2016-05-05T09:37:20Z</time>
      </trkpt>
      <trkpt lat="59.272576094255" lon="17.837037586732">
        <ele>25</ele>
        <time>2016-05-05T09:37:21Z</time>
      </trkpt>
      <trkpt lat="59.272552457297" lon="17.836933651172">
        <ele>25.4</ele>
        <time>2016-05-05T09:37:22Z</time>
      </trkpt>
      <trkpt lat="59.272504093734" lon="17.836727456432">
        <ele>25.8</ele>
        <time>2016-05-05T09:37:24Z</time>
      </trkpt>
      <trkpt lat="59.272484396269" lon="17.836627711822">
        <ele>26.2</ele>
        <time>2016-05-05T09:37:25Z</time>
      </trkpt>
      <trkpt lat="59.272462770967" lon="17.836529475954">
        <ele>26.6</ele>
        <time>2016-05-05T09:37:26Z</time>
      </trkpt>
      <trkpt lat="59.272439636923" lon="17.836431240086">
        <ele>27</ele>
        <time>2016-05-05T09:37:27Z</time>
      </trkpt>
      <trkpt lat="59.272416586698" lon="17.836334932055">
        <ele>27.4</ele>
        <time>2016-05-05T09:37:28Z</time>
      </trkpt>
      <trkpt lat="59.272369396601" lon="17.836143992373">
        <ele>27.8</ele>
        <time>2016-05-05T09:37:30Z</time>
      </trkpt>
      <trkpt lat="59.272345089091" lon="17.836048354894">
        <ele>28.4</ele>
        <time>2016-05-05T09:37:31Z</time>
      </trkpt>
      <trkpt lat="59.272324553436" lon="17.835948777922">
        <ele>28.8</ele>
        <time>2016-05-05T09:37:32Z</time>
      </trkpt>
      <trkpt lat="59.272307202903" lon="17.835847776027">
        <ele>29.2</ele>
        <time>2016-05-05T09:37:33Z</time>
      </trkpt>
      <trkpt lat="59.272287086343" lon="17.835738727508">
        <ele>29.6</ele>
        <time>2016-05-05T09:37:34Z</time>
      </trkpt>
      <trkpt lat="59.272234280373" lon="17.835409235019">
        <ele>30</ele>
        <time>2016-05-05T09:37:37Z</time>
      </trkpt>
      <trkpt lat="59.272218522401" lon="17.835295073541">
        <ele>30.4</ele>
        <time>2016-05-05T09:37:38Z</time>
      </trkpt>
      <trkpt lat="59.2722035188" lon="17.835179151864">
        <ele>30.8</ele>
        <time>2016-05-05T09:37:39Z</time>
      </trkpt>
      <trkpt lat="59.272188766656" lon="17.835058620142">
        <ele>31.2</ele>
        <time>2016-05-05T09:37:40Z</time>
      </trkpt>
      <trkpt lat="59.272175607073" lon="17.834931466719">
        <ele>31.6</ele>
        <time>2016-05-05T09:37:41Z</time>
      </trkpt>
      <trkpt lat="59.272157334531" lon="17.834647739404">
        <ele>31.6</ele>
        <time>2016-05-05T09:37:43Z</time>
      </trkpt>
      <trkpt lat="59.27214652188" lon="17.834499463593">
        <ele>31.6</ele>
        <time>2016-05-05T09:37:44Z</time>
      </trkpt>
      <trkpt lat="59.272139397265" lon="17.834013229574">
        <ele>31.6</ele>
        <time>2016-05-05T09:37:47Z</time>
      </trkpt>
      <trkpt lat="59.272143504396" lon="17.833839305149">
        <ele>31.6</ele>
        <time>2016-05-05T09:37:48Z</time>
      </trkpt>
      <trkpt lat="59.272148784993" lon="17.833310574897">
        <ele>31.2</ele>
        <time>2016-05-05T09:37:51Z</time>
      </trkpt>
      <trkpt lat="59.272149204088" lon="17.833146373476">
        <ele>30.8</ele>
        <time>2016-05-05T09:37:52Z</time>
      </trkpt>
      <trkpt lat="59.272154652323" lon="17.832982255874">
        <ele>30.4</ele>
        <time>2016-05-05T09:37:53Z</time>
      </trkpt>
      <trkpt lat="59.272164459146" lon="17.832819647014">
        <ele>30</ele>
        <time>2016-05-05T09:37:54Z</time>
      </trkpt>
      <trkpt lat="59.272176948177" lon="17.83265904981">
        <ele>29.6</ele>
        <time>2016-05-05T09:37:55Z</time>
      </trkpt>
      <trkpt lat="59.272212487433" lon="17.832354870659">
        <ele>29.6</ele>
        <time>2016-05-05T09:37:57Z</time>
      </trkpt>
      <trkpt lat="59.272262611195" lon="17.832072652086">
        <ele>29.6</ele>
        <time>2016-05-05T09:37:59Z</time>
      </trkpt>
      <trkpt lat="59.272309214559" lon="17.83179739049">
        <ele>29.6</ele>
        <time>2016-05-05T09:38:01Z</time>
      </trkpt>
      <trkpt lat="59.272322877056" lon="17.831656155475">
        <ele>30</ele>
        <time>2016-05-05T09:38:02Z</time>
      </trkpt>
      <trkpt lat="59.272332180965" lon="17.831507795845">
        <ele>30.4</ele>
        <time>2016-05-05T09:38:03Z</time>
      </trkpt>
      <trkpt lat="59.272337042467" lon="17.831354574713">
        <ele>31</ele>
        <time>2016-05-05T09:38:04Z</time>
      </trkpt>
      <trkpt lat="59.272335282268" lon="17.831206634178">
        <ele>31.4</ele>
        <time>2016-05-05T09:38:05Z</time>
      </trkpt>
      <trkpt lat="59.272327822377" lon="17.831057939272">
        <ele>31.8</ele>
        <time>2016-05-05T09:38:06Z</time>
      </trkpt>
      <trkpt lat="59.272312399681" lon="17.830912345669">
        <ele>31.8</ele>
        <time>2016-05-05T09:38:07Z</time>
      </trkpt>
      <trkpt lat="59.272288846542" lon="17.830621912834">
        <ele>31.8</ele>
        <time>2016-05-05T09:38:09Z</time>
      </trkpt>
      <trkpt lat="59.272227574853" lon="17.830007771021">
        <ele>31.8</ele>
        <time>2016-05-05T09:38:13Z</time>
      </trkpt>
      <trkpt lat="59.272208464121" lon="17.829710213571">
        <ele>32.2</ele>
        <time>2016-05-05T09:38:15Z</time>
      </trkpt>
      <trkpt lat="59.272197064737" lon="17.829548945815">
        <ele>32.6</ele>
        <time>2016-05-05T09:38:16Z</time>
      </trkpt>
      <trkpt lat="59.272185749172" lon="17.829380553444">
        <ele>33</ele>
        <time>2016-05-05T09:38:17Z</time>
      </trkpt>
      <trkpt lat="59.272176445263" lon="17.829212496349">
        <ele>33.4</ele>
        <time>2016-05-05T09:38:18Z</time>
      </trkpt>
      <trkpt lat="59.272164375327" lon="17.829036224992">
        <ele>34</ele>
        <time>2016-05-05T09:38:19Z</time>
      </trkpt>
      <trkpt lat="59.272140906007" lon="17.828687957047">
        <ele>34</ele>
        <time>2016-05-05T09:38:21Z</time>
      </trkpt>
      <trkpt lat="59.272133697573" lon="17.828512775337">
        <ele>33.4</ele>
        <time>2016-05-05T09:38:22Z</time>
      </trkpt>
      <trkpt lat="59.272137385609" lon="17.828334240867">
        <ele>33</ele>
        <time>2016-05-05T09:38:23Z</time>
      </trkpt>
      <trkpt lat="59.272151048106" lon="17.828156544587">
        <ele>32.2</ele>
        <time>2016-05-05T09:38:24Z</time>
      </trkpt>
      <trkpt lat="59.272173092503" lon="17.827981865791">
        <ele>31.8</ele>
        <time>2016-05-05T09:38:25Z</time>
      </trkpt>
      <trkpt lat="59.272200752773" lon="17.82780592971">
        <ele>31.8</ele>
        <time>2016-05-05T09:38:26Z</time>
      </trkpt>
      <trkpt lat="59.272235705296" lon="17.827626892326">
        <ele>31.8</ele>
        <time>2016-05-05T09:38:27Z</time>
      </trkpt>
      <trkpt lat="59.272271076914" lon="17.827458499955">
        <ele>31.4</ele>
        <time>2016-05-05T09:38:28Z</time>
      </trkpt>
      <trkpt lat="59.272305861799" lon="17.827285665177">
        <ele>31</ele>
        <time>2016-05-05T09:38:29Z</time>
      </trkpt>
      <trkpt lat="59.272338970304" lon="17.82711442296">
        <ele>30.6</ele>
        <time>2016-05-05T09:38:30Z</time>
      </trkpt>
      <trkpt lat="59.272370402429" lon="17.826949550987">
        <ele>30.2</ele>
        <time>2016-05-05T09:38:31Z</time>
      </trkpt>
      <trkpt lat="59.27240216983" lon="17.82678669067">
        <ele>29.8</ele>
        <time>2016-05-05T09:38:32Z</time>
      </trkpt>
      <trkpt lat="59.272461597501" lon="17.826456946724">
        <ele>29.8</ele>
        <time>2016-05-05T09:38:34Z</time>
      </trkpt>
      <trkpt lat="59.272558156989" lon="17.825762841585">
        <ele>29.8</ele>
        <time>2016-05-05T09:38:38Z</time>
      </trkpt>
      <trkpt lat="59.272561593568" lon="17.825583468925">
        <ele>29.8</ele>
        <time>2016-05-05T09:38:39Z</time>
      </trkpt>
      <trkpt lat="59.272522282457" lon="17.824838904748">
        <ele>29.8</ele>
        <time>2016-05-05T09:38:43Z</time>
      </trkpt>
      <trkpt lat="59.272385070754" lon="17.824130718017">
        <ele>29.2</ele>
        <time>2016-05-05T09:38:47Z</time>
      </trkpt>
      <trkpt lat="59.272348274213" lon="17.823946148579">
        <ele>28.8</ele>
        <time>2016-05-05T09:38:48Z</time>
      </trkpt>
      <trkpt lat="59.272311729129" lon="17.823763758435">
        <ele>27.8</ele>
        <time>2016-05-05T09:38:49Z</time>
      </trkpt>
      <trkpt lat="59.272272082742" lon="17.82357139383">
        <ele>27.4</ele>
        <time>2016-05-05T09:38:50Z</time>
      </trkpt>
      <trkpt lat="59.272152808305" lon="17.822811490776">
        <ele>27.4</ele>
        <time>2016-05-05T09:38:54Z</time>
      </trkpt>
      <trkpt lat="59.272127830243" lon="17.822084277132">
        <ele>27.4</ele>
        <time>2016-05-05T09:38:58Z</time>
      </trkpt>
      <trkpt lat="59.27216412387" lon="17.821562000943">
        <ele>27.8</ele>
        <time>2016-05-05T09:39:01Z</time>
      </trkpt>
      <trkpt lat="59.272176529082" lon="17.821376760953">
        <ele>28.2</ele>
        <time>2016-05-05T09:39:02Z</time>
      </trkpt>
      <trkpt lat="59.272187677009" lon="17.821181630321">
        <ele>28.6</ele>
        <time>2016-05-05T09:39:03Z</time>
      </trkpt>
      <trkpt lat="59.272194717805" lon="17.820984488033">
        <ele>29</ele>
        <time>2016-05-05T09:39:04Z</time>
      </trkpt>
      <trkpt lat="59.27219597509" lon="17.820774186162">
        <ele>29.6</ele>
        <time>2016-05-05T09:39:05Z</time>
      </trkpt>
      <trkpt lat="59.272195723633" lon="17.820370094763">
        <ele>29.2</ele>
        <time>2016-05-05T09:39:07Z</time>
      </trkpt>
      <trkpt lat="59.272189604846" lon="17.820173287751">
        <ele>28.8</ele>
        <time>2016-05-05T09:39:08Z</time>
      </trkpt>
      <trkpt lat="59.272183150783" lon="17.819983772992">
        <ele>28.2</ele>
        <time>2016-05-05T09:39:09Z</time>
      </trkpt>
      <trkpt lat="59.272173679236" lon="17.819790151102">
        <ele>27.8</ele>
        <time>2016-05-05T09:39:10Z</time>
      </trkpt>
      <trkpt lat="59.27216328568" lon="17.81959418228">
        <ele>27.4</ele>
        <time>2016-05-05T09:39:11Z</time>
      </trkpt>
      <trkpt lat="59.272146018966" lon="17.819201825541">
        <ele>27</ele>
        <time>2016-05-05T09:39:13Z</time>
      </trkpt>
      <trkpt lat="59.272143588215" lon="17.819001079036">
        <ele>26.6</ele>
        <time>2016-05-05T09:39:14Z</time>
      </trkpt>
      <trkpt lat="59.272141911835" lon="17.818799410522">
        <ele>26.2</ele>
        <time>2016-05-05T09:39:15Z</time>
      </trkpt>
      <trkpt lat="59.272142498568" lon="17.818597825827">
        <ele>25.8</ele>
        <time>2016-05-05T09:39:16Z</time>
      </trkpt>
      <trkpt lat="59.272147192432" lon="17.818393726562">
        <ele>25.4</ele>
        <time>2016-05-05T09:39:17Z</time>
      </trkpt>
      <trkpt lat="59.272182983145" lon="17.817762401854">
        <ele>25.4</ele>
        <time>2016-05-05T09:39:20Z</time>
      </trkpt>
      <trkpt lat="59.272251882363" lon="17.817113056061">
        <ele>25</ele>
        <time>2016-05-05T09:39:23Z</time>
      </trkpt>
      <trkpt lat="59.272283398307" lon="17.816896719222">
        <ele>24.4</ele>
        <time>2016-05-05T09:39:24Z</time>
      </trkpt>
      <trkpt lat="59.2723208654" lon="17.81668147203">
        <ele>24</ele>
        <time>2016-05-05T09:39:25Z</time>
      </trkpt>
      <trkpt lat="59.272362523443" lon="17.816474690557">
        <ele>23.6</ele>
        <time>2016-05-05T09:39:26Z</time>
      </trkpt>
      <trkpt lat="59.272406025504" lon="17.816262544668">
        <ele>23</ele>
        <time>2016-05-05T09:39:27Z</time>
      </trkpt>
      <trkpt lat="59.272508703779" lon="17.815661562438">
        <ele>23</ele>
        <time>2016-05-05T09:39:30Z</time>
      </trkpt>
      <trkpt lat="59.272525216122" lon="17.815461318847">
        <ele>23</ele>
        <time>2016-05-05T09:39:31Z</time>
      </trkpt>
      <trkpt lat="59.272511050711" lon="17.815059322923">
        <ele>23</ele>
        <time>2016-05-05T09:39:33Z</time>
      </trkpt>
      <trkpt lat="59.272472996885" lon="17.814877603331">
        <ele>22.6</ele>
        <time>2016-05-05T09:39:34Z</time>
      </trkpt>
      <trkpt lat="59.272405774047" lon="17.814710803521">
        <ele>22.2</ele>
        <time>2016-05-05T09:39:35Z</time>
      </trkpt>
      <trkpt lat="59.272318853744" lon="17.814586499944">
        <ele>21.8</ele>
        <time>2016-05-05T09:39:36Z</time>
      </trkpt>
      <trkpt lat="59.272218522401" lon="17.814486420058">
        <ele>21.4</ele>
        <time>2016-05-05T09:39:37Z</time>
      </trkpt>
      <trkpt lat="59.272112742823" lon="17.814404025981">
        <ele>20.2</ele>
        <time>2016-05-05T09:39:38Z</time>
      </trkpt>
      <trkpt lat="59.272007969073" lon="17.814328169786">
        <ele>19.8</ele>
        <time>2016-05-05T09:39:39Z</time>
      </trkpt>
      <trkpt lat="59.271900261658" lon="17.814261952776">
        <ele>19.2</ele>
        <time>2016-05-05T09:39:40Z</time>
      </trkpt>
      <trkpt lat="59.271795487908" lon="17.814201938372">
        <ele>18.6</ele>
        <time>2016-05-05T09:39:41Z</time>
      </trkpt>
      <trkpt lat="59.271685182104" lon="17.814139828493">
        <ele>18.2</ele>
        <time>2016-05-05T09:39:42Z</time>
      </trkpt>
      <trkpt lat="59.271575295395" lon="17.814069420533">
        <ele>17.8</ele>
        <time>2016-05-05T09:39:43Z</time>
      </trkpt>
      <trkpt lat="59.271462642659" lon="17.813994653985">
        <ele>17.4</ele>
        <time>2016-05-05T09:39:44Z</time>
      </trkpt>
      <trkpt lat="59.271352169217" lon="17.813908320415">
        <ele>17</ele>
        <time>2016-05-05T09:39:45Z</time>
      </trkpt>
      <trkpt lat="59.271247563105" lon="17.813808240529">
        <ele>16.4</ele>
        <time>2016-05-05T09:39:46Z</time>
      </trkpt>
      <trkpt lat="59.271150416884" lon="17.813691061567">
        <ele>15.8</ele>
        <time>2016-05-05T09:39:47Z</time>
      </trkpt>
      <trkpt lat="59.271062071658" lon="17.813551838208">
        <ele>15.4</ele>
        <time>2016-05-05T09:39:48Z</time>
      </trkpt>
      <trkpt lat="59.270983281798" lon="17.813398365619">
        <ele>14.8</ele>
        <time>2016-05-05T09:39:49Z</time>
      </trkpt>
      <trkpt lat="59.270904659576" lon="17.813225530841">
        <ele>14.4</ele>
        <time>2016-05-05T09:39:50Z</time>
      </trkpt>
      <trkpt lat="59.270629649437" lon="17.81253326972">
        <ele>14.4</ele>
        <time>2016-05-05T09:39:54Z</time>
      </trkpt>
      <trkpt lat="59.270579190399" lon="17.812334702509">
        <ele>14.4</ele>
        <time>2016-05-05T09:39:55Z</time>
      </trkpt>
      <trkpt lat="59.270543399686" lon="17.812124987371">
        <ele>13.8</ele>
        <time>2016-05-05T09:39:56Z</time>
      </trkpt>
      <trkpt lat="59.270520098004" lon="17.811910326912">
        <ele>13.4</ele>
        <time>2016-05-05T09:39:57Z</time>
      </trkpt>
      <trkpt lat="59.270506854602" lon="17.811699438308">
        <ele>12.8</ele>
        <time>2016-05-05T09:39:58Z</time>
      </trkpt>
      <trkpt lat="59.2705019931" lon="17.811491231912">
        <ele>12.4</ele>
        <time>2016-05-05T09:39:59Z</time>
      </trkpt>
      <trkpt lat="59.270502076919" lon="17.811290736864">
        <ele>11.8</ele>
        <time>2016-05-05T09:40:00Z</time>
      </trkpt>
      <trkpt lat="59.270505178222" lon="17.811086721418">
        <ele>11.8</ele>
        <time>2016-05-05T09:40:01Z</time>
      </trkpt>
      <trkpt lat="59.270522528755" lon="17.810285076502">
        <ele>12.4</ele>
        <time>2016-05-05T09:40:05Z</time>
      </trkpt>
      <trkpt lat="59.270534933967" lon="17.810091119336">
        <ele>12.8</ele>
        <time>2016-05-05T09:40:06Z</time>
      </trkpt>
      <trkpt lat="59.270550105206" lon="17.809896910713">
        <ele>13.4</ele>
        <time>2016-05-05T09:40:07Z</time>
      </trkpt>
      <trkpt lat="59.270565276445" lon="17.809704965203">
        <ele>13.8</ele>
        <time>2016-05-05T09:40:08Z</time>
      </trkpt>
      <trkpt lat="59.270584554815" lon="17.809515701901">
        <ele>14.2</ele>
        <time>2016-05-05T09:40:09Z</time>
      </trkpt>
      <trkpt lat="59.270674911697" lon="17.808787314791">
        <ele>14.2</ele>
        <time>2016-05-05T09:40:13Z</time>
      </trkpt>
      <trkpt lat="59.270708104021" lon="17.808635350944">
        <ele>14.8</ele>
        <time>2016-05-05T09:40:14Z</time>
      </trkpt>
      <trkpt lat="59.27074339182" lon="17.808488416237">
        <ele>15.4</ele>
        <time>2016-05-05T09:40:15Z</time>
      </trkpt>
      <trkpt lat="59.270781278008" lon="17.808344666652">
        <ele>16</ele>
        <time>2016-05-05T09:40:16Z</time>
      </trkpt>
      <trkpt lat="59.270821427309" lon="17.808210556252">
        <ele>16.6</ele>
        <time>2016-05-05T09:40:17Z</time>
      </trkpt>
      <trkpt lat="59.270858894402" lon="17.808081977906">
        <ele>17.2</ele>
        <time>2016-05-05T09:40:18Z</time>
      </trkpt>
      <trkpt lat="59.270895439486" lon="17.807949879162">
        <ele>18</ele>
        <time>2016-05-05T09:40:19Z</time>
      </trkpt>
      <trkpt lat="59.270928380353" lon="17.807824150662">
        <ele>18.6</ele>
        <time>2016-05-05T09:40:20Z</time>
      </trkpt>
      <trkpt lat="59.270962075591" lon="17.807701774922">
        <ele>19.4</ele>
        <time>2016-05-05T09:40:21Z</time>
      </trkpt>
      <trkpt lat="59.270997447209" lon="17.80757705225">
        <ele>20</ele>
        <time>2016-05-05T09:40:22Z</time>
      </trkpt>
      <trkpt lat="59.271033154103" lon="17.807446629886">
        <ele>20.6</ele>
        <time>2016-05-05T09:40:23Z</time>
      </trkpt>
      <trkpt lat="59.271070369739" lon="17.807314531142">
        <ele>21.4</ele>
        <time>2016-05-05T09:40:24Z</time>
      </trkpt>
      <trkpt lat="59.271264410724" lon="17.806523028325">
        <ele>21.4</ele>
        <time>2016-05-05T09:40:30Z</time>
      </trkpt>
      <trkpt lat="59.271342027118" lon="17.805879968957">
        <ele>21.4</ele>
        <time>2016-05-05T09:40:35Z</time>
      </trkpt>
      <trkpt lat="59.271350157561" lon="17.805764131099">
        <ele>21.8</ele>
        <time>2016-05-05T09:40:36Z</time>
      </trkpt>
      <trkpt lat="59.271358204185" lon="17.805653154743">
        <ele>22.2</ele>
        <time>2016-05-05T09:40:37Z</time>
      </trkpt>
      <trkpt lat="59.271365496438" lon="17.805540837283">
        <ele>22.8</ele>
        <time>2016-05-05T09:40:38Z</time>
      </trkpt>
      <trkpt lat="59.271373962157" lon="17.805429860927">
        <ele>23.2</ele>
        <time>2016-05-05T09:40:39Z</time>
      </trkpt>
      <trkpt lat="59.271380500039" lon="17.805324248987">
        <ele>23.6</ele>
        <time>2016-05-05T09:40:40Z</time>
      </trkpt>
      <trkpt lat="59.271385612998" lon="17.805218888504">
        <ele>24.2</ele>
        <time>2016-05-05T09:40:41Z</time>
      </trkpt>
      <trkpt lat="59.271393911079" lon="17.805111684003">
        <ele>24.6</ele>
        <time>2016-05-05T09:40:42Z</time>
      </trkpt>
      <trkpt lat="59.271401287151" lon="17.805009927737">
        <ele>25.2</ele>
        <time>2016-05-05T09:40:43Z</time>
      </trkpt>
      <trkpt lat="59.271406903024" lon="17.804908171471">
        <ele>25.6</ele>
        <time>2016-05-05T09:40:44Z</time>
      </trkpt>
      <trkpt lat="59.271413776182" lon="17.804809851784">
        <ele>26.2</ele>
        <time>2016-05-05T09:40:45Z</time>
      </trkpt>
      <trkpt lat="59.271423750643" lon="17.804715723047">
        <ele>26.6</ele>
        <time>2016-05-05T09:40:46Z</time>
      </trkpt>
      <trkpt lat="59.271437245502" lon="17.804618828283">
        <ele>27.2</ele>
        <time>2016-05-05T09:40:47Z</time>
      </trkpt>
      <trkpt lat="59.27145082418" lon="17.804522184976">
        <ele>27.6</ele>
        <time>2016-05-05T09:40:48Z</time>
      </trkpt>
      <trkpt lat="59.271467085066" lon="17.804418668511">
        <ele>28</ele>
        <time>2016-05-05T09:40:49Z</time>
      </trkpt>
      <trkpt lat="59.271484603237" lon="17.804320013548">
        <ele>28.6</ele>
        <time>2016-05-05T09:40:50Z</time>
      </trkpt>
      <trkpt lat="59.271575463033" lon="17.803949282111">
        <ele>28.6</ele>
        <time>2016-05-05T09:40:54Z</time>
      </trkpt>
      <trkpt lat="59.271598261801" lon="17.803854901917">
        <ele>29</ele>
        <time>2016-05-05T09:40:55Z</time>
      </trkpt>
      <trkpt lat="59.271619635646" lon="17.803759180619">
        <ele>29.4</ele>
        <time>2016-05-05T09:40:56Z</time>
      </trkpt>
      <trkpt lat="59.271642685871" lon="17.803665890072">
        <ele>29.8</ele>
        <time>2016-05-05T09:40:57Z</time>
      </trkpt>
      <trkpt lat="59.271664394992" lon="17.803581735796">
        <ele>30.2</ele>
        <time>2016-05-05T09:40:58Z</time>
      </trkpt>
      <trkpt lat="59.271688199588" lon="17.803498671167">
        <ele>30.6</ele>
        <time>2016-05-05T09:40:59Z</time>
      </trkpt>
      <trkpt lat="59.27171233946" lon="17.803416360909">
        <ele>30.6</ele>
        <time>2016-05-05T09:41:00Z</time>
      </trkpt>
      <trkpt lat="59.271808815129" lon="17.803062980005">
        <ele>30.6</ele>
        <time>2016-05-05T09:41:04Z</time>
      </trkpt>
      <trkpt lat="59.271858938891" lon="17.802865670079">
        <ele>30.6</ele>
        <time>2016-05-05T09:41:06Z</time>
      </trkpt>
      <trkpt lat="59.271880061279" lon="17.80276416527">
        <ele>30.6</ele>
        <time>2016-05-05T09:41:07Z</time>
      </trkpt>
      <trkpt lat="59.271953570542" lon="17.802365103011">
        <ele>30.6</ele>
        <time>2016-05-05T09:41:11Z</time>
      </trkpt>
      <trkpt lat="59.271981230812" lon="17.801608385079">
        <ele>30.6</ele>
        <time>2016-05-05T09:41:17Z</time>
      </trkpt>
      <trkpt lat="59.271985924676" lon="17.801181159636">
        <ele>30.6</ele>
        <time>2016-05-05T09:41:20Z</time>
      </trkpt>
      <trkpt lat="59.271987768694" lon="17.800871951345">
        <ele>30.6</ele>
        <time>2016-05-05T09:41:22Z</time>
      </trkpt>
      <trkpt lat="59.271985086486" lon="17.800385046774">
        <ele>30</ele>
        <time>2016-05-05T09:41:25Z</time>
      </trkpt>
      <trkpt lat="59.271986176133" lon="17.800211960539">
        <ele>29.4</ele>
        <time>2016-05-05T09:41:26Z</time>
      </trkpt>
      <trkpt lat="59.271989193617" lon="17.800028648386">
        <ele>29</ele>
        <time>2016-05-05T09:41:27Z</time>
      </trkpt>
      <trkpt lat="59.271995563861" lon="17.799836116143">
        <ele>28.2</ele>
        <time>2016-05-05T09:41:28Z</time>
      </trkpt>
      <trkpt lat="59.271999084259" lon="17.799654396551">
        <ele>27.6</ele>
        <time>2016-05-05T09:41:29Z</time>
      </trkpt>
      <trkpt lat="59.272001012096" lon="17.799471168217">
        <ele>27</ele>
        <time>2016-05-05T09:41:30Z</time>
      </trkpt>
      <trkpt lat="59.272002856114" lon="17.799292633747">
        <ele>26.2</ele>
        <time>2016-05-05T09:41:31Z</time>
      </trkpt>
      <trkpt lat="59.27200570596" lon="17.79911300963">
        <ele>25.8</ele>
        <time>2016-05-05T09:41:32Z</time>
      </trkpt>
      <trkpt lat="59.272009813091" lon="17.798934307522">
        <ele>25.2</ele>
        <time>2016-05-05T09:41:33Z</time>
      </trkpt>
      <trkpt lat="59.272011070376" lon="17.798761221287">
        <ele>24.6</ele>
        <time>2016-05-05T09:41:34Z</time>
      </trkpt>
      <trkpt lat="59.272006125055" lon="17.79858662631">
        <ele>24.2</ele>
        <time>2016-05-05T09:41:35Z</time>
      </trkpt>
      <trkpt lat="59.271999503354" lon="17.798416138464">
        <ele>23.6</ele>
        <time>2016-05-05T09:41:36Z</time>
      </trkpt>
      <trkpt lat="59.272001598829" lon="17.798244141876">
        <ele>23.6</ele>
        <time>2016-05-05T09:41:37Z</time>
      </trkpt>
      <trkpt lat="59.272007801435" lon="17.798071726193">
        <ele>23.6</ele>
        <time>2016-05-05T09:41:38Z</time>
      </trkpt>
      <trkpt lat="59.272019200819" lon="17.79772161423">
        <ele>23.6</ele>
        <time>2016-05-05T09:41:40Z</time>
      </trkpt>
      <trkpt lat="59.272047112546" lon="17.797372508095">
        <ele>23.6</ele>
        <time>2016-05-05T09:41:42Z</time>
      </trkpt>
      <trkpt lat="59.272159346187" lon="17.79637967204">
        <ele>23.6</ele>
        <time>2016-05-05T09:41:48Z</time>
      </trkpt>
      <trkpt lat="59.272315333346" lon="17.795369736909">
        <ele>23.6</ele>
        <time>2016-05-05T09:41:54Z</time>
      </trkpt>
      <trkpt lat="59.272342490702" lon="17.79520033871">
        <ele>23.6</ele>
        <time>2016-05-05T09:41:55Z</time>
      </trkpt>
      <trkpt lat="59.272419604182" lon="17.794679738901">
        <ele>23.6</ele>
        <time>2016-05-05T09:41:58Z</time>
      </trkpt>
      <trkpt lat="59.272438882552" lon="17.794504976286">
        <ele>23.6</ele>
        <time>2016-05-05T09:41:59Z</time>
      </trkpt>
      <trkpt lat="59.272483977174" lon="17.794186296448">
        <ele>23.6</ele>
        <time>2016-05-05T09:42:01Z</time>
      </trkpt>
      <trkpt lat="59.272588834743" lon="17.793431925448">
        <ele>24</ele>
        <time>2016-05-05T09:42:06Z</time>
      </trkpt>
      <trkpt lat="59.272611465873" lon="17.793290438976">
        <ele>24.4</ele>
        <time>2016-05-05T09:42:07Z</time>
      </trkpt>
      <trkpt lat="59.272633342632" lon="17.793150545065">
        <ele>24.8</ele>
        <time>2016-05-05T09:42:08Z</time>
      </trkpt>
      <trkpt lat="59.272655722305" lon="17.793012578991">
        <ele>25.2</ele>
        <time>2016-05-05T09:42:09Z</time>
      </trkpt>
      <trkpt lat="59.272677850521" lon="17.792873774727">
        <ele>25.6</ele>
        <time>2016-05-05T09:42:10Z</time>
      </trkpt>
      <trkpt lat="59.272801315908" lon="17.792048073758">
        <ele>25.6</ele>
        <time>2016-05-05T09:42:16Z</time>
      </trkpt>
      <trkpt lat="59.272842890132" lon="17.791773650352">
        <ele>26</ele>
        <time>2016-05-05T09:42:18Z</time>
      </trkpt>
      <trkpt lat="59.272863341968" lon="17.791636857744">
        <ele>26.6</ele>
        <time>2016-05-05T09:42:19Z</time>
      </trkpt>
      <trkpt lat="59.272887733297" lon="17.791491599417">
        <ele>27</ele>
        <time>2016-05-05T09:42:20Z</time>
      </trkpt>
      <trkpt lat="59.272906676391" lon="17.791349945307">
        <ele>27.4</ele>
        <time>2016-05-05T09:42:21Z</time>
      </trkpt>
      <trkpt lat="59.272928217874" lon="17.791207955921">
        <ele>27.8</ele>
        <time>2016-05-05T09:42:22Z</time>
      </trkpt>
      <trkpt lat="59.273045480655" lon="17.790311846992">
        <ele>27.8</ele>
        <time>2016-05-05T09:42:28Z</time>
      </trkpt>
      <trkpt lat="59.273187386222" lon="17.789278610179">
        <ele>27.8</ele>
        <time>2016-05-05T09:42:35Z</time>
      </trkpt>
      <trkpt lat="59.273333734196" lon="17.788573273294">
        <ele>27.8</ele>
        <time>2016-05-05T09:42:40Z</time>
      </trkpt>
      <trkpt lat="59.273449991149" lon="17.788174378673">
        <ele>27.8</ele>
        <time>2016-05-05T09:42:43Z</time>
      </trkpt>
      <trkpt lat="59.273543533153" lon="17.787928789003">
        <ele>27.8</ele>
        <time>2016-05-05T09:42:45Z</time>
      </trkpt>
      <trkpt lat="59.273875456393" lon="17.787085905139">
        <ele>27.8</ele>
        <time>2016-05-05T09:42:52Z</time>
      </trkpt>
      <trkpt lat="59.27413889951" lon="17.786532196825">
        <ele>27.8</ele>
        <time>2016-05-05T09:42:57Z</time>
      </trkpt>
      <trkpt lat="59.274466380343" lon="17.786104049373">
        <ele>27.8</ele>
        <time>2016-05-05T09:43:02Z</time>
      </trkpt>
      <trkpt lat="59.274868879181" lon="17.785713536652">
        <ele>27.8</ele>
        <time>2016-05-05T09:43:08Z</time>
      </trkpt>
      <trkpt lat="59.275270707467" lon="17.785441124902">
        <ele>27.8</ele>
        <time>2016-05-05T09:43:14Z</time>
      </trkpt>
      <trkpt lat="59.275485451745" lon="17.785345487423">
        <ele>27.4</ele>
        <time>2016-05-05T09:43:17Z</time>
      </trkpt>
      <trkpt lat="59.275554937696" lon="17.785302069181">
        <ele>27</ele>
        <time>2016-05-05T09:43:18Z</time>
      </trkpt>
      <trkpt lat="59.275625597113" lon="17.785267368115">
        <ele>26.6</ele>
        <time>2016-05-05T09:43:19Z</time>
      </trkpt>
      <trkpt lat="59.275695921254" lon="17.78523090685">
        <ele>25.6</ele>
        <time>2016-05-05T09:43:20Z</time>
      </trkpt>
      <trkpt lat="59.275902535089" lon="17.785089671835">
        <ele>25.6</ele>
        <time>2016-05-05T09:43:24Z</time>
      </trkpt>
      <trkpt lat="59.275941930019" lon="17.785032758734">
        <ele>25.6</ele>
        <time>2016-05-05T09:43:27Z</time>
      </trkpt>
      <trkpt lat="59.27595944819" lon="17.784977102918">
        <ele>25.6</ele>
        <time>2016-05-05T09:46:29Z</time>
      </trkpt>
      <trkpt lat="59.276000687138" lon="17.784905186216">
        <ele>25.6</ele>
        <time>2016-05-05T09:46:32Z</time>
      </trkpt>
      <trkpt lat="59.276103952146" lon="17.784790102729">
        <ele>25.6</ele>
        <time>2016-05-05T09:46:37Z</time>
      </trkpt>
      <trkpt lat="59.276221717841" lon="17.784913987211">
        <ele>25.6</ele>
        <time>2016-05-05T09:46:40Z</time>
      </trkpt>
      <trkpt lat="59.276299669511" lon="17.785031752906">
        <ele>25.2</ele>
        <time>2016-05-05T09:46:42Z</time>
      </trkpt>
      <trkpt lat="59.27633998645" lon="17.785089755654">
        <ele>24.8</ele>
        <time>2016-05-05T09:46:43Z</time>
      </trkpt>
      <trkpt lat="59.276386422176" lon="17.785149183325">
        <ele>24.4</ele>
        <time>2016-05-05T09:46:44Z</time>
      </trkpt>
      <trkpt lat="59.276432019712" lon="17.785210957928">
        <ele>24</ele>
        <time>2016-05-05T09:46:45Z</time>
      </trkpt>
      <trkpt lat="59.276482730207" lon="17.785274157454">
        <ele>23.6</ele>
        <time>2016-05-05T09:46:46Z</time>
      </trkpt>
      <trkpt lat="59.276777856906" lon="17.785617480078">
        <ele>23.6</ele>
        <time>2016-05-05T09:46:51Z</time>
      </trkpt>
      <trkpt lat="59.277015483771" lon="17.785913025872">
        <ele>23.2</ele>
        <time>2016-05-05T09:46:55Z</time>
      </trkpt>
      <trkpt lat="59.27707507908" lon="17.785988714429">
        <ele>22.8</ele>
        <time>2016-05-05T09:46:56Z</time>
      </trkpt>
      <trkpt lat="59.27713542876" lon="17.786066666099">
        <ele>22.4</ele>
        <time>2016-05-05T09:46:57Z</time>
      </trkpt>
      <trkpt lat="59.277194018241" lon="17.786154676049">
        <ele>22</ele>
        <time>2016-05-05T09:46:58Z</time>
      </trkpt>
      <trkpt lat="59.277252272446" lon="17.786247379863">
        <ele>21.6</ele>
        <time>2016-05-05T09:46:59Z</time>
      </trkpt>
      <trkpt lat="59.277373809996" lon="17.78644376778">
        <ele>21</ele>
        <time>2016-05-05T09:47:01Z</time>
      </trkpt>
      <trkpt lat="59.27743214802" lon="17.786546613693">
        <ele>20.6</ele>
        <time>2016-05-05T09:47:02Z</time>
      </trkpt>
      <trkpt lat="59.277488222931" lon="17.786658176782">
        <ele>19.8</ele>
        <time>2016-05-05T09:47:03Z</time>
      </trkpt>
      <trkpt lat="59.277542705281" lon="17.78677569102">
        <ele>19.4</ele>
        <time>2016-05-05T09:47:04Z</time>
      </trkpt>
      <trkpt lat="59.277699865906" lon="17.787138878747">
        <ele>19</ele>
        <time>2016-05-05T09:47:07Z</time>
      </trkpt>
      <trkpt lat="59.277755521722" lon="17.787275671355">
        <ele>18.6</ele>
        <time>2016-05-05T09:47:08Z</time>
      </trkpt>
      <trkpt lat="59.27780765714" lon="17.787411290497">
        <ele>18.2</ele>
        <time>2016-05-05T09:47:09Z</time>
      </trkpt>
      <trkpt lat="59.277861720395" lon="17.787548921295">
        <ele>17.8</ele>
        <time>2016-05-05T09:47:10Z</time>
      </trkpt>
      <trkpt lat="59.277915951288" lon="17.787692000328">
        <ele>17.4</ele>
        <time>2016-05-05T09:47:11Z</time>
      </trkpt>
      <trkpt lat="59.277970601276" lon="17.787838096845">
        <ele>17</ele>
        <time>2016-05-05T09:47:12Z</time>
      </trkpt>
      <trkpt lat="59.278022485237" lon="17.787986121199">
        <ele>16.4</ele>
        <time>2016-05-05T09:47:13Z</time>
      </trkpt>
      <trkpt lat="59.278075458845" lon="17.788134480829">
        <ele>16</ele>
        <time>2016-05-05T09:47:14Z</time>
      </trkpt>
      <trkpt lat="59.278132371946" lon="17.78829197673">
        <ele>15.6</ele>
        <time>2016-05-05T09:47:15Z</time>
      </trkpt>
      <trkpt lat="59.278197164033" lon="17.788454669409">
        <ele>15</ele>
        <time>2016-05-05T09:47:16Z</time>
      </trkpt>
      <trkpt lat="59.278260866473" lon="17.788612249129">
        <ele>14.6</ele>
        <time>2016-05-05T09:47:17Z</time>
      </trkpt>
      <trkpt lat="59.27832482037" lon="17.788770750858">
        <ele>14</ele>
        <time>2016-05-05T09:47:18Z</time>
      </trkpt>
      <trkpt lat="59.278390953561" lon="17.788924558723">
        <ele>13.6</ele>
        <time>2016-05-05T09:47:19Z</time>
      </trkpt>
      <trkpt lat="59.278461780616" lon="17.789077779855">
        <ele>13</ele>
        <time>2016-05-05T09:47:20Z</time>
      </trkpt>
      <trkpt lat="59.278535708974" lon="17.789218931051">
        <ele>12.6</ele>
        <time>2016-05-05T09:47:21Z</time>
      </trkpt>
      <trkpt lat="59.278615588481" lon="17.789344324275">
        <ele>12.2</ele>
        <time>2016-05-05T09:47:22Z</time>
      </trkpt>
      <trkpt lat="59.278699742757" lon="17.789454378622">
        <ele>11.8</ele>
        <time>2016-05-05T09:47:23Z</time>
      </trkpt>
      <trkpt lat="59.278791189286" lon="17.78956183458">
        <ele>11.2</ele>
        <time>2016-05-05T09:47:24Z</time>
      </trkpt>
      <trkpt lat="59.27887802577" lon="17.78966325557">
        <ele>10.8</ele>
        <time>2016-05-05T09:47:25Z</time>
      </trkpt>
      <trkpt lat="59.278966287177" lon="17.789753696271">
        <ele>10.8</ele>
        <time>2016-05-05T09:47:26Z</time>
      </trkpt>
      <trkpt lat="59.279331570379" lon="17.790021414157">
        <ele>10.4</ele>
        <time>2016-05-05T09:47:30Z</time>
      </trkpt>
      <trkpt lat="59.279424860926" lon="17.790065167675">
        <ele>9.8</ele>
        <time>2016-05-05T09:47:31Z</time>
      </trkpt>
      <trkpt lat="59.279511194496" lon="17.790111100487">
        <ele>9.4</ele>
        <time>2016-05-05T09:47:32Z</time>
      </trkpt>
      <trkpt lat="59.279595013496" lon="17.790159966964">
        <ele>9</ele>
        <time>2016-05-05T09:47:33Z</time>
      </trkpt>
      <trkpt lat="59.279676150288" lon="17.790225513422">
        <ele>8.4</ele>
        <time>2016-05-05T09:47:34Z</time>
      </trkpt>
      <trkpt lat="59.279759131098" lon="17.790299860875">
        <ele>8.4</ele>
        <time>2016-05-05T09:47:35Z</time>
      </trkpt>
      <trkpt lat="59.279934061351" lon="17.790407484471">
        <ele>8.4</ele>
        <time>2016-05-05T09:47:37Z</time>
      </trkpt>
      <trkpt lat="59.2800238315" lon="17.790406646281">
        <ele>8.4</ele>
        <time>2016-05-05T09:47:38Z</time>
      </trkpt>
      <trkpt lat="59.280206221644" lon="17.790446627944">
        <ele>8</ele>
        <time>2016-05-05T09:47:40Z</time>
      </trkpt>
      <trkpt lat="59.280293309585" lon="17.790475042585">
        <ele>7.6</ele>
        <time>2016-05-05T09:47:41Z</time>
      </trkpt>
      <trkpt lat="59.280381570992" lon="17.790515108067">
        <ele>7.2</ele>
        <time>2016-05-05T09:47:42Z</time>
      </trkpt>
      <trkpt lat="59.280471592598" lon="17.790554083902">
        <ele>6.8</ele>
        <time>2016-05-05T09:47:43Z</time>
      </trkpt>
      <trkpt lat="59.280562284756" lon="17.79059197009">
        <ele>6.2</ele>
        <time>2016-05-05T09:47:44Z</time>
      </trkpt>
      <trkpt lat="59.281106940618" lon="17.79082750148">
        <ele>6.2</ele>
        <time>2016-05-05T09:47:50Z</time>
      </trkpt>
      <trkpt lat="59.281192519817" lon="17.79086941098">
        <ele>6.2</ele>
        <time>2016-05-05T09:47:51Z</time>
      </trkpt>
      <trkpt lat="59.281709263952" lon="17.79110913332">
        <ele>6.2</ele>
        <time>2016-05-05T09:47:57Z</time>
      </trkpt>
      <trkpt lat="59.282127436943" lon="17.791307616712">
        <ele>6.8</ele>
        <time>2016-05-05T09:48:02Z</time>
      </trkpt>
      <trkpt lat="59.282207484088" lon="17.791345838176">
        <ele>7.2</ele>
        <time>2016-05-05T09:48:03Z</time>
      </trkpt>
      <trkpt lat="59.282285687215" lon="17.7913790305">
        <ele>7.8</ele>
        <time>2016-05-05T09:48:04Z</time>
      </trkpt>
      <trkpt lat="59.282362465419" lon="17.791413647747">
        <ele>8.2</ele>
        <time>2016-05-05T09:48:05Z</time>
      </trkpt>
      <trkpt lat="59.28244033327" lon="17.791448851727">
        <ele>8.8</ele>
        <time>2016-05-05T09:48:06Z</time>
      </trkpt>
      <trkpt lat="59.282842161556" lon="17.791631409509">
        <ele>8.8</ele>
        <time>2016-05-05T09:48:11Z</time>
      </trkpt>
      <trkpt lat="59.283399641725" lon="17.791879094654">
        <ele>8.8</ele>
        <time>2016-05-05T09:48:18Z</time>
      </trkpt>
      <trkpt lat="59.283558730187" lon="17.791959141799">
        <ele>8.8</ele>
        <time>2016-05-05T09:48:20Z</time>
      </trkpt>
      <trkpt lat="59.284133896165" lon="17.792217723414">
        <ele>8.8</ele>
        <time>2016-05-05T09:48:27Z</time>
      </trkpt>
      <trkpt lat="59.28430530602" lon="17.792296429455">
        <ele>8.8</ele>
        <time>2016-05-05T09:48:29Z</time>
      </trkpt>
      <trkpt lat="59.284839316869" lon="17.792583677168">
        <ele>8.8</ele>
        <time>2016-05-05T09:48:35Z</time>
      </trkpt>
      <trkpt lat="59.284931853045" lon="17.792638327156">
        <ele>8.8</ele>
        <time>2016-05-05T09:48:36Z</time>
      </trkpt>
      <trkpt lat="59.2853631018" lon="17.792980560133">
        <ele>8.8</ele>
        <time>2016-05-05T09:48:41Z</time>
      </trkpt>
      <trkpt lat="59.285606847452" lon="17.793514403344">
        <ele>8.8</ele>
        <time>2016-05-05T09:48:45Z</time>
      </trkpt>
      <trkpt lat="59.285707430252" lon="17.794014132222">
        <ele>8.8</ele>
        <time>2016-05-05T09:48:48Z</time>
      </trkpt>
      <trkpt lat="59.285734587608" lon="17.794179507109">
        <ele>8.8</ele>
        <time>2016-05-05T09:48:49Z</time>
      </trkpt>
      <trkpt lat="59.285758476023" lon="17.794346893652">
        <ele>9.2</ele>
        <time>2016-05-05T09:48:50Z</time>
      </trkpt>
      <trkpt lat="59.285784962827" lon="17.794513609643">
        <ele>9.6</ele>
        <time>2016-05-05T09:48:51Z</time>
      </trkpt>
      <trkpt lat="59.285810276165" lon="17.794680241815">
        <ele>10</ele>
        <time>2016-05-05T09:48:52Z</time>
      </trkpt>
      <trkpt lat="59.285837014426" lon="17.794849807652">
        <ele>10.4</ele>
        <time>2016-05-05T09:48:53Z</time>
      </trkpt>
      <trkpt lat="59.28586350123" lon="17.795027587751">
        <ele>10.8</ele>
        <time>2016-05-05T09:48:54Z</time>
      </trkpt>
      <trkpt lat="59.28594564385" lon="17.795527987181">
        <ele>10.8</ele>
        <time>2016-05-05T09:48:57Z</time>
      </trkpt>
      <trkpt lat="59.28609651805" lon="17.796545046927">
        <ele>10.8</ele>
        <time>2016-05-05T09:49:03Z</time>
      </trkpt>
      <trkpt lat="59.286149743115" lon="17.796886525533">
        <ele>11.6</ele>
        <time>2016-05-05T09:49:05Z</time>
      </trkpt>
      <trkpt lat="59.286175056453" lon="17.797059695587">
        <ele>12.2</ele>
        <time>2016-05-05T09:49:06Z</time>
      </trkpt>
      <trkpt lat="59.286199950696" lon="17.797231859813">
        <ele>13</ele>
        <time>2016-05-05T09:49:07Z</time>
      </trkpt>
      <trkpt lat="59.286363481565" lon="17.798281189874">
        <ele>13</ele>
        <time>2016-05-05T09:49:13Z</time>
      </trkpt>
      <trkpt lat="59.28653572961" lon="17.799348792477">
        <ele>13</ele>
        <time>2016-05-05T09:49:19Z</time>
      </trkpt>
      <trkpt lat="59.28664385612" lon="17.80002496035">
        <ele>13</ele>
        <time>2016-05-05T09:49:23Z</time>
      </trkpt>
      <trkpt lat="59.286770506629" lon="17.801021400622">
        <ele>13</ele>
        <time>2016-05-05T09:49:29Z</time>
      </trkpt>
      <trkpt lat="59.286808644274" lon="17.801328429619">
        <ele>13</ele>
        <time>2016-05-05T09:49:31Z</time>
      </trkpt>
      <trkpt lat="59.28690201864" lon="17.801603858853">
        <ele>13.4</ele>
        <time>2016-05-05T09:49:33Z</time>
      </trkpt>
      <trkpt lat="59.286959686112" lon="17.801731096095">
        <ele>13.8</ele>
        <time>2016-05-05T09:49:34Z</time>
      </trkpt>
      <trkpt lat="59.287010899521" lon="17.801868391617">
        <ele>14.2</ele>
        <time>2016-05-05T09:49:35Z</time>
      </trkpt>
      <trkpt lat="59.287057335247" lon="17.802015996876">
        <ele>14.8</ele>
        <time>2016-05-05T09:49:36Z</time>
      </trkpt>
      <trkpt lat="59.287100837308" lon="17.80217910865">
        <ele>15.2</ele>
        <time>2016-05-05T09:49:37Z</time>
      </trkpt>
      <trkpt lat="59.287145429016" lon="17.80234507027">
        <ele>15.2</ele>
        <time>2016-05-05T09:49:38Z</time>
      </trkpt>
      <trkpt lat="59.287412057255" lon="17.803165825918">
        <ele>15.2</ele>
        <time>2016-05-05T09:49:43Z</time>
      </trkpt>
      <trkpt lat="59.287755966612" lon="17.804044416676">
        <ele>15.2</ele>
        <time>2016-05-05T09:49:49Z</time>
      </trkpt>
      <trkpt lat="59.288081938703" lon="17.804774731623">
        <ele>15.2</ele>
        <time>2016-05-05T09:49:54Z</time>
      </trkpt>
      <trkpt lat="59.28850044697" lon="17.805544106224">
        <ele>15.2</ele>
        <time>2016-05-05T09:50:00Z</time>
      </trkpt>
      <trkpt lat="59.288579153011" lon="17.805677210796">
        <ele>15.2</ele>
        <time>2016-05-05T09:50:01Z</time>
      </trkpt>
      <trkpt lat="59.288650650618" lon="17.805793635387">
        <ele>14.8</ele>
        <time>2016-05-05T09:50:02Z</time>
      </trkpt>
      <trkpt lat="59.288723237872" lon="17.80591073053">
        <ele>14.2</ele>
        <time>2016-05-05T09:50:03Z</time>
      </trkpt>
      <trkpt lat="59.28879465166" lon="17.806026987483">
        <ele>13.8</ele>
        <time>2016-05-05T09:50:04Z</time>
      </trkpt>
      <trkpt lat="59.28887176514" lon="17.806131761233">
        <ele>13.4</ele>
        <time>2016-05-05T09:50:05Z</time>
      </trkpt>
      <trkpt lat="59.288950974095" lon="17.806238714277">
        <ele>13</ele>
        <time>2016-05-05T09:50:06Z</time>
      </trkpt>
      <trkpt lat="59.289033703448" lon="17.806344745312">
        <ele>13</ele>
        <time>2016-05-05T09:50:07Z</time>
      </trkpt>
      <trkpt lat="59.289446931118" lon="17.806912954313">
        <ele>13</ele>
        <time>2016-05-05T09:50:12Z</time>
      </trkpt>
      <trkpt lat="59.289665279613" lon="17.807288966347">
        <ele>13</ele>
        <time>2016-05-05T09:50:15Z</time>
      </trkpt>
      <trkpt lat="59.289755552676" lon="17.807368007664">
        <ele>13</ele>
        <time>2016-05-05T09:50:16Z</time>
      </trkpt>
      <trkpt lat="59.290007931685" lon="17.807597252629">
        <ele>12.4</ele>
        <time>2016-05-05T09:50:19Z</time>
      </trkpt>
      <trkpt lat="59.290082530595" lon="17.807686938959">
        <ele>11.8</ele>
        <time>2016-05-05T09:50:20Z</time>
      </trkpt>
      <trkpt lat="59.290159476437" lon="17.807778469307">
        <ele>11.2</ele>
        <time>2016-05-05T09:50:21Z</time>
      </trkpt>
      <trkpt lat="59.290233069519" lon="17.807869329103">
        <ele>10.6</ele>
        <time>2016-05-05T09:50:22Z</time>
      </trkpt>
      <trkpt lat="59.290307249334" lon="17.807958512519">
        <ele>10</ele>
        <time>2016-05-05T09:50:23Z</time>
      </trkpt>
      <trkpt lat="59.290585779871" lon="17.808292195958">
        <ele>10</ele>
        <time>2016-05-05T09:50:27Z</time>
      </trkpt>
      <trkpt lat="59.290625510077" lon="17.808545580795">
        <ele>10</ele>
        <time>2016-05-05T09:50:29Z</time>
      </trkpt>
      <trkpt lat="59.29056909989" lon="17.808778346158">
        <ele>10</ele>
        <time>2016-05-05T09:50:31Z</time>
      </trkpt>
      <trkpt lat="59.290491567315" lon="17.808990072952">
        <ele>10</ele>
        <time>2016-05-05T09:50:33Z</time>
      </trkpt>
      <trkpt lat="59.290357959829" lon="17.809363738054">
        <ele>10</ele>
        <time>2016-05-05T09:50:36Z</time>
      </trkpt>
      <trkpt lat="59.290168864165" lon="17.810010820734">
        <ele>10</ele>
        <time>2016-05-05T09:50:41Z</time>
      </trkpt>
      <trkpt lat="59.2899312373" lon="17.810627477117">
        <ele>10</ele>
        <time>2016-05-05T09:50:46Z</time>
      </trkpt>
      <trkpt lat="59.289762928748" lon="17.810972727578">
        <ele>9.6</ele>
        <time>2016-05-05T09:50:49Z</time>
      </trkpt>
      <trkpt lat="59.289701405602" lon="17.811082027554">
        <ele>9.2</ele>
        <time>2016-05-05T09:50:50Z</time>
      </trkpt>
      <trkpt lat="59.289641475017" lon="17.811186633666">
        <ele>8.8</ele>
        <time>2016-05-05T09:50:51Z</time>
      </trkpt>
      <trkpt lat="59.289584645735" lon="17.811291742692">
        <ele>8.4</ele>
        <time>2016-05-05T09:50:52Z</time>
      </trkpt>
      <trkpt lat="59.289525888616" lon="17.81140171322">
        <ele>8</ele>
        <time>2016-05-05T09:50:53Z</time>
      </trkpt>
      <trkpt lat="59.289278371109" lon="17.811910746007">
        <ele>8</ele>
        <time>2016-05-05T09:50:58Z</time>
      </trkpt>
      <trkpt lat="59.289077373147" lon="17.812320034184">
        <ele>8</ele>
        <time>2016-05-05T09:51:02Z</time>
      </trkpt>
      <trkpt lat="59.288936473408" lon="17.812631254131">
        <ele>8</ele>
        <time>2016-05-05T09:51:05Z</time>
      </trkpt>
      <trkpt lat="59.288896659383" lon="17.812746840532">
        <ele>8</ele>
        <time>2016-05-05T09:51:06Z</time>
      </trkpt>
      <trkpt lat="59.288741594233" lon="17.81307474046">
        <ele>8</ele>
        <time>2016-05-05T09:51:09Z</time>
      </trkpt>
      <trkpt lat="59.288557946804" lon="17.813538343349">
        <ele>8.4</ele>
        <time>2016-05-05T09:51:13Z</time>
      </trkpt>
      <trkpt lat="59.288505559929" lon="17.813651247542">
        <ele>8.8</ele>
        <time>2016-05-05T09:51:14Z</time>
      </trkpt>
      <trkpt lat="59.28845769928" lon="17.813787034322">
        <ele>9.2</ele>
        <time>2016-05-05T09:51:15Z</time>
      </trkpt>
      <trkpt lat="59.288402965473" lon="17.813932711744">
        <ele>9.6</ele>
        <time>2016-05-05T09:51:16Z</time>
      </trkpt>
      <trkpt lat="59.288356613566" lon="17.814059529891">
        <ele>10</ele>
        <time>2016-05-05T09:51:17Z</time>
      </trkpt>
      <trkpt lat="59.288307579451" lon="17.814191460997">
        <ele>10</ele>
        <time>2016-05-05T09:51:18Z</time>
      </trkpt>
      <trkpt lat="59.288049668388" lon="17.814871149268">
        <ele>10</ele>
        <time>2016-05-05T09:51:23Z</time>
      </trkpt>
      <trkpt lat="59.287748339083" lon="17.815753930976">
        <ele>10</ele>
        <time>2016-05-05T09:51:29Z</time>
      </trkpt>
      <trkpt lat="59.287469054175" lon="17.816660014366">
        <ele>10</ele>
        <time>2016-05-05T09:51:35Z</time>
      </trkpt>
      <trkpt lat="59.287419936241" lon="17.816809212186">
        <ele>10</ele>
        <time>2016-05-05T09:51:36Z</time>
      </trkpt>
      <trkpt lat="59.287080804567" lon="17.81766131614">
        <ele>10.4</ele>
        <time>2016-05-05T09:51:42Z</time>
      </trkpt>
      <trkpt lat="59.28702020343" lon="17.817803892259">
        <ele>10.8</ele>
        <time>2016-05-05T09:51:43Z</time>
      </trkpt>
      <trkpt lat="59.286958764103" lon="17.817943115618">
        <ele>11.2</ele>
        <time>2016-05-05T09:51:44Z</time>
      </trkpt>
      <trkpt lat="59.286888020867" lon="17.818081500787">
        <ele>11.6</ele>
        <time>2016-05-05T09:51:45Z</time>
      </trkpt>
      <trkpt lat="59.28680730317" lon="17.81822122706">
        <ele>12</ele>
        <time>2016-05-05T09:51:46Z</time>
      </trkpt>
      <trkpt lat="59.286730022052" lon="17.818351733243">
        <ele>12</ele>
        <time>2016-05-05T09:51:47Z</time>
      </trkpt>
      <trkpt lat="59.286258372539" lon="17.819128400097">
        <ele>12</ele>
        <time>2016-05-05T09:51:53Z</time>
      </trkpt>
      <trkpt lat="59.285847491801" lon="17.81981797901">
        <ele>12</ele>
        <time>2016-05-05T09:51:58Z</time>
      </trkpt>
      <trkpt lat="59.285762164059" lon="17.819961393319">
        <ele>12</ele>
        <time>2016-05-05T09:51:59Z</time>
      </trkpt>
      <trkpt lat="59.285336698815" lon="17.820692714094">
        <ele>12</ele>
        <time>2016-05-05T09:52:04Z</time>
      </trkpt>
      <trkpt lat="59.285166546245" lon="17.820988595164">
        <ele>12</ele>
        <time>2016-05-05T09:52:06Z</time>
      </trkpt>
      <trkpt lat="59.284900504739" lon="17.821436607719">
        <ele>11.6</ele>
        <time>2016-05-05T09:52:09Z</time>
      </trkpt>
      <trkpt lat="59.284811488961" lon="17.821584129159">
        <ele>11.2</ele>
        <time>2016-05-05T09:52:10Z</time>
      </trkpt>
      <trkpt lat="59.284724903934" lon="17.821734751902">
        <ele>10.8</ele>
        <time>2016-05-05T09:52:11Z</time>
      </trkpt>
      <trkpt lat="59.28463471469" lon="17.821888811224">
        <ele>10.4</ele>
        <time>2016-05-05T09:52:12Z</time>
      </trkpt>
      <trkpt lat="59.284544944541" lon="17.822046307125">
        <ele>9.8</ele>
        <time>2016-05-05T09:52:13Z</time>
      </trkpt>
      <trkpt lat="59.284453330374" lon="17.822203551569">
        <ele>9.2</ele>
        <time>2016-05-05T09:52:14Z</time>
      </trkpt>
      <trkpt lat="59.2843656557" lon="17.822366998619">
        <ele>8.8</ele>
        <time>2016-05-05T09:52:15Z</time>
      </trkpt>
      <trkpt lat="59.284286446745" lon="17.82254796384">
        <ele>8.2</ele>
        <time>2016-05-05T09:52:16Z</time>
      </trkpt>
      <trkpt lat="59.284233305499" lon="17.822752566019">
        <ele>7.6</ele>
        <time>2016-05-05T09:52:17Z</time>
      </trkpt>
      <trkpt lat="59.284216541699" lon="17.822977284758">
        <ele>7.2</ele>
        <time>2016-05-05T09:52:18Z</time>
      </trkpt>
      <trkpt lat="59.284235903888" lon="17.823202422592">
        <ele>6.6</ele>
        <time>2016-05-05T09:52:19Z</time>
      </trkpt>
      <trkpt lat="59.284281333786" lon="17.823408868789">
        <ele>6.2</ele>
        <time>2016-05-05T09:52:20Z</time>
      </trkpt>
      <trkpt lat="59.284330786996" lon="17.823610872579">
        <ele>5.6</ele>
        <time>2016-05-05T09:52:21Z</time>
      </trkpt>
      <trkpt lat="59.284372780315" lon="17.82381782169">
        <ele>5.2</ele>
        <time>2016-05-05T09:52:22Z</time>
      </trkpt>
      <trkpt lat="59.284463556292" lon="17.824239012165">
        <ele>5.2</ele>
        <time>2016-05-05T09:52:24Z</time>
      </trkpt>
      <trkpt lat="59.284718114595" lon="17.825237380274">
        <ele>5.2</ele>
        <time>2016-05-05T09:52:29Z</time>
      </trkpt>
      <trkpt lat="59.284774943877" lon="17.825444832299">
        <ele>5.2</ele>
        <time>2016-05-05T09:52:30Z</time>
      </trkpt>
      <trkpt lat="59.28508482272" lon="17.826384275651">
        <ele>5.2</ele>
        <time>2016-05-05T09:52:35Z</time>
      </trkpt>
      <trkpt lat="59.285149279531" lon="17.826571108202">
        <ele>5.2</ele>
        <time>2016-05-05T09:52:36Z</time>
      </trkpt>
      <trkpt lat="59.285352708244" lon="17.827145603628">
        <ele>4.8</ele>
        <time>2016-05-05T09:52:39Z</time>
      </trkpt>
      <trkpt lat="59.285419009073" lon="17.827337716776">
        <ele>4.4</ele>
        <time>2016-05-05T09:52:40Z</time>
      </trkpt>
      <trkpt lat="59.285484890807" lon="17.827526058069">
        <ele>4</ele>
        <time>2016-05-05T09:52:41Z</time>
      </trkpt>
      <trkpt lat="59.285536858587" lon="17.827716327199">
        <ele>3.6</ele>
        <time>2016-05-05T09:52:42Z</time>
      </trkpt>
      <trkpt lat="59.28555253274" lon="17.827924030681">
        <ele>3.2</ele>
        <time>2016-05-05T09:52:43Z</time>
      </trkpt>
      <trkpt lat="59.285534427836" lon="17.828136930941">
        <ele>2.6</ele>
        <time>2016-05-05T09:52:44Z</time>
      </trkpt>
      <trkpt lat="59.285458906917" lon="17.828301048543">
        <ele>2.2</ele>
        <time>2016-05-05T09:52:45Z</time>
      </trkpt>
      <trkpt lat="59.28536058723" lon="17.828426860862">
        <ele>1.6</ele>
        <time>2016-05-05T09:52:46Z</time>
      </trkpt>
      <trkpt lat="59.285263441009" lon="17.828545883842">
        <ele>1.2</ele>
        <time>2016-05-05T09:52:47Z</time>
      </trkpt>
      <trkpt lat="59.285170821014" lon="17.828679407509">
        <ele>1.2</ele>
        <time>2016-05-05T09:52:48Z</time>
      </trkpt>
      <trkpt lat="59.284807046554" lon="17.829224901561">
        <ele>1.2</ele>
        <time>2016-05-05T09:52:52Z</time>
      </trkpt>
      <trkpt lat="59.284330786996" lon="17.829850526577">
        <ele>1.2</ele>
        <time>2016-05-05T09:52:57Z</time>
      </trkpt>
      <trkpt lat="59.283860730044" lon="17.830462405277">
        <ele>1.2</ele>
        <time>2016-05-05T09:53:02Z</time>
      </trkpt>
      <trkpt lat="59.283771211352" lon="17.83058452956">
        <ele>1.2</ele>
        <time>2016-05-05T09:53:03Z</time>
      </trkpt>
      <trkpt lat="59.283281121659" lon="17.831267402953">
        <ele>1.2</ele>
        <time>2016-05-05T09:53:09Z</time>
      </trkpt>
      <trkpt lat="59.28316201486" lon="17.83145708535">
        <ele>1.2</ele>
        <time>2016-05-05T09:53:11Z</time>
      </trkpt>
      <trkpt lat="59.283108119243" lon="17.83158616661">
        <ele>1.2</ele>
        <time>2016-05-05T09:53:12Z</time>
      </trkpt>
      <trkpt lat="59.283003932226" lon="17.831879197834">
        <ele>1.2</ele>
        <time>2016-05-05T09:53:14Z</time>
      </trkpt>
      <trkpt lat="59.282895973354" lon="17.832222855734">
        <ele>1.2</ele>
        <time>2016-05-05T09:53:16Z</time>
      </trkpt>
      <trkpt lat="59.282604953786" lon="17.833119551396">
        <ele>1.2</ele>
        <time>2016-05-05T09:53:21Z</time>
      </trkpt>
      <trkpt lat="59.282537228034" lon="17.833293308183">
        <ele>1.2</ele>
        <time>2016-05-05T09:53:22Z</time>
      </trkpt>
      <trkpt lat="59.282374870631" lon="17.833614670229">
        <ele>1.2</ele>
        <time>2016-05-05T09:53:24Z</time>
      </trkpt>
      <trkpt lat="59.282281244808" lon="17.83375204957">
        <ele>1.2</ele>
        <time>2016-05-05T09:53:25Z</time>
      </trkpt>
      <trkpt lat="59.282080498303" lon="17.833982887096">
        <ele>0.8</ele>
        <time>2016-05-05T09:53:27Z</time>
      </trkpt>
      <trkpt lat="59.281972204155" lon="17.834077518747">
        <ele>0.4</ele>
        <time>2016-05-05T09:53:28Z</time>
      </trkpt>
      <trkpt lat="59.281863490912" lon="17.834157314435">
        <ele>0</ele>
        <time>2016-05-05T09:53:29Z</time>
      </trkpt>
      <trkpt lat="59.281751089633" lon="17.834225207825">
        <ele>0</ele>
        <time>2016-05-05T09:53:30Z</time>
      </trkpt>
      <trkpt lat="59.281632234291" lon="17.834306344617">
        <ele>0</ele>
        <time>2016-05-05T09:53:31Z</time>
      </trkpt>
      <trkpt lat="59.281298215576" lon="17.834540199627">
        <ele>0</ele>
        <time>2016-05-05T09:53:34Z</time>
      </trkpt>
      <trkpt lat="59.280777951043" lon="17.835030373139">
        <ele>0</ele>
        <time>2016-05-05T09:53:39Z</time>
      </trkpt>
      <trkpt lat="59.28069019255" lon="17.835170350869">
        <ele>0.2</ele>
        <time>2016-05-05T09:53:40Z</time>
      </trkpt>
      <trkpt lat="59.280610145405" lon="17.835321727983">
        <ele>0.6</ele>
        <time>2016-05-05T09:53:41Z</time>
      </trkpt>
      <trkpt lat="59.280534959762" lon="17.835491042363">
        <ele>1.2</ele>
        <time>2016-05-05T09:53:42Z</time>
      </trkpt>
      <trkpt lat="59.280467317829" lon="17.835664128598">
        <ele>1.2</ele>
        <time>2016-05-05T09:53:43Z</time>
      </trkpt>
      <trkpt lat="59.280313342326" lon="17.836246251553">
        <ele>1.2</ele>
        <time>2016-05-05T09:53:46Z</time>
      </trkpt>
      <trkpt lat="59.280220638512" lon="17.836610780384">
        <ele>1.6</ele>
        <time>2016-05-05T09:53:48Z</time>
      </trkpt>
      <trkpt lat="59.280178142279" lon="17.836783698981">
        <ele>2</ele>
        <time>2016-05-05T09:53:49Z</time>
      </trkpt>
      <trkpt lat="59.280134640218" lon="17.83694890623">
        <ele>2.4</ele>
        <time>2016-05-05T09:53:50Z</time>
      </trkpt>
      <trkpt lat="59.280091976347" lon="17.83711738242">
        <ele>2.8</ele>
        <time>2016-05-05T09:53:51Z</time>
      </trkpt>
      <trkpt lat="59.280048055191" lon="17.837266077326">
        <ele>3.4</ele>
        <time>2016-05-05T09:53:52Z</time>
      </trkpt>
      <trkpt lat="59.279999440171" lon="17.837413934042">
        <ele>3.8</ele>
        <time>2016-05-05T09:53:53Z</time>
      </trkpt>
      <trkpt lat="59.279949986961" lon="17.837571597581">
        <ele>4.4</ele>
        <time>2016-05-05T09:53:54Z</time>
      </trkpt>
      <trkpt lat="59.279892570946" lon="17.837717107365">
        <ele>5</ele>
        <time>2016-05-05T09:53:55Z</time>
      </trkpt>
      <trkpt lat="59.279828114135" lon="17.837855911629">
        <ele>5.6</ele>
        <time>2016-05-05T09:53:56Z</time>
      </trkpt>
      <trkpt lat="59.279774386156" lon="17.838002427241">
        <ele>6.2</ele>
        <time>2016-05-05T09:53:57Z</time>
      </trkpt>
      <trkpt lat="59.279710516078" lon="17.838140225677">
        <ele>6.8</ele>
        <time>2016-05-05T09:53:58Z</time>
      </trkpt>
      <trkpt lat="59.279640443394" lon="17.83825396806">
        <ele>7.4</ele>
        <time>2016-05-05T09:53:59Z</time>
      </trkpt>
      <trkpt lat="59.279565173932" lon="17.838362597484">
        <ele>8</ele>
        <time>2016-05-05T09:54:00Z</time>
      </trkpt>
      <trkpt lat="59.279314890398" lon="17.838626543515">
        <ele>8</ele>
        <time>2016-05-05T09:54:03Z</time>
      </trkpt>
      <trkpt lat="59.279228053914" lon="17.838691084145">
        <ele>8</ele>
        <time>2016-05-05T09:54:04Z</time>
      </trkpt>
      <trkpt lat="59.279128979856" lon="17.838752104377">
        <ele>9</ele>
        <time>2016-05-05T09:54:05Z</time>
      </trkpt>
      <trkpt lat="59.279033174739" lon="17.838793930058">
        <ele>9.4</ele>
        <time>2016-05-05T09:54:06Z</time>
      </trkpt>
      <trkpt lat="59.278937285803" lon="17.838833408807">
        <ele>9.8</ele>
        <time>2016-05-05T09:54:07Z</time>
      </trkpt>
      <trkpt lat="59.278843157066" lon="17.838862074905">
        <ele>10.4</ele>
        <time>2016-05-05T09:54:08Z</time>
      </trkpt>
      <trkpt lat="59.278426492817" lon="17.839007919965">
        <ele>10.4</ele>
        <time>2016-05-05T09:54:12Z</time>
      </trkpt>
      <trkpt lat="59.27786633044" lon="17.839256946214">
        <ele>10.4</ele>
        <time>2016-05-05T09:54:17Z</time>
      </trkpt>
      <trkpt lat="59.277762143423" lon="17.839349398571">
        <ele>10</ele>
        <time>2016-05-05T09:54:18Z</time>
      </trkpt>
      <trkpt lat="59.277662398813" lon="17.839467834818">
        <ele>9.6</ele>
        <time>2016-05-05T09:54:19Z</time>
      </trkpt>
      <trkpt lat="59.27757044937" lon="17.83961770319">
        <ele>9</ele>
        <time>2016-05-05T09:54:20Z</time>
      </trkpt>
      <trkpt lat="59.27748495399" lon="17.83975265178">
        <ele>8.6</ele>
        <time>2016-05-05T09:54:21Z</time>
      </trkpt>
      <trkpt lat="59.277404403931" lon="17.839913332803">
        <ele>8.2</ele>
        <time>2016-05-05T09:54:22Z</time>
      </trkpt>
      <trkpt lat="59.277322177492" lon="17.840092537825">
        <ele>7.8</ele>
        <time>2016-05-05T09:54:23Z</time>
      </trkpt>
      <trkpt lat="59.277250512247" lon="17.840292949054">
        <ele>7.2</ele>
        <time>2016-05-05T09:54:24Z</time>
      </trkpt>
      <trkpt lat="59.277171973844" lon="17.840497467414">
        <ele>6.8</ele>
        <time>2016-05-05T09:54:25Z</time>
      </trkpt>
      <trkpt lat="59.277113132906" lon="17.8406813663">
        <ele>6.2</ele>
        <time>2016-05-05T09:54:26Z</time>
      </trkpt>
      <trkpt lat="59.277048424638" lon="17.840868366489">
        <ele>5.8</ele>
        <time>2016-05-05T09:54:27Z</time>
      </trkpt>
      <trkpt lat="59.276979357782" lon="17.841058048886">
        <ele>5.4</ele>
        <time>2016-05-05T09:54:28Z</time>
      </trkpt>
      <trkpt lat="59.276917415541" lon="17.841246222541">
        <ele>4.8</ele>
        <time>2016-05-05T09:54:29Z</time>
      </trkpt>
      <trkpt lat="59.276848348685" lon="17.841424924649">
        <ele>4</ele>
        <time>2016-05-05T09:54:30Z</time>
      </trkpt>
      <trkpt lat="59.276779533286" lon="17.841610835191">
        <ele>3.4</ele>
        <time>2016-05-05T09:54:31Z</time>
      </trkpt>
      <trkpt lat="59.276621785928" lon="17.841976621307">
        <ele>3.4</ele>
        <time>2016-05-05T09:54:33Z</time>
      </trkpt>
      <trkpt lat="59.276260945133" lon="17.84268044945">
        <ele>3</ele>
        <time>2016-05-05T09:54:37Z</time>
      </trkpt>
      <trkpt lat="59.276170001518" lon="17.842847584536">
        <ele>2.4</ele>
        <time>2016-05-05T09:54:38Z</time>
      </trkpt>
      <trkpt lat="59.276072939116" lon="17.843021844237">
        <ele>1.6</ele>
        <time>2016-05-05T09:54:39Z</time>
      </trkpt>
      <trkpt lat="59.275979648569" lon="17.843189314599">
        <ele>0.8</ele>
        <time>2016-05-05T09:54:40Z</time>
      </trkpt>
      <trkpt lat="59.275892728266" lon="17.843376482426">
        <ele>0</ele>
        <time>2016-05-05T09:54:41Z</time>
      </trkpt>
      <trkpt lat="59.275805137411" lon="17.843560968045">
        <ele>0</ele>
        <time>2016-05-05T09:54:42Z</time>
      </trkpt>
      <trkpt lat="59.27571972585" lon="17.843749393157">
        <ele>0</ele>
        <time>2016-05-05T09:54:43Z</time>
      </trkpt>
      <trkpt lat="59.275637331773" lon="17.843930861292">
        <ele>0</ele>
        <time>2016-05-05T09:54:44Z</time>
      </trkpt>
      <trkpt lat="59.275214967832" lon="17.84473066219">
        <ele>0</ele>
        <time>2016-05-05T09:54:49Z</time>
      </trkpt>
      <trkpt lat="59.275123102208" lon="17.844836609406">
        <ele>0</ele>
        <time>2016-05-05T09:54:50Z</time>
      </trkpt>
      <trkpt lat="59.27503157186" lon="17.844945574106">
        <ele>0</ele>
        <time>2016-05-05T09:54:51Z</time>
      </trkpt>
      <trkpt lat="59.274938700408" lon="17.845056299005">
        <ele>0.6</ele>
        <time>2016-05-05T09:54:52Z</time>
      </trkpt>
      <trkpt lat="59.274837279418" lon="17.84513718434">
        <ele>1.4</ele>
        <time>2016-05-05T09:54:53Z</time>
      </trkpt>
      <trkpt lat="59.274726303062" lon="17.845196863468">
        <ele>2.6</ele>
        <time>2016-05-05T09:54:54Z</time>
      </trkpt>
      <trkpt lat="59.274616416353" lon="17.845245143212">
        <ele>3.4</ele>
        <time>2016-05-05T09:54:55Z</time>
      </trkpt>
      <trkpt lat="59.274503009246" lon="17.84527213293">
        <ele>3.4</ele>
        <time>2016-05-05T09:54:56Z</time>
      </trkpt>
      <trkpt lat="59.274060528745" lon="17.845204910092">
        <ele>3.4</ele>
        <time>2016-05-05T09:55:00Z</time>
      </trkpt>
      <trkpt lat="59.273780908561" lon="17.845027968183">
        <ele>3.4</ele>
        <time>2016-05-05T09:55:03Z</time>
      </trkpt>
      <trkpt lat="59.273698346846" lon="17.844960158612">
        <ele>3.4</ele>
        <time>2016-05-05T09:55:04Z</time>
      </trkpt>
      <trkpt lat="59.273505563146" lon="17.844722950842">
        <ele>3.8</ele>
        <time>2016-05-05T09:55:07Z</time>
      </trkpt>
      <trkpt lat="59.273479998351" lon="17.844569394434">
        <ele>4.2</ele>
        <time>2016-05-05T09:55:08Z</time>
      </trkpt>
      <trkpt lat="59.27348343493" lon="17.844404690099">
        <ele>4.6</ele>
        <time>2016-05-05T09:55:09Z</time>
      </trkpt>
      <trkpt lat="59.273496929789" lon="17.844247613293">
        <ele>5</ele>
        <time>2016-05-05T09:55:10Z</time>
      </trkpt>
      <trkpt lat="59.273523248955" lon="17.844107467925">
        <ele>5.4</ele>
        <time>2016-05-05T09:55:11Z</time>
      </trkpt>
      <trkpt lat="59.273528445733" lon="17.843956342268">
        <ele>5.4</ele>
        <time>2016-05-05T09:55:12Z</time>
      </trkpt>
      <trkpt lat="59.273511765752" lon="17.843654007135">
        <ele>6</ele>
        <time>2016-05-05T09:55:14Z</time>
      </trkpt>
      <trkpt lat="59.273495840142" lon="17.843507072428">
        <ele>6.4</ele>
        <time>2016-05-05T09:55:15Z</time>
      </trkpt>
      <trkpt lat="59.273474801573" lon="17.843348570699">
        <ele>7</ele>
        <time>2016-05-05T09:55:16Z</time>
      </trkpt>
      <trkpt lat="59.273452002805" lon="17.843186967667">
        <ele>7.4</ele>
        <time>2016-05-05T09:55:17Z</time>
      </trkpt>
      <trkpt lat="59.273427443838" lon="17.84303081287">
        <ele>7.8</ele>
        <time>2016-05-05T09:55:18Z</time>
      </trkpt>
      <trkpt lat="59.273382181578" lon="17.842698721992">
        <ele>7.8</ele>
        <time>2016-05-05T09:55:20Z</time>
      </trkpt>
      <trkpt lat="59.273371620384" lon="17.842534855847">
        <ele>7.8</ele>
        <time>2016-05-05T09:55:21Z</time>
      </trkpt>
      <trkpt lat="59.273384444691" lon="17.842064463619">
        <ele>7.8</ele>
        <time>2016-05-05T09:55:24Z</time>
      </trkpt>
      <trkpt lat="59.273422749974" lon="17.841777970277">
        <ele>8.2</ele>
        <time>2016-05-05T09:55:26Z</time>
      </trkpt>
      <trkpt lat="59.27343398172" lon="17.841627179896">
        <ele>8.8</ele>
        <time>2016-05-05T09:55:27Z</time>
      </trkpt>
      <trkpt lat="59.273454182099" lon="17.841479993732">
        <ele>9.2</ele>
        <time>2016-05-05T09:55:28Z</time>
      </trkpt>
      <trkpt lat="59.273477986695" lon="17.841334232491">
        <ele>9.8</ele>
        <time>2016-05-05T09:55:29Z</time>
      </trkpt>
      <trkpt lat="59.273500869282" lon="17.841193416571">
        <ele>10.4</ele>
        <time>2016-05-05T09:55:30Z</time>
      </trkpt>
      <trkpt lat="59.27352282986" lon="17.841043883475">
        <ele>11.2</ele>
        <time>2016-05-05T09:55:31Z</time>
      </trkpt>
      <trkpt lat="59.273537162909" lon="17.840896613492">
        <ele>11.8</ele>
        <time>2016-05-05T09:55:32Z</time>
      </trkpt>
      <trkpt lat="59.273562560066" lon="17.840751858079">
        <ele>12.4</ele>
        <time>2016-05-05T09:55:33Z</time>
      </trkpt>
      <trkpt lat="59.273575132916" lon="17.840598636947">
        <ele>13</ele>
        <time>2016-05-05T09:55:34Z</time>
      </trkpt>
      <trkpt lat="59.273589465965" lon="17.840445583453">
        <ele>13.6</ele>
        <time>2016-05-05T09:55:35Z</time>
      </trkpt>
      <trkpt lat="59.273590807069" lon="17.840309461397">
        <ele>14.4</ele>
        <time>2016-05-05T09:55:36Z</time>
      </trkpt>
      <trkpt lat="59.273591058526" lon="17.840169818943">
        <ele>15.2</ele>
        <time>2016-05-05T09:55:37Z</time>
      </trkpt>
      <trkpt lat="59.273586699938" lon="17.840018609467">
        <ele>16</ele>
        <time>2016-05-05T09:55:38Z</time>
      </trkpt>
      <trkpt lat="59.273567756844" lon="17.839883744696">
        <ele>16.8</ele>
        <time>2016-05-05T09:55:39Z</time>
      </trkpt>
      <trkpt lat="59.2735446228" lon="17.839745443346">
        <ele>17.4</ele>
        <time>2016-05-05T09:55:40Z</time>
      </trkpt>
      <trkpt lat="59.273521488756" lon="17.839610913851">
        <ele>18.2</ele>
        <time>2016-05-05T09:55:41Z</time>
      </trkpt>
      <trkpt lat="59.273489805174" lon="17.839477054908">
        <ele>19</ele>
        <time>2016-05-05T09:55:42Z</time>
      </trkpt>
      <trkpt lat="59.273450242606" lon="17.839353924797">
        <ele>19.6</ele>
        <time>2016-05-05T09:55:43Z</time>
      </trkpt>
      <trkpt lat="59.273358125525" lon="17.839107077842">
        <ele>19.6</ele>
        <time>2016-05-05T09:55:45Z</time>
      </trkpt>
      <trkpt lat="59.273300541872" lon="17.839001465902">
        <ele>19.6</ele>
        <time>2016-05-05T09:55:46Z</time>
      </trkpt>
      <trkpt lat="59.273014802901" lon="17.838529145837">
        <ele>19.6</ele>
        <time>2016-05-05T09:55:51Z</time>
      </trkpt>
      <trkpt lat="59.272955207592" lon="17.838441806439">
        <ele>20</ele>
        <time>2016-05-05T09:55:52Z</time>
      </trkpt>
      <trkpt lat="59.272898965043" lon="17.838343402933">
        <ele>20.6</ele>
        <time>2016-05-05T09:55:53Z</time>
      </trkpt>
      <trkpt lat="59.272854121878" lon="17.838256985544">
        <ele>21</ele>
        <time>2016-05-05T09:55:54Z</time>
      </trkpt>
      <trkpt lat="59.272809111075" lon="17.838147937025">
        <ele>21.4</ele>
        <time>2016-05-05T09:55:55Z</time>
      </trkpt>
      <trkpt lat="59.272774829104" lon="17.838030841882">
        <ele>21.8</ele>
        <time>2016-05-05T09:55:56Z</time>
      </trkpt>
      <trkpt lat="59.272691261561" lon="17.837679137358">
        <ele>22.2</ele>
        <time>2016-05-05T09:55:59Z</time>
      </trkpt>
      <trkpt lat="59.272669803897" lon="17.837547457709">
        <ele>22.6</ele>
        <time>2016-05-05T09:56:00Z</time>
      </trkpt>
      <trkpt lat="59.272643233274" lon="17.837406138875">
        <ele>23.2</ele>
        <time>2016-05-05T09:56:01Z</time>
      </trkpt>
      <trkpt lat="59.272616495013" lon="17.837272782846">
        <ele>23.6</ele>
        <time>2016-05-05T09:56:02Z</time>
      </trkpt>
      <trkpt lat="59.272595875539" lon="17.83713917536">
        <ele>24</ele>
        <time>2016-05-05T09:56:03Z</time>
      </trkpt>
      <trkpt lat="59.27257316059" lon="17.837011602842">
        <ele>24.4</ele>
        <time>2016-05-05T09:56:04Z</time>
      </trkpt>
      <trkpt lat="59.272542063741" lon="17.83689861483">
        <ele>24.8</ele>
        <time>2016-05-05T09:56:05Z</time>
      </trkpt>
      <trkpt lat="59.272509122874" lon="17.836781184411">
        <ele>25.4</ele>
        <time>2016-05-05T09:56:06Z</time>
      </trkpt>
      <trkpt lat="59.272475343817" lon="17.836646990192">
        <ele>25.8</ele>
        <time>2016-05-05T09:56:07Z</time>
      </trkpt>
      <trkpt lat="59.272454891981" lon="17.83649796001">
        <ele>26.2</ele>
        <time>2016-05-05T09:56:08Z</time>
      </trkpt>
      <trkpt lat="59.272393536473" lon="17.836232924332">
        <ele>26.2</ele>
        <time>2016-05-05T09:56:10Z</time>
      </trkpt>
      <trkpt lat="59.272366546755" lon="17.836107028194">
        <ele>26.6</ele>
        <time>2016-05-05T09:56:11Z</time>
      </trkpt>
      <trkpt lat="59.272339389399" lon="17.835973755984">
        <ele>27.2</ele>
        <time>2016-05-05T09:56:12Z</time>
      </trkpt>
      <trkpt lat="59.272312315862" lon="17.835826653639">
        <ele>27.6</ele>
        <time>2016-05-05T09:56:13Z</time>
      </trkpt>
      <trkpt lat="59.272286918705" lon="17.835680389484">
        <ele>28</ele>
        <time>2016-05-05T09:56:14Z</time>
      </trkpt>
      <trkpt lat="59.272260096625" lon="17.835537226632">
        <ele>28.4</ele>
        <time>2016-05-05T09:56:15Z</time>
      </trkpt>
      <trkpt lat="59.272240147703" lon="17.835384340776">
        <ele>29</ele>
        <time>2016-05-05T09:56:16Z</time>
      </trkpt>
      <trkpt lat="59.272219025315" lon="17.835250230376">
        <ele>29.4</ele>
        <time>2016-05-05T09:56:17Z</time>
      </trkpt>
      <trkpt lat="59.272197902927" lon="17.83511327013">
        <ele>30</ele>
        <time>2016-05-05T09:56:18Z</time>
      </trkpt>
      <trkpt lat="59.272181390584" lon="17.834967089794">
        <ele>30.4</ele>
        <time>2016-05-05T09:56:19Z</time>
      </trkpt>
      <trkpt lat="59.272153395038" lon="17.83465226563">
        <ele>30.4</ele>
        <time>2016-05-05T09:56:21Z</time>
      </trkpt>
      <trkpt lat="59.272138559075" lon="17.834122697188">
        <ele>30.4</ele>
        <time>2016-05-05T09:56:24Z</time>
      </trkpt>
      <trkpt lat="59.272140822188" lon="17.833938043931">
        <ele>30.4</ele>
        <time>2016-05-05T09:56:25Z</time>
      </trkpt>
      <trkpt lat="59.272168985372" lon="17.832853006976">
        <ele>30.4</ele>
        <time>2016-05-05T09:56:31Z</time>
      </trkpt>
      <trkpt lat="59.272294462415" lon="17.832015403709">
        <ele>30.4</ele>
        <time>2016-05-05T09:56:36Z</time>
      </trkpt>
      <trkpt lat="59.272342155426" lon="17.831487595466">
        <ele>30.4</ele>
        <time>2016-05-05T09:56:39Z</time>
      </trkpt>
      <trkpt lat="59.272347016928" lon="17.831321466208">
        <ele>30.4</ele>
        <time>2016-05-05T09:56:40Z</time>
      </trkpt>
      <trkpt lat="59.272340814322" lon="17.831152990018">
        <ele>30.4</ele>
        <time>2016-05-05T09:56:41Z</time>
      </trkpt>
      <trkpt lat="59.272313154052" lon="17.830808996842">
        <ele>30.4</ele>
        <time>2016-05-05T09:56:43Z</time>
      </trkpt>
      <trkpt lat="59.272297898994" lon="17.830644795421">
        <ele>30.4</ele>
        <time>2016-05-05T09:56:44Z</time>
      </trkpt>
      <trkpt lat="59.272265209584" lon="17.83030625048">
        <ele>31</ele>
        <time>2016-05-05T09:56:46Z</time>
      </trkpt>
      <trkpt lat="59.272246937042" lon="17.830131655503">
        <ele>31.6</ele>
        <time>2016-05-05T09:56:47Z</time>
      </trkpt>
      <trkpt lat="59.272228413043" lon="17.829958485449">
        <ele>32.2</ele>
        <time>2016-05-05T09:56:48Z</time>
      </trkpt>
      <trkpt lat="59.272208967035" lon="17.82979663096">
        <ele>32.6</ele>
        <time>2016-05-05T09:56:49Z</time>
      </trkpt>
      <trkpt lat="59.27219178414" lon="17.829622455078">
        <ele>33.2</ele>
        <time>2016-05-05T09:56:50Z</time>
      </trkpt>
      <trkpt lat="59.27213813998" lon="17.82889892947">
        <ele>33.2</ele>
        <time>2016-05-05T09:56:54Z</time>
      </trkpt>
      <trkpt lat="59.27214652188" lon="17.828104409169">
        <ele>33.2</ele>
        <time>2016-05-05T09:56:58Z</time>
      </trkpt>
      <trkpt lat="59.272172924865" lon="17.827900226085">
        <ele>33.2</ele>
        <time>2016-05-05T09:56:59Z</time>
      </trkpt>
      <trkpt lat="59.272210727234" lon="17.827692606422">
        <ele>32.6</ele>
        <time>2016-05-05T09:57:00Z</time>
      </trkpt>
      <trkpt lat="59.272252804372" lon="17.827479370886">
        <ele>32</ele>
        <time>2016-05-05T09:57:01Z</time>
      </trkpt>
      <trkpt lat="59.272293791863" lon="17.827277450915">
        <ele>31.6</ele>
        <time>2016-05-05T09:57:02Z</time>
      </trkpt>
      <trkpt lat="59.272335869001" lon="17.827079554256">
        <ele>31</ele>
        <time>2016-05-05T09:57:03Z</time>
      </trkpt>
      <trkpt lat="59.272375431569" lon="17.82688308252">
        <ele>30.4</ele>
        <time>2016-05-05T09:57:04Z</time>
      </trkpt>
      <trkpt lat="59.272540303542" lon="17.82590323841">
        <ele>30.4</ele>
        <time>2016-05-05T09:57:09Z</time>
      </trkpt>
      <trkpt lat="59.27255807317" lon="17.825701318439">
        <ele>30.4</ele>
        <time>2016-05-05T09:57:10Z</time>
      </trkpt>
      <trkpt lat="59.272559414274" lon="17.825303848741">
        <ele>29.8</ele>
        <time>2016-05-05T09:57:12Z</time>
      </trkpt>
      <trkpt lat="59.272552122021" lon="17.825102347865">
        <ele>29.4</ele>
        <time>2016-05-05T09:57:13Z</time>
      </trkpt>
      <trkpt lat="59.272535274402" lon="17.824909396527">
        <ele>28.8</ele>
        <time>2016-05-05T09:57:14Z</time>
      </trkpt>
      <trkpt lat="59.272507865589" lon="17.824712086601">
        <ele>28.4</ele>
        <time>2016-05-05T09:57:15Z</time>
      </trkpt>
      <trkpt lat="59.272473583618" lon="17.82450597568">
        <ele>27.8</ele>
        <time>2016-05-05T09:57:16Z</time>
      </trkpt>
      <trkpt lat="59.272302509039" lon="17.823710198094">
        <ele>27.8</ele>
        <time>2016-05-05T09:57:20Z</time>
      </trkpt>
      <trkpt lat="59.272150042278" lon="17.822743932662">
        <ele>27.8</ele>
        <time>2016-05-05T09:57:25Z</time>
      </trkpt>
      <trkpt lat="59.272139229627" lon="17.822009426765">
        <ele>27.8</ele>
        <time>2016-05-05T09:57:29Z</time>
      </trkpt>
      <trkpt lat="59.272152053934" lon="17.821833909779">
        <ele>28.4</ele>
        <time>2016-05-05T09:57:30Z</time>
      </trkpt>
      <trkpt lat="59.272166722259" lon="17.821658476612">
        <ele>28.8</ele>
        <time>2016-05-05T09:57:31Z</time>
      </trkpt>
      <trkpt lat="59.272189521027" lon="17.821474913002">
        <ele>29.2</ele>
        <time>2016-05-05T09:57:32Z</time>
      </trkpt>
      <trkpt lat="59.272207542112" lon="17.821290930297">
        <ele>29.6</ele>
        <time>2016-05-05T09:57:33Z</time>
      </trkpt>
      <trkpt lat="59.272220198781" lon="17.82109538057">
        <ele>30</ele>
        <time>2016-05-05T09:57:34Z</time>
      </trkpt>
      <trkpt lat="59.272220869333" lon="17.820886000708">
        <ele>30</ele>
        <time>2016-05-05T09:57:35Z</time>
      </trkpt>
      <trkpt lat="59.272217432754" lon="17.820248724851">
        <ele>30</ele>
        <time>2016-05-05T09:57:38Z</time>
      </trkpt>
      <trkpt lat="59.272211397786" lon="17.820022665008">
        <ele>29.6</ele>
        <time>2016-05-05T09:57:39Z</time>
      </trkpt>
      <trkpt lat="59.272200501316" lon="17.819807250178">
        <ele>29.2</ele>
        <time>2016-05-05T09:57:40Z</time>
      </trkpt>
      <trkpt lat="59.272188263742" lon="17.81959669685">
        <ele>28.8</ele>
        <time>2016-05-05T09:57:41Z</time>
      </trkpt>
      <trkpt lat="59.272170913209" lon="17.819380611468">
        <ele>28.2</ele>
        <time>2016-05-05T09:57:42Z</time>
      </trkpt>
      <trkpt lat="59.272163118042" lon="17.819171399244">
        <ele>27.8</ele>
        <time>2016-05-05T09:57:43Z</time>
      </trkpt>
      <trkpt lat="59.272147695346" lon="17.818734702254">
        <ele>27.8</ele>
        <time>2016-05-05T09:57:45Z</time>
      </trkpt>
      <trkpt lat="59.272151886296" lon="17.818285013319">
        <ele>27</ele>
        <time>2016-05-05T09:57:47Z</time>
      </trkpt>
      <trkpt lat="59.272157921264" lon="17.818062725331">
        <ele>26.4</ele>
        <time>2016-05-05T09:57:48Z</time>
      </trkpt>
      <trkpt lat="59.272173511598" lon="17.817838006592">
        <ele>26</ele>
        <time>2016-05-05T09:57:49Z</time>
      </trkpt>
      <trkpt lat="59.272189604846" lon="17.817615802423">
        <ele>25.6</ele>
        <time>2016-05-05T09:57:50Z</time>
      </trkpt>
      <trkpt lat="59.272213493261" lon="17.817395023177">
        <ele>25</ele>
        <time>2016-05-05T09:57:51Z</time>
      </trkpt>
      <trkpt lat="59.272234196554" lon="17.817177764329">
        <ele>24.6</ele>
        <time>2016-05-05T09:57:52Z</time>
      </trkpt>
      <trkpt lat="59.272266299231" lon="17.81697148577">
        <ele>24.2</ele>
        <time>2016-05-05T09:57:53Z</time>
      </trkpt>
      <trkpt lat="59.272303514867" lon="17.816747269945">
        <ele>23.6</ele>
        <time>2016-05-05T09:57:54Z</time>
      </trkpt>
      <trkpt lat="59.272342490702" lon="17.816541075205">
        <ele>23.2</ele>
        <time>2016-05-05T09:57:55Z</time>
      </trkpt>
      <trkpt lat="59.272383226736" lon="17.816335802474">
        <ele>23.2</ele>
        <time>2016-05-05T09:57:56Z</time>
      </trkpt>
      <trkpt lat="59.2724633577" lon="17.815926430478">
        <ele>22.8</ele>
        <time>2016-05-05T09:57:58Z</time>
      </trkpt>
      <trkpt lat="59.272499232232" lon="17.81570414249">
        <ele>22.2</ele>
        <time>2016-05-05T09:57:59Z</time>
      </trkpt>
      <trkpt lat="59.272518929697" lon="17.815464084874">
        <ele>21.8</ele>
        <time>2016-05-05T09:58:00Z</time>
      </trkpt>
      <trkpt lat="59.272525719036" lon="17.815205922354">
        <ele>21.4</ele>
        <time>2016-05-05T09:58:01Z</time>
      </trkpt>
      <trkpt lat="59.272504093734" lon="17.814964439815">
        <ele>21</ele>
        <time>2016-05-05T09:58:02Z</time>
      </trkpt>
      <trkpt lat="59.272440391294" lon="17.814755981962">
        <ele>21</ele>
        <time>2016-05-05T09:58:03Z</time>
      </trkpt>
      <trkpt lat="59.272236711124" lon="17.814448030956">
        <ele>20.4</ele>
        <time>2016-05-05T09:58:05Z</time>
      </trkpt>
      <trkpt lat="59.272108719511" lon="17.814363625223">
        <ele>20</ele>
        <time>2016-05-05T09:58:06Z</time>
      </trkpt>
      <trkpt lat="59.271980727898" lon="17.814289529227">
        <ele>19.2</ele>
        <time>2016-05-05T09:58:07Z</time>
      </trkpt>
      <trkpt lat="59.271855502312" lon="17.814219540362">
        <ele>18.4</ele>
        <time>2016-05-05T09:58:08Z</time>
      </trkpt>
      <trkpt lat="59.271735054409" lon="17.814138655027">
        <ele>17.6</ele>
        <time>2016-05-05T09:58:09Z</time>
      </trkpt>
      <trkpt lat="59.271605302597" lon="17.814055674217">
        <ele>16.8</ele>
        <time>2016-05-05T09:58:10Z</time>
      </trkpt>
      <trkpt lat="59.271469096722" lon="17.813990798311">
        <ele>16.2</ele>
        <time>2016-05-05T09:58:11Z</time>
      </trkpt>
      <trkpt lat="59.271337333254" lon="17.813898765049">
        <ele>16.2</ele>
        <time>2016-05-05T09:58:12Z</time>
      </trkpt>
      <trkpt lat="59.27121529279" lon="17.813776389309">
        <ele>15.6</ele>
        <time>2016-05-05T09:58:13Z</time>
      </trkpt>
      <trkpt lat="59.271102472416" lon="17.813620988883">
        <ele>15</ele>
        <time>2016-05-05T09:58:14Z</time>
      </trkpt>
      <trkpt lat="59.271001135245" lon="17.813458128566">
        <ele>14.6</ele>
        <time>2016-05-05T09:58:15Z</time>
      </trkpt>
      <trkpt lat="59.270894601296" lon="17.813254867491">
        <ele>14</ele>
        <time>2016-05-05T09:58:16Z</time>
      </trkpt>
      <trkpt lat="59.270803070948" lon="17.813053031339">
        <ele>13.4</ele>
        <time>2016-05-05T09:58:17Z</time>
      </trkpt>
      <trkpt lat="59.270717743206" lon="17.812832419731">
        <ele>12.8</ele>
        <time>2016-05-05T09:58:18Z</time>
      </trkpt>
      <trkpt lat="59.27064280902" lon="17.812610215562">
        <ele>12.2</ele>
        <time>2016-05-05T09:58:19Z</time>
      </trkpt>
      <trkpt lat="59.270581369693" lon="17.812366637548">
        <ele>11.4</ele>
        <time>2016-05-05T09:58:20Z</time>
      </trkpt>
      <trkpt lat="59.270532000302" lon="17.812113504168">
        <ele>10.8</ele>
        <time>2016-05-05T09:58:21Z</time>
      </trkpt>
      <trkpt lat="59.270505513498" lon="17.811856096019">
        <ele>10</ele>
        <time>2016-05-05T09:58:22Z</time>
      </trkpt>
      <trkpt lat="59.270499813806" lon="17.811335077115">
        <ele>10</ele>
        <time>2016-05-05T09:58:24Z</time>
      </trkpt>
      <trkpt lat="59.270507944249" lon="17.81109242111">
        <ele>10</ele>
        <time>2016-05-05T09:58:25Z</time>
      </trkpt>
      <trkpt lat="59.270534347234" lon="17.810436369797">
        <ele>10</ele>
        <time>2016-05-05T09:58:28Z</time>
      </trkpt>
      <trkpt lat="59.270544992247" lon="17.81023579093">
        <ele>10.4</ele>
        <time>2016-05-05T09:58:29Z</time>
      </trkpt>
      <trkpt lat="59.270560163486" lon="17.810039235375">
        <ele>10.8</ele>
        <time>2016-05-05T09:58:30Z</time>
      </trkpt>
      <trkpt lat="59.270575334725" lon="17.809850055892">
        <ele>11.2</ele>
        <time>2016-05-05T09:58:31Z</time>
      </trkpt>
      <trkpt lat="59.270594696914" lon="17.80964989612">
        <ele>11.6</ele>
        <time>2016-05-05T09:58:32Z</time>
      </trkpt>
      <trkpt lat="59.270610622524" lon="17.809462728293">
        <ele>12.2</ele>
        <time>2016-05-05T09:58:33Z</time>
      </trkpt>
      <trkpt lat="59.270627973057" lon="17.809275979561">
        <ele>12.6</ele>
        <time>2016-05-05T09:58:34Z</time>
      </trkpt>
      <trkpt lat="59.270648005798" lon="17.809102809507">
        <ele>13.2</ele>
        <time>2016-05-05T09:58:35Z</time>
      </trkpt>
      <trkpt lat="59.270674408783" lon="17.80893743462">
        <ele>13.6</ele>
        <time>2016-05-05T09:58:36Z</time>
      </trkpt>
      <trkpt lat="59.270707433469" lon="17.808789242628">
        <ele>14.6</ele>
        <time>2016-05-05T09:58:37Z</time>
      </trkpt>
      <trkpt lat="59.270738530318" lon="17.80864993545">
        <ele>15.2</ele>
        <time>2016-05-05T09:58:38Z</time>
      </trkpt>
      <trkpt lat="59.270773231384" lon="17.808509203349">
        <ele>15.6</ele>
        <time>2016-05-05T09:58:39Z</time>
      </trkpt>
      <trkpt lat="59.270808351545" lon="17.808374841492">
        <ele>16</ele>
        <time>2016-05-05T09:58:40Z</time>
      </trkpt>
      <trkpt lat="59.270848417027" lon="17.808278701099">
        <ele>16.8</ele>
        <time>2016-05-05T09:58:41Z</time>
      </trkpt>
      <trkpt lat="59.270877083125" lon="17.808149955115">
        <ele>17.4</ele>
        <time>2016-05-05T09:58:42Z</time>
      </trkpt>
      <trkpt lat="59.2709127062" lon="17.808065633201">
        <ele>18</ele>
        <time>2016-05-05T09:58:43Z</time>
      </trkpt>
      <trkpt lat="59.270944725058" lon="17.807967397333">
        <ele>18.8</ele>
        <time>2016-05-05T09:58:44Z</time>
      </trkpt>
      <trkpt lat="59.270969367844" lon="17.807849128724">
        <ele>19.6</ele>
        <time>2016-05-05T09:58:45Z</time>
      </trkpt>
      <trkpt lat="59.27099317244" lon="17.807748462105">
        <ele>20.4</ele>
        <time>2016-05-05T09:58:46Z</time>
      </trkpt>
      <trkpt lat="59.271021167986" lon="17.807628265659">
        <ele>21.2</ele>
        <time>2016-05-05T09:58:47Z</time>
      </trkpt>
      <trkpt lat="59.271058802717" lon="17.807513014534">
        <ele>21.8</ele>
        <time>2016-05-05T09:58:48Z</time>
      </trkpt>
      <trkpt lat="59.271094090516" lon="17.807391057889">
        <ele>22.4</ele>
        <time>2016-05-05T09:58:49Z</time>
      </trkpt>
      <trkpt lat="59.271130384143" lon="17.807258288593">
        <ele>23</ele>
        <time>2016-05-05T09:58:50Z</time>
      </trkpt>
      <trkpt lat="59.271167935055" lon="17.807126273668">
        <ele>23.6</ele>
        <time>2016-05-05T09:58:51Z</time>
      </trkpt>
      <trkpt lat="59.271203055216" lon="17.806996270399">
        <ele>24.2</ele>
        <time>2016-05-05T09:58:52Z</time>
      </trkpt>
      <trkpt lat="59.271314283029" lon="17.80633736924">
        <ele>24.2</ele>
        <time>2016-05-05T09:58:57Z</time>
      </trkpt>
      <trkpt lat="59.271384188075" lon="17.805627673767">
        <ele>24.2</ele>
        <time>2016-05-05T09:59:03Z</time>
      </trkpt>
      <trkpt lat="59.271390642138" lon="17.805514769574">
        <ele>24.8</ele>
        <time>2016-05-05T09:59:04Z</time>
      </trkpt>
      <trkpt lat="59.271401203332" lon="17.805398847897">
        <ele>25.2</ele>
        <time>2016-05-05T09:59:05Z</time>
      </trkpt>
      <trkpt lat="59.271408830861" lon="17.805286865713">
        <ele>25.8</ele>
        <time>2016-05-05T09:59:06Z</time>
      </trkpt>
      <trkpt lat="59.271408244128" lon="17.805176643728">
        <ele>26.2</ele>
        <time>2016-05-05T09:59:07Z</time>
      </trkpt>
      <trkpt lat="59.271418637684" lon="17.805072205254">
        <ele>26.8</ele>
        <time>2016-05-05T09:59:08Z</time>
      </trkpt>
      <trkpt lat="59.271425762299" lon="17.80496357583">
        <ele>26.8</ele>
        <time>2016-05-05T09:59:09Z</time>
      </trkpt>
      <trkpt lat="59.271441939366" lon="17.804757884004">
        <ele>27.2</ele>
        <time>2016-05-05T09:59:11Z</time>
      </trkpt>
      <trkpt lat="59.271456272415" lon="17.804654870453">
        <ele>27.8</ele>
        <time>2016-05-05T09:59:12Z</time>
      </trkpt>
      <trkpt lat="59.271472449482" lon="17.804552275997">
        <ele>28.2</ele>
        <time>2016-05-05T09:59:13Z</time>
      </trkpt>
      <trkpt lat="59.271488878006" lon="17.804445406772">
        <ele>28.8</ele>
        <time>2016-05-05T09:59:14Z</time>
      </trkpt>
      <trkpt lat="59.271505725625" lon="17.804336106796">
        <ele>29.2</ele>
        <time>2016-05-05T09:59:15Z</time>
      </trkpt>
      <trkpt lat="59.271527350927" lon="17.804228567019">
        <ele>29.2</ele>
        <time>2016-05-05T09:59:16Z</time>
      </trkpt>
      <trkpt lat="59.271576971775" lon="17.804005440841">
        <ele>29.6</ele>
        <time>2016-05-05T09:59:18Z</time>
      </trkpt>
      <trkpt lat="59.271604715864" lon="17.803897230512">
        <ele>30</ele>
        <time>2016-05-05T09:59:19Z</time>
      </trkpt>
      <trkpt lat="59.271633717238" lon="17.80378591888">
        <ele>30.4</ele>
        <time>2016-05-05T09:59:20Z</time>
      </trkpt>
      <trkpt lat="59.271660287861" lon="17.8036752778">
        <ele>31</ele>
        <time>2016-05-05T09:59:21Z</time>
      </trkpt>
      <trkpt lat="59.271682667534" lon="17.803560864865">
        <ele>31.4</ele>
        <time>2016-05-05T09:59:22Z</time>
      </trkpt>
      <trkpt lat="59.271839325245" lon="17.802968515992">
        <ele>31.8</ele>
        <time>2016-05-05T09:59:27Z</time>
      </trkpt>
      <trkpt lat="59.271868410438" lon="17.802843458044">
        <ele>32.2</ele>
        <time>2016-05-05T09:59:28Z</time>
      </trkpt>
      <trkpt lat="59.27189087393" lon="17.802713454775">
        <ele>32.6</ele>
        <time>2016-05-05T09:59:29Z</time>
      </trkpt>
      <trkpt lat="59.271913421241" lon="17.802585463162">
        <ele>33.2</ele>
        <time>2016-05-05T09:59:30Z</time>
      </trkpt>
      <trkpt lat="59.271937142018" lon="17.802450263115">
        <ele>33.6</ele>
        <time>2016-05-05T09:59:31Z</time>
      </trkpt>
      <trkpt lat="59.27197301655" lon="17.802160752289">
        <ele>33.6</ele>
        <time>2016-05-05T09:59:33Z</time>
      </trkpt>
      <trkpt lat="59.271988187789" lon="17.801561278801">
        <ele>33.6</ele>
        <time>2016-05-05T09:59:37Z</time>
      </trkpt>
      <trkpt lat="59.271992546377" lon="17.801075547696">
        <ele>33.2</ele>
        <time>2016-05-05T09:59:40Z</time>
      </trkpt>
      <trkpt lat="59.271989696531" lon="17.800903551108">
        <ele>32.6</ele>
        <time>2016-05-05T09:59:41Z</time>
      </trkpt>
      <trkpt lat="59.271992462558" lon="17.800733901452">
        <ele>32.2</ele>
        <time>2016-05-05T09:59:42Z</time>
      </trkpt>
      <trkpt lat="59.27199313311" lon="17.800554109697">
        <ele>31.8</ele>
        <time>2016-05-05T09:59:43Z</time>
      </trkpt>
      <trkpt lat="59.271990450902" lon="17.800375156132">
        <ele>31.4</ele>
        <time>2016-05-05T09:59:44Z</time>
      </trkpt>
      <trkpt lat="59.271994474214" lon="17.799989588732">
        <ele>30.8</ele>
        <time>2016-05-05T09:59:46Z</time>
      </trkpt>
      <trkpt lat="59.271992378739" lon="17.799797140308">
        <ele>30.4</ele>
        <time>2016-05-05T09:59:47Z</time>
      </trkpt>
      <trkpt lat="59.27199564768" lon="17.799609888662">
        <ele>29.6</ele>
        <time>2016-05-05T09:59:48Z</time>
      </trkpt>
      <trkpt lat="59.271998748983" lon="17.799420290084">
        <ele>29</ele>
        <time>2016-05-05T09:59:49Z</time>
      </trkpt>
      <trkpt lat="59.272002939933" lon="17.799233206076">
        <ele>28.2</ele>
        <time>2016-05-05T09:59:50Z</time>
      </trkpt>
      <trkpt lat="59.272009729272" lon="17.799047714629">
        <ele>26.6</ele>
        <time>2016-05-05T09:59:51Z</time>
      </trkpt>
      <trkpt lat="59.27201492605" lon="17.798354280042">
        <ele>26.6</ele>
        <time>2016-05-05T09:59:55Z</time>
      </trkpt>
      <trkpt lat="59.272048621288" lon="17.797523130838">
        <ele>26.6</ele>
        <time>2016-05-05T10:00:00Z</time>
      </trkpt>
      <trkpt lat="59.272074940454" lon="17.797181987508">
        <ele>26.6</ele>
        <time>2016-05-05T10:00:02Z</time>
      </trkpt>
      <trkpt lat="59.272116263221" lon="17.79685324939">
        <ele>26.2</ele>
        <time>2016-05-05T10:00:04Z</time>
      </trkpt>
      <trkpt lat="59.272142750025" lon="17.79670321338">
        <ele>25.8</ele>
        <time>2016-05-05T10:00:05Z</time>
      </trkpt>
      <trkpt lat="59.272163034223" lon="17.796543286728">
        <ele>25.4</ele>
        <time>2016-05-05T10:00:06Z</time>
      </trkpt>
      <trkpt lat="59.272186168267" lon="17.796383108619">
        <ele>25</ele>
        <time>2016-05-05T10:00:07Z</time>
      </trkpt>
      <trkpt lat="59.272208212664" lon="17.796225612718">
        <ele>24.6</ele>
        <time>2016-05-05T10:00:08Z</time>
      </trkpt>
      <trkpt lat="59.272277614796" lon="17.795702833615">
        <ele>24.6</ele>
        <time>2016-05-05T10:00:11Z</time>
      </trkpt>
      <trkpt lat="59.272430165376" lon="17.79468736643">
        <ele>24.6</ele>
        <time>2016-05-05T10:00:17Z</time>
      </trkpt>
      <trkpt lat="59.272452042135" lon="17.794516962403">
        <ele>24.6</ele>
        <time>2016-05-05T10:00:18Z</time>
      </trkpt>
      <trkpt lat="59.272581458671" lon="17.793750605286">
        <ele>24.6</ele>
        <time>2016-05-05T10:00:23Z</time>
      </trkpt>
      <trkpt lat="59.272684891317" lon="17.792981565961">
        <ele>24.6</ele>
        <time>2016-05-05T10:00:28Z</time>
      </trkpt>
      <trkpt lat="59.272756305105" lon="17.792522489298">
        <ele>25</ele>
        <time>2016-05-05T10:00:31Z</time>
      </trkpt>
      <trkpt lat="59.272777343674" lon="17.792394581504">
        <ele>25.4</ele>
        <time>2016-05-05T10:00:32Z</time>
      </trkpt>
      <trkpt lat="59.272799136614" lon="17.792261812208">
        <ele>25.8</ele>
        <time>2016-05-05T10:00:33Z</time>
      </trkpt>
      <trkpt lat="59.272816570966" lon="17.792125271057">
        <ele>26.2</ele>
        <time>2016-05-05T10:00:34Z</time>
      </trkpt>
      <trkpt lat="59.272834089137" lon="17.791988562268">
        <ele>26.8</ele>
        <time>2016-05-05T10:00:35Z</time>
      </trkpt>
      <trkpt lat="59.272926457675" lon="17.791339300294">
        <ele>26.8</ele>
        <time>2016-05-05T10:00:40Z</time>
      </trkpt>
      <trkpt lat="59.27295872799" lon="17.791082227421">
        <ele>27.2</ele>
        <time>2016-05-05T10:00:42Z</time>
      </trkpt>
      <trkpt lat="59.272979347464" lon="17.790949374306">
        <ele>27.6</ele>
        <time>2016-05-05T10:00:43Z</time>
      </trkpt>
      <trkpt lat="59.272999631662" lon="17.790820293046">
        <ele>28</ele>
        <time>2016-05-05T10:00:44Z</time>
      </trkpt>
      <trkpt lat="59.273017485109" lon="17.79067914185">
        <ele>28.4</ele>
        <time>2016-05-05T10:00:45Z</time>
      </trkpt>
      <trkpt lat="59.273031315244" lon="17.790544779993">
        <ele>28.8</ele>
        <time>2016-05-05T10:00:46Z</time>
      </trkpt>
      <trkpt lat="59.273046570302" lon="17.790415028181">
        <ele>28.8</ele>
        <time>2016-05-05T10:00:47Z</time>
      </trkpt>
      <trkpt lat="59.27315486445" lon="17.789627548676">
        <ele>28.8</ele>
        <time>2016-05-05T10:00:53Z</time>
      </trkpt>
      <trkpt lat="59.273300625691" lon="17.788821796629">
        <ele>28.8</ele>
        <time>2016-05-05T10:00:59Z</time>
      </trkpt>
      <trkpt lat="59.273512268666" lon="17.788068934371">
        <ele>28.8</ele>
        <time>2016-05-05T10:01:05Z</time>
      </trkpt>
      <trkpt lat="59.273845030096" lon="17.787144746077">
        <ele>28.8</ele>
        <time>2016-05-05T10:01:13Z</time>
      </trkpt>
      <trkpt lat="59.27393521934" lon="17.786920781709">
        <ele>28.8</ele>
        <time>2016-05-05T10:01:15Z</time>
      </trkpt>
      <trkpt lat="59.274095565087" lon="17.786629426865">
        <ele>28.8</ele>
        <time>2016-05-05T10:01:18Z</time>
      </trkpt>
      <trkpt lat="59.274251636065" lon="17.786393141104">
        <ele>28.8</ele>
        <time>2016-05-05T10:01:21Z</time>
      </trkpt>
      <trkpt lat="59.274369569398" lon="17.786239836153">
        <ele>28.8</ele>
        <time>2016-05-05T10:01:23Z</time>
      </trkpt>
      <trkpt lat="59.274660169871" lon="17.785925850179">
        <ele>28.8</ele>
        <time>2016-05-05T10:01:28Z</time>
      </trkpt>
      <trkpt lat="59.274718507895" lon="17.785863405024">
        <ele>28.8</ele>
        <time>2016-05-05T10:01:29Z</time>
      </trkpt>
      <trkpt lat="59.27515227122" lon="17.785500468754">
        <ele>28.8</ele>
        <time>2016-05-05T10:01:36Z</time>
      </trkpt>
      <trkpt lat="59.275435411802" lon="17.78536585544">
        <ele>28.4</ele>
        <time>2016-05-05T10:01:40Z</time>
      </trkpt>
      <trkpt lat="59.275501964088" lon="17.785326628148">
        <ele>27.8</ele>
        <time>2016-05-05T10:01:41Z</time>
      </trkpt>
      <trkpt lat="59.275566588537" lon="17.785300560439">
        <ele>27.4</ele>
        <time>2016-05-05T10:01:42Z</time>
      </trkpt>
      <trkpt lat="59.275630542434" lon="17.785263680079">
        <ele>27</ele>
        <time>2016-05-05T10:01:43Z</time>
      </trkpt>
      <trkpt lat="59.275694747788" lon="17.785223279321">
        <ele>26.6</ele>
        <time>2016-05-05T10:01:44Z</time>
      </trkpt>
      <trkpt lat="59.275900523433" lon="17.785071734569">
        <ele>26.6</ele>
        <time>2016-05-05T10:01:48Z</time>
      </trkpt>
      <trkpt lat="59.275925501495" lon="17.78502387392">
        <ele>26.6</ele>
        <time>2016-05-05T10:01:51Z</time>
      </trkpt>
      <trkpt lat="59.27594855172" lon="17.784978276384">
        <ele>26.6</ele>
        <time>2016-05-05T10:04:22Z</time>
      </trkpt>
      <trkpt lat="59.276002782613" lon="17.784876520118">
        <ele>26.6</ele>
        <time>2016-05-05T10:04:26Z</time>
      </trkpt>
      <trkpt lat="59.276055588583" lon="17.784791360014">
        <ele>26.6</ele>
        <time>2016-05-05T10:04:29Z</time>
      </trkpt>
      <trkpt lat="59.276072100926" lon="17.78478834253">
        <ele>26.6</ele>
        <time>2016-05-05T10:04:30Z</time>
      </trkpt>
      <trkpt lat="59.276152064252" lon="17.784832682781">
        <ele>26.6</ele>
        <time>2016-05-05T10:04:33Z</time>
      </trkpt>
      <trkpt lat="59.27630394428" lon="17.785030998535">
        <ele>26.2</ele>
        <time>2016-05-05T10:04:37Z</time>
      </trkpt>
      <trkpt lat="59.276334454396" lon="17.785056060416">
        <ele>25.8</ele>
        <time>2016-05-05T10:04:38Z</time>
      </trkpt>
      <trkpt lat="59.276360605924" lon="17.785070309646">
        <ele>25.4</ele>
        <time>2016-05-05T10:04:39Z</time>
      </trkpt>
      <trkpt lat="59.276389272022" lon="17.785085648523">
        <ele>25</ele>
        <time>2016-05-05T10:04:40Z</time>
      </trkpt>
      <trkpt lat="59.276427744943" lon="17.785126803652">
        <ele>24.6</ele>
        <time>2016-05-05T10:04:41Z</time>
      </trkpt>
      <trkpt lat="59.276528160105" lon="17.785262506613">
        <ele>24.6</ele>
        <time>2016-05-05T10:04:43Z</time>
      </trkpt>
      <trkpt lat="59.276642824497" lon="17.785427210948">
        <ele>24.6</ele>
        <time>2016-05-05T10:04:45Z</time>
      </trkpt>
      <trkpt lat="59.276772157214" lon="17.785589400713">
        <ele>24.2</ele>
        <time>2016-05-05T10:04:47Z</time>
      </trkpt>
      <trkpt lat="59.276837787491" lon="17.785669950772">
        <ele>23.4</ele>
        <time>2016-05-05T10:04:48Z</time>
      </trkpt>
      <trkpt lat="59.276907021985" lon="17.785754105048">
        <ele>23</ele>
        <time>2016-05-05T10:04:49Z</time>
      </trkpt>
      <trkpt lat="59.276976591755" lon="17.785839516609">
        <ele>22.4</ele>
        <time>2016-05-05T10:04:50Z</time>
      </trkpt>
      <trkpt lat="59.277121514806" lon="17.786008914808">
        <ele>22.4</ele>
        <time>2016-05-05T10:04:52Z</time>
      </trkpt>
      <trkpt lat="59.27718991111" lon="17.786111257807">
        <ele>22.4</ele>
        <time>2016-05-05T10:04:53Z</time>
      </trkpt>
      <trkpt lat="59.277257133948" lon="17.786224497276">
        <ele>22</ele>
        <time>2016-05-05T10:04:54Z</time>
      </trkpt>
      <trkpt lat="59.277322931863" lon="17.786333629614">
        <ele>21.6</ele>
        <time>2016-05-05T10:04:55Z</time>
      </trkpt>
      <trkpt lat="59.277387891588" lon="17.786441169391">
        <ele>21.2</ele>
        <time>2016-05-05T10:04:56Z</time>
      </trkpt>
      <trkpt lat="59.277447989811" lon="17.78655692343">
        <ele>20.8</ele>
        <time>2016-05-05T10:04:57Z</time>
      </trkpt>
      <trkpt lat="59.277508339491" lon="17.786683406301">
        <ele>20.4</ele>
        <time>2016-05-05T10:04:58Z</time>
      </trkpt>
      <trkpt lat="59.277737165361" lon="17.787221691919">
        <ele>20</ele>
        <time>2016-05-05T10:05:02Z</time>
      </trkpt>
      <trkpt lat="59.277791060978" lon="17.787366447332">
        <ele>19.4</ele>
        <time>2016-05-05T10:05:03Z</time>
      </trkpt>
      <trkpt lat="59.277843866948" lon="17.787513382039">
        <ele>19</ele>
        <time>2016-05-05T10:05:04Z</time>
      </trkpt>
      <trkpt lat="59.277896756737" lon="17.787658472728">
        <ele>18.6</ele>
        <time>2016-05-05T10:05:05Z</time>
      </trkpt>
      <trkpt lat="59.277950568535" lon="17.787805155978">
        <ele>18</ele>
        <time>2016-05-05T10:05:06Z</time>
      </trkpt>
      <trkpt lat="59.278122648942" lon="17.78828108026">
        <ele>17.6</ele>
        <time>2016-05-05T10:05:09Z</time>
      </trkpt>
      <trkpt lat="59.278178640034" lon="17.788437402695">
        <ele>17</ele>
        <time>2016-05-05T10:05:10Z</time>
      </trkpt>
      <trkpt lat="59.278238570619" lon="17.788598670451">
        <ele>16.6</ele>
        <time>2016-05-05T10:05:11Z</time>
      </trkpt>
      <trkpt lat="59.278300931955" lon="17.788757339818">
        <ele>16</ele>
        <time>2016-05-05T10:05:12Z</time>
      </trkpt>
      <trkpt lat="59.278368657707" lon="17.788916847375">
        <ele>15</ele>
        <time>2016-05-05T10:05:13Z</time>
      </trkpt>
      <trkpt lat="59.278437054011" lon="17.789068308308">
        <ele>14.6</ele>
        <time>2016-05-05T10:05:14Z</time>
      </trkpt>
      <trkpt lat="59.278509054532" lon="17.789207615486">
        <ele>14</ele>
        <time>2016-05-05T10:05:15Z</time>
      </trkpt>
      <trkpt lat="59.278586922383" lon="17.789333679262">
        <ele>13.4</ele>
        <time>2016-05-05T10:05:16Z</time>
      </trkpt>
      <trkpt lat="59.278837457374" lon="17.789652694376">
        <ele>13</ele>
        <time>2016-05-05T10:05:19Z</time>
      </trkpt>
      <trkpt lat="59.278923455668" lon="17.789741961611">
        <ele>12.6</ele>
        <time>2016-05-05T10:05:20Z</time>
      </trkpt>
      <trkpt lat="59.279008951048" lon="17.78982502624">
        <ele>12.2</ele>
        <time>2016-05-05T10:05:21Z</time>
      </trkpt>
      <trkpt lat="59.279095368437" lon="17.78989962515">
        <ele>11.8</ele>
        <time>2016-05-05T10:05:22Z</time>
      </trkpt>
      <trkpt lat="59.279182707835" lon="17.789961567391">
        <ele>11.4</ele>
        <time>2016-05-05T10:05:23Z</time>
      </trkpt>
      <trkpt lat="59.279363756875" lon="17.790057288689">
        <ele>11.4</ele>
        <time>2016-05-05T10:05:25Z</time>
      </trkpt>
      <trkpt lat="59.279450425721" lon="17.790097940904">
        <ele>10.8</ele>
        <time>2016-05-05T10:05:26Z</time>
      </trkpt>
      <trkpt lat="59.279533238893" lon="17.790141610603">
        <ele>10.4</ele>
        <time>2016-05-05T10:05:27Z</time>
      </trkpt>
      <trkpt lat="59.279609681821" lon="17.790188549243">
        <ele>10</ele>
        <time>2016-05-05T10:05:28Z</time>
      </trkpt>
      <trkpt lat="59.27967598265" lon="17.790246971086">
        <ele>9.4</ele>
        <time>2016-05-05T10:05:29Z</time>
      </trkpt>
      <trkpt lat="59.279735410321" lon="17.790312517544">
        <ele>9</ele>
        <time>2016-05-05T10:05:30Z</time>
      </trkpt>
      <trkpt lat="59.279798442209" lon="17.790370268835">
        <ele>9</ele>
        <time>2016-05-05T10:05:31Z</time>
      </trkpt>
      <trkpt lat="59.279955519015" lon="17.790420811692">
        <ele>9</ele>
        <time>2016-05-05T10:05:33Z</time>
      </trkpt>
      <trkpt lat="59.280137322426" lon="17.790423661538">
        <ele>9</ele>
        <time>2016-05-05T10:05:35Z</time>
      </trkpt>
      <trkpt lat="59.280326501909" lon="17.79049138729">
        <ele>8.4</ele>
        <time>2016-05-05T10:05:37Z</time>
      </trkpt>
      <trkpt lat="59.280411159099" lon="17.7905324586">
        <ele>8</ele>
        <time>2016-05-05T10:05:38Z</time>
      </trkpt>
      <trkpt lat="59.280498414678" lon="17.790568919865">
        <ele>7.6</ele>
        <time>2016-05-05T10:05:39Z</time>
      </trkpt>
      <trkpt lat="59.280580724936" lon="17.79060202837">
        <ele>7</ele>
        <time>2016-05-05T10:05:40Z</time>
      </trkpt>
      <trkpt lat="59.280660604443" lon="17.790634550142">
        <ele>6.6</ele>
        <time>2016-05-05T10:05:41Z</time>
      </trkpt>
      <trkpt lat="59.280820028181" lon="17.79071015488">
        <ele>6.6</ele>
        <time>2016-05-05T10:05:43Z</time>
      </trkpt>
      <trkpt lat="59.280900242964" lon="17.790747705792">
        <ele>7</ele>
        <time>2016-05-05T10:05:44Z</time>
      </trkpt>
      <trkpt lat="59.280982050308" lon="17.790783999419">
        <ele>7.4</ele>
        <time>2016-05-05T10:05:45Z</time>
      </trkpt>
      <trkpt lat="59.281062935643" lon="17.790819706313">
        <ele>7.8</ele>
        <time>2016-05-05T10:05:46Z</time>
      </trkpt>
      <trkpt lat="59.281144156254" lon="17.790854994112">
        <ele>8.2</ele>
        <time>2016-05-05T10:05:47Z</time>
      </trkpt>
      <trkpt lat="59.281220096268" lon="17.790888437893">
        <ele>8.6</ele>
        <time>2016-05-05T10:05:48Z</time>
      </trkpt>
      <trkpt lat="59.28136828826" lon="17.790958175301">
        <ele>8.6</ele>
        <time>2016-05-05T10:05:50Z</time>
      </trkpt>
      <trkpt lat="59.281910094276" lon="17.79120803974">
        <ele>8.6</ele>
        <time>2016-05-05T10:05:57Z</time>
      </trkpt>
      <trkpt lat="59.281987543032" lon="17.791243411358">
        <ele>8.6</ele>
        <time>2016-05-05T10:05:58Z</time>
      </trkpt>
      <trkpt lat="59.282518704035" lon="17.791480702947">
        <ele>8.6</ele>
        <time>2016-05-05T10:06:05Z</time>
      </trkpt>
      <trkpt lat="59.282594224954" lon="17.7915131409">
        <ele>8.6</ele>
        <time>2016-05-05T10:06:06Z</time>
      </trkpt>
      <trkpt lat="59.28317710228" lon="17.791777422207">
        <ele>8.6</ele>
        <time>2016-05-05T10:06:14Z</time>
      </trkpt>
      <trkpt lat="59.283607680483" lon="17.791980180368">
        <ele>9.2</ele>
        <time>2016-05-05T10:06:20Z</time>
      </trkpt>
      <trkpt lat="59.283677669348" lon="17.792016390176">
        <ele>9.6</ele>
        <time>2016-05-05T10:06:21Z</time>
      </trkpt>
      <trkpt lat="59.283748915498" lon="17.792050755966">
        <ele>10</ele>
        <time>2016-05-05T10:06:22Z</time>
      </trkpt>
      <trkpt lat="59.283823262951" lon="17.792082439548">
        <ele>10.4</ele>
        <time>2016-05-05T10:06:23Z</time>
      </trkpt>
      <trkpt lat="59.283894006187" lon="17.792113620216">
        <ele>10.8</ele>
        <time>2016-05-05T10:06:24Z</time>
      </trkpt>
      <trkpt lat="59.284333636842" lon="17.792313025617">
        <ele>10.8</ele>
        <time>2016-05-05T10:06:30Z</time>
      </trkpt>
      <trkpt lat="59.284865636035" lon="17.792605218651">
        <ele>10.8</ele>
        <time>2016-05-05T10:06:37Z</time>
      </trkpt>
      <trkpt lat="59.285299902274" lon="17.792930436371">
        <ele>10.8</ele>
        <time>2016-05-05T10:06:43Z</time>
      </trkpt>
      <trkpt lat="59.285517999312" lon="17.79334290967">
        <ele>10.8</ele>
        <time>2016-05-05T10:06:47Z</time>
      </trkpt>
      <trkpt lat="59.285619420302" lon="17.793716910048">
        <ele>10.8</ele>
        <time>2016-05-05T10:06:50Z</time>
      </trkpt>
      <trkpt lat="59.285646661477" lon="17.793846242765">
        <ele>10.8</ele>
        <time>2016-05-05T10:06:51Z</time>
      </trkpt>
      <trkpt lat="59.285810359984" lon="17.794856848448">
        <ele>10.8</ele>
        <time>2016-05-05T10:06:58Z</time>
      </trkpt>
      <trkpt lat="59.2859917443" lon="17.795975329184">
        <ele>10.8</ele>
        <time>2016-05-05T10:07:05Z</time>
      </trkpt>
      <trkpt lat="59.286018063466" lon="17.796139195329">
        <ele>11.2</ele>
        <time>2016-05-05T10:07:06Z</time>
      </trkpt>
      <trkpt lat="59.286042454795" lon="17.796301301275">
        <ele>11.8</ele>
        <time>2016-05-05T10:07:07Z</time>
      </trkpt>
      <trkpt lat="59.286067013762" lon="17.796476650623">
        <ele>12.2</ele>
        <time>2016-05-05T10:07:08Z</time>
      </trkpt>
      <trkpt lat="59.286091656548" lon="17.796643031338">
        <ele>12.6</ele>
        <time>2016-05-05T10:07:09Z</time>
      </trkpt>
      <trkpt lat="59.286116047877" lon="17.796805221103">
        <ele>13</ele>
        <time>2016-05-05T10:07:10Z</time>
      </trkpt>
      <trkpt lat="59.286190227692" lon="17.797273266399">
        <ele>13</ele>
        <time>2016-05-05T10:07:13Z</time>
      </trkpt>
      <trkpt lat="59.286290475216" lon="17.79789595775">
        <ele>13.4</ele>
        <time>2016-05-05T10:07:17Z</time>
      </trkpt>
      <trkpt lat="59.286314950364" lon="17.798047586321">
        <ele>13.8</ele>
        <time>2016-05-05T10:07:18Z</time>
      </trkpt>
      <trkpt lat="59.286338838779" lon="17.798198795797">
        <ele>14.2</ele>
        <time>2016-05-05T10:07:19Z</time>
      </trkpt>
      <trkpt lat="59.286360464081" lon="17.798347323065">
        <ele>14.6</ele>
        <time>2016-05-05T10:07:20Z</time>
      </trkpt>
      <trkpt lat="59.286382424659" lon="17.798493838677">
        <ele>15</ele>
        <time>2016-05-05T10:07:21Z</time>
      </trkpt>
      <trkpt lat="59.286554002152" lon="17.7995262373">
        <ele>15</ele>
        <time>2016-05-05T10:07:28Z</time>
      </trkpt>
      <trkpt lat="59.28672767512" lon="17.800571376411">
        <ele>15</ele>
        <time>2016-05-05T10:07:35Z</time>
      </trkpt>
      <trkpt lat="59.286746031481" lon="17.800717892023">
        <ele>15</ele>
        <time>2016-05-05T10:07:36Z</time>
      </trkpt>
      <trkpt lat="59.286802944582" lon="17.801295153476">
        <ele>15</ele>
        <time>2016-05-05T10:07:40Z</time>
      </trkpt>
      <trkpt lat="59.286837729467" lon="17.801420798157">
        <ele>15</ele>
        <time>2016-05-05T10:07:41Z</time>
      </trkpt>
      <trkpt lat="59.286984747993" lon="17.801762863496">
        <ele>15</ele>
        <time>2016-05-05T10:07:44Z</time>
      </trkpt>
      <trkpt lat="59.287025316389" lon="17.801890100738">
        <ele>15</ele>
        <time>2016-05-05T10:07:45Z</time>
      </trkpt>
      <trkpt lat="59.287251879146" lon="17.802659726796">
        <ele>15</ele>
        <time>2016-05-05T10:07:51Z</time>
      </trkpt>
      <trkpt lat="59.28754742494" lon="17.803531695853">
        <ele>15</ele>
        <time>2016-05-05T10:07:58Z</time>
      </trkpt>
      <trkpt lat="59.287835427024" lon="17.80424608519">
        <ele>15</ele>
        <time>2016-05-05T10:08:04Z</time>
      </trkpt>
      <trkpt lat="59.288220575329" lon="17.805038593835">
        <ele>15</ele>
        <time>2016-05-05T10:08:11Z</time>
      </trkpt>
      <trkpt lat="59.288635730836" lon="17.805776871587">
        <ele>15</ele>
        <time>2016-05-05T10:08:18Z</time>
      </trkpt>
      <trkpt lat="59.289091035644" lon="17.806390510486">
        <ele>15</ele>
        <time>2016-05-05T10:08:25Z</time>
      </trkpt>
      <trkpt lat="59.289362860661" lon="17.806755709869">
        <ele>13.8</ele>
        <time>2016-05-05T10:08:29Z</time>
      </trkpt>
      <trkpt lat="59.289422288332" lon="17.806866770044">
        <ele>13.4</ele>
        <time>2016-05-05T10:08:30Z</time>
      </trkpt>
      <trkpt lat="59.289480207261" lon="17.806978333133">
        <ele>12.8</ele>
        <time>2016-05-05T10:08:31Z</time>
      </trkpt>
      <trkpt lat="59.289651617116" lon="17.807275136212">
        <ele>12.4</ele>
        <time>2016-05-05T10:08:34Z</time>
      </trkpt>
      <trkpt lat="59.289720264877" lon="17.807338419557">
        <ele>12</ele>
        <time>2016-05-05T10:08:35Z</time>
      </trkpt>
      <trkpt lat="59.289795115244" lon="17.807393740097">
        <ele>11.6</ele>
        <time>2016-05-05T10:08:36Z</time>
      </trkpt>
      <trkpt lat="59.289868540688" lon="17.807448725361">
        <ele>11.2</ele>
        <time>2016-05-05T10:08:37Z</time>
      </trkpt>
      <trkpt lat="59.289939283924" lon="17.807513685086">
        <ele>10.8</ele>
        <time>2016-05-05T10:08:38Z</time>
      </trkpt>
      <trkpt lat="59.290318816356" lon="17.807967900247">
        <ele>10.8</ele>
        <time>2016-05-05T10:08:44Z</time>
      </trkpt>
      <trkpt lat="59.290492908419" lon="17.808165964544">
        <ele>10.8</ele>
        <time>2016-05-05T10:08:48Z</time>
      </trkpt>
      <trkpt lat="59.290522077431" lon="17.808212064994">
        <ele>10.8</ele>
        <time>2016-05-05T10:08:51Z</time>
      </trkpt>
      <trkpt lat="59.290523921449" lon="17.808214244288">
        <ele>10.8</ele>
        <time>2016-05-05T10:09:00Z</time>
      </trkpt>
      <trkpt lat="59.290558873972" lon="17.80825514796">
        <ele>10.8</ele>
        <time>2016-05-05T10:09:02Z</time>
      </trkpt>
      <trkpt lat="59.290593239762" lon="17.808326226472">
        <ele>10.8</ele>
        <time>2016-05-05T10:09:04Z</time>
      </trkpt>
      <trkpt lat="59.290618804557" lon="17.808471987713">
        <ele>10.8</ele>
        <time>2016-05-05T10:09:06Z</time>
      </trkpt>
      <trkpt lat="59.290568764614" lon="17.808759235426">
        <ele>10.8</ele>
        <time>2016-05-05T10:09:09Z</time>
      </trkpt>
      <trkpt lat="59.290543199819" lon="17.808849089394">
        <ele>10.8</ele>
        <time>2016-05-05T10:09:10Z</time>
      </trkpt>
      <trkpt lat="59.290406155754" lon="17.809280086692">
        <ele>10.8</ele>
        <time>2016-05-05T10:09:15Z</time>
      </trkpt>
      <trkpt lat="59.290257544667" lon="17.809757100621">
        <ele>10.8</ele>
        <time>2016-05-05T10:09:20Z</time>
      </trkpt>
      <trkpt lat="59.29020029629" lon="17.809978382781">
        <ele>10.8</ele>
        <time>2016-05-05T10:09:22Z</time>
      </trkpt>
      <trkpt lat="59.290082195319" lon="17.810301085931">
        <ele>10.8</ele>
        <time>2016-05-05T10:09:25Z</time>
      </trkpt>
      <trkpt lat="59.28976192292" lon="17.81100692573">
        <ele>10.8</ele>
        <time>2016-05-05T10:09:31Z</time>
      </trkpt>
      <trkpt lat="59.289637200248" lon="17.811240445464">
        <ele>10.8</ele>
        <time>2016-05-05T10:09:33Z</time>
      </trkpt>
      <trkpt lat="59.28938976656" lon="17.811714190452">
        <ele>10.8</ele>
        <time>2016-05-05T10:09:37Z</time>
      </trkpt>
      <trkpt lat="59.289328746328" lon="17.811834973631">
        <ele>10.4</ele>
        <time>2016-05-05T10:09:38Z</time>
      </trkpt>
      <trkpt lat="59.289269151019" lon="17.811955002439">
        <ele>10</ele>
        <time>2016-05-05T10:09:39Z</time>
      </trkpt>
      <trkpt lat="59.289209723348" lon="17.812076959084">
        <ele>9.6</ele>
        <time>2016-05-05T10:09:40Z</time>
      </trkpt>
      <trkpt lat="59.28914501508" lon="17.812206794715">
        <ele>9.2</ele>
        <time>2016-05-05T10:09:41Z</time>
      </trkpt>
      <trkpt lat="59.289084413943" lon="17.812331852663">
        <ele>8.6</ele>
        <time>2016-05-05T10:09:42Z</time>
      </trkpt>
      <trkpt lat="59.288954662131" lon="17.812588841717">
        <ele>8.6</ele>
        <time>2016-05-05T10:09:44Z</time>
      </trkpt>
      <trkpt lat="59.288772355806" lon="17.813013301133">
        <ele>9.2</ele>
        <time>2016-05-05T10:09:47Z</time>
      </trkpt>
      <trkpt lat="59.288709323918" lon="17.813161576944">
        <ele>9.6</ele>
        <time>2016-05-05T10:09:48Z</time>
      </trkpt>
      <trkpt lat="59.288649141876" lon="17.813303063416">
        <ele>10</ele>
        <time>2016-05-05T10:09:49Z</time>
      </trkpt>
      <trkpt lat="59.288589714205" lon="17.81344270587">
        <ele>10.4</ele>
        <time>2016-05-05T10:09:50Z</time>
      </trkpt>
      <trkpt lat="59.288532717285" lon="17.813583857066">
        <ele>11</ele>
        <time>2016-05-05T10:09:51Z</time>
      </trkpt>
      <trkpt lat="59.288308166184" lon="17.814195149033">
        <ele>11</ele>
        <time>2016-05-05T10:09:55Z</time>
      </trkpt>
      <trkpt lat="59.288034664787" lon="17.814927224179">
        <ele>11</ele>
        <time>2016-05-05T10:10:00Z</time>
      </trkpt>
      <trkpt lat="59.287705256117" lon="17.815921485157">
        <ele>11</ele>
        <time>2016-05-05T10:10:06Z</time>
      </trkpt>
      <trkpt lat="59.287653623613" lon="17.816090045166">
        <ele>11</ele>
        <time>2016-05-05T10:10:07Z</time>
      </trkpt>
      <trkpt lat="59.287379116388" lon="17.816948770821">
        <ele>11</ele>
        <time>2016-05-05T10:10:11Z</time>
      </trkpt>
      <trkpt lat="59.287054485401" lon="17.817723258381">
        <ele>11</ele>
        <time>2016-05-05T10:10:17Z</time>
      </trkpt>
      <trkpt lat="59.286985167088" lon="17.817868600527">
        <ele>11</ele>
        <time>2016-05-05T10:10:18Z</time>
      </trkpt>
      <trkpt lat="59.286612507814" lon="17.818502691262">
        <ele>11</ele>
        <time>2016-05-05T10:10:23Z</time>
      </trkpt>
      <trkpt lat="59.286168937666" lon="17.819248848">
        <ele>11</ele>
        <time>2016-05-05T10:10:29Z</time>
      </trkpt>
      <trkpt lat="59.285698545438" lon="17.820055438237">
        <ele>11</ele>
        <time>2016-05-05T10:10:35Z</time>
      </trkpt>
      <trkpt lat="59.285220106586" lon="17.820871080926">
        <ele>11</ele>
        <time>2016-05-05T10:10:41Z</time>
      </trkpt>
      <trkpt lat="59.284806208364" lon="17.821566275712">
        <ele>11</ele>
        <time>2016-05-05T10:10:46Z</time>
      </trkpt>
      <trkpt lat="59.284723395192" lon="17.821709857659">
        <ele>11</ele>
        <time>2016-05-05T10:10:47Z</time>
      </trkpt>
      <trkpt lat="59.284313855558" lon="17.822431120154">
        <ele>11</ele>
        <time>2016-05-05T10:10:52Z</time>
      </trkpt>
      <trkpt lat="59.284249734023" lon="17.822589538064">
        <ele>11</ele>
        <time>2016-05-05T10:10:53Z</time>
      </trkpt>
      <trkpt lat="59.28419466494" lon="17.822962113519">
        <ele>11</ele>
        <time>2016-05-05T10:10:55Z</time>
      </trkpt>
      <trkpt lat="59.284200867546" lon="17.823166380422">
        <ele>10.6</ele>
        <time>2016-05-05T10:10:56Z</time>
      </trkpt>
      <trkpt lat="59.284228443997" lon="17.823352039507">
        <ele>9.6</ele>
        <time>2016-05-05T10:10:57Z</time>
      </trkpt>
      <trkpt lat="59.284271191687" lon="17.8235319989">
        <ele>9.2</ele>
        <time>2016-05-05T10:10:58Z</time>
      </trkpt>
      <trkpt lat="59.284317962689" lon="17.823704498402">
        <ele>8.8</ele>
        <time>2016-05-05T10:10:59Z</time>
      </trkpt>
      <trkpt lat="59.28458609967" lon="17.824756678309">
        <ele>8.8</ele>
        <time>2016-05-05T10:11:05Z</time>
      </trkpt>
      <trkpt lat="59.284633205948" lon="17.824940241919">
        <ele>8.8</ele>
        <time>2016-05-05T10:11:06Z</time>
      </trkpt>
      <trkpt lat="59.284901175291" lon="17.825874237036">
        <ele>8.8</ele>
        <time>2016-05-05T10:11:11Z</time>
      </trkpt>
      <trkpt lat="59.285024556859" lon="17.826264246843">
        <ele>8.8</ele>
        <time>2016-05-05T10:11:13Z</time>
      </trkpt>
      <trkpt lat="59.285340638308" lon="17.827178293038">
        <ele>8.4</ele>
        <time>2016-05-05T10:11:18Z</time>
      </trkpt>
      <trkpt lat="59.285411884458" lon="17.8273541453">
        <ele>8</ele>
        <time>2016-05-05T10:11:19Z</time>
      </trkpt>
      <trkpt lat="59.285480196943" lon="17.827521448024">
        <ele>7.6</ele>
        <time>2016-05-05T10:11:20Z</time>
      </trkpt>
      <trkpt lat="59.285528728144" lon="17.827713896448">
        <ele>7</ele>
        <time>2016-05-05T10:11:21Z</time>
      </trkpt>
      <trkpt lat="59.28554247446" lon="17.827925958518">
        <ele>6</ele>
        <time>2016-05-05T10:11:22Z</time>
      </trkpt>
      <trkpt lat="59.285520849158" lon="17.828132739991">
        <ele>5.4</ele>
        <time>2016-05-05T10:11:23Z</time>
      </trkpt>
      <trkpt lat="59.285464271333" lon="17.828304988036">
        <ele>4.8</ele>
        <time>2016-05-05T10:11:24Z</time>
      </trkpt>
      <trkpt lat="59.285383302179" lon="17.828433566382">
        <ele>4.2</ele>
        <time>2016-05-05T10:11:25Z</time>
      </trkpt>
      <trkpt lat="59.285293448211" lon="17.828541189978">
        <ele>3.8</ele>
        <time>2016-05-05T10:11:26Z</time>
      </trkpt>
      <trkpt lat="59.285198397465" lon="17.828656860198">
        <ele>3.2</ele>
        <time>2016-05-05T10:11:27Z</time>
      </trkpt>
      <trkpt lat="59.285108627316" lon="17.828773620065">
        <ele>2.8</ele>
        <time>2016-05-05T10:11:28Z</time>
      </trkpt>
      <trkpt lat="59.285022461384" lon="17.828891301941">
        <ele>2.2</ele>
        <time>2016-05-05T10:11:29Z</time>
      </trkpt>
      <trkpt lat="59.284937552737" lon="17.829024490332">
        <ele>1.8</ele>
        <time>2016-05-05T10:11:30Z</time>
      </trkpt>
      <trkpt lat="59.284850716253" lon="17.829158181637">
        <ele>1.8</ele>
        <time>2016-05-05T10:11:31Z</time>
      </trkpt>
      <trkpt lat="59.284399937671" lon="17.829765282654">
        <ele>1.8</ele>
        <time>2016-05-05T10:11:36Z</time>
      </trkpt>
      <trkpt lat="59.284310418979" lon="17.829890340602">
        <ele>1.8</ele>
        <time>2016-05-05T10:11:37Z</time>
      </trkpt>
      <trkpt lat="59.283859221302" lon="17.83048562314">
        <ele>1.8</ele>
        <time>2016-05-05T10:11:42Z</time>
      </trkpt>
      <trkpt lat="59.283768110049" lon="17.83060799888">
        <ele>1.8</ele>
        <time>2016-05-05T10:11:43Z</time>
      </trkpt>
      <trkpt lat="59.283310123033" lon="17.831230103498">
        <ele>1.8</ele>
        <time>2016-05-05T10:11:48Z</time>
      </trkpt>
      <trkpt lat="59.283138964635" lon="17.831531432803">
        <ele>1.8</ele>
        <time>2016-05-05T10:11:50Z</time>
      </trkpt>
      <trkpt lat="59.282943414908" lon="17.83207650776">
        <ele>1.8</ele>
        <time>2016-05-05T10:11:53Z</time>
      </trkpt>
      <trkpt lat="59.282692544641" lon="17.832860131591">
        <ele>1.2</ele>
        <time>2016-05-05T10:11:57Z</time>
      </trkpt>
      <trkpt lat="59.282629261296" lon="17.833055597499">
        <ele>0.6</ele>
        <time>2016-05-05T10:11:58Z</time>
      </trkpt>
      <trkpt lat="59.282561367906" lon="17.833245447534">
        <ele>0</ele>
        <time>2016-05-05T10:11:59Z</time>
      </trkpt>
      <trkpt lat="59.282485511711" lon="17.833422976176">
        <ele>0</ele>
        <time>2016-05-05T10:12:00Z</time>
      </trkpt>
      <trkpt lat="59.282397250304" lon="17.833578208964">
        <ele>0</ele>
        <time>2016-05-05T10:12:01Z</time>
      </trkpt>
      <trkpt lat="59.282205556251" lon="17.833844334289">
        <ele>0</ele>
        <time>2016-05-05T10:12:03Z</time>
      </trkpt>
      <trkpt lat="59.281998355683" lon="17.834045332251">
        <ele>0</ele>
        <time>2016-05-05T10:12:05Z</time>
      </trkpt>
      <trkpt lat="59.281790149287" lon="17.834187153999">
        <ele>0</ele>
        <time>2016-05-05T10:12:07Z</time>
      </trkpt>
      <trkpt lat="59.28128195469" lon="17.834538104152">
        <ele>0</ele>
        <time>2016-05-05T10:12:12Z</time>
      </trkpt>
      <trkpt lat="59.281091015008" lon="17.834678584796">
        <ele>0</ele>
        <time>2016-05-05T10:12:14Z</time>
      </trkpt>
      <trkpt lat="59.280740316312" lon="17.835058703961">
        <ele>0</ele>
        <time>2016-05-05T10:12:18Z</time>
      </trkpt>
      <trkpt lat="59.280664376298" lon="17.835183845728">
        <ele>0</ele>
        <time>2016-05-05T10:12:19Z</time>
      </trkpt>
      <trkpt lat="59.280593549243" lon="17.835319548689">
        <ele>0.2</ele>
        <time>2016-05-05T10:12:20Z</time>
      </trkpt>
      <trkpt lat="59.280529176251" lon="17.835471680174">
        <ele>0.8</ele>
        <time>2016-05-05T10:12:21Z</time>
      </trkpt>
      <trkpt lat="59.280470922046" lon="17.835637055061">
        <ele>1.4</ele>
        <time>2016-05-05T10:12:22Z</time>
      </trkpt>
      <trkpt lat="59.280417529343" lon="17.83581315878">
        <ele>2</ele>
        <time>2016-05-05T10:12:23Z</time>
      </trkpt>
      <trkpt lat="59.280368243771" lon="17.835990771241">
        <ele>2</ele>
        <time>2016-05-05T10:12:24Z</time>
      </trkpt>
      <trkpt lat="59.280238827235" lon="17.836497205639">
        <ele>2</ele>
        <time>2016-05-05T10:12:27Z</time>
      </trkpt>
      <trkpt lat="59.280196582459" lon="17.836653779531">
        <ele>2.4</ele>
        <time>2016-05-05T10:12:28Z</time>
      </trkpt>
      <trkpt lat="59.280154924416" lon="17.836801133333">
        <ele>2.8</ele>
        <time>2016-05-05T10:12:29Z</time>
      </trkpt>
      <trkpt lat="59.280113098735" lon="17.83695644994">
        <ele>3.2</ele>
        <time>2016-05-05T10:12:30Z</time>
      </trkpt>
      <trkpt lat="59.280070351045" lon="17.837108497606">
        <ele>3.6</ele>
        <time>2016-05-05T10:12:31Z</time>
      </trkpt>
      <trkpt lat="59.280028525364" lon="17.837260293815">
        <ele>4</ele>
        <time>2016-05-05T10:12:32Z</time>
      </trkpt>
      <trkpt lat="59.279985526217" lon="17.837404378676">
        <ele>4.4</ele>
        <time>2016-05-05T10:12:33Z</time>
      </trkpt>
      <trkpt lat="59.279940683052" lon="17.837547792985">
        <ele>5.4</ele>
        <time>2016-05-05T10:12:34Z</time>
      </trkpt>
      <trkpt lat="59.279891229842" lon="17.837695146787">
        <ele>5.8</ele>
        <time>2016-05-05T10:12:35Z</time>
      </trkpt>
      <trkpt lat="59.279837837139" lon="17.837829257187">
        <ele>6.4</ele>
        <time>2016-05-05T10:12:36Z</time>
      </trkpt>
      <trkpt lat="59.279785031169" lon="17.837965546881">
        <ele>6.8</ele>
        <time>2016-05-05T10:12:37Z</time>
      </trkpt>
      <trkpt lat="59.279727698973" lon="17.838097142711">
        <ele>7.2</ele>
        <time>2016-05-05T10:12:38Z</time>
      </trkpt>
      <trkpt lat="59.279666846379" lon="17.838212980569">
        <ele>7.6</ele>
        <time>2016-05-05T10:12:39Z</time>
      </trkpt>
      <trkpt lat="59.279601299921" lon="17.838318592509">
        <ele>8</ele>
        <time>2016-05-05T10:12:40Z</time>
      </trkpt>
      <trkpt lat="59.27953181397" lon="17.838414984359">
        <ele>8.4</ele>
        <time>2016-05-05T10:12:41Z</time>
      </trkpt>
      <trkpt lat="59.279452437377" lon="17.838506514707">
        <ele>8.4</ele>
        <time>2016-05-05T10:12:42Z</time>
      </trkpt>
      <trkpt lat="59.279371971137" lon="17.838589914612">
        <ele>8.4</ele>
        <time>2016-05-05T10:12:43Z</time>
      </trkpt>
      <trkpt lat="59.279287146309" lon="17.838665100255">
        <ele>9</ele>
        <time>2016-05-05T10:12:44Z</time>
      </trkpt>
      <trkpt lat="59.279198465807" lon="17.838727042496">
        <ele>9.4</ele>
        <time>2016-05-05T10:12:45Z</time>
      </trkpt>
      <trkpt lat="59.279105845812" lon="17.838776244249">
        <ele>10</ele>
        <time>2016-05-05T10:12:46Z</time>
      </trkpt>
      <trkpt lat="59.279010040695" lon="17.838816561188">
        <ele>10.4</ele>
        <time>2016-05-05T10:12:47Z</time>
      </trkpt>
      <trkpt lat="59.278911301913" lon="17.8388457302">
        <ele>10.8</ele>
        <time>2016-05-05T10:12:48Z</time>
      </trkpt>
      <trkpt lat="59.278519951002" lon="17.838974560003">
        <ele>10.8</ele>
        <time>2016-05-05T10:12:52Z</time>
      </trkpt>
      <trkpt lat="59.277998596822" lon="17.839191148299">
        <ele>10.8</ele>
        <time>2016-05-05T10:12:57Z</time>
      </trkpt>
      <trkpt lat="59.277787792037" lon="17.83933690954">
        <ele>10.8</ele>
        <time>2016-05-05T10:12:59Z</time>
      </trkpt>
      <trkpt lat="59.277687376875" lon="17.839438162892">
        <ele>10.2</ele>
        <time>2016-05-05T10:13:00Z</time>
      </trkpt>
      <trkpt lat="59.277591990853" lon="17.839554168388">
        <ele>9.8</ele>
        <time>2016-05-05T10:13:01Z</time>
      </trkpt>
      <trkpt lat="59.277505238188" lon="17.839674197196">
        <ele>8.8</ele>
        <time>2016-05-05T10:13:02Z</time>
      </trkpt>
      <trkpt lat="59.277423514663" lon="17.839800009515">
        <ele>7.8</ele>
        <time>2016-05-05T10:13:03Z</time>
      </trkpt>
      <trkpt lat="59.277354783083" lon="17.839950296982">
        <ele>6.8</ele>
        <time>2016-05-05T10:13:04Z</time>
      </trkpt>
      <trkpt lat="59.277284123666" lon="17.8401281609">
        <ele>5.8</ele>
        <time>2016-05-05T10:13:05Z</time>
      </trkpt>
      <trkpt lat="59.277221929968" lon="17.840317759478">
        <ele>5</ele>
        <time>2016-05-05T10:13:06Z</time>
      </trkpt>
      <trkpt lat="59.277151522008" lon="17.840513644481">
        <ele>4.4</ele>
        <time>2016-05-05T10:13:07Z</time>
      </trkpt>
      <trkpt lat="59.277086310826" lon="17.840705841448">
        <ele>3.8</ele>
        <time>2016-05-05T10:13:08Z</time>
      </trkpt>
      <trkpt lat="59.277011879554" lon="17.840898876605">
        <ele>3.2</ele>
        <time>2016-05-05T10:13:09Z</time>
      </trkpt>
      <trkpt lat="59.276937113006" lon="17.841089648649">
        <ele>2.6</ele>
        <time>2016-05-05T10:13:10Z</time>
      </trkpt>
      <trkpt lat="59.276792022317" lon="17.84148267594">
        <ele>2.6</ele>
        <time>2016-05-05T10:13:12Z</time>
      </trkpt>
      <trkpt lat="59.276414752998" lon="17.842329331659">
        <ele>2.6</ele>
        <time>2016-05-05T10:13:17Z</time>
      </trkpt>
      <trkpt lat="59.276332358921" lon="17.842489593587">
        <ele>2</ele>
        <time>2016-05-05T10:13:18Z</time>
      </trkpt>
      <trkpt lat="59.276242253496" lon="17.842661506356">
        <ele>1.6</ele>
        <time>2016-05-05T10:13:19Z</time>
      </trkpt>
      <trkpt lat="59.276152567166" lon="17.842828306166">
        <ele>1.2</ele>
        <time>2016-05-05T10:13:20Z</time>
      </trkpt>
      <trkpt lat="59.276059025162" lon="17.842998794012">
        <ele>0.8</ele>
        <time>2016-05-05T10:13:21Z</time>
      </trkpt>
      <trkpt lat="59.275965986072" lon="17.843174562455">
        <ele>0.4</ele>
        <time>2016-05-05T10:13:22Z</time>
      </trkpt>
      <trkpt lat="59.275547142529" lon="17.844061283656">
        <ele>0.4</ele>
        <time>2016-05-05T10:13:27Z</time>
      </trkpt>
      <trkpt lat="59.275217230945" lon="17.844708533974">
        <ele>0.4</ele>
        <time>2016-05-05T10:13:31Z</time>
      </trkpt>
      <trkpt lat="59.275128718081" lon="17.844821019072">
        <ele>0.4</ele>
        <time>2016-05-05T10:13:32Z</time>
      </trkpt>
      <trkpt lat="59.275039367027" lon="17.84492679865">
        <ele>0.8</ele>
        <time>2016-05-05T10:13:33Z</time>
      </trkpt>
      <trkpt lat="59.274948004317" lon="17.84503492516">
        <ele>1.4</ele>
        <time>2016-05-05T10:13:34Z</time>
      </trkpt>
      <trkpt lat="59.274846750965" lon="17.845131736105">
        <ele>1.8</ele>
        <time>2016-05-05T10:13:35Z</time>
      </trkpt>
      <trkpt lat="59.274744324147" lon="17.845202227884">
        <ele>2.2</ele>
        <time>2016-05-05T10:13:36Z</time>
      </trkpt>
      <trkpt lat="59.27464013713" lon="17.845255704406">
        <ele>2.8</ele>
        <time>2016-05-05T10:13:37Z</time>
      </trkpt>
      <trkpt lat="59.274217521732" lon="17.845282526486">
        <ele>2.8</ele>
        <time>2016-05-05T10:13:41Z</time>
      </trkpt>
      <trkpt lat="59.274111742154" lon="17.845250591447">
        <ele>2.8</ele>
        <time>2016-05-05T10:13:42Z</time>
      </trkpt>
      <trkpt lat="59.273847125571" lon="17.845094185193">
        <ele>2.8</ele>
        <time>2016-05-05T10:13:45Z</time>
      </trkpt>
      <trkpt lat="59.27368040958" lon="17.844982705923">
        <ele>3.2</ele>
        <time>2016-05-05T10:13:47Z</time>
      </trkpt>
      <trkpt lat="59.273597764046" lon="17.844927385383">
        <ele>4</ele>
        <time>2016-05-05T10:13:48Z</time>
      </trkpt>
      <trkpt lat="59.273528864828" lon="17.844827640773">
        <ele>4.4</ele>
        <time>2016-05-05T10:13:49Z</time>
      </trkpt>
      <trkpt lat="59.273488128794" lon="17.844678526772">
        <ele>4.8</ele>
        <time>2016-05-05T10:13:50Z</time>
      </trkpt>
      <trkpt lat="59.273484440758" lon="17.844354398699">
        <ele>4.8</ele>
        <time>2016-05-05T10:13:52Z</time>
      </trkpt>
      <trkpt lat="59.273499611997" lon="17.84419002964">
        <ele>4.8</ele>
        <time>2016-05-05T10:13:53Z</time>
      </trkpt>
      <trkpt lat="59.273505982241" lon="17.84402993535">
        <ele>4.8</ele>
        <time>2016-05-05T10:13:54Z</time>
      </trkpt>
      <trkpt lat="59.273498103255" lon="17.843730785339">
        <ele>5.4</ele>
        <time>2016-05-05T10:13:56Z</time>
      </trkpt>
      <trkpt lat="59.273482177645" lon="17.843581755157">
        <ele>6</ele>
        <time>2016-05-05T10:13:57Z</time>
      </trkpt>
      <trkpt lat="59.27346248018" lon="17.843421074134">
        <ele>6.4</ele>
        <time>2016-05-05T10:13:58Z</time>
      </trkpt>
      <trkpt lat="59.273438005032" lon="17.843261985672">
        <ele>7</ele>
        <time>2016-05-05T10:13:59Z</time>
      </trkpt>
      <trkpt lat="59.273408081649" lon="17.843104741228">
        <ele>7.6</ele>
        <time>2016-05-05T10:14:00Z</time>
      </trkpt>
      <trkpt lat="59.273387797451" lon="17.842945233671">
        <ele>8</ele>
        <time>2016-05-05T10:14:01Z</time>
      </trkpt>
      <trkpt lat="59.273372039479" lon="17.84278438501">
        <ele>8.4</ele>
        <time>2016-05-05T10:14:02Z</time>
      </trkpt>
      <trkpt lat="59.273361562104" lon="17.84261842339">
        <ele>9</ele>
        <time>2016-05-05T10:14:03Z</time>
      </trkpt>
      <trkpt lat="59.273357790249" lon="17.84245665272">
        <ele>9.4</ele>
        <time>2016-05-05T10:14:04Z</time>
      </trkpt>
      <trkpt lat="59.273360807733" lon="17.84229655843">
        <ele>9.8</ele>
        <time>2016-05-05T10:14:05Z</time>
      </trkpt>
      <trkpt lat="59.273374134954" lon="17.842145265135">
        <ele>9.8</ele>
        <time>2016-05-05T10:14:06Z</time>
      </trkpt>
      <trkpt lat="59.273428868761" lon="17.841739581175">
        <ele>10.2</ele>
        <time>2016-05-05T10:14:09Z</time>
      </trkpt>
      <trkpt lat="59.273444123819" lon="17.841614020313">
        <ele>10.6</ele>
        <time>2016-05-05T10:14:10Z</time>
      </trkpt>
      <trkpt lat="59.273461558171" lon="17.841488040356">
        <ele>11</ele>
        <time>2016-05-05T10:14:11Z</time>
      </trkpt>
      <trkpt lat="59.273484021663" lon="17.841364658788">
        <ele>11.4</ele>
        <time>2016-05-05T10:14:12Z</time>
      </trkpt>
      <trkpt lat="59.273504305861" lon="17.841240774306">
        <ele>12.4</ele>
        <time>2016-05-05T10:14:13Z</time>
      </trkpt>
      <trkpt lat="59.273525428249" lon="17.841128875941">
        <ele>13</ele>
        <time>2016-05-05T10:14:14Z</time>
      </trkpt>
      <trkpt lat="59.273546047723" lon="17.841016726119">
        <ele>13.4</ele>
        <time>2016-05-05T10:14:15Z</time>
      </trkpt>
      <trkpt lat="59.273560716048" lon="17.840894937112">
        <ele>14</ele>
        <time>2016-05-05T10:14:16Z</time>
      </trkpt>
      <trkpt lat="59.27357731221" lon="17.840777003779">
        <ele>14.6</ele>
        <time>2016-05-05T10:14:17Z</time>
      </trkpt>
      <trkpt lat="59.273591226164" lon="17.84065957336">
        <ele>15.2</ele>
        <time>2016-05-05T10:14:18Z</time>
      </trkpt>
      <trkpt lat="59.273604553385" lon="17.84054055038">
        <ele>15.6</ele>
        <time>2016-05-05T10:14:19Z</time>
      </trkpt>
      <trkpt lat="59.273614527846" lon="17.840413564595">
        <ele>16.2</ele>
        <time>2016-05-05T10:14:20Z</time>
      </trkpt>
      <trkpt lat="59.273617712968" lon="17.840293200511">
        <ele>16.8</ele>
        <time>2016-05-05T10:14:21Z</time>
      </trkpt>
      <trkpt lat="59.273588879232" lon="17.839916685563">
        <ele>17.2</ele>
        <time>2016-05-05T10:14:24Z</time>
      </trkpt>
      <trkpt lat="59.273564068808" lon="17.839784838276">
        <ele>17.6</ele>
        <time>2016-05-05T10:14:25Z</time>
      </trkpt>
      <trkpt lat="59.273540012755" lon="17.839663636002">
        <ele>18.2</ele>
        <time>2016-05-05T10:14:26Z</time>
      </trkpt>
      <trkpt lat="59.273512268666" lon="17.839544948298">
        <ele>18.6</ele>
        <time>2016-05-05T10:14:27Z</time>
      </trkpt>
      <trkpt lat="59.27348762588" lon="17.839426176775">
        <ele>19</ele>
        <time>2016-05-05T10:14:28Z</time>
      </trkpt>
      <trkpt lat="59.273369608728" lon="17.839101964883">
        <ele>19</ele>
        <time>2016-05-05T10:14:31Z</time>
      </trkpt>
      <trkpt lat="59.273318562957" lon="17.839001717359">
        <ele>19</ele>
        <time>2016-05-05T10:14:32Z</time>
      </trkpt>
      <trkpt lat="59.273145895817" lon="17.838736094948">
        <ele>19.4</ele>
        <time>2016-05-05T10:14:35Z</time>
      </trkpt>
      <trkpt lat="59.273092419295" lon="17.83865378469">
        <ele>20</ele>
        <time>2016-05-05T10:14:36Z</time>
      </trkpt>
      <trkpt lat="59.273042379352" lon="17.838571893527">
        <ele>20.4</ele>
        <time>2016-05-05T10:14:37Z</time>
      </trkpt>
      <trkpt lat="59.272992507047" lon="17.838492265477">
        <ele>21.2</ele>
        <time>2016-05-05T10:14:38Z</time>
      </trkpt>
      <trkpt lat="59.272899887052" lon="17.83832102326">
        <ele>21.2</ele>
        <time>2016-05-05T10:14:40Z</time>
      </trkpt>
      <trkpt lat="59.272859402475" lon="17.838225721057">
        <ele>21.2</ele>
        <time>2016-05-05T10:14:41Z</time>
      </trkpt>
      <trkpt lat="59.272786982859" lon="17.838006366734">
        <ele>21.6</ele>
        <time>2016-05-05T10:14:43Z</time>
      </trkpt>
      <trkpt lat="59.272759657865" lon="17.837898994595">
        <ele>22</ele>
        <time>2016-05-05T10:14:44Z</time>
      </trkpt>
      <trkpt lat="59.272733338699" lon="17.837791706275">
        <ele>22.6</ele>
        <time>2016-05-05T10:14:45Z</time>
      </trkpt>
      <trkpt lat="59.272706600438" lon="17.837689279457">
        <ele>23</ele>
        <time>2016-05-05T10:14:46Z</time>
      </trkpt>
      <trkpt lat="59.272682712023" lon="17.837584757164">
        <ele>23.4</ele>
        <time>2016-05-05T10:14:47Z</time>
      </trkpt>
      <trkpt lat="59.272662260187" lon="17.837475792464">
        <ele>23.8</ele>
        <time>2016-05-05T10:14:48Z</time>
      </trkpt>
      <trkpt lat="59.272641221618" lon="17.837367414497">
        <ele>24.2</ele>
        <time>2016-05-05T10:14:49Z</time>
      </trkpt>
      <trkpt lat="59.272619093402" lon="17.837251073725">
        <ele>24.6</ele>
        <time>2016-05-05T10:14:50Z</time>
      </trkpt>
      <trkpt lat="59.272600317946" lon="17.837143701586">
        <ele>25.2</ele>
        <time>2016-05-05T10:14:51Z</time>
      </trkpt>
      <trkpt lat="59.272580117567" lon="17.837035826533">
        <ele>25.6</ele>
        <time>2016-05-05T10:14:52Z</time>
      </trkpt>
      <trkpt lat="59.272487246115" lon="17.836611786212">
        <ele>26</ele>
        <time>2016-05-05T10:14:56Z</time>
      </trkpt>
      <trkpt lat="59.272464950261" lon="17.836507263919">
        <ele>26.4</ele>
        <time>2016-05-05T10:14:57Z</time>
      </trkpt>
      <trkpt lat="59.272444330787" lon="17.836407351671">
        <ele>26.8</ele>
        <time>2016-05-05T10:14:58Z</time>
      </trkpt>
      <trkpt lat="59.272414239766" lon="17.836305930681">
        <ele>27.4</ele>
        <time>2016-05-05T10:14:59Z</time>
      </trkpt>
      <trkpt lat="59.272385992763" lon="17.836187997348">
        <ele>27.8</ele>
        <time>2016-05-05T10:15:00Z</time>
      </trkpt>
      <trkpt lat="59.272329498757" lon="17.835938552004">
        <ele>27.8</ele>
        <time>2016-05-05T10:15:02Z</time>
      </trkpt>
      <trkpt lat="59.272279039719" lon="17.835655327603">
        <ele>28.2</ele>
        <time>2016-05-05T10:15:04Z</time>
      </trkpt>
      <trkpt lat="59.272253474924" lon="17.835512332389">
        <ele>28.6</ele>
        <time>2016-05-05T10:15:05Z</time>
      </trkpt>
      <trkpt lat="59.272232352536" lon="17.835369337175">
        <ele>29</ele>
        <time>2016-05-05T10:15:06Z</time>
      </trkpt>
      <trkpt lat="59.272209134673" lon="17.835232796024">
        <ele>29.4</ele>
        <time>2016-05-05T10:15:07Z</time>
      </trkpt>
      <trkpt lat="59.272186838819" lon="17.835108995361">
        <ele>29.8</ele>
        <time>2016-05-05T10:15:08Z</time>
      </trkpt>
      <trkpt lat="59.272138391437" lon="17.834715213699">
        <ele>29.8</ele>
        <time>2016-05-05T10:15:11Z</time>
      </trkpt>
      <trkpt lat="59.27212724351" lon="17.834540115808">
        <ele>29.8</ele>
        <time>2016-05-05T10:15:12Z</time>
      </trkpt>
      <trkpt lat="59.272129422804" lon="17.833624225595">
        <ele>29.8</ele>
        <time>2016-05-05T10:15:17Z</time>
      </trkpt>
      <trkpt lat="59.272141660378" lon="17.833254667624">
        <ele>29.4</ele>
        <time>2016-05-05T10:15:19Z</time>
      </trkpt>
      <trkpt lat="59.272148868812" lon="17.833065404322">
        <ele>29</ele>
        <time>2016-05-05T10:15:20Z</time>
      </trkpt>
      <trkpt lat="59.272158675635" lon="17.832886534576">
        <ele>28.6</ele>
        <time>2016-05-05T10:15:21Z</time>
      </trkpt>
      <trkpt lat="59.272174517426" lon="17.832706742821">
        <ele>28.2</ele>
        <time>2016-05-05T10:15:22Z</time>
      </trkpt>
      <trkpt lat="59.272196980918" lon="17.832532734577">
        <ele>27.6</ele>
        <time>2016-05-05T10:15:23Z</time>
      </trkpt>
      <trkpt lat="59.272335869001" lon="17.831698567889">
        <ele>28.2</ele>
        <time>2016-05-05T10:15:28Z</time>
      </trkpt>
      <trkpt lat="59.272345340548" lon="17.831532103355">
        <ele>28.6</ele>
        <time>2016-05-05T10:15:29Z</time>
      </trkpt>
      <trkpt lat="59.272343328892" lon="17.831363040432">
        <ele>29</ele>
        <time>2016-05-05T10:15:30Z</time>
      </trkpt>
      <trkpt lat="59.272334695535" lon="17.831199425744">
        <ele>29.4</ele>
        <time>2016-05-05T10:15:31Z</time>
      </trkpt>
      <trkpt lat="59.272324301979" lon="17.831041678386">
        <ele>29.8</ele>
        <time>2016-05-05T10:15:32Z</time>
      </trkpt>
      <trkpt lat="59.272276189873" lon="17.830475061946">
        <ele>29.8</ele>
        <time>2016-05-05T10:15:36Z</time>
      </trkpt>
      <trkpt lat="59.27221022432" lon="17.829763187179">
        <ele>30.4</ele>
        <time>2016-05-05T10:15:41Z</time>
      </trkpt>
      <trkpt lat="59.272196394185" lon="17.829603679622">
        <ele>30.8</ele>
        <time>2016-05-05T10:15:42Z</time>
      </trkpt>
      <trkpt lat="59.272185749172" lon="17.829455068535">
        <ele>31.2</ele>
        <time>2016-05-05T10:15:43Z</time>
      </trkpt>
      <trkpt lat="59.272171248485" lon="17.829298913738">
        <ele>31.6</ele>
        <time>2016-05-05T10:15:44Z</time>
      </trkpt>
      <trkpt lat="59.272157837445" lon="17.829139573819">
        <ele>32</ele>
        <time>2016-05-05T10:15:45Z</time>
      </trkpt>
      <trkpt lat="59.272146354242" lon="17.828977635511">
        <ele>32</ele>
        <time>2016-05-05T10:15:46Z</time>
      </trkpt>
      <trkpt lat="59.272136798876" lon="17.828256540654">
        <ele>32</ele>
        <time>2016-05-05T10:15:50Z</time>
      </trkpt>
      <trkpt lat="59.272155071418" lon="17.828064176049">
        <ele>32</ele>
        <time>2016-05-05T10:15:51Z</time>
      </trkpt>
      <trkpt lat="59.272183988973" lon="17.82787214672">
        <ele>31.2</ele>
        <time>2016-05-05T10:15:52Z</time>
      </trkpt>
      <trkpt lat="59.272219025315" lon="17.827690762404">
        <ele>30.8</ele>
        <time>2016-05-05T10:15:53Z</time>
      </trkpt>
      <trkpt lat="59.272255402761" lon="17.827507785527">
        <ele>30.4</ele>
        <time>2016-05-05T10:15:54Z</time>
      </trkpt>
      <trkpt lat="59.272292953673" lon="17.827323467546">
        <ele>30</ele>
        <time>2016-05-05T10:15:55Z</time>
      </trkpt>
      <trkpt lat="59.272522701552" lon="17.826246561034">
        <ele>30</ele>
        <time>2016-05-05T10:16:01Z</time>
      </trkpt>
      <trkpt lat="59.272550697098" lon="17.826055956628">
        <ele>30</ele>
        <time>2016-05-05T10:16:02Z</time>
      </trkpt>
      <trkpt lat="59.272584727612" lon="17.825439384064">
        <ele>30</ele>
        <time>2016-05-05T10:16:05Z</time>
      </trkpt>
      <trkpt lat="59.272498142585" lon="17.82464427703">
        <ele>30</ele>
        <time>2016-05-05T10:16:09Z</time>
      </trkpt>
      <trkpt lat="59.272457238913" lon="17.824452834434">
        <ele>30</ele>
        <time>2016-05-05T10:16:10Z</time>
      </trkpt>
      <trkpt lat="59.272277111882" lon="17.82367784396">
        <ele>29.4</ele>
        <time>2016-05-05T10:16:14Z</time>
      </trkpt>
      <trkpt lat="59.272237214038" lon="17.823480701672">
        <ele>29</ele>
        <time>2016-05-05T10:16:15Z</time>
      </trkpt>
      <trkpt lat="59.272200501316" lon="17.823283391746">
        <ele>28.4</ele>
        <time>2016-05-05T10:16:16Z</time>
      </trkpt>
      <trkpt lat="59.272169572105" lon="17.823074430979">
        <ele>27.4</ele>
        <time>2016-05-05T10:16:17Z</time>
      </trkpt>
      <trkpt lat="59.27213227265" lon="17.822658018187">
        <ele>27.4</ele>
        <time>2016-05-05T10:16:19Z</time>
      </trkpt>
      <trkpt lat="59.272128333157" lon="17.822449141239">
        <ele>27.4</ele>
        <time>2016-05-05T10:16:20Z</time>
      </trkpt>
      <trkpt lat="59.272155574332" lon="17.821854193977">
        <ele>28</ele>
        <time>2016-05-05T10:16:23Z</time>
      </trkpt>
      <trkpt lat="59.27217166758" lon="17.821642383364">
        <ele>28.4</ele>
        <time>2016-05-05T10:16:24Z</time>
      </trkpt>
      <trkpt lat="59.272191951778" lon="17.821417329349">
        <ele>28.8</ele>
        <time>2016-05-05T10:16:25Z</time>
      </trkpt>
      <trkpt lat="59.272209134673" lon="17.821182719968">
        <ele>29.4</ele>
        <time>2016-05-05T10:16:26Z</time>
      </trkpt>
      <trkpt lat="59.27221441527" lon="17.820952636813">
        <ele>29.8</ele>
        <time>2016-05-05T10:16:27Z</time>
      </trkpt>
      <trkpt lat="59.272199411669" lon="17.819852260981">
        <ele>29.8</ele>
        <time>2016-05-05T10:16:32Z</time>
      </trkpt>
      <trkpt lat="59.272185749172" lon="17.819645060413">
        <ele>29.2</ele>
        <time>2016-05-05T10:16:33Z</time>
      </trkpt>
      <trkpt lat="59.272169572105" lon="17.819443224261">
        <ele>28.8</ele>
        <time>2016-05-05T10:16:34Z</time>
      </trkpt>
      <trkpt lat="59.272156496341" lon="17.819234682589">
        <ele>28</ele>
        <time>2016-05-05T10:16:35Z</time>
      </trkpt>
      <trkpt lat="59.272150880468" lon="17.819034103722">
        <ele>27.2</ele>
        <time>2016-05-05T10:16:36Z</time>
      </trkpt>
      <trkpt lat="59.272147024794" lon="17.818830758828">
        <ele>26.4</ele>
        <time>2016-05-05T10:16:37Z</time>
      </trkpt>
      <trkpt lat="59.272149204088" lon="17.818625569916">
        <ele>25.6</ele>
        <time>2016-05-05T10:16:38Z</time>
      </trkpt>
      <trkpt lat="59.272151970115" lon="17.818419542814">
        <ele>25</ele>
        <time>2016-05-05T10:16:39Z</time>
      </trkpt>
      <trkpt lat="59.272226485206" lon="17.817370128934">
        <ele>25</ele>
        <time>2016-05-05T10:16:44Z</time>
      </trkpt>
      <trkpt lat="59.272317093545" lon="17.816757495863">
        <ele>24.6</ele>
        <time>2016-05-05T10:16:47Z</time>
      </trkpt>
      <trkpt lat="59.27234768748" lon="17.816548702734">
        <ele>24.2</ele>
        <time>2016-05-05T10:16:48Z</time>
      </trkpt>
      <trkpt lat="59.272380963623" lon="17.816344100555">
        <ele>23.6</ele>
        <time>2016-05-05T10:16:49Z</time>
      </trkpt>
      <trkpt lat="59.272418849811" lon="17.816132960494">
        <ele>23.2</ele>
        <time>2016-05-05T10:16:50Z</time>
      </trkpt>
      <trkpt lat="59.272456819818" lon="17.815941182622">
        <ele>22.8</ele>
        <time>2016-05-05T10:16:51Z</time>
      </trkpt>
      <trkpt lat="59.27251700186" lon="17.815543796743">
        <ele>22.8</ele>
        <time>2016-05-05T10:16:53Z</time>
      </trkpt>
      <trkpt lat="59.27252873652" lon="17.815339865116">
        <ele>22.8</ele>
        <time>2016-05-05T10:16:54Z</time>
      </trkpt>
      <trkpt lat="59.272492191436" lon="17.814933678242">
        <ele>22.8</ele>
        <time>2016-05-05T10:16:56Z</time>
      </trkpt>
      <trkpt lat="59.272350453507" lon="17.814595300939">
        <ele>22.4</ele>
        <time>2016-05-05T10:16:58Z</time>
      </trkpt>
      <trkpt lat="59.27225213382" lon="17.814485833325">
        <ele>21.8</ele>
        <time>2016-05-05T10:16:59Z</time>
      </trkpt>
      <trkpt lat="59.272144174948" lon="17.814399248298">
        <ele>21.4</ele>
        <time>2016-05-05T10:17:00Z</time>
      </trkpt>
      <trkpt lat="59.272031857488" lon="17.814324146474">
        <ele>21</ele>
        <time>2016-05-05T10:17:01Z</time>
      </trkpt>
      <trkpt lat="59.271916354906" lon="17.814251056306">
        <ele>20.4</ele>
        <time>2016-05-05T10:17:02Z</time>
      </trkpt>
      <trkpt lat="59.271804456541" lon="17.814179726337">
        <ele>20</ele>
        <time>2016-05-05T10:17:03Z</time>
      </trkpt>
      <trkpt lat="59.271688367226" lon="17.814109569834">
        <ele>19.4</ele>
        <time>2016-05-05T10:17:04Z</time>
      </trkpt>
      <trkpt lat="59.271559453604" lon="17.814036814942">
        <ele>18.4</ele>
        <time>2016-05-05T10:17:05Z</time>
      </trkpt>
      <trkpt lat="59.271309756803" lon="17.813849311839">
        <ele>18.4</ele>
        <time>2016-05-05T10:17:07Z</time>
      </trkpt>
      <trkpt lat="59.271082272037" lon="17.813564411058">
        <ele>17.8</ele>
        <time>2016-05-05T10:17:09Z</time>
      </trkpt>
      <trkpt lat="59.270982946522" lon="17.813380428353">
        <ele>17.2</ele>
        <time>2016-05-05T10:17:10Z</time>
      </trkpt>
      <trkpt lat="59.270894768934" lon="17.813173227785">
        <ele>16.6</ele>
        <time>2016-05-05T10:17:11Z</time>
      </trkpt>
      <trkpt lat="59.270805753156" lon="17.812962590638">
        <ele>16</ele>
        <time>2016-05-05T10:17:12Z</time>
      </trkpt>
      <trkpt lat="59.270709612763" lon="17.812761592676">
        <ele>15.4</ele>
        <time>2016-05-05T10:17:13Z</time>
      </trkpt>
      <trkpt lat="59.270631493455" lon="17.812546596941">
        <ele>14.8</ele>
        <time>2016-05-05T10:17:14Z</time>
      </trkpt>
      <trkpt lat="59.270577011105" lon="17.812315675596">
        <ele>14</ele>
        <time>2016-05-05T10:17:15Z</time>
      </trkpt>
      <trkpt lat="59.270537616175" lon="17.812076707627">
        <ele>13.4</ele>
        <time>2016-05-05T10:17:16Z</time>
      </trkpt>
      <trkpt lat="59.270516577606" lon="17.811832039966">
        <ele>12.8</ele>
        <time>2016-05-05T10:17:17Z</time>
      </trkpt>
      <trkpt lat="59.27051121319" lon="17.811587120848">
        <ele>12.8</ele>
        <time>2016-05-05T10:17:18Z</time>
      </trkpt>
      <trkpt lat="59.270519846547" lon="17.811085128857">
        <ele>12.8</ele>
        <time>2016-05-05T10:17:20Z</time>
      </trkpt>
      <trkpt lat="59.270532587035" lon="17.81062638747">
        <ele>12.8</ele>
        <time>2016-05-05T10:17:22Z</time>
      </trkpt>
      <trkpt lat="59.270569467395" lon="17.81001786153">
        <ele>13.4</ele>
        <time>2016-05-05T10:17:25Z</time>
      </trkpt>
      <trkpt lat="59.27058748848" lon="17.809822982355">
        <ele>13.8</ele>
        <time>2016-05-05T10:17:26Z</time>
      </trkpt>
      <trkpt lat="59.270602994995" lon="17.809631791216">
        <ele>14.4</ele>
        <time>2016-05-05T10:17:27Z</time>
      </trkpt>
      <trkpt lat="59.270613388551" lon="17.809431044711">
        <ele>15</ele>
        <time>2016-05-05T10:17:28Z</time>
      </trkpt>
      <trkpt lat="59.270623949745" lon="17.809242368142">
        <ele>15.4</ele>
        <time>2016-05-05T10:17:29Z</time>
      </trkpt>
      <trkpt lat="59.270645575047" lon="17.809061570559">
        <ele>15.4</ele>
        <time>2016-05-05T10:17:30Z</time>
      </trkpt>
      <trkpt lat="59.270669966376" lon="17.808888651962">
        <ele>15.4</ele>
        <time>2016-05-05T10:17:31Z</time>
      </trkpt>
      <trkpt lat="59.270703913071" lon="17.808732832441">
        <ele>16</ele>
        <time>2016-05-05T10:17:32Z</time>
      </trkpt>
      <trkpt lat="59.270738530318" lon="17.808587490295">
        <ele>16.4</ele>
        <time>2016-05-05T10:17:33Z</time>
      </trkpt>
      <trkpt lat="59.270772560832" lon="17.808440304131">
        <ele>16.8</ele>
        <time>2016-05-05T10:17:34Z</time>
      </trkpt>
      <trkpt lat="59.270818745101" lon="17.808292112139">
        <ele>17.6</ele>
        <time>2016-05-05T10:17:35Z</time>
      </trkpt>
      <trkpt lat="59.270861492791" lon="17.808151380038">
        <ele>18.4</ele>
        <time>2016-05-05T10:17:36Z</time>
      </trkpt>
      <trkpt lat="59.270898205513" lon="17.808010145023">
        <ele>19.2</ele>
        <time>2016-05-05T10:17:37Z</time>
      </trkpt>
      <trkpt lat="59.270937432805" lon="17.807866395438">
        <ele>20</ele>
        <time>2016-05-05T10:17:38Z</time>
      </trkpt>
      <trkpt lat="59.27096886493" lon="17.807708145166">
        <ele>20.8</ele>
        <time>2016-05-05T10:17:39Z</time>
      </trkpt>
      <trkpt lat="59.27100742167" lon="17.80755442112">
        <ele>21.4</ele>
        <time>2016-05-05T10:17:40Z</time>
      </trkpt>
      <trkpt lat="59.27104933117" lon="17.807398266323">
        <ele>22.2</ele>
        <time>2016-05-05T10:17:41Z</time>
      </trkpt>
      <trkpt lat="59.271096688905" lon="17.807252337444">
        <ele>22.8</ele>
        <time>2016-05-05T10:17:42Z</time>
      </trkpt>
      <trkpt lat="59.271143040812" lon="17.80709760757">
        <ele>23.6</ele>
        <time>2016-05-05T10:17:43Z</time>
      </trkpt>
      <trkpt lat="59.271220154292" lon="17.806798960473">
        <ele>23.6</ele>
        <time>2016-05-05T10:17:45Z</time>
      </trkpt>
      <trkpt lat="59.271350325199" lon="17.806036542849">
        <ele>23.6</ele>
        <time>2016-05-05T10:17:50Z</time>
      </trkpt>
      <trkpt lat="59.271383601342" lon="17.805592637425">
        <ele>24</ele>
        <time>2016-05-05T10:17:53Z</time>
      </trkpt>
      <trkpt lat="59.27139298907" lon="17.805454671351">
        <ele>24.4</ele>
        <time>2016-05-05T10:17:54Z</time>
      </trkpt>
      <trkpt lat="59.271404472273" lon="17.805331876516">
        <ele>25.4</ele>
        <time>2016-05-05T10:17:55Z</time>
      </trkpt>
      <trkpt lat="59.271411010155" lon="17.805204220179">
        <ele>25.8</ele>
        <time>2016-05-05T10:17:56Z</time>
      </trkpt>
      <trkpt lat="59.271429701792" lon="17.804944213641">
        <ele>26.2</ele>
        <time>2016-05-05T10:17:58Z</time>
      </trkpt>
      <trkpt lat="59.271437748416" lon="17.804809181232">
        <ele>26.6</ele>
        <time>2016-05-05T10:17:59Z</time>
      </trkpt>
      <trkpt lat="59.271448728705" lon="17.804670125511">
        <ele>27</ele>
        <time>2016-05-05T10:18:00Z</time>
      </trkpt>
      <trkpt lat="59.271464905772" lon="17.804529477229">
        <ele>27.4</ele>
        <time>2016-05-05T10:18:01Z</time>
      </trkpt>
      <trkpt lat="59.271487955997" lon="17.804394528639">
        <ele>28</ele>
        <time>2016-05-05T10:18:02Z</time>
      </trkpt>
      <trkpt lat="59.27151201205" lon="17.804278187867">
        <ele>28.4</ele>
        <time>2016-05-05T10:18:03Z</time>
      </trkpt>
      <trkpt lat="59.271535313732" lon="17.80415639886">
        <ele>29</ele>
        <time>2016-05-05T10:18:04Z</time>
      </trkpt>
      <trkpt lat="59.271556939034" lon="17.804026563229">
        <ele>29.4</ele>
        <time>2016-05-05T10:18:05Z</time>
      </trkpt>
      <trkpt lat="59.2715832582" lon="17.803900247996">
        <ele>30</ele>
        <time>2016-05-05T10:18:06Z</time>
      </trkpt>
      <trkpt lat="59.27161594761" lon="17.803779967731">
        <ele>30</ele>
        <time>2016-05-05T10:18:07Z</time>
      </trkpt>
      <trkpt lat="59.271674285634" lon="17.803541921771">
        <ele>30</ele>
        <time>2016-05-05T10:18:09Z</time>
      </trkpt>
      <trkpt lat="59.271731953106" lon="17.803294320445">
        <ele>30.4</ele>
        <time>2016-05-05T10:18:11Z</time>
      </trkpt>
      <trkpt lat="59.271762044127" lon="17.803172196162">
        <ele>30.8</ele>
        <time>2016-05-05T10:18:12Z</time>
      </trkpt>
      <trkpt lat="59.271798421573" lon="17.803040265056">
        <ele>31.2</ele>
        <time>2016-05-05T10:18:13Z</time>
      </trkpt>
      <trkpt lat="59.27183220063" lon="17.802908920683">
        <ele>31.6</ele>
        <time>2016-05-05T10:18:14Z</time>
      </trkpt>
      <trkpt lat="59.271864973859" lon="17.802769864962">
        <ele>32</ele>
        <time>2016-05-05T10:18:15Z</time>
      </trkpt>
      <trkpt lat="59.271944937185" lon="17.802350015591">
        <ele>32</ele>
        <time>2016-05-05T10:18:18Z</time>
      </trkpt>
      <trkpt lat="59.271970921075" lon="17.802024462595">
        <ele>32</ele>
        <time>2016-05-05T10:18:20Z</time>
      </trkpt>
      <trkpt lat="59.271993552205" lon="17.801145704199">
        <ele>31.6</ele>
        <time>2016-05-05T10:18:25Z</time>
      </trkpt>
      <trkpt lat="59.271990869997" lon="17.800951244119">
        <ele>31.2</ele>
        <time>2016-05-05T10:18:26Z</time>
      </trkpt>
      <trkpt lat="59.271991037635" lon="17.800751754899">
        <ele>30.8</ele>
        <time>2016-05-05T10:18:27Z</time>
      </trkpt>
      <trkpt lat="59.271989864169" lon="17.80054715272">
        <ele>30.4</ele>
        <time>2016-05-05T10:18:28Z</time>
      </trkpt>
      <trkpt lat="59.271987433418" lon="17.800337437582">
        <ele>30</ele>
        <time>2016-05-05T10:18:29Z</time>
      </trkpt>
      <trkpt lat="59.27199145673" lon="17.800138870371">
        <ele>29.6</ele>
        <time>2016-05-05T10:18:30Z</time>
      </trkpt>
      <trkpt lat="59.271995563861" lon="17.79993527402">
        <ele>29</ele>
        <time>2016-05-05T10:18:31Z</time>
      </trkpt>
      <trkpt lat="59.272001598829" lon="17.799724469235">
        <ele>28.6</ele>
        <time>2016-05-05T10:18:32Z</time>
      </trkpt>
      <trkpt lat="59.272007801435" lon="17.79951031169">
        <ele>28.2</ele>
        <time>2016-05-05T10:18:33Z</time>
      </trkpt>
      <trkpt lat="59.272006879426" lon="17.799293555756">
        <ele>27.8</ele>
        <time>2016-05-05T10:18:34Z</time>
      </trkpt>
      <trkpt lat="59.272010818919" lon="17.798658459193">
        <ele>27.8</ele>
        <time>2016-05-05T10:18:37Z</time>
      </trkpt>
      <trkpt lat="59.272015596602" lon="17.798248165188">
        <ele>27.4</ele>
        <time>2016-05-05T10:18:39Z</time>
      </trkpt>
      <trkpt lat="59.272023727045" lon="17.79804767014">
        <ele>26.8</ele>
        <time>2016-05-05T10:18:40Z</time>
      </trkpt>
      <trkpt lat="59.272030684022" lon="17.797853377698">
        <ele>26.4</ele>
        <time>2016-05-05T10:18:41Z</time>
      </trkpt>
      <trkpt lat="59.272036216076" lon="17.79765372084">
        <ele>26</ele>
        <time>2016-05-05T10:18:42Z</time>
      </trkpt>
      <trkpt lat="59.272050800582" lon="17.797466469194">
        <ele>25.6</ele>
        <time>2016-05-05T10:18:43Z</time>
      </trkpt>
      <trkpt lat="59.272189353389" lon="17.796323680948">
        <ele>25.6</ele>
        <time>2016-05-05T10:18:49Z</time>
      </trkpt>
      <trkpt lat="59.272333354431" lon="17.795294886542">
        <ele>25.6</ele>
        <time>2016-05-05T10:18:54Z</time>
      </trkpt>
      <trkpt lat="59.27238959698" lon="17.794889956953">
        <ele>25.6</ele>
        <time>2016-05-05T10:18:56Z</time>
      </trkpt>
      <trkpt lat="59.27246838684" lon="17.794257877874">
        <ele>25.2</ele>
        <time>2016-05-05T10:18:59Z</time>
      </trkpt>
      <trkpt lat="59.272492191436" lon="17.794046737813">
        <ele>24.6</ele>
        <time>2016-05-05T10:19:00Z</time>
      </trkpt>
      <trkpt lat="59.272531083452" lon="17.793837693227">
        <ele>24.2</ele>
        <time>2016-05-05T10:19:01Z</time>
      </trkpt>
      <trkpt lat="59.272564694871" lon="17.793621104931">
        <ele>23.8</ele>
        <time>2016-05-05T10:19:02Z</time>
      </trkpt>
      <trkpt lat="59.272602916335" lon="17.79340912668">
        <ele>23.4</ele>
        <time>2016-05-05T10:19:03Z</time>
      </trkpt>
      <trkpt lat="59.272681035643" lon="17.79296488598">
        <ele>23.4</ele>
        <time>2016-05-05T10:19:05Z</time>
      </trkpt>
      <trkpt lat="59.272745660092" lon="17.792514861769">
        <ele>24</ele>
        <time>2016-05-05T10:19:07Z</time>
      </trkpt>
      <trkpt lat="59.272787988687" lon="17.79228511389">
        <ele>24.4</ele>
        <time>2016-05-05T10:19:08Z</time>
      </trkpt>
      <trkpt lat="59.272821935382" lon="17.792061820074">
        <ele>25.2</ele>
        <time>2016-05-05T10:19:09Z</time>
      </trkpt>
      <trkpt lat="59.272849595652" lon="17.791820253716">
        <ele>25.8</ele>
        <time>2016-05-05T10:19:10Z</time>
      </trkpt>
      <trkpt lat="59.272948585891" lon="17.791111983166">
        <ele>25.8</ele>
        <time>2016-05-05T10:19:13Z</time>
      </trkpt>
      <trkpt lat="59.273098957177" lon="17.789949413636">
        <ele>25.8</ele>
        <time>2016-05-05T10:19:18Z</time>
      </trkpt>
      <trkpt lat="59.27316324635" lon="17.789515063578">
        <ele>25.8</ele>
        <time>2016-05-05T10:19:20Z</time>
      </trkpt>
      <trkpt lat="59.273362819389" lon="17.788490795398">
        <ele>25.8</ele>
        <time>2016-05-05T10:19:25Z</time>
      </trkpt>
      <trkpt lat="59.273415206264" lon="17.788308908168">
        <ele>26.2</ele>
        <time>2016-05-05T10:19:26Z</time>
      </trkpt>
      <trkpt lat="59.273472035546" lon="17.788131714802">
        <ele>26.6</ele>
        <time>2016-05-05T10:19:27Z</time>
      </trkpt>
      <trkpt lat="59.27353121176" lon="17.787962651879">
        <ele>27</ele>
        <time>2016-05-05T10:19:28Z</time>
      </trkpt>
      <trkpt lat="59.273595165657" lon="17.787784452685">
        <ele>27.4</ele>
        <time>2016-05-05T10:19:29Z</time>
      </trkpt>
      <trkpt lat="59.273656604984" lon="17.787616311771">
        <ele>27.8</ele>
        <time>2016-05-05T10:19:30Z</time>
      </trkpt>
      <trkpt lat="59.273987019482" lon="17.786816510873">
        <ele>27.8</ele>
        <time>2016-05-05T10:19:35Z</time>
      </trkpt>
      <trkpt lat="59.274149041609" lon="17.786523228192">
        <ele>27.8</ele>
        <time>2016-05-05T10:19:38Z</time>
      </trkpt>
      <trkpt lat="59.274231016591" lon="17.786396577683">
        <ele>27.8</ele>
        <time>2016-05-05T10:19:39Z</time>
      </trkpt>
      <trkpt lat="59.274658242034" lon="17.785904392515">
        <ele>27.8</ele>
        <time>2016-05-05T10:19:44Z</time>
      </trkpt>
      <trkpt lat="59.27515310941" lon="17.785488650275">
        <ele>27.8</ele>
        <time>2016-05-05T10:19:50Z</time>
      </trkpt>
      <trkpt lat="59.275306246723" lon="17.785405082732">
        <ele>27.8</ele>
        <time>2016-05-05T10:19:52Z</time>
      </trkpt>
      <trkpt lat="59.275445134806" lon="17.785343140491">
        <ele>27.8</ele>
        <time>2016-05-05T10:19:54Z</time>
      </trkpt>
      <trkpt lat="59.275582346509" lon="17.785270804694">
        <ele>27.4</ele>
        <time>2016-05-05T10:19:56Z</time>
      </trkpt>
      <trkpt lat="59.275651497184" lon="17.785227637909">
        <ele>26.8</ele>
        <time>2016-05-05T10:19:57Z</time>
      </trkpt>
      <trkpt lat="59.275720061126" lon="17.785196457241">
        <ele>26.4</ele>
        <time>2016-05-05T10:19:58Z</time>
      </trkpt>
      <trkpt lat="59.275785523765" lon="17.78517977726">
        <ele>25.6</ele>
        <time>2016-05-05T10:19:59Z</time>
      </trkpt>
      <trkpt lat="59.27590328946" lon="17.785060251366">
        <ele>25.6</ele>
        <time>2016-05-05T10:20:02Z</time>
      </trkpt>
      <trkpt lat="59.275959029095" lon="17.784988837578">
        <ele>25.6</ele>
        <time>2016-05-05T10:20:05Z</time>
      </trkpt>
      <trkpt lat="59.275962633312" lon="17.784982634972">
        <ele>25.6</ele>
        <time>2016-05-05T10:20:06Z</time>
      </trkpt>
      <trkpt lat="59.275996580007" lon="17.784903426017">
        <ele>25.6</ele>
        <time>2016-05-05T10:23:20Z</time>
      </trkpt>
      <trkpt lat="59.276009823409" lon="17.784880040516">
        <ele>25.6</ele>
        <time>2016-05-05T10:23:21Z</time>
      </trkpt>
      <trkpt lat="59.276107304906" lon="17.784814410239">
        <ele>25.6</ele>
        <time>2016-05-05T10:23:27Z</time>
      </trkpt>
      <trkpt lat="59.276118788109" lon="17.784828827107">
        <ele>25.6</ele>
        <time>2016-05-05T10:23:28Z</time>
      </trkpt>
      <trkpt lat="59.276173270459" lon="17.784885991665">
        <ele>25.6</ele>
        <time>2016-05-05T10:23:31Z</time>
      </trkpt>
      <trkpt lat="59.276201349824" lon="17.784929577545">
        <ele>25.6</ele>
        <time>2016-05-05T10:23:32Z</time>
      </trkpt>
      <trkpt lat="59.276263375884" lon="17.785023203368">
        <ele>25.2</ele>
        <time>2016-05-05T10:23:34Z</time>
      </trkpt>
      <trkpt lat="59.276302854633" lon="17.785068633266">
        <ele>24.8</ele>
        <time>2016-05-05T10:23:35Z</time>
      </trkpt>
      <trkpt lat="59.276336214595" lon="17.785113727888">
        <ele>24.4</ele>
        <time>2016-05-05T10:23:36Z</time>
      </trkpt>
      <trkpt lat="59.276367898177" lon="17.78516301346">
        <ele>24</ele>
        <time>2016-05-05T10:23:37Z</time>
      </trkpt>
      <trkpt lat="59.27640787984" lon="17.785216741439">
        <ele>23.6</ele>
        <time>2016-05-05T10:23:38Z</time>
      </trkpt>
      <trkpt lat="59.276495805971" lon="17.785329394175">
        <ele>23.6</ele>
        <time>2016-05-05T10:23:40Z</time>
      </trkpt>
      <trkpt lat="59.276861256811" lon="17.785770952667">
        <ele>23.6</ele>
        <time>2016-05-05T10:23:48Z</time>
      </trkpt>
      <trkpt lat="59.27691330841" lon="17.785829542148">
        <ele>23.2</ele>
        <time>2016-05-05T10:23:49Z</time>
      </trkpt>
      <trkpt lat="59.276964354181" lon="17.785893496045">
        <ele>22.8</ele>
        <time>2016-05-05T10:23:50Z</time>
      </trkpt>
      <trkpt lat="59.277014477943" lon="17.785956695571">
        <ele>22.4</ele>
        <time>2016-05-05T10:23:51Z</time>
      </trkpt>
      <trkpt lat="59.277065356076" lon="17.786024002228">
        <ele>22</ele>
        <time>2016-05-05T10:23:52Z</time>
      </trkpt>
      <trkpt lat="59.277114222553" lon="17.786099355509">
        <ele>21.6</ele>
        <time>2016-05-05T10:23:53Z</time>
      </trkpt>
      <trkpt lat="59.27723014423" lon="17.786277219427">
        <ele>21.6</ele>
        <time>2016-05-05T10:23:55Z</time>
      </trkpt>
      <trkpt lat="59.277477829375" lon="17.786767979672">
        <ele>21</ele>
        <time>2016-05-05T10:24:00Z</time>
      </trkpt>
      <trkpt lat="59.277528288413" lon="17.786879123666">
        <ele>20.4</ele>
        <time>2016-05-05T10:24:01Z</time>
      </trkpt>
      <trkpt lat="59.277579082727" lon="17.787004097795">
        <ele>19.8</ele>
        <time>2016-05-05T10:24:02Z</time>
      </trkpt>
      <trkpt lat="59.277628116842" lon="17.787120606205">
        <ele>19.4</ele>
        <time>2016-05-05T10:24:03Z</time>
      </trkpt>
      <trkpt lat="59.277675977491" lon="17.787246250886">
        <ele>18.8</ele>
        <time>2016-05-05T10:24:04Z</time>
      </trkpt>
      <trkpt lat="59.277722748493" lon="17.787369380997">
        <ele>18.2</ele>
        <time>2016-05-05T10:24:05Z</time>
      </trkpt>
      <trkpt lat="59.277769603314" lon="17.787486308502">
        <ele>17.8</ele>
        <time>2016-05-05T10:24:06Z</time>
      </trkpt>
      <trkpt lat="59.277818385972" lon="17.787605834396">
        <ele>16.8</ele>
        <time>2016-05-05T10:24:07Z</time>
      </trkpt>
      <trkpt lat="59.277860127834" lon="17.787728377774">
        <ele>16.4</ele>
        <time>2016-05-05T10:24:08Z</time>
      </trkpt>
      <trkpt lat="59.277994908786" lon="17.788087374551">
        <ele>16</ele>
        <time>2016-05-05T10:24:11Z</time>
      </trkpt>
      <trkpt lat="59.278037907933" lon="17.788208912101">
        <ele>15.6</ele>
        <time>2016-05-05T10:24:12Z</time>
      </trkpt>
      <trkpt lat="59.278082080546" lon="17.788327683624">
        <ele>15.2</ele>
        <time>2016-05-05T10:24:13Z</time>
      </trkpt>
      <trkpt lat="59.278125834064" lon="17.788447460975">
        <ele>14.8</ele>
        <time>2016-05-05T10:24:14Z</time>
      </trkpt>
      <trkpt lat="59.278172521247" lon="17.788567238326">
        <ele>14.4</ele>
        <time>2016-05-05T10:24:15Z</time>
      </trkpt>
      <trkpt lat="59.27822256119" lon="17.788689697885">
        <ele>13.8</ele>
        <time>2016-05-05T10:24:16Z</time>
      </trkpt>
      <trkpt lat="59.27827704354" lon="17.788822634819">
        <ele>13.4</ele>
        <time>2016-05-05T10:24:17Z</time>
      </trkpt>
      <trkpt lat="59.278329346596" lon="17.788951380803">
        <ele>13</ele>
        <time>2016-05-05T10:24:18Z</time>
      </trkpt>
      <trkpt lat="59.278388019896" lon="17.789077025484">
        <ele>12.6</ele>
        <time>2016-05-05T10:24:19Z</time>
      </trkpt>
      <trkpt lat="59.278449543042" lon="17.789199904138">
        <ele>12.2</ele>
        <time>2016-05-05T10:24:20Z</time>
      </trkpt>
      <trkpt lat="59.278658587628" lon="17.789507855144">
        <ele>12.2</ele>
        <time>2016-05-05T10:24:23Z</time>
      </trkpt>
      <trkpt lat="59.278734192366" lon="17.78960122951">
        <ele>12.2</ele>
        <time>2016-05-05T10:24:24Z</time>
      </trkpt>
      <trkpt lat="59.278970645765" lon="17.789845226619">
        <ele>11.6</ele>
        <time>2016-05-05T10:24:27Z</time>
      </trkpt>
      <trkpt lat="59.279053375118" lon="17.789908761421">
        <ele>11.2</ele>
        <time>2016-05-05T10:24:28Z</time>
      </trkpt>
      <trkpt lat="59.279136607385" lon="17.78996500397">
        <ele>10.6</ele>
        <time>2016-05-05T10:24:29Z</time>
      </trkpt>
      <trkpt lat="59.279217660358" lon="17.790021246519">
        <ele>10.2</ele>
        <time>2016-05-05T10:24:30Z</time>
      </trkpt>
      <trkpt lat="59.279300892625" lon="17.790062904562">
        <ele>9.8</ele>
        <time>2016-05-05T10:24:31Z</time>
      </trkpt>
      <trkpt lat="59.279616974074" lon="17.790257364642">
        <ele>9.8</ele>
        <time>2016-05-05T10:24:35Z</time>
      </trkpt>
      <trkpt lat="59.279683358722" lon="17.790344620221">
        <ele>9.8</ele>
        <time>2016-05-05T10:24:36Z</time>
      </trkpt>
      <trkpt lat="59.279838340053" lon="17.790442436994">
        <ele>9.8</ele>
        <time>2016-05-05T10:24:38Z</time>
      </trkpt>
      <trkpt lat="59.279925008899" lon="17.790428858316">
        <ele>9.2</ele>
        <time>2016-05-05T10:24:39Z</time>
      </trkpt>
      <trkpt lat="59.280013940858" lon="17.790426511384">
        <ele>8.8</ele>
        <time>2016-05-05T10:24:40Z</time>
      </trkpt>
      <trkpt lat="59.280101866989" lon="17.790444364831">
        <ele>8.4</ele>
        <time>2016-05-05T10:24:41Z</time>
      </trkpt>
      <trkpt lat="59.280185183075" lon="17.790480239363">
        <ele>8</ele>
        <time>2016-05-05T10:24:42Z</time>
      </trkpt>
      <trkpt lat="59.280272187197" lon="17.790517957913">
        <ele>7.6</ele>
        <time>2016-05-05T10:24:43Z</time>
      </trkpt>
      <trkpt lat="59.280441753034" lon="17.790592724461">
        <ele>7.6</ele>
        <time>2016-05-05T10:24:45Z</time>
      </trkpt>
      <trkpt lat="59.280610648319" lon="17.790650559571">
        <ele>7.2</ele>
        <time>2016-05-05T10:24:47Z</time>
      </trkpt>
      <trkpt lat="59.28069354531" lon="17.790682410791">
        <ele>6.8</ele>
        <time>2016-05-05T10:24:48Z</time>
      </trkpt>
      <trkpt lat="59.280773340998" lon="17.790720632255">
        <ele>6.4</ele>
        <time>2016-05-05T10:24:49Z</time>
      </trkpt>
      <trkpt lat="59.280851292668" lon="17.790748963077">
        <ele>6</ele>
        <time>2016-05-05T10:24:50Z</time>
      </trkpt>
      <trkpt lat="59.280928741424" lon="17.790785089066">
        <ele>5.6</ele>
        <time>2016-05-05T10:24:51Z</time>
      </trkpt>
      <trkpt lat="59.281367617708" lon="17.790983907734">
        <ele>6</ele>
        <time>2016-05-05T10:24:57Z</time>
      </trkpt>
      <trkpt lat="59.28144288717" lon="17.791014334031">
        <ele>6.4</ele>
        <time>2016-05-05T10:24:58Z</time>
      </trkpt>
      <trkpt lat="59.281517569899" lon="17.791042748672">
        <ele>6.8</ele>
        <time>2016-05-05T10:24:59Z</time>
      </trkpt>
      <trkpt lat="59.281591665895" lon="17.791073342607">
        <ele>7.2</ele>
        <time>2016-05-05T10:25:00Z</time>
      </trkpt>
      <trkpt lat="59.281668695556" lon="17.79110829513">
        <ele>7.6</ele>
        <time>2016-05-05T10:25:01Z</time>
      </trkpt>
      <trkpt lat="59.28218719989" lon="17.791356650827">
        <ele>7.6</ele>
        <time>2016-05-05T10:25:08Z</time>
      </trkpt>
      <trkpt lat="59.282651473331" lon="17.791558906074">
        <ele>7.6</ele>
        <time>2016-05-05T10:25:14Z</time>
      </trkpt>
      <trkpt lat="59.283185567999" lon="17.791805836848">
        <ele>7.6</ele>
        <time>2016-05-05T10:25:21Z</time>
      </trkpt>
      <trkpt lat="59.283258993443" lon="17.79183835862">
        <ele>7.6</ele>
        <time>2016-05-05T10:25:22Z</time>
      </trkpt>
      <trkpt lat="59.283478263947" lon="17.791940282524">
        <ele>8.2</ele>
        <time>2016-05-05T10:25:25Z</time>
      </trkpt>
      <trkpt lat="59.283551354115" lon="17.791977246703">
        <ele>8.6</ele>
        <time>2016-05-05T10:25:26Z</time>
      </trkpt>
      <trkpt lat="59.28362553393" lon="17.792007589181">
        <ele>9</ele>
        <time>2016-05-05T10:25:27Z</time>
      </trkpt>
      <trkpt lat="59.283698791736" lon="17.792039608039">
        <ele>9.4</ele>
        <time>2016-05-05T10:25:28Z</time>
      </trkpt>
      <trkpt lat="59.283773725922" lon="17.792072800363">
        <ele>10</ele>
        <time>2016-05-05T10:25:29Z</time>
      </trkpt>
      <trkpt lat="59.284313017368" lon="17.79231193597">
        <ele>10</ele>
        <time>2016-05-05T10:25:36Z</time>
      </trkpt>
      <trkpt lat="59.284393986522" lon="17.792348900149">
        <ele>10</ele>
        <time>2016-05-05T10:25:37Z</time>
      </trkpt>
      <trkpt lat="59.284852811728" lon="17.79261619894">
        <ele>10</ele>
        <time>2016-05-05T10:25:43Z</time>
      </trkpt>
      <trkpt lat="59.285168222625" lon="17.792792135021">
        <ele>9.4</ele>
        <time>2016-05-05T10:25:47Z</time>
      </trkpt>
      <trkpt lat="59.285240642241" lon="17.792854747814">
        <ele>8.8</ele>
        <time>2016-05-05T10:25:48Z</time>
      </trkpt>
      <trkpt lat="59.285309709097" lon="17.792932448027">
        <ele>8.2</ele>
        <time>2016-05-05T10:25:49Z</time>
      </trkpt>
      <trkpt lat="59.285373411537" lon="17.79302858842">
        <ele>7.6</ele>
        <time>2016-05-05T10:25:50Z</time>
      </trkpt>
      <trkpt lat="59.285435940511" lon="17.793137301663">
        <ele>7.2</ele>
        <time>2016-05-05T10:25:51Z</time>
      </trkpt>
      <trkpt lat="59.285543815564" lon="17.793379203297">
        <ele>7.2</ele>
        <time>2016-05-05T10:25:53Z</time>
      </trkpt>
      <trkpt lat="59.285666442761" lon="17.793932911611">
        <ele>7.2</ele>
        <time>2016-05-05T10:25:57Z</time>
      </trkpt>
      <trkpt lat="59.285743304784" lon="17.794368686592">
        <ele>7.6</ele>
        <time>2016-05-05T10:26:00Z</time>
      </trkpt>
      <trkpt lat="59.285766522647" lon="17.79451889024">
        <ele>8</ele>
        <time>2016-05-05T10:26:01Z</time>
      </trkpt>
      <trkpt lat="59.285793680003" lon="17.794659873798">
        <ele>8.4</ele>
        <time>2016-05-05T10:26:02Z</time>
      </trkpt>
      <trkpt lat="59.285810024708" lon="17.794802533736">
        <ele>8.8</ele>
        <time>2016-05-05T10:26:03Z</time>
      </trkpt>
      <trkpt lat="59.285831314734" lon="17.794942595285">
        <ele>9.2</ele>
        <time>2016-05-05T10:26:04Z</time>
      </trkpt>
      <trkpt lat="59.286015297439" lon="17.796075828165">
        <ele>9.6</ele>
        <time>2016-05-05T10:26:12Z</time>
      </trkpt>
      <trkpt lat="59.286041113691" lon="17.796218907198">
        <ele>10.2</ele>
        <time>2016-05-05T10:26:13Z</time>
      </trkpt>
      <trkpt lat="59.286061984622" lon="17.7963578791">
        <ele>10.6</ele>
        <time>2016-05-05T10:26:14Z</time>
      </trkpt>
      <trkpt lat="59.286084112838" lon="17.796502383056">
        <ele>11</ele>
        <time>2016-05-05T10:26:15Z</time>
      </trkpt>
      <trkpt lat="59.286107246882" lon="17.796651916152">
        <ele>11.6</ele>
        <time>2016-05-05T10:26:16Z</time>
      </trkpt>
      <trkpt lat="59.286273292321" lon="17.797675178504">
        <ele>11.6</ele>
        <time>2016-05-05T10:26:23Z</time>
      </trkpt>
      <trkpt lat="59.286297013098" lon="17.797821777935">
        <ele>11.6</ele>
        <time>2016-05-05T10:26:24Z</time>
      </trkpt>
      <trkpt lat="59.286455095732" lon="17.798845291744">
        <ele>11.6</ele>
        <time>2016-05-05T10:26:31Z</time>
      </trkpt>
      <trkpt lat="59.286526090425" lon="17.79928064763">
        <ele>11.6</ele>
        <time>2016-05-05T10:26:34Z</time>
      </trkpt>
      <trkpt lat="59.286711917148" lon="17.800410276293">
        <ele>11.6</ele>
        <time>2016-05-05T10:26:42Z</time>
      </trkpt>
      <trkpt lat="59.286754664838" lon="17.800683526233">
        <ele>12</ele>
        <time>2016-05-05T10:26:44Z</time>
      </trkpt>
      <trkpt lat="59.286773021199" lon="17.800822749592">
        <ele>12.4</ele>
        <time>2016-05-05T10:26:45Z</time>
      </trkpt>
      <trkpt lat="59.286783330936" lon="17.800957195268">
        <ele>12.8</ele>
        <time>2016-05-05T10:26:46Z</time>
      </trkpt>
      <trkpt lat="59.286790623189" lon="17.801093568781">
        <ele>13.2</ele>
        <time>2016-05-05T10:26:47Z</time>
      </trkpt>
      <trkpt lat="59.286798669813" lon="17.801228014457">
        <ele>13.6</ele>
        <time>2016-05-05T10:26:48Z</time>
      </trkpt>
      <trkpt lat="59.286815014518" lon="17.801353575319">
        <ele>13.6</ele>
        <time>2016-05-05T10:26:49Z</time>
      </trkpt>
      <trkpt lat="59.286848542118" lon="17.801460276906">
        <ele>13.6</ele>
        <time>2016-05-05T10:26:50Z</time>
      </trkpt>
      <trkpt lat="59.287025735484" lon="17.801895716611">
        <ele>13.6</ele>
        <time>2016-05-05T10:26:54Z</time>
      </trkpt>
      <trkpt lat="59.287280796701" lon="17.802785287658">
        <ele>13.6</ele>
        <time>2016-05-05T10:27:01Z</time>
      </trkpt>
      <trkpt lat="59.287531834606" lon="17.80351099256">
        <ele>13.6</ele>
        <time>2016-05-05T10:27:07Z</time>
      </trkpt>
      <trkpt lat="59.287875324868" lon="17.804360833401">
        <ele>13.6</ele>
        <time>2016-05-05T10:27:14Z</time>
      </trkpt>
      <trkpt lat="59.288184868435" lon="17.805013531954">
        <ele>13.6</ele>
        <time>2016-05-05T10:27:19Z</time>
      </trkpt>
      <trkpt lat="59.288567837446" lon="17.805717863011">
        <ele>13.6</ele>
        <time>2016-05-05T10:27:25Z</time>
      </trkpt>
      <trkpt lat="59.288970839198" lon="17.806297052301">
        <ele>13.6</ele>
        <time>2016-05-05T10:27:31Z</time>
      </trkpt>
      <trkpt lat="59.289352550924" lon="17.806797116455">
        <ele>13.6</ele>
        <time>2016-05-05T10:27:37Z</time>
      </trkpt>
      <trkpt lat="59.289506191151" lon="17.80707916739">
        <ele>13.2</ele>
        <time>2016-05-05T10:27:40Z</time>
      </trkpt>
      <trkpt lat="59.289549609393" lon="17.807175391602">
        <ele>12.8</ele>
        <time>2016-05-05T10:27:41Z</time>
      </trkpt>
      <trkpt lat="59.289599146422" lon="17.807257282765">
        <ele>12.4</ele>
        <time>2016-05-05T10:27:42Z</time>
      </trkpt>
      <trkpt lat="59.289656227161" lon="17.807323415956">
        <ele>12</ele>
        <time>2016-05-05T10:27:43Z</time>
      </trkpt>
      <trkpt lat="59.2897216898" lon="17.807360463954">
        <ele>11.6</ele>
        <time>2016-05-05T10:27:44Z</time>
      </trkpt>
      <trkpt lat="59.289785643697" lon="17.807392315174">
        <ele>11.6</ele>
        <time>2016-05-05T10:27:45Z</time>
      </trkpt>
      <trkpt lat="59.28990776798" lon="17.807478900201">
        <ele>11.6</ele>
        <time>2016-05-05T10:27:47Z</time>
      </trkpt>
      <trkpt lat="59.290124104819" lon="17.807702696931">
        <ele>11.6</ele>
        <time>2016-05-05T10:27:51Z</time>
      </trkpt>
      <trkpt lat="59.290213036778" lon="17.807802609179">
        <ele>11.6</ele>
        <time>2016-05-05T10:27:54Z</time>
      </trkpt>
      <trkpt lat="59.290244636541" lon="17.807842842299">
        <ele>11.6</ele>
        <time>2016-05-05T10:27:58Z</time>
      </trkpt>
      <trkpt lat="59.290255365373" lon="17.807854409321">
        <ele>11.6</ele>
        <time>2016-05-05T10:28:10Z</time>
      </trkpt>
      <trkpt lat="59.290300124719" lon="17.807917189752">
        <ele>11.6</ele>
        <time>2016-05-05T10:28:12Z</time>
      </trkpt>
      <trkpt lat="59.290464912873" lon="17.808104776674">
        <ele>11.2</ele>
        <time>2016-05-05T10:28:16Z</time>
      </trkpt>
      <trkpt lat="59.290517215929" lon="17.808163114698">
        <ele>10.8</ele>
        <time>2016-05-05T10:28:17Z</time>
      </trkpt>
      <trkpt lat="59.290571027727" lon="17.808229583165">
        <ele>10.4</ele>
        <time>2016-05-05T10:28:18Z</time>
      </trkpt>
      <trkpt lat="59.290627605552" lon="17.80829873384">
        <ele>10</ele>
        <time>2016-05-05T10:28:19Z</time>
      </trkpt>
      <trkpt lat="59.290687117042" lon="17.808369477076">
        <ele>9.6</ele>
        <time>2016-05-05T10:28:20Z</time>
      </trkpt>
      <trkpt lat="59.290812342628" lon="17.808535187239">
        <ele>9.6</ele>
        <time>2016-05-05T10:28:22Z</time>
      </trkpt>
      <trkpt lat="59.291001103016" lon="17.808777424149">
        <ele>9.2</ele>
        <time>2016-05-05T10:28:25Z</time>
      </trkpt>
      <trkpt lat="59.291068409673" lon="17.808863757719">
        <ele>8.8</ele>
        <time>2016-05-05T10:28:26Z</time>
      </trkpt>
      <trkpt lat="59.291137308891" lon="17.808943134312">
        <ele>8.4</ele>
        <time>2016-05-05T10:28:27Z</time>
      </trkpt>
      <trkpt lat="59.291212159258" lon="17.809030389891">
        <ele>8</ele>
        <time>2016-05-05T10:28:28Z</time>
      </trkpt>
      <trkpt lat="59.291284495055" lon="17.809112951606">
        <ele>7.6</ele>
        <time>2016-05-05T10:28:29Z</time>
      </trkpt>
      <trkpt lat="59.291783050467" lon="17.809648806473">
        <ele>7.6</ele>
        <time>2016-05-05T10:28:36Z</time>
      </trkpt>
      <trkpt lat="59.291931745373" lon="17.809802949614">
        <ele>7.6</ele>
        <time>2016-05-05T10:28:38Z</time>
      </trkpt>
      <trkpt lat="59.29200072841" lon="17.809882158569">
        <ele>7.2</ele>
        <time>2016-05-05T10:28:39Z</time>
      </trkpt>
      <trkpt lat="59.29207448913" lon="17.809962960085">
        <ele>6.8</ele>
        <time>2016-05-05T10:28:40Z</time>
      </trkpt>
      <trkpt lat="59.292145567642" lon="17.810040660298">
        <ele>6.2</ele>
        <time>2016-05-05T10:28:41Z</time>
      </trkpt>
      <trkpt lat="59.292215221231" lon="17.81012347347">
        <ele>5.8</ele>
        <time>2016-05-05T10:28:42Z</time>
      </trkpt>
      <trkpt lat="59.292284539544" lon="17.810208046841">
        <ele>5.4</ele>
        <time>2016-05-05T10:28:43Z</time>
      </trkpt>
      <trkpt lat="59.292356037151" lon="17.810290189461">
        <ele>5.4</ele>
        <time>2016-05-05T10:28:44Z</time>
      </trkpt>
      <trkpt lat="59.292841013885" lon="17.81082839126">
        <ele>5.4</ele>
        <time>2016-05-05T10:28:51Z</time>
      </trkpt>
      <trkpt lat="59.29291267913" lon="17.810912042622">
        <ele>5.4</ele>
        <time>2016-05-05T10:28:52Z</time>
      </trkpt>
      <trkpt lat="59.293370414689" lon="17.811479078157">
        <ele>5.4</ele>
        <time>2016-05-05T10:28:59Z</time>
      </trkpt>
      <trkpt lat="59.293430764369" lon="17.811565411727">
        <ele>5.4</ele>
        <time>2016-05-05T10:29:00Z</time>
      </trkpt>
      <trkpt lat="59.293764531627" lon="17.811997833948">
        <ele>5.4</ele>
        <time>2016-05-05T10:29:06Z</time>
      </trkpt>
      <trkpt lat="59.293891349774" lon="17.811964725443">
        <ele>5.4</ele>
        <time>2016-05-05T10:29:09Z</time>
      </trkpt>
      <trkpt lat="59.293925380288" lon="17.811941842856">
        <ele>5.4</ele>
        <time>2016-05-05T10:29:12Z</time>
      </trkpt>
      <trkpt lat="59.293974833498" lon="17.812053070669">
        <ele>5.4</ele>
        <time>2016-05-05T10:29:15Z</time>
      </trkpt>
      <trkpt lat="59.293932001989" lon="17.812086682088">
        <ele>5.4</ele>
        <time>2016-05-05T10:29:17Z</time>
      </trkpt>
      <trkpt lat="59.293859079459" lon="17.81230947299">
        <ele>5.4</ele>
        <time>2016-05-05T10:29:20Z</time>
      </trkpt>
      <trkpt lat="59.293854217957" lon="17.812753126957">
        <ele>5.4</ele>
        <time>2016-05-05T10:29:24Z</time>
      </trkpt>
      <trkpt lat="59.293804848566" lon="17.813423511319">
        <ele>5.4</ele>
        <time>2016-05-05T10:29:29Z</time>
      </trkpt>
      <trkpt lat="59.293711558019" lon="17.814531430861">
        <ele>5.4</ele>
        <time>2016-05-05T10:29:37Z</time>
      </trkpt>
      <trkpt lat="59.293576860886" lon="17.815568607167">
        <ele>5.4</ele>
        <time>2016-05-05T10:29:44Z</time>
      </trkpt>
      <trkpt lat="59.293558420706" lon="17.815730294018">
        <ele>5.4</ele>
        <time>2016-05-05T10:29:45Z</time>
      </trkpt>
      <trkpt lat="59.293492036058" lon="17.816214935476">
        <ele>5</ele>
        <time>2016-05-05T10:29:48Z</time>
      </trkpt>
      <trkpt lat="59.293475356077" lon="17.81637972363">
        <ele>4.6</ele>
        <time>2016-05-05T10:29:49Z</time>
      </trkpt>
      <trkpt lat="59.293458257001" lon="17.816542248671">
        <ele>4.2</ele>
        <time>2016-05-05T10:29:50Z</time>
      </trkpt>
      <trkpt lat="59.293452054395" lon="17.816703432608">
        <ele>3.6</ele>
        <time>2016-05-05T10:29:51Z</time>
      </trkpt>
      <trkpt lat="59.293445684151" lon="17.816877357033">
        <ele>3.2</ele>
        <time>2016-05-05T10:29:52Z</time>
      </trkpt>
      <trkpt lat="59.293395644208" lon="17.81754061678">
        <ele>2.8</ele>
        <time>2016-05-05T10:29:56Z</time>
      </trkpt>
      <trkpt lat="59.293384999195" lon="17.817716049947">
        <ele>2.4</ele>
        <time>2016-05-05T10:29:57Z</time>
      </trkpt>
      <trkpt lat="59.293372426345" lon="17.817895087331">
        <ele>2</ele>
        <time>2016-05-05T10:29:58Z</time>
      </trkpt>
      <trkpt lat="59.293361362237" lon="17.818084685909">
        <ele>1.6</ele>
        <time>2016-05-05T10:29:59Z</time>
      </trkpt>
      <trkpt lat="59.293352393604" lon="17.818269925899">
        <ele>1.2</ele>
        <time>2016-05-05T10:30:00Z</time>
      </trkpt>
      <trkpt lat="59.293303108032" lon="17.819017759017">
        <ele>1.2</ele>
        <time>2016-05-05T10:30:04Z</time>
      </trkpt>
      <trkpt lat="59.293231023692" lon="17.820113608623">
        <ele>1.2</ele>
        <time>2016-05-05T10:30:10Z</time>
      </trkpt>
      <trkpt lat="59.293221635964" lon="17.820287533048">
        <ele>1.2</ele>
        <time>2016-05-05T10:30:11Z</time>
      </trkpt>
      <trkpt lat="59.293211661503" lon="17.821225802934">
        <ele>1.2</ele>
        <time>2016-05-05T10:30:17Z</time>
      </trkpt>
      <trkpt lat="59.293222893249" lon="17.821379191704">
        <ele>2.2</ele>
        <time>2016-05-05T10:30:18Z</time>
      </trkpt>
      <trkpt lat="59.293240830515" lon="17.821531574646">
        <ele>2.8</ele>
        <time>2016-05-05T10:30:19Z</time>
      </trkpt>
      <trkpt lat="59.293263461645" lon="17.821679934276">
        <ele>3.2</ele>
        <time>2016-05-05T10:30:20Z</time>
      </trkpt>
      <trkpt lat="59.293284248757" lon="17.82183382596">
        <ele>3.8</ele>
        <time>2016-05-05T10:30:21Z</time>
      </trkpt>
      <trkpt lat="59.293306963706" lon="17.821999536123">
        <ele>3.8</ele>
        <time>2016-05-05T10:30:22Z</time>
      </trkpt>
      <trkpt lat="59.293428417437" lon="17.822984157916">
        <ele>3.8</ele>
        <time>2016-05-05T10:30:28Z</time>
      </trkpt>
      <trkpt lat="59.293541405449" lon="17.823969450261">
        <ele>3.8</ele>
        <time>2016-05-05T10:30:34Z</time>
      </trkpt>
      <trkpt lat="59.293572250841" lon="17.824861535878">
        <ele>3.8</ele>
        <time>2016-05-05T10:30:39Z</time>
      </trkpt>
      <trkpt lat="59.293573927221" lon="17.825048033153">
        <ele>3.2</ele>
        <time>2016-05-05T10:30:40Z</time>
      </trkpt>
      <trkpt lat="59.293585158967" lon="17.825219778284">
        <ele>2.8</ele>
        <time>2016-05-05T10:30:41Z</time>
      </trkpt>
      <trkpt lat="59.293576860886" lon="17.825376519814">
        <ele>2.2</ele>
        <time>2016-05-05T10:30:42Z</time>
      </trkpt>
      <trkpt lat="59.293579375456" lon="17.825532926068">
        <ele>1.2</ele>
        <time>2016-05-05T10:30:43Z</time>
      </trkpt>
      <trkpt lat="59.293581806207" lon="17.825704503561">
        <ele>1.6</ele>
        <time>2016-05-05T10:30:44Z</time>
      </trkpt>
      <trkpt lat="59.293579543094" lon="17.825867363878">
        <ele>2</ele>
        <time>2016-05-05T10:30:45Z</time>
      </trkpt>
      <trkpt lat="59.293584404596" lon="17.826034163688">
        <ele>2.4</ele>
        <time>2016-05-05T10:30:46Z</time>
      </trkpt>
      <trkpt lat="59.293592032125" lon="17.826196940186">
        <ele>3</ele>
        <time>2016-05-05T10:30:47Z</time>
      </trkpt>
      <trkpt lat="59.293603096233" lon="17.826366841299">
        <ele>3.4</ele>
        <time>2016-05-05T10:30:48Z</time>
      </trkpt>
      <trkpt lat="59.2936108914" lon="17.826536407136">
        <ele>3.4</ele>
        <time>2016-05-05T10:30:49Z</time>
      </trkpt>
      <trkpt lat="59.293710552191" lon="17.827346433952">
        <ele>3.4</ele>
        <time>2016-05-05T10:30:54Z</time>
      </trkpt>
      <trkpt lat="59.293911466334" lon="17.828095189079">
        <ele>3.4</ele>
        <time>2016-05-05T10:30:59Z</time>
      </trkpt>
      <trkpt lat="59.294047672209" lon="17.828528114214">
        <ele>3.8</ele>
        <time>2016-05-05T10:31:02Z</time>
      </trkpt>
      <trkpt lat="59.294087067139" lon="17.828669935962">
        <ele>4.2</ele>
        <time>2016-05-05T10:31:03Z</time>
      </trkpt>
      <trkpt lat="59.294127467897" lon="17.828814104642">
        <ele>4.6</ele>
        <time>2016-05-05T10:31:04Z</time>
      </trkpt>
      <trkpt lat="59.294164851171" lon="17.8289550882">
        <ele>5.2</ele>
        <time>2016-05-05T10:31:05Z</time>
      </trkpt>
      <trkpt lat="59.294208939965" lon="17.829092635179">
        <ele>5.6</ele>
        <time>2016-05-05T10:31:06Z</time>
      </trkpt>
      <trkpt lat="59.29440046638" lon="17.829833008406">
        <ele>5.6</ele>
        <time>2016-05-05T10:31:11Z</time>
      </trkpt>
      <trkpt lat="59.294514292582" lon="17.830514624514">
        <ele>5.6</ele>
        <time>2016-05-05T10:31:15Z</time>
      </trkpt>
      <trkpt lat="59.294530553468" lon="17.830697098477">
        <ele>5.6</ele>
        <time>2016-05-05T10:31:16Z</time>
      </trkpt>
      <trkpt lat="59.294606158206" lon="17.831770987505">
        <ele>5.6</ele>
        <time>2016-05-05T10:31:22Z</time>
      </trkpt>
      <trkpt lat="59.294634069933" lon="17.832147586272">
        <ele>5.6</ele>
        <time>2016-05-05T10:31:24Z</time>
      </trkpt>
      <trkpt lat="59.294654270312" lon="17.832330311692">
        <ele>5.2</ele>
        <time>2016-05-05T10:31:25Z</time>
      </trkpt>
      <trkpt lat="59.294677404356" lon="17.832506331592">
        <ele>4.6</ele>
        <time>2016-05-05T10:31:26Z</time>
      </trkpt>
      <trkpt lat="59.294703304427" lon="17.83268754827">
        <ele>4.2</ele>
        <time>2016-05-05T10:31:27Z</time>
      </trkpt>
      <trkpt lat="59.294730797059" lon="17.832864490179">
        <ele>3.8</ele>
        <time>2016-05-05T10:31:28Z</time>
      </trkpt>
      <trkpt lat="59.294758038234" lon="17.833049897807">
        <ele>3.4</ele>
        <time>2016-05-05T10:31:29Z</time>
      </trkpt>
      <trkpt lat="59.294901536362" lon="17.834162259756">
        <ele>3.4</ele>
        <time>2016-05-05T10:31:35Z</time>
      </trkpt>
      <trkpt lat="59.294902290733" lon="17.834341883873">
        <ele>3.4</ele>
        <time>2016-05-05T10:31:36Z</time>
      </trkpt>
      <trkpt lat="59.294911091728" lon="17.835456341297">
        <ele>3.4</ele>
        <time>2016-05-05T10:31:42Z</time>
      </trkpt>
      <trkpt lat="59.294892316272" lon="17.836122283252">
        <ele>3.4</ele>
        <time>2016-05-05T10:31:46Z</time>
      </trkpt>
      <trkpt lat="59.294915031221" lon="17.836731060649">
        <ele>3.8</ele>
        <time>2016-05-05T10:31:50Z</time>
      </trkpt>
      <trkpt lat="59.294928609899" lon="17.836887466903">
        <ele>4.2</ele>
        <time>2016-05-05T10:31:51Z</time>
      </trkpt>
      <trkpt lat="59.294948475002" lon="17.837047561193">
        <ele>4.8</ele>
        <time>2016-05-05T10:31:52Z</time>
      </trkpt>
      <trkpt lat="59.294977224919" lon="17.837195585547">
        <ele>5.2</ele>
        <time>2016-05-05T10:31:53Z</time>
      </trkpt>
      <trkpt lat="59.295010417243" lon="17.837338077847">
        <ele>5.6</ele>
        <time>2016-05-05T10:31:54Z</time>
      </trkpt>
      <trkpt lat="59.295100606487" lon="17.837607891208">
        <ele>5.6</ele>
        <time>2016-05-05T10:31:56Z</time>
      </trkpt>
      <trkpt lat="59.295148383317" lon="17.837736553373">
        <ele>5.6</ele>
        <time>2016-05-05T10:31:57Z</time>
      </trkpt>
      <trkpt lat="59.295447198052" lon="17.838325717124">
        <ele>5.6</ele>
        <time>2016-05-05T10:32:02Z</time>
      </trkpt>
      <trkpt lat="59.295789598667" lon="17.838838270309">
        <ele>5.2</ele>
        <time>2016-05-05T10:32:07Z</time>
      </trkpt>
      <trkpt lat="59.295855731858" lon="17.838947402647">
        <ele>4.8</ele>
        <time>2016-05-05T10:32:08Z</time>
      </trkpt>
      <trkpt lat="59.295915159529" lon="17.83906701236">
        <ele>4.4</ele>
        <time>2016-05-05T10:32:09Z</time>
      </trkpt>
      <trkpt lat="59.295974000467" lon="17.839190058652">
        <ele>4</ele>
        <time>2016-05-05T10:32:10Z</time>
      </trkpt>
      <trkpt lat="59.29602655498" lon="17.83931763117">
        <ele>3.4</ele>
        <time>2016-05-05T10:32:11Z</time>
      </trkpt>
      <trkpt lat="59.296122611554" lon="17.839596580802">
        <ele>3.4</ele>
        <time>2016-05-05T10:32:13Z</time>
      </trkpt>
      <trkpt lat="59.296162509398" lon="17.839740414206">
        <ele>3.4</ele>
        <time>2016-05-05T10:32:14Z</time>
      </trkpt>
      <trkpt lat="59.296274575401" lon="17.84036536867">
        <ele>3.4</ele>
        <time>2016-05-05T10:32:18Z</time>
      </trkpt>
      <trkpt lat="59.296356215107" lon="17.840965093615">
        <ele>4.4</ele>
        <time>2016-05-05T10:32:22Z</time>
      </trkpt>
      <trkpt lat="59.296373062726" lon="17.841117979471">
        <ele>4.8</ele>
        <time>2016-05-05T10:32:23Z</time>
      </trkpt>
      <trkpt lat="59.296391838182" lon="17.841254604441">
        <ele>5.2</ele>
        <time>2016-05-05T10:32:24Z</time>
      </trkpt>
      <trkpt lat="59.296405584498" lon="17.841391229411">
        <ele>5.6</ele>
        <time>2016-05-05T10:32:25Z</time>
      </trkpt>
      <trkpt lat="59.296419749909" lon="17.841529195485">
        <ele>6</ele>
        <time>2016-05-05T10:32:26Z</time>
      </trkpt>
      <trkpt lat="59.296430478741" lon="17.841667245378">
        <ele>6.4</ele>
        <time>2016-05-05T10:32:27Z</time>
      </trkpt>
      <trkpt lat="59.296442464858" lon="17.841800936683">
        <ele>7</ele>
        <time>2016-05-05T10:32:28Z</time>
      </trkpt>
      <trkpt lat="59.296458306649" lon="17.841947619933">
        <ele>7.4</ele>
        <time>2016-05-05T10:32:29Z</time>
      </trkpt>
      <trkpt lat="59.296475321906" lon="17.842085837464">
        <ele>7.8</ele>
        <time>2016-05-05T10:32:30Z</time>
      </trkpt>
      <trkpt lat="59.296500719063" lon="17.842376689394">
        <ele>7.8</ele>
        <time>2016-05-05T10:32:32Z</time>
      </trkpt>
      <trkpt lat="59.296580095656" lon="17.843287047553">
        <ele>7.8</ele>
        <time>2016-05-05T10:32:38Z</time>
      </trkpt>
      <trkpt lat="59.296665171941" lon="17.844218863376">
        <ele>7.8</ele>
        <time>2016-05-05T10:32:44Z</time>
      </trkpt>
      <trkpt lat="59.29678008779" lon="17.845317562828">
        <ele>7.8</ele>
        <time>2016-05-05T10:32:51Z</time>
      </trkpt>
      <trkpt lat="59.296902044435" lon="17.84651768327">
        <ele>7.4</ele>
        <time>2016-05-05T10:32:58Z</time>
      </trkpt>
      <trkpt lat="59.296898440218" lon="17.846702504165">
        <ele>7</ele>
        <time>2016-05-05T10:32:59Z</time>
      </trkpt>
      <trkpt lat="59.296859464383" lon="17.846874165477">
        <ele>6.6</ele>
        <time>2016-05-05T10:33:00Z</time>
      </trkpt>
      <trkpt lat="59.296781428894" lon="17.846989835697">
        <ele>6.2</ele>
        <time>2016-05-05T10:33:01Z</time>
      </trkpt>
      <trkpt lat="59.296709428373" lon="17.847102991347">
        <ele>5.6</ele>
        <time>2016-05-05T10:33:02Z</time>
      </trkpt>
      <trkpt lat="59.296612533609" lon="17.847404655928">
        <ele>5.6</ele>
        <time>2016-05-05T10:33:04Z</time>
      </trkpt>
      <trkpt lat="59.296646899399" lon="17.847722497576">
        <ele>5.6</ele>
        <time>2016-05-05T10:33:06Z</time>
      </trkpt>
      <trkpt lat="59.296765168008" lon="17.848093899565">
        <ele>5.6</ele>
        <time>2016-05-05T10:33:09Z</time>
      </trkpt>
      <trkpt lat="59.296798611789" lon="17.848225327757">
        <ele>5.6</ele>
        <time>2016-05-05T10:33:10Z</time>
      </trkpt>
      <trkpt lat="59.296914868742" lon="17.848569153295">
        <ele>6.2</ele>
        <time>2016-05-05T10:33:13Z</time>
      </trkpt>
      <trkpt lat="59.296952168197" lon="17.848696306718">
        <ele>6.6</ele>
        <time>2016-05-05T10:33:14Z</time>
      </trkpt>
      <trkpt lat="59.296983097408" lon="17.848815329698">
        <ele>7.2</ele>
        <time>2016-05-05T10:33:15Z</time>
      </trkpt>
      <trkpt lat="59.29701645737" lon="17.848929407357">
        <ele>7.6</ele>
        <time>2016-05-05T10:33:16Z</time>
      </trkpt>
      <trkpt lat="59.29705166135" lon="17.849051447821">
        <ele>8</ele>
        <time>2016-05-05T10:33:17Z</time>
      </trkpt>
      <trkpt lat="59.297128523373" lon="17.849261665873">
        <ele>8.6</ele>
        <time>2016-05-05T10:33:19Z</time>
      </trkpt>
      <trkpt lat="59.297164314086" lon="17.849376581722">
        <ele>9</ele>
        <time>2016-05-05T10:33:20Z</time>
      </trkpt>
      <trkpt lat="59.297197003496" lon="17.849485630241">
        <ele>9.4</ele>
        <time>2016-05-05T10:33:21Z</time>
      </trkpt>
      <trkpt lat="59.297235057322" lon="17.849607670705">
        <ele>9.8</ele>
        <time>2016-05-05T10:33:22Z</time>
      </trkpt>
      <trkpt lat="59.297269087836" lon="17.849716551586">
        <ele>10.4</ele>
        <time>2016-05-05T10:33:23Z</time>
      </trkpt>
      <trkpt lat="59.297302699255" lon="17.849814116902">
        <ele>10.8</ele>
        <time>2016-05-05T10:33:24Z</time>
      </trkpt>
      <trkpt lat="59.297334634294" lon="17.849931295864">
        <ele>11.2</ele>
        <time>2016-05-05T10:33:25Z</time>
      </trkpt>
      <trkpt lat="59.297356008139" lon="17.850066412092">
        <ele>11.6</ele>
        <time>2016-05-05T10:33:26Z</time>
      </trkpt>
      <trkpt lat="59.29736514441" lon="17.850188787832">
        <ele>12.2</ele>
        <time>2016-05-05T10:33:27Z</time>
      </trkpt>
      <trkpt lat="59.29738526097" lon="17.850322646775">
        <ele>12.6</ele>
        <time>2016-05-05T10:33:28Z</time>
      </trkpt>
      <trkpt lat="59.297433624533" lon="17.850619030759">
        <ele>12.6</ele>
        <time>2016-05-05T10:33:30Z</time>
      </trkpt>
      <trkpt lat="59.29747159454" lon="17.850911810526">
        <ele>12.6</ele>
        <time>2016-05-05T10:33:32Z</time>
      </trkpt>
      <trkpt lat="59.297540912853" lon="17.851329899698">
        <ele>12.6</ele>
        <time>2016-05-05T10:33:35Z</time>
      </trkpt>
      <trkpt lat="59.297675526167" lon="17.85208997039">
        <ele>12.6</ele>
        <time>2016-05-05T10:33:40Z</time>
      </trkpt>
      <trkpt lat="59.297782143935" lon="17.852605708697">
        <ele>12</ele>
        <time>2016-05-05T10:33:43Z</time>
      </trkpt>
      <trkpt lat="59.29782195796" lon="17.852793044162">
        <ele>11.6</ele>
        <time>2016-05-05T10:33:44Z</time>
      </trkpt>
      <trkpt lat="59.29784710366" lon="17.852997311065">
        <ele>11</ele>
        <time>2016-05-05T10:33:45Z</time>
      </trkpt>
      <trkpt lat="59.297897059784" lon="17.85318883748">
        <ele>10.4</ele>
        <time>2016-05-05T10:33:46Z</time>
      </trkpt>
      <trkpt lat="59.29794014275" lon="17.853380280076">
        <ele>9.6</ele>
        <time>2016-05-05T10:33:47Z</time>
      </trkpt>
      <trkpt lat="59.297991356159" lon="17.853566609713">
        <ele>8.6</ele>
        <time>2016-05-05T10:33:48Z</time>
      </trkpt>
      <trkpt lat="59.298054304228" lon="17.853738941577">
        <ele>7.6</ele>
        <time>2016-05-05T10:33:49Z</time>
      </trkpt>
      <trkpt lat="59.29812286817" lon="17.85390632812">
        <ele>6.4</ele>
        <time>2016-05-05T10:33:50Z</time>
      </trkpt>
      <trkpt lat="59.298211464853" lon="17.85406223146">
        <ele>5.4</ele>
        <time>2016-05-05T10:33:51Z</time>
      </trkpt>
      <trkpt lat="59.298311880015" lon="17.854177734042">
        <ele>4.4</ele>
        <time>2016-05-05T10:33:52Z</time>
      </trkpt>
      <trkpt lat="59.298541041161" lon="17.854312598813">
        <ele>3.8</ele>
        <time>2016-05-05T10:33:54Z</time>
      </trkpt>
      <trkpt lat="59.298643132703" lon="17.854304803646">
        <ele>3.4</ele>
        <time>2016-05-05T10:33:55Z</time>
      </trkpt>
      <trkpt lat="59.298745391883" lon="17.854252081495">
        <ele>2.8</ele>
        <time>2016-05-05T10:33:56Z</time>
      </trkpt>
      <trkpt lat="59.298840777905" lon="17.854152420704">
        <ele>2.2</ele>
        <time>2016-05-05T10:33:57Z</time>
      </trkpt>
      <trkpt lat="59.298914538625" lon="17.853990650034">
        <ele>1.8</ele>
        <time>2016-05-05T10:33:58Z</time>
      </trkpt>
      <trkpt lat="59.298997267978" lon="17.853830974839">
        <ele>1.8</ele>
        <time>2016-05-05T10:33:59Z</time>
      </trkpt>
      <trkpt lat="59.29928459951" lon="17.853282128027">
        <ele>1.8</ele>
        <time>2016-05-05T10:34:03Z</time>
      </trkpt>
      <trkpt lat="59.299387948337" lon="17.852981301636">
        <ele>1.2</ele>
        <time>2016-05-05T10:34:05Z</time>
      </trkpt>
      <trkpt lat="59.299420051014" lon="17.852802264252">
        <ele>0.8</ele>
        <time>2016-05-05T10:34:06Z</time>
      </trkpt>
      <trkpt lat="59.299447795103" lon="17.852613168588">
        <ele>0.2</ele>
        <time>2016-05-05T10:34:07Z</time>
      </trkpt>
      <trkpt lat="59.299481657979" lon="17.852438154516">
        <ele>0</ele>
        <time>2016-05-05T10:34:08Z</time>
      </trkpt>
      <trkpt lat="59.299516191407" lon="17.852274707466">
        <ele>0</ele>
        <time>2016-05-05T10:34:09Z</time>
      </trkpt>
      <trkpt lat="59.299614175818" lon="17.851983939355">
        <ele>0</ele>
        <time>2016-05-05T10:34:11Z</time>
      </trkpt>
      <trkpt lat="59.299769576244" lon="17.852000535517">
        <ele>0</ele>
        <time>2016-05-05T10:34:13Z</time>
      </trkpt>
      <trkpt lat="59.299996306639" lon="17.852283676099">
        <ele>0</ele>
        <time>2016-05-05T10:34:16Z</time>
      </trkpt>
      <trkpt lat="59.300347675887" lon="17.852697490502">
        <ele>0</ele>
        <time>2016-05-05T10:34:21Z</time>
      </trkpt>
      <trkpt lat="59.30041112687" lon="17.852810310876">
        <ele>0</ele>
        <time>2016-05-05T10:34:22Z</time>
      </trkpt>
      <trkpt lat="59.300551607514" lon="17.852969902252">
        <ele>0</ele>
        <time>2016-05-05T10:34:24Z</time>
      </trkpt>
      <trkpt lat="59.300707091759" lon="17.85308993106">
        <ele>0</ele>
        <time>2016-05-05T10:34:26Z</time>
      </trkpt>
      <trkpt lat="59.300867353687" lon="17.853170062024">
        <ele>0</ele>
        <time>2016-05-05T10:34:28Z</time>
      </trkpt>
      <trkpt lat="59.301044379415" lon="17.85319973395">
        <ele>0</ele>
        <time>2016-05-05T10:34:30Z</time>
      </trkpt>
      <trkpt lat="59.301211430682" lon="17.853278356172">
        <ele>0</ele>
        <time>2016-05-05T10:34:32Z</time>
      </trkpt>
      <trkpt lat="59.301368675126" lon="17.853425458517">
        <ele>0</ele>
        <time>2016-05-05T10:34:34Z</time>
      </trkpt>
      <trkpt lat="59.301755332173" lon="17.853793507746">
        <ele>0</ele>
        <time>2016-05-05T10:34:39Z</time>
      </trkpt>
      <trkpt lat="59.3018251534" lon="17.853842458042">
        <ele>0</ele>
        <time>2016-05-05T10:34:40Z</time>
      </trkpt>
      <trkpt lat="59.301882820872" lon="17.853892414166">
        <ele>0.2</ele>
        <time>2016-05-05T10:34:41Z</time>
      </trkpt>
      <trkpt lat="59.301942332362" lon="17.853943459937">
        <ele>0.8</ele>
        <time>2016-05-05T10:34:42Z</time>
      </trkpt>
      <trkpt lat="59.302000502748" lon="17.85399685264">
        <ele>1.2</ele>
        <time>2016-05-05T10:34:43Z</time>
      </trkpt>
      <trkpt lat="59.302061103885" lon="17.854041192891">
        <ele>1.8</ele>
        <time>2016-05-05T10:34:44Z</time>
      </trkpt>
      <trkpt lat="59.302109048353" lon="17.854070948636">
        <ele>2.4</ele>
        <time>2016-05-05T10:34:45Z</time>
      </trkpt>
      <trkpt lat="59.302182389978" lon="17.854091316653">
        <ele>3</ele>
        <time>2016-05-05T10:34:46Z</time>
      </trkpt>
      <trkpt lat="59.30224508659" lon="17.854108080453">
        <ele>3.6</ele>
        <time>2016-05-05T10:34:47Z</time>
      </trkpt>
      <trkpt lat="59.302302502605" lon="17.854134986352">
        <ele>4.2</ele>
        <time>2016-05-05T10:34:48Z</time>
      </trkpt>
      <trkpt lat="59.302413227504" lon="17.854183852829">
        <ele>4.6</ele>
        <time>2016-05-05T10:34:50Z</time>
      </trkpt>
      <trkpt lat="59.302464105637" lon="17.854201957733">
        <ele>5.4</ele>
        <time>2016-05-05T10:34:51Z</time>
      </trkpt>
      <trkpt lat="59.30252336567" lon="17.854226097605">
        <ele>6</ele>
        <time>2016-05-05T10:34:52Z</time>
      </trkpt>
      <trkpt lat="59.30257449526" lon="17.854255518074">
        <ele>6.4</ele>
        <time>2016-05-05T10:34:53Z</time>
      </trkpt>
      <trkpt lat="59.302612632905" lon="17.854311509166">
        <ele>6.4</ele>
        <time>2016-05-05T10:34:54Z</time>
      </trkpt>
      <trkpt lat="59.302683879055" lon="17.854444613738">
        <ele>6.4</ele>
        <time>2016-05-05T10:34:56Z</time>
      </trkpt>
      <trkpt lat="59.302718915397" lon="17.854606803503">
        <ele>6.8</ele>
        <time>2016-05-05T10:34:58Z</time>
      </trkpt>
      <trkpt lat="59.302711790782" lon="17.854685258087">
        <ele>7.2</ele>
        <time>2016-05-05T10:34:59Z</time>
      </trkpt>
      <trkpt lat="59.30271279661" lon="17.854764886137">
        <ele>7.6</ele>
        <time>2016-05-05T10:35:00Z</time>
      </trkpt>
      <trkpt lat="59.302717490474" lon="17.854847364033">
        <ele>8</ele>
        <time>2016-05-05T10:35:01Z</time>
      </trkpt>
      <trkpt lat="59.302756717766" lon="17.854930931576">
        <ele>8.4</ele>
        <time>2016-05-05T10:35:02Z</time>
      </trkpt>
      <trkpt lat="59.302809356098" lon="17.854960268226">
        <ele>8.4</ele>
        <time>2016-05-05T10:35:03Z</time>
      </trkpt>
      <trkpt lat="59.302911196183" lon="17.855047356167">
        <ele>8.4</ele>
        <time>2016-05-05T10:35:05Z</time>
      </trkpt>
      <trkpt lat="59.303130047592" lon="17.855255478744">
        <ele>8.4</ele>
        <time>2016-05-05T10:35:09Z</time>
      </trkpt>
      <trkpt lat="59.303462389927" lon="17.855545660122">
        <ele>8.4</ele>
        <time>2016-05-05T10:35:14Z</time>
      </trkpt>
      <trkpt lat="59.303813591537" lon="17.855862831218">
        <ele>8.4</ele>
        <time>2016-05-05T10:35:20Z</time>
      </trkpt>
      <trkpt lat="59.304260430626" lon="17.856233478836">
        <ele>8.4</ele>
        <time>2016-05-05T10:35:27Z</time>
      </trkpt>
      <trkpt lat="59.304764518092" lon="17.856695572983">
        <ele>8.4</ele>
        <time>2016-05-05T10:35:34Z</time>
      </trkpt>
      <trkpt lat="59.304842218305" lon="17.856765478029">
        <ele>8</ele>
        <time>2016-05-05T10:35:35Z</time>
      </trkpt>
      <trkpt lat="59.304921678717" lon="17.856833874333">
        <ele>7.4</ele>
        <time>2016-05-05T10:35:36Z</time>
      </trkpt>
      <trkpt lat="59.304999211292" lon="17.856899336972">
        <ele>7</ele>
        <time>2016-05-05T10:35:37Z</time>
      </trkpt>
      <trkpt lat="59.305079509894" lon="17.856972091864">
        <ele>6.6</ele>
        <time>2016-05-05T10:35:38Z</time>
      </trkpt>
      <trkpt lat="59.305157461564" lon="17.85703696777">
        <ele>6.2</ele>
        <time>2016-05-05T10:35:39Z</time>
      </trkpt>
      <trkpt lat="59.305395926619" lon="17.857246179994">
        <ele>6.2</ele>
        <time>2016-05-05T10:35:42Z</time>
      </trkpt>
      <trkpt lat="59.305940498662" lon="17.857720176439">
        <ele>6.2</ele>
        <time>2016-05-05T10:35:49Z</time>
      </trkpt>
      <trkpt lat="59.306449196173" lon="17.858164920053">
        <ele>6.2</ele>
        <time>2016-05-05T10:35:56Z</time>
      </trkpt>
      <trkpt lat="59.306519687952" lon="17.858230298873">
        <ele>6.2</ele>
        <time>2016-05-05T10:35:57Z</time>
      </trkpt>
      <trkpt lat="59.306859154902" lon="17.858536070585">
        <ele>6.6</ele>
        <time>2016-05-05T10:36:02Z</time>
      </trkpt>
      <trkpt lat="59.306923779351" lon="17.858591474944">
        <ele>7</ele>
        <time>2016-05-05T10:36:03Z</time>
      </trkpt>
      <trkpt lat="59.306992175655" lon="17.858648890959">
        <ele>7.4</ele>
        <time>2016-05-05T10:36:04Z</time>
      </trkpt>
      <trkpt lat="59.307059482312" lon="17.85870496587">
        <ele>8.4</ele>
        <time>2016-05-05T10:36:05Z</time>
      </trkpt>
      <trkpt lat="59.307127962435" lon="17.858761878971">
        <ele>8.4</ele>
        <time>2016-05-05T10:36:06Z</time>
      </trkpt>
      <trkpt lat="59.307590727134" lon="17.859175106641">
        <ele>8.8</ele>
        <time>2016-05-05T10:36:13Z</time>
      </trkpt>
      <trkpt lat="59.307656022135" lon="17.859233109389">
        <ele>9.2</ele>
        <time>2016-05-05T10:36:14Z</time>
      </trkpt>
      <trkpt lat="59.307721568593" lon="17.859292620879">
        <ele>9.6</ele>
        <time>2016-05-05T10:36:15Z</time>
      </trkpt>
      <trkpt lat="59.307791306001" lon="17.859357496785">
        <ele>10</ele>
        <time>2016-05-05T10:36:16Z</time>
      </trkpt>
      <trkpt lat="59.307858109744" lon="17.859416086266">
        <ele>10.4</ele>
        <time>2016-05-05T10:36:17Z</time>
      </trkpt>
      <trkpt lat="59.308202270558" lon="17.859719930141">
        <ele>10.4</ele>
        <time>2016-05-05T10:36:22Z</time>
      </trkpt>
      <trkpt lat="59.30871591339" lon="17.86015419638">
        <ele>10.4</ele>
        <time>2016-05-05T10:36:29Z</time>
      </trkpt>
      <trkpt lat="59.308789841748" lon="17.860207505264">
        <ele>10.4</ele>
        <time>2016-05-05T10:36:30Z</time>
      </trkpt>
      <trkpt lat="59.309312369394" lon="17.860490478208">
        <ele>10.4</ele>
        <time>2016-05-05T10:36:37Z</time>
      </trkpt>
      <trkpt lat="59.309383867001" lon="17.860510259492">
        <ele>10.4</ele>
        <time>2016-05-05T10:36:38Z</time>
      </trkpt>
      <trkpt lat="59.309520994885" lon="17.860543703273">
        <ele>10.8</ele>
        <time>2016-05-05T10:36:40Z</time>
      </trkpt>
      <trkpt lat="59.30958595461" lon="17.860553426277">
        <ele>11.4</ele>
        <time>2016-05-05T10:36:41Z</time>
      </trkpt>
      <trkpt lat="59.30965300981" lon="17.860562143453">
        <ele>11.8</ele>
        <time>2016-05-05T10:36:42Z</time>
      </trkpt>
      <trkpt lat="59.309716041698" lon="17.860570190077">
        <ele>12.2</ele>
        <time>2016-05-05T10:36:43Z</time>
      </trkpt>
      <trkpt lat="59.309784186545" lon="17.860579577805">
        <ele>12.6</ele>
        <time>2016-05-05T10:36:44Z</time>
      </trkpt>
      <trkpt lat="59.30992709794" lon="17.860579493986">
        <ele>12.6</ele>
        <time>2016-05-05T10:36:46Z</time>
      </trkpt>
      <trkpt lat="59.310313168254" lon="17.860561053806">
        <ele>13.2</ele>
        <time>2016-05-05T10:36:52Z</time>
      </trkpt>
      <trkpt lat="59.310382821843" lon="17.860555186476">
        <ele>13.6</ele>
        <time>2016-05-05T10:36:53Z</time>
      </trkpt>
      <trkpt lat="59.310445686093" lon="17.860548900051">
        <ele>14.6</ele>
        <time>2016-05-05T10:36:54Z</time>
      </trkpt>
      <trkpt lat="59.31050628723" lon="17.860548732413">
        <ele>15.2</ele>
        <time>2016-05-05T10:36:55Z</time>
      </trkpt>
      <trkpt lat="59.310761683723" lon="17.860559293607">
        <ele>15.6</ele>
        <time>2016-05-05T10:36:59Z</time>
      </trkpt>
      <trkpt lat="59.310826308172" lon="17.860554096829">
        <ele>16</ele>
        <time>2016-05-05T10:37:00Z</time>
      </trkpt>
      <trkpt lat="59.310890848802" lon="17.860547558947">
        <ele>16.4</ele>
        <time>2016-05-05T10:37:01Z</time>
      </trkpt>
      <trkpt lat="59.310955054156" lon="17.860540182875">
        <ele>16.8</ele>
        <time>2016-05-05T10:37:02Z</time>
      </trkpt>
      <trkpt lat="59.311018253682" lon="17.860530292233">
        <ele>17.2</ele>
        <time>2016-05-05T10:37:03Z</time>
      </trkpt>
      <trkpt lat="59.311344896325" lon="17.860464494318">
        <ele>17.8</ele>
        <time>2016-05-05T10:37:08Z</time>
      </trkpt>
      <trkpt lat="59.311411197154" lon="17.860446808509">
        <ele>18.2</ele>
        <time>2016-05-05T10:37:09Z</time>
      </trkpt>
      <trkpt lat="59.311475318689" lon="17.860433648926">
        <ele>18.6</ele>
        <time>2016-05-05T10:37:10Z</time>
      </trkpt>
      <trkpt lat="59.311538769672" lon="17.86041152071">
        <ele>19.2</ele>
        <time>2016-05-05T10:37:11Z</time>
      </trkpt>
      <trkpt lat="59.311602975026" lon="17.860389560132">
        <ele>19.6</ele>
        <time>2016-05-05T10:37:12Z</time>
      </trkpt>
      <trkpt lat="59.3120594533" lon="17.860253438076">
        <ele>19.6</ele>
        <time>2016-05-05T10:37:19Z</time>
      </trkpt>
      <trkpt lat="59.312539233256" lon="17.860136175295">
        <ele>19.6</ele>
        <time>2016-05-05T10:37:26Z</time>
      </trkpt>
      <trkpt lat="59.312682060832" lon="17.86005277539">
        <ele>19.6</ele>
        <time>2016-05-05T10:37:28Z</time>
      </trkpt>
      <trkpt lat="59.312818937259" lon="17.859900979181">
        <ele>19.6</ele>
        <time>2016-05-05T10:37:30Z</time>
      </trkpt>
      <trkpt lat="59.313053043726" lon="17.859603421731">
        <ele>19.6</ele>
        <time>2016-05-05T10:37:34Z</time>
      </trkpt>
      <trkpt lat="59.313102664574" lon="17.859515327962">
        <ele>19.2</ele>
        <time>2016-05-05T10:37:35Z</time>
      </trkpt>
      <trkpt lat="59.313150692861" lon="17.859426312184">
        <ele>18.8</ele>
        <time>2016-05-05T10:37:36Z</time>
      </trkpt>
      <trkpt lat="59.313195955121" lon="17.859334698017">
        <ele>18.4</ele>
        <time>2016-05-05T10:37:37Z</time>
      </trkpt>
      <trkpt lat="59.31323711025" lon="17.859235623959">
        <ele>18</ele>
        <time>2016-05-05T10:37:38Z</time>
      </trkpt>
      <trkpt lat="59.313274409705" lon="17.859131353123">
        <ele>17.4</ele>
        <time>2016-05-05T10:37:39Z</time>
      </trkpt>
      <trkpt lat="59.313305422735" lon="17.859019370939">
        <ele>17.4</ele>
        <time>2016-05-05T10:37:40Z</time>
      </trkpt>
      <trkpt lat="59.313464595016" lon="17.858805381032">
        <ele>17.4</ele>
        <time>2016-05-05T10:37:43Z</time>
      </trkpt>
      <trkpt lat="59.313666179711" lon="17.858866652721">
        <ele>17.4</ele>
        <time>2016-05-05T10:37:46Z</time>
      </trkpt>
      <trkpt lat="59.313735246567" lon="17.858918871958">
        <ele>17.4</ele>
        <time>2016-05-05T10:37:47Z</time>
      </trkpt>
      <trkpt lat="59.313885785491" lon="17.859023897165">
        <ele>17.4</ele>
        <time>2016-05-05T10:37:49Z</time>
      </trkpt>
      <trkpt lat="59.313963569523" lon="17.859100843007">
        <ele>17.4</ele>
        <time>2016-05-05T10:37:50Z</time>
      </trkpt>
      <trkpt lat="59.314045041591" lon="17.859191786622">
        <ele>17</ele>
        <time>2016-05-05T10:37:51Z</time>
      </trkpt>
      <trkpt lat="59.314123328537" lon="17.859300332227">
        <ele>16.4</ele>
        <time>2016-05-05T10:37:52Z</time>
      </trkpt>
      <trkpt lat="59.314196167248" lon="17.859428659116">
        <ele>15.8</ele>
        <time>2016-05-05T10:37:53Z</time>
      </trkpt>
      <trkpt lat="59.314265904656" lon="17.859573079253">
        <ele>15.2</ele>
        <time>2016-05-05T10:37:54Z</time>
      </trkpt>
      <trkpt lat="59.314336983168" lon="17.859726048928">
        <ele>14.6</ele>
        <time>2016-05-05T10:37:55Z</time>
      </trkpt>
      <trkpt lat="59.314409235146" lon="17.859884885933">
        <ele>14</ele>
        <time>2016-05-05T10:37:56Z</time>
      </trkpt>
      <trkpt lat="59.314486180988" lon="17.860053697399">
        <ele>13.2</ele>
        <time>2016-05-05T10:37:57Z</time>
      </trkpt>
      <trkpt lat="59.314559354975" lon="17.86021538425">
        <ele>12.6</ele>
        <time>2016-05-05T10:37:58Z</time>
      </trkpt>
      <trkpt lat="59.31461844737" lon="17.860378244567">
        <ele>11.6</ele>
        <time>2016-05-05T10:37:59Z</time>
      </trkpt>
      <trkpt lat="59.314656752653" lon="17.860566166765">
        <ele>10.8</ele>
        <time>2016-05-05T10:38:00Z</time>
      </trkpt>
      <trkpt lat="59.314690364072" lon="17.860761800311">
        <ele>9.8</ele>
        <time>2016-05-05T10:38:01Z</time>
      </trkpt>
      <trkpt lat="59.31474585225" lon="17.860942011161">
        <ele>8.8</ele>
        <time>2016-05-05T10:38:02Z</time>
      </trkpt>
      <trkpt lat="59.314820367341" lon="17.86107788176">
        <ele>7.8</ele>
        <time>2016-05-05T10:38:03Z</time>
      </trkpt>
      <trkpt lat="59.315011809937" lon="17.861256667687">
        <ele>7.8</ele>
        <time>2016-05-05T10:38:05Z</time>
      </trkpt>
      <trkpt lat="59.315104094656" lon="17.861338475031">
        <ele>7.8</ele>
        <time>2016-05-05T10:38:06Z</time>
      </trkpt>
      <trkpt lat="59.315595609272" lon="17.861792354916">
        <ele>7.8</ele>
        <time>2016-05-05T10:38:11Z</time>
      </trkpt>
      <trkpt lat="59.315781184538" lon="17.861974912698">
        <ele>7.8</ele>
        <time>2016-05-05T10:38:13Z</time>
      </trkpt>
      <trkpt lat="59.316292564257" lon="17.862475228309">
        <ele>8.4</ele>
        <time>2016-05-05T10:38:19Z</time>
      </trkpt>
      <trkpt lat="59.316370013013" lon="17.862555191635">
        <ele>8.8</ele>
        <time>2016-05-05T10:38:20Z</time>
      </trkpt>
      <trkpt lat="59.316449305787" lon="17.862633897676">
        <ele>9.2</ele>
        <time>2016-05-05T10:38:21Z</time>
      </trkpt>
      <trkpt lat="59.316533292425" lon="17.862718135771">
        <ele>9.6</ele>
        <time>2016-05-05T10:38:22Z</time>
      </trkpt>
      <trkpt lat="59.316611160276" lon="17.862798518192">
        <ele>10</ele>
        <time>2016-05-05T10:38:23Z</time>
      </trkpt>
      <trkpt lat="59.316849960607" lon="17.863024075121">
        <ele>10.4</ele>
        <time>2016-05-05T10:38:26Z</time>
      </trkpt>
      <trkpt lat="59.316925062431" lon="17.863097668203">
        <ele>10.8</ele>
        <time>2016-05-05T10:38:27Z</time>
      </trkpt>
      <trkpt lat="59.316999242246" lon="17.86316916581">
        <ele>11.2</ele>
        <time>2016-05-05T10:38:28Z</time>
      </trkpt>
      <trkpt lat="59.317079792305" lon="17.863243177987">
        <ele>11.6</ele>
        <time>2016-05-05T10:38:29Z</time>
      </trkpt>
      <trkpt lat="59.317156402871" lon="17.863317106345">
        <ele>12.2</ele>
        <time>2016-05-05T10:38:30Z</time>
      </trkpt>
      <trkpt lat="59.317528307774" lon="17.863732680947">
        <ele>12.2</ele>
        <time>2016-05-05T10:38:35Z</time>
      </trkpt>
      <trkpt lat="59.317964920945" lon="17.864287059813">
        <ele>12.2</ele>
        <time>2016-05-05T10:38:41Z</time>
      </trkpt>
      <trkpt lat="59.318037843475" lon="17.864385966233">
        <ele>11.8</ele>
        <time>2016-05-05T10:38:42Z</time>
      </trkpt>
      <trkpt lat="59.318111352738" lon="17.864487554861">
        <ele>11.4</ele>
        <time>2016-05-05T10:38:43Z</time>
      </trkpt>
      <trkpt lat="59.318185867829" lon="17.864590652231">
        <ele>11</ele>
        <time>2016-05-05T10:38:44Z</time>
      </trkpt>
      <trkpt lat="59.318261975481" lon="17.864691067393">
        <ele>10.6</ele>
        <time>2016-05-05T10:38:45Z</time>
      </trkpt>
      <trkpt lat="59.318338837504" lon="17.864793158935">
        <ele>10.2</ele>
        <time>2016-05-05T10:38:46Z</time>
      </trkpt>
      <trkpt lat="59.318570094125" lon="17.865096918991">
        <ele>10.2</ele>
        <time>2016-05-05T10:38:49Z</time>
      </trkpt>
      <trkpt lat="59.319039396706" lon="17.865713156279">
        <ele>10.2</ele>
        <time>2016-05-05T10:38:55Z</time>
      </trkpt>
      <trkpt lat="59.319198736625" lon="17.865885991057">
        <ele>10.2</ele>
        <time>2016-05-05T10:38:57Z</time>
      </trkpt>
      <trkpt lat="59.319274257544" lon="17.865966038202">
        <ele>9.8</ele>
        <time>2016-05-05T10:38:58Z</time>
      </trkpt>
      <trkpt lat="59.319346760979" lon="17.866048767555">
        <ele>9.2</ele>
        <time>2016-05-05T10:38:59Z</time>
      </trkpt>
      <trkpt lat="59.319414905826" lon="17.866121019533">
        <ele>8.8</ele>
        <time>2016-05-05T10:39:00Z</time>
      </trkpt>
      <trkpt lat="59.319482631578" lon="17.86618916438">
        <ele>8.4</ele>
        <time>2016-05-05T10:39:01Z</time>
      </trkpt>
      <trkpt lat="59.319546585475" lon="17.866261751634">
        <ele>8</ele>
        <time>2016-05-05T10:39:02Z</time>
      </trkpt>
      <trkpt lat="59.31982528365" lon="17.86659903929">
        <ele>8</ele>
        <time>2016-05-05T10:39:07Z</time>
      </trkpt>
      <trkpt lat="59.319875407412" lon="17.866623095343">
        <ele>8</ele>
        <time>2016-05-05T10:39:08Z</time>
      </trkpt>
      <trkpt lat="59.319923016604" lon="17.866604655163">
        <ele>8</ele>
        <time>2016-05-05T10:39:09Z</time>
      </trkpt>
      <trkpt lat="59.319960316059" lon="17.866546820053">
        <ele>8.4</ele>
        <time>2016-05-05T10:39:10Z</time>
      </trkpt>
      <trkpt lat="59.319988395424" lon="17.866467946374">
        <ele>9</ele>
        <time>2016-05-05T10:39:11Z</time>
      </trkpt>
      <trkpt lat="59.320006248871" lon="17.866376667483">
        <ele>9.4</ele>
        <time>2016-05-05T10:39:12Z</time>
      </trkpt>
      <trkpt lat="59.32001555278" lon="17.866280107995">
        <ele>9.8</ele>
        <time>2016-05-05T10:39:13Z</time>
      </trkpt>
      <trkpt lat="59.320017815893" lon="17.866184805792">
        <ele>10.2</ele>
        <time>2016-05-05T10:39:14Z</time>
      </trkpt>
      <trkpt lat="59.320019576092" lon="17.866089922684">
        <ele>10.2</ele>
        <time>2016-05-05T10:39:15Z</time>
      </trkpt>
      <trkpt lat="59.320026700707" lon="17.86599302792">
        <ele>10.2</ele>
        <time>2016-05-05T10:39:16Z</time>
      </trkpt>
      <trkpt lat="59.320073974623" lon="17.865368408732">
        <ele>10.2</ele>
        <time>2016-05-05T10:39:22Z</time>
      </trkpt>
      <trkpt lat="59.320101718712" lon="17.864892652088">
        <ele>10.6</ele>
        <time>2016-05-05T10:39:26Z</time>
      </trkpt>
      <trkpt lat="59.320108088956" lon="17.864776730411">
        <ele>11</ele>
        <time>2016-05-05T10:39:27Z</time>
      </trkpt>
      <trkpt lat="59.320112028449" lon="17.864664664408">
        <ele>11.4</ele>
        <time>2016-05-05T10:39:28Z</time>
      </trkpt>
      <trkpt lat="59.320117979598" lon="17.864552430767">
        <ele>11.8</ele>
        <time>2016-05-05T10:39:29Z</time>
      </trkpt>
      <trkpt lat="59.320123260195" lon="17.864434329796">
        <ele>12.4</ele>
        <time>2016-05-05T10:39:30Z</time>
      </trkpt>
      <trkpt lat="59.320149998456" lon="17.863865534062">
        <ele>12.4</ele>
        <time>2016-05-05T10:39:35Z</time>
      </trkpt>
      <trkpt lat="59.320182855504" lon="17.863079647118">
        <ele>12.4</ele>
        <time>2016-05-05T10:39:43Z</time>
      </trkpt>
      <trkpt lat="59.320196853277" lon="17.86279449488">
        <ele>12.8</ele>
        <time>2016-05-05T10:39:47Z</time>
      </trkpt>
      <trkpt lat="59.320218730036" lon="17.862749819353">
        <ele>13.2</ele>
        <time>2016-05-05T10:39:48Z</time>
      </trkpt>
      <trkpt lat="59.320246306487" lon="17.862727858775">
        <ele>13.6</ele>
        <time>2016-05-05T10:39:49Z</time>
      </trkpt>
      <trkpt lat="59.320273128567" lon="17.862720147427">
        <ele>14</ele>
        <time>2016-05-05T10:39:50Z</time>
      </trkpt>
      <trkpt lat="59.320295256783" lon="17.862716794667">
        <ele>14.4</ele>
        <time>2016-05-05T10:39:51Z</time>
      </trkpt>
      <trkpt lat="59.32031311023" lon="17.862708831862">
        <ele>14.4</ele>
        <time>2016-05-05T10:39:52Z</time>
      </trkpt>
      <trkpt lat="59.320401874551" lon="17.862768678628">
        <ele>14.4</ele>
        <time>2016-05-05T10:39:57Z</time>
      </trkpt>
      <trkpt lat="59.320381422715" lon="17.862705311464">
        <ele>14.4</ele>
        <time>2016-05-05T10:40:00Z</time>
      </trkpt>
      <trkpt lat="59.320357785757" lon="17.862668934018">
        <ele>14.4</ele>
        <time>2016-05-05T10:40:04Z</time>
      </trkpt>
      <trkpt lat="59.320325180166" lon="17.86265284077">
        <ele>14.4</ele>
        <time>2016-05-05T10:41:52Z</time>
      </trkpt>
      <trkpt lat="59.320292490756" lon="17.862619396989">
        <ele>14.4</ele>
        <time>2016-05-05T10:41:56Z</time>
      </trkpt>
      <trkpt lat="59.320278241526" lon="17.86263188602">
        <ele>14.4</ele>
        <time>2016-05-05T10:46:38Z</time>
      </trkpt>
      <trkpt lat="59.320274218214" lon="17.862690726958">
        <ele>14.4</ele>
        <time>2016-05-05T10:46:41Z</time>
      </trkpt>
      <trkpt lat="59.320261561545" lon="17.862683769981">
        <ele>14.4</ele>
        <time>2016-05-05T10:46:43Z</time>
      </trkpt>
      <trkpt lat="59.320256700043" lon="17.862683686162">
        <ele>14.4</ele>
        <time>2016-05-05T10:46:53Z</time>
      </trkpt>
      <trkpt lat="59.320207079195" lon="17.862574637643">
        <ele>14.4</ele>
        <time>2016-05-05T10:46:57Z</time>
      </trkpt>
      <trkpt lat="59.320198864933" lon="17.862353439302">
        <ele>14.4</ele>
        <time>2016-05-05T10:47:02Z</time>
      </trkpt>
      <trkpt lat="59.320228872135" lon="17.861962256029">
        <ele>14.4</ele>
        <time>2016-05-05T10:47:07Z</time>
      </trkpt>
      <trkpt lat="59.320252006179" lon="17.861403434756">
        <ele>14.4</ele>
        <time>2016-05-05T10:47:12Z</time>
      </trkpt>
      <trkpt lat="59.320288383625" lon="17.860715448404">
        <ele>14.4</ele>
        <time>2016-05-05T10:47:17Z</time>
      </trkpt>
      <trkpt lat="59.320325347804" lon="17.859798971458">
        <ele>14.4</ele>
        <time>2016-05-05T10:47:23Z</time>
      </trkpt>
      <trkpt lat="59.320366167657" lon="17.858701110196">
        <ele>14.4</ele>
        <time>2016-05-05T10:47:30Z</time>
      </trkpt>
      <trkpt lat="59.320370861521" lon="17.858555516593">
        <ele>14.4</ele>
        <time>2016-05-05T10:47:31Z</time>
      </trkpt>
      <trkpt lat="59.320382763819" lon="17.858255025478">
        <ele>14.8</ele>
        <time>2016-05-05T10:47:33Z</time>
      </trkpt>
      <trkpt lat="59.320388379692" lon="17.858104486554">
        <ele>15.2</ele>
        <time>2016-05-05T10:47:34Z</time>
      </trkpt>
      <trkpt lat="59.320395755764" lon="17.857947996481">
        <ele>15.6</ele>
        <time>2016-05-05T10:47:35Z</time>
      </trkpt>
      <trkpt lat="59.320403383293" lon="17.857783375965">
        <ele>16.6</ele>
        <time>2016-05-05T10:47:36Z</time>
      </trkpt>
      <trkpt lat="59.320414028306" lon="17.857470060543">
        <ele>16.6</ele>
        <time>2016-05-05T10:47:38Z</time>
      </trkpt>
      <trkpt lat="59.320453758512" lon="17.856657100062">
        <ele>16.6</ele>
        <time>2016-05-05T10:47:43Z</time>
      </trkpt>
      <trkpt lat="59.320486447922" lon="17.856023093146">
        <ele>17</ele>
        <time>2016-05-05T10:47:47Z</time>
      </trkpt>
      <trkpt lat="59.320494746003" lon="17.855857885897">
        <ele>17.4</ele>
        <time>2016-05-05T10:47:48Z</time>
      </trkpt>
      <trkpt lat="59.320504971921" lon="17.855689493526">
        <ele>17.8</ele>
        <time>2016-05-05T10:47:49Z</time>
      </trkpt>
      <trkpt lat="59.320513521459" lon="17.855515820558">
        <ele>18.4</ele>
        <time>2016-05-05T10:47:50Z</time>
      </trkpt>
      <trkpt lat="59.320522322454" lon="17.85533376569">
        <ele>18.8</ele>
        <time>2016-05-05T10:47:51Z</time>
      </trkpt>
      <trkpt lat="59.320555263321" lon="17.854608982797">
        <ele>18.8</ele>
        <time>2016-05-05T10:47:55Z</time>
      </trkpt>
      <trkpt lat="59.320617624657" lon="17.853413975314">
        <ele>18.2</ele>
        <time>2016-05-05T10:48:01Z</time>
      </trkpt>
      <trkpt lat="59.320630868059" lon="17.85320811585">
        <ele>17.8</ele>
        <time>2016-05-05T10:48:02Z</time>
      </trkpt>
      <trkpt lat="59.320640926339" lon="17.852997394884">
        <ele>17.4</ele>
        <time>2016-05-05T10:48:03Z</time>
      </trkpt>
      <trkpt lat="59.320652744818" lon="17.852784578443">
        <ele>16.8</ele>
        <time>2016-05-05T10:48:04Z</time>
      </trkpt>
      <trkpt lat="59.320664479478" lon="17.852574863305">
        <ele>16.4</ele>
        <time>2016-05-05T10:48:05Z</time>
      </trkpt>
      <trkpt lat="59.320677806699" lon="17.852147386405">
        <ele>16.4</ele>
        <time>2016-05-05T10:48:07Z</time>
      </trkpt>
      <trkpt lat="59.320696917431" lon="17.851495945137">
        <ele>16</ele>
        <time>2016-05-05T10:48:10Z</time>
      </trkpt>
      <trkpt lat="59.320700856924" lon="17.851273908606">
        <ele>15.6</ele>
        <time>2016-05-05T10:48:11Z</time>
      </trkpt>
      <trkpt lat="59.320709490281" lon="17.851042149071">
        <ele>15.2</ele>
        <time>2016-05-05T10:48:12Z</time>
      </trkpt>
      <trkpt lat="59.320719380923" lon="17.850806114767">
        <ele>14.8</ele>
        <time>2016-05-05T10:48:13Z</time>
      </trkpt>
      <trkpt lat="59.320732289049" lon="17.850554825405">
        <ele>14.4</ele>
        <time>2016-05-05T10:48:14Z</time>
      </trkpt>
      <trkpt lat="59.320756764197" lon="17.850083678806">
        <ele>13.8</ele>
        <time>2016-05-05T10:48:16Z</time>
      </trkpt>
      <trkpt lat="59.320766235744" lon="17.849842447724">
        <ele>13.2</ele>
        <time>2016-05-05T10:48:17Z</time>
      </trkpt>
      <trkpt lat="59.320775455834" lon="17.849603647393">
        <ele>12.6</ele>
        <time>2016-05-05T10:48:18Z</time>
      </trkpt>
      <trkpt lat="59.320786100847" lon="17.849367613089">
        <ele>11.8</ele>
        <time>2016-05-05T10:48:19Z</time>
      </trkpt>
      <trkpt lat="59.320796829679" lon="17.849126382007">
        <ele>11</ele>
        <time>2016-05-05T10:48:20Z</time>
      </trkpt>
      <trkpt lat="59.320808731977" lon="17.848874338274">
        <ele>10.4</ele>
        <time>2016-05-05T10:48:21Z</time>
      </trkpt>
      <trkpt lat="59.32082105337" lon="17.848630508803">
        <ele>9.6</ele>
        <time>2016-05-05T10:48:22Z</time>
      </trkpt>
      <trkpt lat="59.320868997838" lon="17.847471711128">
        <ele>9.6</ele>
        <time>2016-05-05T10:48:27Z</time>
      </trkpt>
      <trkpt lat="59.320919708333" lon="17.846369826554">
        <ele>9.6</ele>
        <time>2016-05-05T10:48:32Z</time>
      </trkpt>
      <trkpt lat="59.320954577037" lon="17.845730706679">
        <ele>9.6</ele>
        <time>2016-05-05T10:48:35Z</time>
      </trkpt>
      <trkpt lat="59.321017525106" lon="17.844519689767">
        <ele>9.6</ele>
        <time>2016-05-05T10:48:41Z</time>
      </trkpt>
      <trkpt lat="59.32102640992" lon="17.844327744257">
        <ele>9.6</ele>
        <time>2016-05-05T10:48:42Z</time>
      </trkpt>
      <trkpt lat="59.321080976089" lon="17.843202222725">
        <ele>9.6</ele>
        <time>2016-05-05T10:48:48Z</time>
      </trkpt>
      <trkpt lat="59.321089860903" lon="17.843021341323">
        <ele>9.6</ele>
        <time>2016-05-05T10:48:49Z</time>
      </trkpt>
      <trkpt lat="59.321134871706" lon="17.841958684041">
        <ele>9.6</ele>
        <time>2016-05-05T10:48:55Z</time>
      </trkpt>
      <trkpt lat="59.321156077913" lon="17.841608991173">
        <ele>9.6</ele>
        <time>2016-05-05T10:48:57Z</time>
      </trkpt>
      <trkpt lat="59.321184324916" lon="17.841430540522">
        <ele>9.6</ele>
        <time>2016-05-05T10:48:58Z</time>
      </trkpt>
      <trkpt lat="59.321299073127" lon="17.841151339433">
        <ele>9.6</ele>
        <time>2016-05-05T10:49:00Z</time>
      </trkpt>
      <trkpt lat="59.321526222617" lon="17.84088420828">
        <ele>9.6</ele>
        <time>2016-05-05T10:49:03Z</time>
      </trkpt>
      <trkpt lat="59.321599899518" lon="17.840811956302">
        <ele>10</ele>
        <time>2016-05-05T10:49:04Z</time>
      </trkpt>
      <trkpt lat="59.321677348274" lon="17.840746661301">
        <ele>10.4</ele>
        <time>2016-05-05T10:49:05Z</time>
      </trkpt>
      <trkpt lat="59.321763095111" lon="17.840703662154">
        <ele>11</ele>
        <time>2016-05-05T10:49:06Z</time>
      </trkpt>
      <trkpt lat="59.321846243559" lon="17.84068639544">
        <ele>11.4</ele>
        <time>2016-05-05T10:49:07Z</time>
      </trkpt>
      <trkpt lat="59.321933080043" lon="17.840693687693">
        <ele>11.8</ele>
        <time>2016-05-05T10:49:08Z</time>
      </trkpt>
      <trkpt lat="59.322202222852" lon="17.840743140903">
        <ele>11.8</ele>
        <time>2016-05-05T10:49:11Z</time>
      </trkpt>
      <trkpt lat="59.322679823514" lon="17.840830983215">
        <ele>11.8</ele>
        <time>2016-05-05T10:49:16Z</time>
      </trkpt>
      <trkpt lat="59.323255660044" lon="17.8409244414">
        <ele>11.8</ele>
        <time>2016-05-05T10:49:22Z</time>
      </trkpt>
      <trkpt lat="59.323529915812" lon="17.840965428891">
        <ele>11.8</ele>
        <time>2016-05-05T10:49:25Z</time>
      </trkpt>
      <trkpt lat="59.323799896811" lon="17.841007170753">
        <ele>12.2</ele>
        <time>2016-05-05T10:49:28Z</time>
      </trkpt>
      <trkpt lat="59.323889164046" lon="17.841022258173">
        <ele>12.6</ele>
        <time>2016-05-05T10:49:29Z</time>
      </trkpt>
      <trkpt lat="59.323980526756" lon="17.841038938154">
        <ele>13.2</ele>
        <time>2016-05-05T10:49:30Z</time>
      </trkpt>
      <trkpt lat="59.324074655493" lon="17.841057797429">
        <ele>13.6</ele>
        <time>2016-05-05T10:49:31Z</time>
      </trkpt>
      <trkpt lat="59.324171466438" lon="17.841076908161">
        <ele>14</ele>
        <time>2016-05-05T10:49:32Z</time>
      </trkpt>
      <trkpt lat="59.324269702306" lon="17.841094761608">
        <ele>14</ele>
        <time>2016-05-05T10:49:33Z</time>
      </trkpt>
      <trkpt lat="59.324831876339" lon="17.841189728535">
        <ele>14</ele>
        <time>2016-05-05T10:49:39Z</time>
      </trkpt>
      <trkpt lat="59.324917455538" lon="17.841200792643">
        <ele>14</ele>
        <time>2016-05-05T10:49:40Z</time>
      </trkpt>
      <trkpt lat="59.325498237389" lon="17.841288383498">
        <ele>14</ele>
        <time>2016-05-05T10:49:47Z</time>
      </trkpt>
      <trkpt lat="59.325580212371" lon="17.841300285796">
        <ele>14</ele>
        <time>2016-05-05T10:49:48Z</time>
      </trkpt>
      <trkpt lat="59.32583426776" lon="17.841342949667">
        <ele>14.6</ele>
        <time>2016-05-05T10:49:51Z</time>
      </trkpt>
      <trkpt lat="59.325920685149" lon="17.841357282716">
        <ele>15</ele>
        <time>2016-05-05T10:49:52Z</time>
      </trkpt>
      <trkpt lat="59.326006264348" lon="17.841370777575">
        <ele>15.4</ele>
        <time>2016-05-05T10:49:53Z</time>
      </trkpt>
      <trkpt lat="59.326089328977" lon="17.841380668217">
        <ele>16</ele>
        <time>2016-05-05T10:49:54Z</time>
      </trkpt>
      <trkpt lat="59.326170968683" lon="17.841390810316">
        <ele>16.4</ele>
        <time>2016-05-05T10:49:55Z</time>
      </trkpt>
      <trkpt lat="59.326253949493" lon="17.841406065374">
        <ele>16.4</ele>
        <time>2016-05-05T10:49:56Z</time>
      </trkpt>
      <trkpt lat="59.326429717936" lon="17.841446298494">
        <ele>16.8</ele>
        <time>2016-05-05T10:49:58Z</time>
      </trkpt>
      <trkpt lat="59.32651655442" lon="17.84146591214">
        <ele>17.2</ele>
        <time>2016-05-05T10:49:59Z</time>
      </trkpt>
      <trkpt lat="59.326599451411" lon="17.84147513223">
        <ele>17.6</ele>
        <time>2016-05-05T10:50:00Z</time>
      </trkpt>
      <trkpt lat="59.326680420565" lon="17.84148183775">
        <ele>18.2</ele>
        <time>2016-05-05T10:50:01Z</time>
      </trkpt>
      <trkpt lat="59.326758875149" lon="17.841494745876">
        <ele>18.6</ele>
        <time>2016-05-05T10:50:02Z</time>
      </trkpt>
      <trkpt lat="59.326915281403" lon="17.841515868264">
        <ele>19</ele>
        <time>2016-05-05T10:50:04Z</time>
      </trkpt>
      <trkpt lat="59.326997088747" lon="17.841531458598">
        <ele>19.4</ele>
        <time>2016-05-05T10:50:05Z</time>
      </trkpt>
      <trkpt lat="59.327085182516" lon="17.84155140752">
        <ele>19.8</ele>
        <time>2016-05-05T10:50:06Z</time>
      </trkpt>
      <trkpt lat="59.327170510258" lon="17.841567668406">
        <ele>20.2</ele>
        <time>2016-05-05T10:50:07Z</time>
      </trkpt>
      <trkpt lat="59.327258687846" lon="17.841575379754">
        <ele>20.6</ele>
        <time>2016-05-05T10:50:08Z</time>
      </trkpt>
      <trkpt lat="59.327346530158" lon="17.841588371699">
        <ele>20.6</ele>
        <time>2016-05-05T10:50:09Z</time>
      </trkpt>
      <trkpt lat="59.327525148447" lon="17.84163438833">
        <ele>20.6</ele>
        <time>2016-05-05T10:50:11Z</time>
      </trkpt>
      <trkpt lat="59.32768415309" lon="17.841781323037">
        <ele>20.6</ele>
        <time>2016-05-05T10:50:13Z</time>
      </trkpt>
      <trkpt lat="59.327869141623" lon="17.842116599037">
        <ele>20.6</ele>
        <time>2016-05-05T10:50:16Z</time>
      </trkpt>
      <trkpt lat="59.327921025584" lon="17.84222195952">
        <ele>21</ele>
        <time>2016-05-05T10:50:17Z</time>
      </trkpt>
      <trkpt lat="59.32796746131" lon="17.842328577288">
        <ele>21.4</ele>
        <time>2016-05-05T10:50:18Z</time>
      </trkpt>
      <trkpt lat="59.32801691452" lon="17.842436703798">
        <ele>21.8</ele>
        <time>2016-05-05T10:50:19Z</time>
      </trkpt>
      <trkpt lat="59.32807223506" lon="17.842532844191">
        <ele>22.2</ele>
        <time>2016-05-05T10:50:20Z</time>
      </trkpt>
      <trkpt lat="59.328136440414" lon="17.84262429072">
        <ele>22.6</ele>
        <time>2016-05-05T10:50:21Z</time>
      </trkpt>
      <trkpt lat="59.328335259082" lon="17.842778014766">
        <ele>22.6</ele>
        <time>2016-05-05T10:50:24Z</time>
      </trkpt>
      <trkpt lat="59.328481942332" lon="17.842794862385">
        <ele>23</ele>
        <time>2016-05-05T10:50:26Z</time>
      </trkpt>
      <trkpt lat="59.328554445767" lon="17.84279528148">
        <ele>23.4</ele>
        <time>2016-05-05T10:50:27Z</time>
      </trkpt>
      <trkpt lat="59.328630218143" lon="17.842794108014">
        <ele>24.2</ele>
        <time>2016-05-05T10:50:28Z</time>
      </trkpt>
      <trkpt lat="59.32870087756" lon="17.842787067218">
        <ele>24.6</ele>
        <time>2016-05-05T10:50:29Z</time>
      </trkpt>
      <trkpt lat="59.328957279881" lon="17.842787653951">
        <ele>24.6</ele>
        <time>2016-05-05T10:50:33Z</time>
      </trkpt>
      <trkpt lat="59.329074794119" lon="17.84277348854">
        <ele>25.2</ele>
        <time>2016-05-05T10:50:35Z</time>
      </trkpt>
      <trkpt lat="59.329139334749" lon="17.842765022821">
        <ele>25.6</ele>
        <time>2016-05-05T10:50:36Z</time>
      </trkpt>
      <trkpt lat="59.329204881207" lon="17.842759658405">
        <ele>26.2</ele>
        <time>2016-05-05T10:50:37Z</time>
      </trkpt>
      <trkpt lat="59.329273528968" lon="17.842754796903">
        <ele>26.6</ele>
        <time>2016-05-05T10:50:38Z</time>
      </trkpt>
      <trkpt lat="59.329349971896" lon="17.842748761935">
        <ele>27.2</ele>
        <time>2016-05-05T10:50:39Z</time>
      </trkpt>
      <trkpt lat="59.329653312857" lon="17.842752869066">
        <ele>27.2</ele>
        <time>2016-05-05T10:50:43Z</time>
      </trkpt>
      <trkpt lat="59.329731515984" lon="17.842799556249">
        <ele>27.2</ele>
        <time>2016-05-05T10:50:44Z</time>
      </trkpt>
      <trkpt lat="59.330118005393" lon="17.843131982403">
        <ele>27.2</ele>
        <time>2016-05-05T10:50:49Z</time>
      </trkpt>
      <trkpt lat="59.330490916124" lon="17.843584688822">
        <ele>27.6</ele>
        <time>2016-05-05T10:50:54Z</time>
      </trkpt>
      <trkpt lat="59.3305583066" lon="17.84368460107">
        <ele>28</ele>
        <time>2016-05-05T10:50:55Z</time>
      </trkpt>
      <trkpt lat="59.33062452361" lon="17.843792643761">
        <ele>28.4</ele>
        <time>2016-05-05T10:50:56Z</time>
      </trkpt>
      <trkpt lat="59.33068990243" lon="17.843910241818">
        <ele>28.8</ele>
        <time>2016-05-05T10:50:57Z</time>
      </trkpt>
      <trkpt lat="59.330748659549" lon="17.844031527911">
        <ele>29.2</ele>
        <time>2016-05-05T10:50:58Z</time>
      </trkpt>
      <trkpt lat="59.330804902098" lon="17.844163710474">
        <ele>29.2</ele>
        <time>2016-05-05T10:50:59Z</time>
      </trkpt>
      <trkpt lat="59.330914956445" lon="17.844449281807">
        <ele>28.8</ele>
        <time>2016-05-05T10:51:01Z</time>
      </trkpt>
      <trkpt lat="59.330965583121" lon="17.844603927862">
        <ele>28.4</ele>
        <time>2016-05-05T10:51:02Z</time>
      </trkpt>
      <trkpt lat="59.331009001363" lon="17.844767291093">
        <ele>28</ele>
        <time>2016-05-05T10:51:03Z</time>
      </trkpt>
      <trkpt lat="59.331051497596" lon="17.844942305165">
        <ele>27.6</ele>
        <time>2016-05-05T10:51:04Z</time>
      </trkpt>
      <trkpt lat="59.331090473431" lon="17.84511790597">
        <ele>27</ele>
        <time>2016-05-05T10:51:05Z</time>
      </trkpt>
      <trkpt lat="59.331125845049" lon="17.845307756005">
        <ele>26.6</ele>
        <time>2016-05-05T10:51:06Z</time>
      </trkpt>
      <trkpt lat="59.331153337681" lon="17.845488637407">
        <ele>26</ele>
        <time>2016-05-05T10:51:07Z</time>
      </trkpt>
      <trkpt lat="59.331175130621" lon="17.845664657307">
        <ele>25.4</ele>
        <time>2016-05-05T10:51:08Z</time>
      </trkpt>
      <trkpt lat="59.331199186674" lon="17.84583874937">
        <ele>25.8</ele>
        <time>2016-05-05T10:51:09Z</time>
      </trkpt>
      <trkpt lat="59.33122969679" lon="17.846010243044">
        <ele>26.2</ele>
        <time>2016-05-05T10:51:10Z</time>
      </trkpt>
      <trkpt lat="59.331263056752" lon="17.846174779741">
        <ele>26.6</ele>
        <time>2016-05-05T10:51:11Z</time>
      </trkpt>
      <trkpt lat="59.331302367863" lon="17.846350212908">
        <ele>27</ele>
        <time>2016-05-05T10:51:12Z</time>
      </trkpt>
      <trkpt lat="59.331339667318" lon="17.846528328283">
        <ele>27.4</ele>
        <time>2016-05-05T10:51:13Z</time>
      </trkpt>
      <trkpt lat="59.331366992312" lon="17.846712059531">
        <ele>27.4</ele>
        <time>2016-05-05T10:51:14Z</time>
      </trkpt>
      <trkpt lat="59.33137470366" lon="17.847080024941">
        <ele>27.4</ele>
        <time>2016-05-05T10:51:16Z</time>
      </trkpt>
      <trkpt lat="59.33124646059" lon="17.847597523447">
        <ele>27.4</ele>
        <time>2016-05-05T10:51:19Z</time>
      </trkpt>
      <trkpt lat="59.331127940524" lon="17.847960040622">
        <ele>27.4</ele>
        <time>2016-05-05T10:51:21Z</time>
      </trkpt>
      <trkpt lat="59.331083684092" lon="17.848182244791">
        <ele>26.8</ele>
        <time>2016-05-05T10:51:22Z</time>
      </trkpt>
      <trkpt lat="59.331045211171" lon="17.848393217214">
        <ele>26.4</ele>
        <time>2016-05-05T10:51:23Z</time>
      </trkpt>
      <trkpt lat="59.331039008565" lon="17.848604273456">
        <ele>25.8</ele>
        <time>2016-05-05T10:51:24Z</time>
      </trkpt>
      <trkpt lat="59.33104529499" lon="17.848810635834">
        <ele>25.4</ele>
        <time>2016-05-05T10:51:25Z</time>
      </trkpt>
      <trkpt lat="59.331056694374" lon="17.849005598828">
        <ele>24.8</ele>
        <time>2016-05-05T10:51:26Z</time>
      </trkpt>
      <trkpt lat="59.331080247513" lon="17.849209865731">
        <ele>24.8</ele>
        <time>2016-05-05T10:51:27Z</time>
      </trkpt>
      <trkpt lat="59.331114613303" lon="17.849432321357">
        <ele>24.8</ele>
        <time>2016-05-05T10:51:28Z</time>
      </trkpt>
      <trkpt lat="59.331223075089" lon="17.850179400104">
        <ele>24.4</ele>
        <time>2016-05-05T10:51:31Z</time>
      </trkpt>
      <trkpt lat="59.331261128915" lon="17.850423564851">
        <ele>24</ele>
        <time>2016-05-05T10:51:32Z</time>
      </trkpt>
      <trkpt lat="59.33129256104" lon="17.850669741254">
        <ele>23.4</ele>
        <time>2016-05-05T10:51:33Z</time>
      </trkpt>
      <trkpt lat="59.33132022131" lon="17.850912061983">
        <ele>23</ele>
        <time>2016-05-05T10:51:34Z</time>
      </trkpt>
      <trkpt lat="59.331348635951" lon="17.851150275581">
        <ele>22.4</ele>
        <time>2016-05-05T10:51:35Z</time>
      </trkpt>
      <trkpt lat="59.33146438999" lon="17.852104303439">
        <ele>22.4</ele>
        <time>2016-05-05T10:51:39Z</time>
      </trkpt>
      <trkpt lat="59.331617108208" lon="17.853195291543">
        <ele>22.4</ele>
        <time>2016-05-05T10:51:44Z</time>
      </trkpt>
      <trkpt lat="59.331645355211" lon="17.853408946174">
        <ele>22.4</ele>
        <time>2016-05-05T10:51:45Z</time>
      </trkpt>
      <trkpt lat="59.331760354879" lon="17.854448385593">
        <ele>22.4</ele>
        <time>2016-05-05T10:51:50Z</time>
      </trkpt>
      <trkpt lat="59.331764210553" lon="17.854660363844">
        <ele>22.4</ele>
        <time>2016-05-05T10:51:51Z</time>
      </trkpt>
      <trkpt lat="59.331698580276" lon="17.855468965737">
        <ele>22.4</ele>
        <time>2016-05-05T10:51:55Z</time>
      </trkpt>
      <trkpt lat="59.33156916374" lon="17.856639917167">
        <ele>22.4</ele>
        <time>2016-05-05T10:52:02Z</time>
      </trkpt>
      <trkpt lat="59.331548292809" lon="17.85682909665">
        <ele>22</ele>
        <time>2016-05-05T10:52:03Z</time>
      </trkpt>
      <trkpt lat="59.331528762982" lon="17.857020539246">
        <ele>21.6</ele>
        <time>2016-05-05T10:52:04Z</time>
      </trkpt>
      <trkpt lat="59.33151049044" lon="17.857210389281">
        <ele>21.2</ele>
        <time>2016-05-05T10:52:05Z</time>
      </trkpt>
      <trkpt lat="59.331490960613" lon="17.857402334791">
        <ele>20.6</ele>
        <time>2016-05-05T10:52:06Z</time>
      </trkpt>
      <trkpt lat="59.331471849881" lon="17.857597130147">
        <ele>20.2</ele>
        <time>2016-05-05T10:52:07Z</time>
      </trkpt>
      <trkpt lat="59.331379481343" lon="17.858401792547">
        <ele>19.8</ele>
        <time>2016-05-05T10:52:11Z</time>
      </trkpt>
      <trkpt lat="59.331355676747" lon="17.858602287595">
        <ele>19.4</ele>
        <time>2016-05-05T10:52:12Z</time>
      </trkpt>
      <trkpt lat="59.331333213255" lon="17.858802615005">
        <ele>18.8</ele>
        <time>2016-05-05T10:52:13Z</time>
      </trkpt>
      <trkpt lat="59.331306726451" lon="17.859004786433">
        <ele>18.4</ele>
        <time>2016-05-05T10:52:14Z</time>
      </trkpt>
      <trkpt lat="59.331280407285" lon="17.859215758856">
        <ele>18</ele>
        <time>2016-05-05T10:52:15Z</time>
      </trkpt>
      <trkpt lat="59.331213603542" lon="17.859809365014">
        <ele>17.6</ele>
        <time>2016-05-05T10:52:18Z</time>
      </trkpt>
      <trkpt lat="59.331188960756" lon="17.860011536442">
        <ele>17.2</ele>
        <time>2016-05-05T10:52:19Z</time>
      </trkpt>
      <trkpt lat="59.331166078169" lon="17.860209852196">
        <ele>16.8</ele>
        <time>2016-05-05T10:52:20Z</time>
      </trkpt>
      <trkpt lat="59.33114084865" lon="17.860408419407">
        <ele>16.4</ele>
        <time>2016-05-05T10:52:21Z</time>
      </trkpt>
      <trkpt lat="59.33111821752" lon="17.860610339378">
        <ele>16</ele>
        <time>2016-05-05T10:52:22Z</time>
      </trkpt>
      <trkpt lat="59.33104697137" lon="17.861231689625">
        <ele>16</ele>
        <time>2016-05-05T10:52:25Z</time>
      </trkpt>
      <trkpt lat="59.330972959193" lon="17.861849268017">
        <ele>15.6</ele>
        <time>2016-05-05T10:52:28Z</time>
      </trkpt>
      <trkpt lat="59.330947478217" lon="17.862056133309">
        <ele>15</ele>
        <time>2016-05-05T10:52:29Z</time>
      </trkpt>
      <trkpt lat="59.330921410508" lon="17.862274314166">
        <ele>14.6</ele>
        <time>2016-05-05T10:52:30Z</time>
      </trkpt>
      <trkpt lat="59.33089525898" lon="17.862475815042">
        <ele>14.2</ele>
        <time>2016-05-05T10:52:31Z</time>
      </trkpt>
      <trkpt lat="59.330871119108" lon="17.862678992298">
        <ele>13.8</ele>
        <time>2016-05-05T10:52:32Z</time>
      </trkpt>
      <trkpt lat="59.33081982188" lon="17.863115102555">
        <ele>13.8</ele>
        <time>2016-05-05T10:52:34Z</time>
      </trkpt>
      <trkpt lat="59.330791742515" lon="17.863346359176">
        <ele>13.4</ele>
        <time>2016-05-05T10:52:35Z</time>
      </trkpt>
      <trkpt lat="59.330762070589" lon="17.863592787036">
        <ele>12.8</ele>
        <time>2016-05-05T10:52:36Z</time>
      </trkpt>
      <trkpt lat="59.330735667604" lon="17.863843489665">
        <ele>12.4</ele>
        <time>2016-05-05T10:52:37Z</time>
      </trkpt>
      <trkpt lat="59.330705576583" lon="17.86412051146">
        <ele>12</ele>
        <time>2016-05-05T10:52:38Z</time>
      </trkpt>
      <trkpt lat="59.330678000132" lon="17.8643853795">
        <ele>11.6</ele>
        <time>2016-05-05T10:52:39Z</time>
      </trkpt>
      <trkpt lat="59.330577417332" lon="17.865474858862">
        <ele>11.6</ele>
        <time>2016-05-05T10:52:43Z</time>
      </trkpt>
      <trkpt lat="59.330514385444" lon="17.866044408967">
        <ele>11.6</ele>
        <time>2016-05-05T10:52:45Z</time>
      </trkpt>
      <trkpt lat="59.330394608093" lon="17.867147802283">
        <ele>11.6</ele>
        <time>2016-05-05T10:52:49Z</time>
      </trkpt>
      <trkpt lat="59.330337778811" lon="17.867696984371">
        <ele>11.6</ele>
        <time>2016-05-05T10:52:51Z</time>
      </trkpt>
      <trkpt lat="59.330237028373" lon="17.868745057147">
        <ele>11.6</ele>
        <time>2016-05-05T10:52:55Z</time>
      </trkpt>
      <trkpt lat="59.330213642872" lon="17.868979247433">
        <ele>11.6</ele>
        <time>2016-05-05T10:52:56Z</time>
      </trkpt>
      <trkpt lat="59.330095709539" lon="17.869614176358">
        <ele>11.6</ele>
        <time>2016-05-05T10:52:59Z</time>
      </trkpt>
      <trkpt lat="59.330035946592" lon="17.869791956457">
        <ele>12</ele>
        <time>2016-05-05T10:53:00Z</time>
      </trkpt>
      <trkpt lat="59.329965790089" lon="17.869965797063">
        <ele>12.4</ele>
        <time>2016-05-05T10:53:01Z</time>
      </trkpt>
      <trkpt lat="59.329895465948" lon="17.870115833073">
        <ele>12.8</ele>
        <time>2016-05-05T10:53:02Z</time>
      </trkpt>
      <trkpt lat="59.32982153759" lon="17.870250446387">
        <ele>13.2</ele>
        <time>2016-05-05T10:53:03Z</time>
      </trkpt>
      <trkpt lat="59.329745513757" lon="17.870378438">
        <ele>13.6</ele>
        <time>2016-05-05T10:53:04Z</time>
      </trkpt>
      <trkpt lat="59.329314265002" lon="17.871127276946">
        <ele>13.6</ele>
        <time>2016-05-05T10:53:10Z</time>
      </trkpt>
      <trkpt lat="59.328901121151" lon="17.871880223023">
        <ele>13.6</ele>
        <time>2016-05-05T10:53:16Z</time>
      </trkpt>
      <trkpt lat="59.328849656285" lon="17.872030091395">
        <ele>13.6</ele>
        <time>2016-05-05T10:53:17Z</time>
      </trkpt>
      <trkpt lat="59.328576573983" lon="17.872977916647">
        <ele>13.6</ele>
        <time>2016-05-05T10:53:23Z</time>
      </trkpt>
      <trkpt lat="59.328484373083" lon="17.87328444273">
        <ele>13.2</ele>
        <time>2016-05-05T10:53:25Z</time>
      </trkpt>
      <trkpt lat="59.328442295945" lon="17.873439256423">
        <ele>12.8</ele>
        <time>2016-05-05T10:53:26Z</time>
      </trkpt>
      <trkpt lat="59.328399212979" lon="17.873597674333">
        <ele>12.4</ele>
        <time>2016-05-05T10:53:27Z</time>
      </trkpt>
      <trkpt lat="59.328350346502" lon="17.87374460904">
        <ele>12</ele>
        <time>2016-05-05T10:53:28Z</time>
      </trkpt>
      <trkpt lat="59.328304832785" lon="17.873910989755">
        <ele>11.6</ele>
        <time>2016-05-05T10:53:29Z</time>
      </trkpt>
      <trkpt lat="59.32820550727" lon="17.874245427565">
        <ele>11.6</ele>
        <time>2016-05-05T10:53:31Z</time>
      </trkpt>
      <trkpt lat="59.328165609426" lon="17.874418597619">
        <ele>11</ele>
        <time>2016-05-05T10:53:32Z</time>
      </trkpt>
      <trkpt lat="59.328104673013" lon="17.874594282243">
        <ele>10.4</ele>
        <time>2016-05-05T10:53:33Z</time>
      </trkpt>
      <trkpt lat="59.328066032454" lon="17.874738199466">
        <ele>10</ele>
        <time>2016-05-05T10:53:34Z</time>
      </trkpt>
      <trkpt lat="59.32802362004" lon="17.874903574353">
        <ele>9.4</ele>
        <time>2016-05-05T10:53:35Z</time>
      </trkpt>
      <trkpt lat="59.32797081407" lon="17.87505050906">
        <ele>8.8</ele>
        <time>2016-05-05T10:53:36Z</time>
      </trkpt>
      <trkpt lat="59.327880960102" lon="17.875354520573">
        <ele>8.8</ele>
        <time>2016-05-05T10:53:38Z</time>
      </trkpt>
      <trkpt lat="59.327837458041" lon="17.875512267931">
        <ele>8.4</ele>
        <time>2016-05-05T10:53:39Z</time>
      </trkpt>
      <trkpt lat="59.327794877989" lon="17.875655598421">
        <ele>8</ele>
        <time>2016-05-05T10:53:40Z</time>
      </trkpt>
      <trkpt lat="59.327749699548" lon="17.875794235047">
        <ele>7.6</ele>
        <time>2016-05-05T10:53:41Z</time>
      </trkpt>
      <trkpt lat="59.327706197487" lon="17.875936978804">
        <ele>7.2</ele>
        <time>2016-05-05T10:53:42Z</time>
      </trkpt>
      <trkpt lat="59.327663952711" lon="17.876078632914">
        <ele>6.8</ele>
        <time>2016-05-05T10:53:43Z</time>
      </trkpt>
      <trkpt lat="59.327359019189" lon="17.877108684605">
        <ele>6.8</ele>
        <time>2016-05-05T10:53:50Z</time>
      </trkpt>
      <trkpt lat="59.327310236531" lon="17.877241872996">
        <ele>6.8</ele>
        <time>2016-05-05T10:53:51Z</time>
      </trkpt>
      <trkpt lat="59.327135809192" lon="17.877607240017">
        <ele>6.8</ele>
        <time>2016-05-05T10:53:54Z</time>
      </trkpt>
      <trkpt lat="59.326832049136" lon="17.877895074463">
        <ele>6.8</ele>
        <time>2016-05-05T10:53:58Z</time>
      </trkpt>
      <trkpt lat="59.326678241271" lon="17.877993477969">
        <ele>6.8</ele>
        <time>2016-05-05T10:54:00Z</time>
      </trkpt>
      <trkpt lat="59.326565420897" lon="17.878063718291">
        <ele>6.8</ele>
        <time>2016-05-05T10:54:02Z</time>
      </trkpt>
      <trkpt lat="59.326444805356" lon="17.878095234235">
        <ele>6.4</ele>
        <time>2016-05-05T10:54:05Z</time>
      </trkpt>
      <trkpt lat="59.326422341864" lon="17.878095401873">
        <ele>5.8</ele>
        <time>2016-05-05T10:54:06Z</time>
      </trkpt>
      <trkpt lat="59.326406919168" lon="17.878102861764">
        <ele>5.4</ele>
        <time>2016-05-05T10:54:07Z</time>
      </trkpt>
      <trkpt lat="59.326401470933" lon="17.878107220352">
        <ele>5</ele>
        <time>2016-05-05T10:54:08Z</time>
      </trkpt>
      <trkpt lat="59.326404823693" lon="17.878104705782">
        <ele>4.6</ele>
        <time>2016-05-05T10:54:09Z</time>
      </trkpt>
      <trkpt lat="59.326364506754" lon="17.878110992207">
        <ele>4.6</ele>
        <time>2016-05-05T10:58:47Z</time>
      </trkpt>
      <trkpt lat="59.326317316657" lon="17.877950730279">
        <ele>4.6</ele>
        <time>2016-05-05T10:58:52Z</time>
      </trkpt>
      <trkpt lat="59.326309772947" lon="17.87789281135">
        <ele>4.6</ele>
        <time>2016-05-05T10:58:53Z</time>
      </trkpt>
      <trkpt lat="59.326265516515" lon="17.877641438169">
        <ele>4.6</ele>
        <time>2016-05-05T10:58:57Z</time>
      </trkpt>
      <trkpt lat="59.326259733004" lon="17.877556194246">
        <ele>4.6</ele>
        <time>2016-05-05T10:58:58Z</time>
      </trkpt>
      <trkpt lat="59.326233497657" lon="17.877377492138">
        <ele>4.2</ele>
        <time>2016-05-05T10:59:00Z</time>
      </trkpt>
      <trkpt lat="59.326223607015" lon="17.877258385339">
        <ele>3.8</ele>
        <time>2016-05-05T10:59:01Z</time>
      </trkpt>
      <trkpt lat="59.326206927034" lon="17.877158892186">
        <ele>3.4</ele>
        <time>2016-05-05T10:59:02Z</time>
      </trkpt>
      <trkpt lat="59.326190247053" lon="17.877069122037">
        <ele>2.8</ele>
        <time>2016-05-05T10:59:03Z</time>
      </trkpt>
      <trkpt lat="59.326175494909" lon="17.876980525354">
        <ele>2.4</ele>
        <time>2016-05-05T10:59:04Z</time>
      </trkpt>
      <trkpt lat="59.326132244305" lon="17.876814647553">
        <ele>2.4</ele>
        <time>2016-05-05T10:59:06Z</time>
      </trkpt>
      <trkpt lat="59.326086814407" lon="17.876649272666">
        <ele>2.4</ele>
        <time>2016-05-05T10:59:08Z</time>
      </trkpt>
      <trkpt lat="59.326031410048" lon="17.876296813771">
        <ele>2.4</ele>
        <time>2016-05-05T10:59:12Z</time>
      </trkpt>
      <trkpt lat="59.326019172474" lon="17.876208217088">
        <ele>2.4</ele>
        <time>2016-05-05T10:59:13Z</time>
      </trkpt>
      <trkpt lat="59.325981202467" lon="17.875927088162">
        <ele>2.4</ele>
        <time>2016-05-05T10:59:16Z</time>
      </trkpt>
      <trkpt lat="59.325954715663" lon="17.875771939193">
        <ele>2.8</ele>
        <time>2016-05-05T10:59:18Z</time>
      </trkpt>
      <trkpt lat="59.325940885528" lon="17.875683426329">
        <ele>3.2</ele>
        <time>2016-05-05T10:59:19Z</time>
      </trkpt>
      <trkpt lat="59.325927474488" lon="17.87557353962">
        <ele>3.6</ele>
        <time>2016-05-05T10:59:20Z</time>
      </trkpt>
      <trkpt lat="59.325914063448" lon="17.875470274612">
        <ele>4</ele>
        <time>2016-05-05T10:59:21Z</time>
      </trkpt>
      <trkpt lat="59.325898137838" lon="17.875370865278">
        <ele>4.4</ele>
        <time>2016-05-05T10:59:22Z</time>
      </trkpt>
      <trkpt lat="59.325883469513" lon="17.875275563075">
        <ele>4.4</ele>
        <time>2016-05-05T10:59:23Z</time>
      </trkpt>
      <trkpt lat="59.325785988016" lon="17.874598221736">
        <ele>4.4</ele>
        <time>2016-05-05T10:59:29Z</time>
      </trkpt>
      <trkpt lat="59.325688338881" lon="17.87390470333">
        <ele>4.4</ele>
        <time>2016-05-05T10:59:35Z</time>
      </trkpt>
      <trkpt lat="59.325566717512" lon="17.873071374832">
        <ele>4.4</ele>
        <time>2016-05-05T10:59:42Z</time>
      </trkpt>
      <trkpt lat="59.325463620142" lon="17.872387747068">
        <ele>4.4</ele>
        <time>2016-05-05T10:59:48Z</time>
      </trkpt>
      <trkpt lat="59.325413244923" lon="17.872038976209">
        <ele>4.4</ele>
        <time>2016-05-05T10:59:51Z</time>
      </trkpt>
      <trkpt lat="59.325374017631" lon="17.871809312149">
        <ele>4.4</ele>
        <time>2016-05-05T10:59:53Z</time>
      </trkpt>
      <trkpt lat="59.325203697423" lon="17.870926949536">
        <ele>4.4</ele>
        <time>2016-05-05T11:00:01Z</time>
      </trkpt>
      <trkpt lat="59.324981577073" lon="17.870184983748">
        <ele>4.4</ele>
        <time>2016-05-05T11:00:08Z</time>
      </trkpt>
      <trkpt lat="59.324773622134" lon="17.869729762759">
        <ele>4.4</ele>
        <time>2016-05-05T11:00:13Z</time>
      </trkpt>
      <trkpt lat="59.324721402897" lon="17.869645524664">
        <ele>4.4</ele>
        <time>2016-05-05T11:00:14Z</time>
      </trkpt>
      <trkpt lat="59.324353269849" lon="17.869148394175">
        <ele>4.4</ele>
        <time>2016-05-05T11:00:21Z</time>
      </trkpt>
      <trkpt lat="59.324182362908" lon="17.868993664301">
        <ele>4.4</ele>
        <time>2016-05-05T11:00:24Z</time>
      </trkpt>
      <trkpt lat="59.324064681032" lon="17.86891495826">
        <ele>5</ele>
        <time>2016-05-05T11:00:26Z</time>
      </trkpt>
      <trkpt lat="59.324007181198" lon="17.868879335185">
        <ele>5.4</ele>
        <time>2016-05-05T11:00:27Z</time>
      </trkpt>
      <trkpt lat="59.323950687192" lon="17.868849160345">
        <ele>5.8</ele>
        <time>2016-05-05T11:00:28Z</time>
      </trkpt>
      <trkpt lat="59.323888409675" lon="17.868827032129">
        <ele>6.2</ele>
        <time>2016-05-05T11:00:29Z</time>
      </trkpt>
      <trkpt lat="59.323827473262" lon="17.868804400999">
        <ele>6.6</ele>
        <time>2016-05-05T11:00:30Z</time>
      </trkpt>
      <trkpt lat="59.323581883592" lon="17.868740279464">
        <ele>6.6</ele>
        <time>2016-05-05T11:00:34Z</time>
      </trkpt>
      <trkpt lat="59.323102774188" lon="17.868647072736">
        <ele>6.6</ele>
        <time>2016-05-05T11:00:42Z</time>
      </trkpt>
      <trkpt lat="59.322691641993" lon="17.868554033646">
        <ele>7</ele>
        <time>2016-05-05T11:00:49Z</time>
      </trkpt>
      <trkpt lat="59.32263238196" lon="17.868538359493">
        <ele>7.4</ele>
        <time>2016-05-05T11:00:50Z</time>
      </trkpt>
      <trkpt lat="59.322568092787" lon="17.868522517702">
        <ele>7.8</ele>
        <time>2016-05-05T11:00:51Z</time>
      </trkpt>
      <trkpt lat="59.322508413659" lon="17.868512962336">
        <ele>8.2</ele>
        <time>2016-05-05T11:00:52Z</time>
      </trkpt>
      <trkpt lat="59.322450327092" lon="17.868498042554">
        <ele>8.6</ele>
        <time>2016-05-05T11:00:53Z</time>
      </trkpt>
      <trkpt lat="59.322265841473" lon="17.868451523009">
        <ele>8.6</ele>
        <time>2016-05-05T11:00:56Z</time>
      </trkpt>
      <trkpt lat="59.321834592718" lon="17.868356304625">
        <ele>8.6</ele>
        <time>2016-05-05T11:01:03Z</time>
      </trkpt>
      <trkpt lat="59.321324721741" lon="17.868216410714">
        <ele>8.6</ele>
        <time>2016-05-05T11:01:11Z</time>
      </trkpt>
      <trkpt lat="59.320948793526" lon="17.86798708193">
        <ele>8.6</ele>
        <time>2016-05-05T11:01:17Z</time>
      </trkpt>
      <trkpt lat="59.320771097246" lon="17.867802177216">
        <ele>8.6</ele>
        <time>2016-05-05T11:01:20Z</time>
      </trkpt>
      <trkpt lat="59.320666072039" lon="17.867634455397">
        <ele>8.6</ele>
        <time>2016-05-05T11:01:22Z</time>
      </trkpt>
      <trkpt lat="59.320454261426" lon="17.867187113394">
        <ele>8.6</ele>
        <time>2016-05-05T11:01:27Z</time>
      </trkpt>
      <trkpt lat="59.320392151547" lon="17.867140007116">
        <ele>8.6</ele>
        <time>2016-05-05T11:01:28Z</time>
      </trkpt>
      <trkpt lat="59.320286623426" lon="17.867074125382">
        <ele>8.6</ele>
        <time>2016-05-05T11:01:30Z</time>
      </trkpt>
      <trkpt lat="59.320147651524" lon="17.866950073262">
        <ele>8.6</ele>
        <time>2016-05-05T11:01:33Z</time>
      </trkpt>
      <trkpt lat="59.32007925522" lon="17.866876312542">
        <ele>8.6</ele>
        <time>2016-05-05T11:01:35Z</time>
      </trkpt>
      <trkpt lat="59.319972050719" lon="17.866639691505">
        <ele>8.6</ele>
        <time>2016-05-05T11:01:40Z</time>
      </trkpt>
      <trkpt lat="59.319991748184" lon="17.866580180015">
        <ele>8.6</ele>
        <time>2016-05-05T11:01:41Z</time>
      </trkpt>
      <trkpt lat="59.320026113974" lon="17.866208945664">
        <ele>8.6</ele>
        <time>2016-05-05T11:01:46Z</time>
      </trkpt>
      <trkpt lat="59.320053187511" lon="17.865561192432">
        <ele>8.6</ele>
        <time>2016-05-05T11:01:54Z</time>
      </trkpt>
      <trkpt lat="59.320081099238" lon="17.864972447776">
        <ele>8.6</ele>
        <time>2016-05-05T11:01:59Z</time>
      </trkpt>
      <trkpt lat="59.320089397319" lon="17.864741777888">
        <ele>9.2</ele>
        <time>2016-05-05T11:02:01Z</time>
      </trkpt>
      <trkpt lat="59.320093336812" lon="17.864625520935">
        <ele>9.6</ele>
        <time>2016-05-05T11:02:02Z</time>
      </trkpt>
      <trkpt lat="59.320099790875" lon="17.86451194619">
        <ele>10</ele>
        <time>2016-05-05T11:02:03Z</time>
      </trkpt>
      <trkpt lat="59.320106747852" lon="17.864398958178">
        <ele>10.4</ele>
        <time>2016-05-05T11:02:04Z</time>
      </trkpt>
      <trkpt lat="59.320111693173" lon="17.864275660429">
        <ele>11</ele>
        <time>2016-05-05T11:02:05Z</time>
      </trkpt>
      <trkpt lat="59.320132396466" lon="17.863917334204">
        <ele>11</ele>
        <time>2016-05-05T11:02:08Z</time>
      </trkpt>
      <trkpt lat="59.320178329278" lon="17.862882588649">
        <ele>11</ele>
        <time>2016-05-05T11:02:16Z</time>
      </trkpt>
      <trkpt lat="59.320183442237" lon="17.862747640059">
        <ele>11.4</ele>
        <time>2016-05-05T11:02:17Z</time>
      </trkpt>
      <trkpt lat="59.320189141929" lon="17.862610176899">
        <ele>11.8</ele>
        <time>2016-05-05T11:02:18Z</time>
      </trkpt>
      <trkpt lat="59.320196853277" lon="17.86247179173">
        <ele>12.4</ele>
        <time>2016-05-05T11:02:19Z</time>
      </trkpt>
      <trkpt lat="59.320205738091" lon="17.862326281946">
        <ele>12.8</ele>
        <time>2016-05-05T11:02:20Z</time>
      </trkpt>
      <trkpt lat="59.320215461095" lon="17.862182867637">
        <ele>13.4</ele>
        <time>2016-05-05T11:02:21Z</time>
      </trkpt>
      <trkpt lat="59.320246306487" lon="17.861571491851">
        <ele>13.4</ele>
        <time>2016-05-05T11:02:25Z</time>
      </trkpt>
      <trkpt lat="59.320297436077" lon="17.860408503226">
        <ele>13.4</ele>
        <time>2016-05-05T11:02:32Z</time>
      </trkpt>
      <trkpt lat="59.320305063606" lon="17.86023801538">
        <ele>13.4</ele>
        <time>2016-05-05T11:02:33Z</time>
      </trkpt>
      <trkpt lat="59.320364658915" lon="17.859058598231">
        <ele>13.4</ele>
        <time>2016-05-05T11:02:40Z</time>
      </trkpt>
      <trkpt lat="59.320372789358" lon="17.858891966059">
        <ele>13.4</ele>
        <time>2016-05-05T11:02:41Z</time>
      </trkpt>
      <trkpt lat="59.320400952542" lon="17.858263742654">
        <ele>13.8</ele>
        <time>2016-05-05T11:02:45Z</time>
      </trkpt>
      <trkpt lat="59.320409585899" lon="17.858111862626">
        <ele>14.2</ele>
        <time>2016-05-05T11:02:46Z</time>
      </trkpt>
      <trkpt lat="59.320418051618" lon="17.857959647322">
        <ele>14.6</ele>
        <time>2016-05-05T11:02:47Z</time>
      </trkpt>
      <trkpt lat="59.320424338043" lon="17.857803157249">
        <ele>15</ele>
        <time>2016-05-05T11:02:48Z</time>
      </trkpt>
      <trkpt lat="59.320430373011" lon="17.85764130276">
        <ele>15.4</ele>
        <time>2016-05-05T11:02:49Z</time>
      </trkpt>
      <trkpt lat="59.320467504828" lon="17.856829012831">
        <ele>15.4</ele>
        <time>2016-05-05T11:02:54Z</time>
      </trkpt>
      <trkpt lat="59.320509665785" lon="17.856039018756">
        <ele>15.4</ele>
        <time>2016-05-05T11:02:59Z</time>
      </trkpt>
      <trkpt lat="59.320561885022" lon="17.855045009235">
        <ele>15.4</ele>
        <time>2016-05-05T11:03:05Z</time>
      </trkpt>
      <trkpt lat="59.320617121743" lon="17.854020824874">
        <ele>15.4</ele>
        <time>2016-05-05T11:03:11Z</time>
      </trkpt>
      <trkpt lat="59.320651822809" lon="17.853049446483">
        <ele>15.4</ele>
        <time>2016-05-05T11:03:16Z</time>
      </trkpt>
      <trkpt lat="59.320713681231" lon="17.851886541677">
        <ele>15.4</ele>
        <time>2016-05-05T11:03:22Z</time>
      </trkpt>
      <trkpt lat="59.320746286822" lon="17.851042400528">
        <ele>14.8</ele>
        <time>2016-05-05T11:03:26Z</time>
      </trkpt>
      <trkpt lat="59.320753411437" lon="17.850821453644">
        <ele>14.4</ele>
        <time>2016-05-05T11:03:27Z</time>
      </trkpt>
      <trkpt lat="59.320762715346" lon="17.85058374296">
        <ele>13.8</ele>
        <time>2016-05-05T11:03:28Z</time>
      </trkpt>
      <trkpt lat="59.320772941264" lon="17.850358856583">
        <ele>13.4</ele>
        <time>2016-05-05T11:03:29Z</time>
      </trkpt>
      <trkpt lat="59.320784424467" lon="17.850136736233">
        <ele>12.8</ele>
        <time>2016-05-05T11:03:30Z</time>
      </trkpt>
      <trkpt lat="59.320797332593" lon="17.84991486734">
        <ele>11.8</ele>
        <time>2016-05-05T11:03:31Z</time>
      </trkpt>
      <trkpt lat="59.320809570167" lon="17.849686376746">
        <ele>11.2</ele>
        <time>2016-05-05T11:03:32Z</time>
      </trkpt>
      <trkpt lat="59.320820801913" lon="17.849457802333">
        <ele>10.8</ele>
        <time>2016-05-05T11:03:33Z</time>
      </trkpt>
      <trkpt lat="59.320830105822" lon="17.849235681983">
        <ele>10.2</ele>
        <time>2016-05-05T11:03:34Z</time>
      </trkpt>
      <trkpt lat="59.320872853512" lon="17.848137736902">
        <ele>10.2</ele>
        <time>2016-05-05T11:03:39Z</time>
      </trkpt>
      <trkpt lat="59.320882911792" lon="17.847918717855">
        <ele>10.2</ele>
        <time>2016-05-05T11:03:40Z</time>
      </trkpt>
      <trkpt lat="59.320935131029" lon="17.846814905444">
        <ele>9.8</ele>
        <time>2016-05-05T11:03:45Z</time>
      </trkpt>
      <trkpt lat="59.320944686395" lon="17.846599322976">
        <ele>9.4</ele>
        <time>2016-05-05T11:03:46Z</time>
      </trkpt>
      <trkpt lat="59.320955079951" lon="17.846385500707">
        <ele>9</ele>
        <time>2016-05-05T11:03:47Z</time>
      </trkpt>
      <trkpt lat="59.320965473507" lon="17.846169331506">
        <ele>8.4</ele>
        <time>2016-05-05T11:03:48Z</time>
      </trkpt>
      <trkpt lat="59.320974358321" lon="17.845954084314">
        <ele>8</ele>
        <time>2016-05-05T11:03:49Z</time>
      </trkpt>
      <trkpt lat="59.32102305716" lon="17.844888493367">
        <ele>8</ele>
        <time>2016-05-05T11:03:54Z</time>
      </trkpt>
      <trkpt lat="59.321033199259" lon="17.844678275315">
        <ele>8</ele>
        <time>2016-05-05T11:03:55Z</time>
      </trkpt>
      <trkpt lat="59.321083574478" lon="17.843604889201">
        <ele>8</ele>
        <time>2016-05-05T11:04:00Z</time>
      </trkpt>
      <trkpt lat="59.321121293028" lon="17.842777511852">
        <ele>8</ele>
        <time>2016-05-05T11:04:04Z</time>
      </trkpt>
      <trkpt lat="59.321175943016" lon="17.841582923464">
        <ele>8</ele>
        <time>2016-05-05T11:04:10Z</time>
      </trkpt>
      <trkpt lat="59.321279962395" lon="17.84123038075">
        <ele>8</ele>
        <time>2016-05-05T11:04:12Z</time>
      </trkpt>
      <trkpt lat="59.321434105536" lon="17.841002141613">
        <ele>8</ele>
        <time>2016-05-05T11:04:14Z</time>
      </trkpt>
      <trkpt lat="59.321518930364" lon="17.840901894089">
        <ele>8</ele>
        <time>2016-05-05T11:04:15Z</time>
      </trkpt>
      <trkpt lat="59.321605347753" lon="17.840810866655">
        <ele>8.4</ele>
        <time>2016-05-05T11:04:16Z</time>
      </trkpt>
      <trkpt lat="59.321696459006" lon="17.840744482007">
        <ele>9</ele>
        <time>2016-05-05T11:04:17Z</time>
      </trkpt>
      <trkpt lat="59.32179167739" lon="17.840704584163">
        <ele>9.4</ele>
        <time>2016-05-05T11:04:18Z</time>
      </trkpt>
      <trkpt lat="59.321888991249" lon="17.840691927494">
        <ele>9.8</ele>
        <time>2016-05-05T11:04:19Z</time>
      </trkpt>
      <trkpt lat="59.321987562393" lon="17.840698297738">
        <ele>10.4</ele>
        <time>2016-05-05T11:04:20Z</time>
      </trkpt>
      <trkpt lat="59.322093006695" lon="17.840716905556">
        <ele>10.4</ele>
        <time>2016-05-05T11:04:21Z</time>
      </trkpt>
      <trkpt lat="59.322407663221" lon="17.8407819491">
        <ele>10.4</ele>
        <time>2016-05-05T11:04:24Z</time>
      </trkpt>
      <trkpt lat="59.322954498377" lon="17.840873479448">
        <ele>10.4</ele>
        <time>2016-05-05T11:04:29Z</time>
      </trkpt>
      <trkpt lat="59.323383316381" lon="17.840939109725">
        <ele>10.4</ele>
        <time>2016-05-05T11:04:33Z</time>
      </trkpt>
      <trkpt lat="59.323995027443" lon="17.841046649502">
        <ele>10.4</ele>
        <time>2016-05-05T11:04:39Z</time>
      </trkpt>
      <trkpt lat="59.324098292451" lon="17.841062658931">
        <ele>10.4</ele>
        <time>2016-05-05T11:04:40Z</time>
      </trkpt>
      <trkpt lat="59.324717128128" lon="17.841165923939">
        <ele>10.4</ele>
        <time>2016-05-05T11:04:46Z</time>
      </trkpt>
      <trkpt lat="59.324911169113" lon="17.84118008935">
        <ele>10.4</ele>
        <time>2016-05-05T11:04:48Z</time>
      </trkpt>
      <trkpt lat="59.325261700171" lon="17.841244462342">
        <ele>10.8</ele>
        <time>2016-05-05T11:04:52Z</time>
      </trkpt>
      <trkpt lat="59.32534057385" lon="17.841255861726">
        <ele>11.4</ele>
        <time>2016-05-05T11:04:53Z</time>
      </trkpt>
      <trkpt lat="59.325417100597" lon="17.841264495083">
        <ele>11.8</ele>
        <time>2016-05-05T11:04:54Z</time>
      </trkpt>
      <trkpt lat="59.325488682023" lon="17.841280169236">
        <ele>12.4</ele>
        <time>2016-05-05T11:04:55Z</time>
      </trkpt>
      <trkpt lat="59.325558670888" lon="17.841296011027">
        <ele>13</ele>
        <time>2016-05-05T11:04:56Z</time>
      </trkpt>
      <trkpt lat="59.325704515948" lon="17.841326856419">
        <ele>13</ele>
        <time>2016-05-05T11:04:58Z</time>
      </trkpt>
      <trkpt lat="59.325872153948" lon="17.841365832254">
        <ele>13.4</ele>
        <time>2016-05-05T11:05:00Z</time>
      </trkpt>
      <trkpt lat="59.325956308224" lon="17.841381087312">
        <ele>13.8</ele>
        <time>2016-05-05T11:05:01Z</time>
      </trkpt>
      <trkpt lat="59.326040881595" lon="17.841392738153">
        <ele>14.2</ele>
        <time>2016-05-05T11:05:02Z</time>
      </trkpt>
      <trkpt lat="59.326127466622" lon="17.841404472813">
        <ele>14.6</ele>
        <time>2016-05-05T11:05:03Z</time>
      </trkpt>
      <trkpt lat="59.326213716373" lon="17.841416961844">
        <ele>15</ele>
        <time>2016-05-05T11:05:04Z</time>
      </trkpt>
      <trkpt lat="59.326612610994" lon="17.841481753931">
        <ele>15.4</ele>
        <time>2016-05-05T11:05:09Z</time>
      </trkpt>
      <trkpt lat="59.326686958447" lon="17.841491979849">
        <ele>16.4</ele>
        <time>2016-05-05T11:05:10Z</time>
      </trkpt>
      <trkpt lat="59.326759545701" lon="17.84150614526">
        <ele>16.8</ele>
        <time>2016-05-05T11:05:11Z</time>
      </trkpt>
      <trkpt lat="59.326835988629" lon="17.841518969567">
        <ele>17.4</ele>
        <time>2016-05-05T11:05:12Z</time>
      </trkpt>
      <trkpt lat="59.326917963611" lon="17.841527351467">
        <ele>18</ele>
        <time>2016-05-05T11:05:13Z</time>
      </trkpt>
      <trkpt lat="59.327009913054" lon="17.841542857982">
        <ele>18.6</ele>
        <time>2016-05-05T11:05:14Z</time>
      </trkpt>
      <trkpt lat="59.327102197773" lon="17.841558532135">
        <ele>19.2</ele>
        <time>2016-05-05T11:05:15Z</time>
      </trkpt>
      <trkpt lat="59.327197332338" lon="17.841569763881">
        <ele>19.8</ele>
        <time>2016-05-05T11:05:16Z</time>
      </trkpt>
      <trkpt lat="59.327573931105" lon="17.841657690012">
        <ele>19.8</ele>
        <time>2016-05-05T11:05:20Z</time>
      </trkpt>
      <trkpt lat="59.327805439183" lon="17.841951559426">
        <ele>19.8</ele>
        <time>2016-05-05T11:05:23Z</time>
      </trkpt>
      <trkpt lat="59.327922953421" lon="17.842210643955">
        <ele>19.8</ele>
        <time>2016-05-05T11:05:25Z</time>
      </trkpt>
      <trkpt lat="59.327983135463" lon="17.842343832346">
        <ele>20.2</ele>
        <time>2016-05-05T11:05:26Z</time>
      </trkpt>
      <trkpt lat="59.328047005541" lon="17.842474087072">
        <ele>20.6</ele>
        <time>2016-05-05T11:05:27Z</time>
      </trkpt>
      <trkpt lat="59.328114312198" lon="17.842588751464">
        <ele>21</ele>
        <time>2016-05-05T11:05:28Z</time>
      </trkpt>
      <trkpt lat="59.328193940248" lon="17.842685227133">
        <ele>21.4</ele>
        <time>2016-05-05T11:05:29Z</time>
      </trkpt>
      <trkpt lat="59.328279435628" lon="17.842746163546">
        <ele>21.8</ele>
        <time>2016-05-05T11:05:30Z</time>
      </trkpt>
      <trkpt lat="59.328370882157" lon="17.842781367526">
        <ele>21.8</ele>
        <time>2016-05-05T11:05:31Z</time>
      </trkpt>
      <trkpt lat="59.328640695518" lon="17.842799891525">
        <ele>21.8</ele>
        <time>2016-05-05T11:05:34Z</time>
      </trkpt>
      <trkpt lat="59.328727196726" lon="17.842798801878">
        <ele>21.8</ele>
        <time>2016-05-05T11:05:35Z</time>
      </trkpt>
      <trkpt lat="59.328816128685" lon="17.842798047507">
        <ele>22.2</ele>
        <time>2016-05-05T11:05:36Z</time>
      </trkpt>
      <trkpt lat="59.328897768391" lon="17.842798382783">
        <ele>22.6</ele>
        <time>2016-05-05T11:05:37Z</time>
      </trkpt>
      <trkpt lat="59.328976306794" lon="17.842798382783">
        <ele>23.2</ele>
        <time>2016-05-05T11:05:38Z</time>
      </trkpt>
      <trkpt lat="59.329054090826" lon="17.842795449118">
        <ele>23.6</ele>
        <time>2016-05-05T11:05:39Z</time>
      </trkpt>
      <trkpt lat="59.329131623401" lon="17.842788492141">
        <ele>24</ele>
        <time>2016-05-05T11:05:40Z</time>
      </trkpt>
      <trkpt lat="59.329211083813" lon="17.842780864612">
        <ele>24</ele>
        <time>2016-05-05T11:05:41Z</time>
      </trkpt>
      <trkpt lat="59.329291382415" lon="17.84277516492">
        <ele>24.6</ele>
        <time>2016-05-05T11:05:42Z</time>
      </trkpt>
      <trkpt lat="59.329371681017" lon="17.842768627038">
        <ele>25</ele>
        <time>2016-05-05T11:05:43Z</time>
      </trkpt>
      <trkpt lat="59.329457679311" lon="17.84276175388">
        <ele>25.4</ele>
        <time>2016-05-05T11:05:44Z</time>
      </trkpt>
      <trkpt lat="59.329541749768" lon="17.842756473283">
        <ele>26</ele>
        <time>2016-05-05T11:05:45Z</time>
      </trkpt>
      <trkpt lat="59.329627580424" lon="17.842761418604">
        <ele>26.4</ele>
        <time>2016-05-05T11:05:46Z</time>
      </trkpt>
      <trkpt lat="59.329713997813" lon="17.842788995055">
        <ele>26.4</ele>
        <time>2016-05-05T11:05:47Z</time>
      </trkpt>
      <trkpt lat="59.33004281975" lon="17.843024777902">
        <ele>26.4</ele>
        <time>2016-05-05T11:05:51Z</time>
      </trkpt>
      <trkpt lat="59.330257144933" lon="17.843225608226">
        <ele>26.4</ele>
        <time>2016-05-05T11:05:54Z</time>
      </trkpt>
      <trkpt lat="59.330322188477" lon="17.843304733362">
        <ele>26.4</ele>
        <time>2016-05-05T11:05:55Z</time>
      </trkpt>
      <trkpt lat="59.33038647765" lon="17.843395257882">
        <ele>26.4</ele>
        <time>2016-05-05T11:05:56Z</time>
      </trkpt>
      <trkpt lat="59.330576243866" lon="17.843697006282">
        <ele>26.4</ele>
        <time>2016-05-05T11:05:59Z</time>
      </trkpt>
      <trkpt lat="59.330893163505" lon="17.844335539424">
        <ele>26.4</ele>
        <time>2016-05-05T11:06:04Z</time>
      </trkpt>
      <trkpt lat="59.33094555038" lon="17.844497729189">
        <ele>26.4</ele>
        <time>2016-05-05T11:06:05Z</time>
      </trkpt>
      <trkpt lat="59.331089132327" lon="17.845058143023">
        <ele>26.4</ele>
        <time>2016-05-05T11:06:08Z</time>
      </trkpt>
      <trkpt lat="59.331122492289" lon="17.845253608931">
        <ele>26.4</ele>
        <time>2016-05-05T11:06:09Z</time>
      </trkpt>
      <trkpt lat="59.331169011834" lon="17.845628531318">
        <ele>26.4</ele>
        <time>2016-05-05T11:06:11Z</time>
      </trkpt>
      <trkpt lat="59.331205473099" lon="17.84597118339">
        <ele>26.4</ele>
        <time>2016-05-05T11:06:13Z</time>
      </trkpt>
      <trkpt lat="59.33127831181" lon="17.846303525725">
        <ele>26.4</ele>
        <time>2016-05-05T11:06:15Z</time>
      </trkpt>
      <trkpt lat="59.331356766394" lon="17.84663838263">
        <ele>26.4</ele>
        <time>2016-05-05T11:06:17Z</time>
      </trkpt>
      <trkpt lat="59.331385013397" lon="17.846977095209">
        <ele>26.4</ele>
        <time>2016-05-05T11:06:19Z</time>
      </trkpt>
      <trkpt lat="59.331355006195" lon="17.847291081183">
        <ele>26.4</ele>
        <time>2016-05-05T11:06:21Z</time>
      </trkpt>
      <trkpt lat="59.331321143319" lon="17.847451510749">
        <ele>26.4</ele>
        <time>2016-05-05T11:06:22Z</time>
      </trkpt>
      <trkpt lat="59.33115845064" lon="17.848078141593">
        <ele>26.4</ele>
        <time>2016-05-05T11:06:26Z</time>
      </trkpt>
      <trkpt lat="59.331104219747" lon="17.848623887102">
        <ele>26.4</ele>
        <time>2016-05-05T11:06:29Z</time>
      </trkpt>
      <trkpt lat="59.331130287456" lon="17.849152784992">
        <ele>26.4</ele>
        <time>2016-05-05T11:06:32Z</time>
      </trkpt>
      <trkpt lat="59.331152164215" lon="17.849359650284">
        <ele>26.4</ele>
        <time>2016-05-05T11:06:33Z</time>
      </trkpt>
      <trkpt lat="59.331204467271" lon="17.849808249572">
        <ele>26</ele>
        <time>2016-05-05T11:06:35Z</time>
      </trkpt>
      <trkpt lat="59.331235228844" lon="17.850037913632">
        <ele>25.6</ele>
        <time>2016-05-05T11:06:36Z</time>
      </trkpt>
      <trkpt lat="59.331268756444" lon="17.850279228533">
        <ele>25</ele>
        <time>2016-05-05T11:06:37Z</time>
      </trkpt>
      <trkpt lat="59.331300607664" lon="17.85050914405">
        <ele>24.2</ele>
        <time>2016-05-05T11:06:38Z</time>
      </trkpt>
      <trkpt lat="59.331329106124" lon="17.850737802282">
        <ele>23.6</ele>
        <time>2016-05-05T11:06:39Z</time>
      </trkpt>
      <trkpt lat="59.33135374891" lon="17.850958078614">
        <ele>23</ele>
        <time>2016-05-05T11:06:40Z</time>
      </trkpt>
      <trkpt lat="59.331381576818" lon="17.851175840376">
        <ele>22.2</ele>
        <time>2016-05-05T11:06:41Z</time>
      </trkpt>
      <trkpt lat="59.331487607853" lon="17.852011515806">
        <ele>22.2</ele>
        <time>2016-05-05T11:06:44Z</time>
      </trkpt>
      <trkpt lat="59.3316060441" lon="17.852901422129">
        <ele>22.2</ele>
        <time>2016-05-05T11:06:49Z</time>
      </trkpt>
      <trkpt lat="59.33166555559" lon="17.853334431083">
        <ele>21.8</ele>
        <time>2016-05-05T11:06:51Z</time>
      </trkpt>
      <trkpt lat="59.331691623299" lon="17.853549678275">
        <ele>21.4</ele>
        <time>2016-05-05T11:06:52Z</time>
      </trkpt>
      <trkpt lat="59.331715260257" lon="17.853761405069">
        <ele>21</ele>
        <time>2016-05-05T11:06:53Z</time>
      </trkpt>
      <trkpt lat="59.331740489776" lon="17.853974724424">
        <ele>20.6</ele>
        <time>2016-05-05T11:06:54Z</time>
      </trkpt>
      <trkpt lat="59.331766892761" lon="17.854206819235">
        <ele>20.2</ele>
        <time>2016-05-05T11:06:55Z</time>
      </trkpt>
      <trkpt lat="59.331784746208" lon="17.85443690239">
        <ele>20.2</ele>
        <time>2016-05-05T11:06:56Z</time>
      </trkpt>
      <trkpt lat="59.331792289918" lon="17.854668410468">
        <ele>20.2</ele>
        <time>2016-05-05T11:06:57Z</time>
      </trkpt>
      <trkpt lat="59.331766389847" lon="17.855137042497">
        <ele>20.2</ele>
        <time>2016-05-05T11:06:59Z</time>
      </trkpt>
      <trkpt lat="59.331627920859" lon="17.856392902574">
        <ele>19.8</ele>
        <time>2016-05-05T11:07:04Z</time>
      </trkpt>
      <trkpt lat="59.331604786815" lon="17.856628685421">
        <ele>19.4</ele>
        <time>2016-05-05T11:07:05Z</time>
      </trkpt>
      <trkpt lat="59.33158006021" lon="17.856870084141">
        <ele>19</ele>
        <time>2016-05-05T11:07:06Z</time>
      </trkpt>
      <trkpt lat="59.331554830691" lon="17.857105364074">
        <ele>18.6</ele>
        <time>2016-05-05T11:07:07Z</time>
      </trkpt>
      <trkpt lat="59.331527086602" lon="17.857343158577">
        <ele>18.2</ele>
        <time>2016-05-05T11:07:08Z</time>
      </trkpt>
      <trkpt lat="59.331443770516" lon="17.858084956727">
        <ele>18.2</ele>
        <time>2016-05-05T11:07:11Z</time>
      </trkpt>
      <trkpt lat="59.331320724224" lon="17.859155995909">
        <ele>18.2</ele>
        <time>2016-05-05T11:07:15Z</time>
      </trkpt>
      <trkpt lat="59.331286526072" lon="17.859430167858">
        <ele>18.2</ele>
        <time>2016-05-05T11:07:16Z</time>
      </trkpt>
      <trkpt lat="59.331256854146" lon="17.859702663427">
        <ele>17.6</ele>
        <time>2016-05-05T11:07:17Z</time>
      </trkpt>
      <trkpt lat="59.331223075089" lon="17.859991922796">
        <ele>17.2</ele>
        <time>2016-05-05T11:07:18Z</time>
      </trkpt>
      <trkpt lat="59.331189715127" lon="17.860264250727">
        <ele>16.6</ele>
        <time>2016-05-05T11:07:19Z</time>
      </trkpt>
      <trkpt lat="59.331156438984" lon="17.860533477355">
        <ele>16</ele>
        <time>2016-05-05T11:07:20Z</time>
      </trkpt>
      <trkpt lat="59.331124001031" lon="17.860805386191">
        <ele>15.6</ele>
        <time>2016-05-05T11:07:21Z</time>
      </trkpt>
      <trkpt lat="59.330991483192" lon="17.861910623525">
        <ele>15.6</ele>
        <time>2016-05-05T11:07:25Z</time>
      </trkpt>
      <trkpt lat="59.330890900392" lon="17.862721404712">
        <ele>15.6</ele>
        <time>2016-05-05T11:07:28Z</time>
      </trkpt>
      <trkpt lat="59.330826359762" lon="17.863246027833">
        <ele>15</ele>
        <time>2016-05-05T11:07:30Z</time>
      </trkpt>
      <trkpt lat="59.330790988144" lon="17.863517517574">
        <ele>14.4</ele>
        <time>2016-05-05T11:07:31Z</time>
      </trkpt>
      <trkpt lat="59.330758717829" lon="17.863790180781">
        <ele>14</ele>
        <time>2016-05-05T11:07:32Z</time>
      </trkpt>
      <trkpt lat="59.330725525505" lon="17.864064017454">
        <ele>13.4</ele>
        <time>2016-05-05T11:07:33Z</time>
      </trkpt>
      <trkpt lat="59.330688980421" lon="17.864348750597">
        <ele>13</ele>
        <time>2016-05-05T11:07:34Z</time>
      </trkpt>
      <trkpt lat="59.330563084283" lon="17.865422471987">
        <ele>13</ele>
        <time>2016-05-05T11:07:38Z</time>
      </trkpt>
      <trkpt lat="59.330474906695" lon="17.866256387218">
        <ele>13</ele>
        <time>2016-05-05T11:07:41Z</time>
      </trkpt>
      <trkpt lat="59.330408941142" lon="17.867066078758">
        <ele>12.2</ele>
        <time>2016-05-05T11:07:44Z</time>
      </trkpt>
      <trkpt lat="59.330385388003" lon="17.867332539359">
        <ele>11.2</ele>
        <time>2016-05-05T11:07:45Z</time>
      </trkpt>
      <trkpt lat="59.330352614774" lon="17.867592881173">
        <ele>10.2</ele>
        <time>2016-05-05T11:07:46Z</time>
      </trkpt>
      <trkpt lat="59.330318416622" lon="17.867857497756">
        <ele>10.2</ele>
        <time>2016-05-05T11:07:47Z</time>
      </trkpt>
      <trkpt lat="59.330288493239" lon="17.868128233126">
        <ele>10.8</ele>
        <time>2016-05-05T11:07:48Z</time>
      </trkpt>
      <trkpt lat="59.330259827141" lon="17.868409697328">
        <ele>11.2</ele>
        <time>2016-05-05T11:07:49Z</time>
      </trkpt>
      <trkpt lat="59.330232921242" lon="17.868669117133">
        <ele>11.6</ele>
        <time>2016-05-05T11:07:50Z</time>
      </trkpt>
      <trkpt lat="59.330205260972" lon="17.868923423979">
        <ele>12.2</ele>
        <time>2016-05-05T11:07:51Z</time>
      </trkpt>
      <trkpt lat="59.330174164123" lon="17.869176054445">
        <ele>12.6</ele>
        <time>2016-05-05T11:07:52Z</time>
      </trkpt>
      <trkpt lat="59.330135188288" lon="17.86942206321">
        <ele>12.6</ele>
        <time>2016-05-05T11:07:53Z</time>
      </trkpt>
      <trkpt lat="59.330007112856" lon="17.869873260887">
        <ele>12.6</ele>
        <time>2016-05-05T11:07:55Z</time>
      </trkpt>
      <trkpt lat="59.329738892056" lon="17.870418503482">
        <ele>12.6</ele>
        <time>2016-05-05T11:07:58Z</time>
      </trkpt>
      <trkpt lat="59.329645098595" lon="17.870579268324">
        <ele>12.6</ele>
        <time>2016-05-05T11:07:59Z</time>
      </trkpt>
      <trkpt lat="59.329253915322" lon="17.871227943565">
        <ele>12.2</ele>
        <time>2016-05-05T11:08:03Z</time>
      </trkpt>
      <trkpt lat="59.32914679464" lon="17.871405639845">
        <ele>11.2</ele>
        <time>2016-05-05T11:08:04Z</time>
      </trkpt>
      <trkpt lat="59.329046463297" lon="17.871587191799">
        <ele>10.8</ele>
        <time>2016-05-05T11:08:05Z</time>
      </trkpt>
      <trkpt lat="59.328948897981" lon="17.871785256096">
        <ele>10.2</ele>
        <time>2016-05-05T11:08:06Z</time>
      </trkpt>
      <trkpt lat="59.328864492248" lon="17.872000922383">
        <ele>10.2</ele>
        <time>2016-05-05T11:08:07Z</time>
      </trkpt>
      <trkpt lat="59.328579507648" lon="17.872924356306">
        <ele>10.2</ele>
        <time>2016-05-05T11:08:11Z</time>
      </trkpt>
      <trkpt lat="59.328263174742" lon="17.87400025699">
        <ele>9.8</ele>
        <time>2016-05-05T11:08:16Z</time>
      </trkpt>
      <trkpt lat="59.328202573605" lon="17.874212067603">
        <ele>9.4</ele>
        <time>2016-05-05T11:08:17Z</time>
      </trkpt>
      <trkpt lat="59.328137697699" lon="17.874418429981">
        <ele>9</ele>
        <time>2016-05-05T11:08:18Z</time>
      </trkpt>
      <trkpt lat="59.328073576164" lon="17.874636946114">
        <ele>8.4</ele>
        <time>2016-05-05T11:08:19Z</time>
      </trkpt>
      <trkpt lat="59.328014902864" lon="17.87484263794">
        <ele>7.8</ele>
        <time>2016-05-05T11:08:20Z</time>
      </trkpt>
      <trkpt lat="59.327955559012" lon="17.875043719721">
        <ele>7</ele>
        <time>2016-05-05T11:08:21Z</time>
      </trkpt>
      <trkpt lat="59.327899148825" lon="17.875243628036">
        <ele>6.4</ele>
        <time>2016-05-05T11:08:22Z</time>
      </trkpt>
      <trkpt lat="59.32784508557" lon="17.875436327917">
        <ele>5.8</ele>
        <time>2016-05-05T11:08:23Z</time>
      </trkpt>
      <trkpt lat="59.327677699027" lon="17.875998418131">
        <ele>5.8</ele>
        <time>2016-05-05T11:08:26Z</time>
      </trkpt>
      <trkpt lat="59.327365389433" lon="17.877084041819">
        <ele>5.8</ele>
        <time>2016-05-05T11:08:32Z</time>
      </trkpt>
      <trkpt lat="59.327302944278" lon="17.877247069774">
        <ele>5.8</ele>
        <time>2016-05-05T11:08:33Z</time>
      </trkpt>
      <trkpt lat="59.3272306923" lon="17.877403559847">
        <ele>5.8</ele>
        <time>2016-05-05T11:08:34Z</time>
      </trkpt>
      <trkpt lat="59.327076968254" lon="17.877674295217">
        <ele>5.8</ele>
        <time>2016-05-05T11:08:36Z</time>
      </trkpt>
      <trkpt lat="59.327002117887" lon="17.877768591592">
        <ele>5.8</ele>
        <time>2016-05-05T11:08:37Z</time>
      </trkpt>
      <trkpt lat="59.326732723621" lon="17.877996663091">
        <ele>5.4</ele>
        <time>2016-05-05T11:08:41Z</time>
      </trkpt>
      <trkpt lat="59.326664327317" lon="17.87802943632">
        <ele>5</ele>
        <time>2016-05-05T11:08:42Z</time>
      </trkpt>
      <trkpt lat="59.326595847194" lon="17.878066232861">
        <ele>4.6</ele>
        <time>2016-05-05T11:08:43Z</time>
      </trkpt>
      <trkpt lat="59.326529797822" lon="17.878114847881">
        <ele>4.2</ele>
        <time>2016-05-05T11:08:44Z</time>
      </trkpt>
      <trkpt lat="59.326469448142" lon="17.87816941405">
        <ele>3.8</ele>
        <time>2016-05-05T11:08:45Z</time>
      </trkpt>
      <trkpt lat="59.326419911113" lon="17.878230685739">
        <ele>3.8</ele>
        <time>2016-05-05T11:08:46Z</time>
      </trkpt>
      <trkpt lat="59.326377666337" lon="17.878404442526">
        <ele>3.8</ele>
        <time>2016-05-05T11:08:48Z</time>
      </trkpt>
      <trkpt lat="59.326387640798" lon="17.878570404146">
        <ele>3.8</ele>
        <time>2016-05-05T11:08:50Z</time>
      </trkpt>
      <trkpt lat="59.326390574463" lon="17.878693785714">
        <ele>3.8</ele>
        <time>2016-05-05T11:08:52Z</time>
      </trkpt>
      <trkpt lat="59.326393172852" lon="17.878732761549">
        <ele>3.8</ele>
        <time>2016-05-05T11:08:54Z</time>
      </trkpt>
      <trkpt lat="59.32640004601" lon="17.878796631627">
        <ele>3.8</ele>
        <time>2016-05-05T11:10:41Z</time>
      </trkpt>
      <trkpt lat="59.326406583892" lon="17.878826471191">
        <ele>3.8</ele>
        <time>2016-05-05T11:10:42Z</time>
      </trkpt>
      <trkpt lat="59.326437932198" lon="17.879093769982">
        <ele>3.8</ele>
        <time>2016-05-05T11:10:48Z</time>
      </trkpt>
      <trkpt lat="59.326475734567" lon="17.879544380926">
        <ele>3.8</ele>
        <time>2016-05-05T11:10:54Z</time>
      </trkpt>
      <trkpt lat="59.326478165318" lon="17.87979550265">
        <ele>3.8</ele>
        <time>2016-05-05T11:10:57Z</time>
      </trkpt>
      <trkpt lat="59.326473219997" lon="17.880081912173">
        <ele>3.8</ele>
        <time>2016-05-05T11:11:00Z</time>
      </trkpt>
      <trkpt lat="59.326465676287" lon="17.880280898479">
        <ele>3.8</ele>
        <time>2016-05-05T11:11:02Z</time>
      </trkpt>
      <trkpt lat="59.326444302442" lon="17.880493212006">
        <ele>3.8</ele>
        <time>2016-05-05T11:11:04Z</time>
      </trkpt>
      <trkpt lat="59.326429298841" lon="17.88060687057">
        <ele>3.8</ele>
        <time>2016-05-05T11:11:05Z</time>
      </trkpt>
      <trkpt lat="59.326297367735" lon="17.881323690658">
        <ele>3.8</ele>
        <time>2016-05-05T11:11:12Z</time>
      </trkpt>
      <trkpt lat="59.326273730777" lon="17.88142494401">
        <ele>3.4</ele>
        <time>2016-05-05T11:11:13Z</time>
      </trkpt>
      <trkpt lat="59.326248752715" lon="17.881525023896">
        <ele>3</ele>
        <time>2016-05-05T11:11:14Z</time>
      </trkpt>
      <trkpt lat="59.326223690834" lon="17.881622002479">
        <ele>2.6</ele>
        <time>2016-05-05T11:11:15Z</time>
      </trkpt>
      <trkpt lat="59.326198209858" lon="17.881716466492">
        <ele>2.2</ele>
        <time>2016-05-05T11:11:16Z</time>
      </trkpt>
      <trkpt lat="59.326172812701" lon="17.881808499754">
        <ele>1.8</ele>
        <time>2016-05-05T11:11:17Z</time>
      </trkpt>
      <trkpt lat="59.326120425826" lon="17.88198569312">
        <ele>1.8</ele>
        <time>2016-05-05T11:11:19Z</time>
      </trkpt>
      <trkpt lat="59.326018250465" lon="17.882340498947">
        <ele>1.8</ele>
        <time>2016-05-05T11:11:23Z</time>
      </trkpt>
      <trkpt lat="59.32596418721" lon="17.882531941543">
        <ele>1.8</ele>
        <time>2016-05-05T11:11:25Z</time>
      </trkpt>
      <trkpt lat="59.325782551437" lon="17.883158907663">
        <ele>2.2</ele>
        <time>2016-05-05T11:11:32Z</time>
      </trkpt>
      <trkpt lat="59.325759752669" lon="17.883239960636">
        <ele>2.6</ele>
        <time>2016-05-05T11:11:33Z</time>
      </trkpt>
      <trkpt lat="59.325735864254" lon="17.883322941446">
        <ele>3</ele>
        <time>2016-05-05T11:11:34Z</time>
      </trkpt>
      <trkpt lat="59.325710131821" lon="17.883410029387">
        <ele>3.4</ele>
        <time>2016-05-05T11:11:35Z</time>
      </trkpt>
      <trkpt lat="59.325684399388" lon="17.883490914722">
        <ele>3.8</ele>
        <time>2016-05-05T11:11:36Z</time>
      </trkpt>
      <trkpt lat="59.325613069419" lon="17.883748071414">
        <ele>3.8</ele>
        <time>2016-05-05T11:11:39Z</time>
      </trkpt>
      <trkpt lat="59.325586582615" lon="17.883831052224">
        <ele>3.8</ele>
        <time>2016-05-05T11:11:40Z</time>
      </trkpt>
      <trkpt lat="59.325513408628" lon="17.884072115668">
        <ele>3.8</ele>
        <time>2016-05-05T11:11:43Z</time>
      </trkpt>
      <trkpt lat="59.325489017299" lon="17.884151324623">
        <ele>3.8</ele>
        <time>2016-05-05T11:11:44Z</time>
      </trkpt>
      <trkpt lat="59.32543445113" lon="17.884329439998">
        <ele>4.6</ele>
        <time>2016-05-05T11:11:46Z</time>
      </trkpt>
      <trkpt lat="59.325405449756" lon="17.884417533767">
        <ele>5</ele>
        <time>2016-05-05T11:11:47Z</time>
      </trkpt>
      <trkpt lat="59.325374269088" lon="17.884504370251">
        <ele>5.4</ele>
        <time>2016-05-05T11:11:48Z</time>
      </trkpt>
      <trkpt lat="59.325346357361" lon="17.884595230047">
        <ele>5.8</ele>
        <time>2016-05-05T11:11:49Z</time>
      </trkpt>
      <trkpt lat="59.325310650467" lon="17.884687263309">
        <ele>5.8</ele>
        <time>2016-05-05T11:11:50Z</time>
      </trkpt>
      <trkpt lat="59.325212833694" lon="17.884954143005">
        <ele>5.8</ele>
        <time>2016-05-05T11:11:53Z</time>
      </trkpt>
      <trkpt lat="59.325171008013" lon="17.885048523199">
        <ele>5.8</ele>
        <time>2016-05-05T11:11:54Z</time>
      </trkpt>
      <trkpt lat="59.324945367265" lon="17.885462421421">
        <ele>5.8</ele>
        <time>2016-05-05T11:11:59Z</time>
      </trkpt>
      <trkpt lat="59.324713104816" lon="17.885944632128">
        <ele>5.8</ele>
        <time>2016-05-05T11:12:04Z</time>
      </trkpt>
      <trkpt lat="59.324542449332" lon="17.88649264075">
        <ele>5.8</ele>
        <time>2016-05-05T11:12:09Z</time>
      </trkpt>
      <trkpt lat="59.324366764708" lon="17.887315575692">
        <ele>5.8</ele>
        <time>2016-05-05T11:12:16Z</time>
      </trkpt>
      <trkpt lat="59.324268193564" lon="17.88778596792">
        <ele>5.8</ele>
        <time>2016-05-05T11:12:20Z</time>
      </trkpt>
      <trkpt lat="59.32422661934" lon="17.888030132667">
        <ele>5.8</ele>
        <time>2016-05-05T11:12:22Z</time>
      </trkpt>
      <trkpt lat="59.324142213607" lon="17.888378903526">
        <ele>5.8</ele>
        <time>2016-05-05T11:12:25Z</time>
      </trkpt>
      <trkpt lat="59.324124024884" lon="17.88849591485">
        <ele>5.4</ele>
        <time>2016-05-05T11:12:26Z</time>
      </trkpt>
      <trkpt lat="59.324106003799" lon="17.888609238138">
        <ele>5</ele>
        <time>2016-05-05T11:12:27Z</time>
      </trkpt>
      <trkpt lat="59.324085216687" lon="17.888723399616">
        <ele>4.6</ele>
        <time>2016-05-05T11:12:28Z</time>
      </trkpt>
      <trkpt lat="59.32406401048" lon="17.888833286325">
        <ele>4.2</ele>
        <time>2016-05-05T11:12:29Z</time>
      </trkpt>
      <trkpt lat="59.324044480653" lon="17.888947112527">
        <ele>3.8</ele>
        <time>2016-05-05T11:12:30Z</time>
      </trkpt>
      <trkpt lat="59.324003996076" lon="17.889164455194">
        <ele>3.8</ele>
        <time>2016-05-05T11:12:32Z</time>
      </trkpt>
      <trkpt lat="59.323976335806" lon="17.889386156449">
        <ele>3.8</ele>
        <time>2016-05-05T11:12:34Z</time>
      </trkpt>
      <trkpt lat="59.32396426587" lon="17.88958640004">
        <ele>3.8</ele>
        <time>2016-05-05T11:12:36Z</time>
      </trkpt>
      <trkpt lat="59.323953788495" lon="17.889676421646">
        <ele>3.8</ele>
        <time>2016-05-05T11:12:37Z</time>
      </trkpt>
      <trkpt lat="59.323916321402" lon="17.889902732946">
        <ele>3.8</ele>
        <time>2016-05-05T11:12:39Z</time>
      </trkpt>
      <trkpt lat="59.323887655304" lon="17.890014212216">
        <ele>3.8</ele>
        <time>2016-05-05T11:12:40Z</time>
      </trkpt>
      <trkpt lat="59.323759328415" lon="17.89042626642">
        <ele>3.4</ele>
        <time>2016-05-05T11:12:44Z</time>
      </trkpt>
      <trkpt lat="59.323724208254" lon="17.890541433726">
        <ele>3</ele>
        <time>2016-05-05T11:12:45Z</time>
      </trkpt>
      <trkpt lat="59.323692105577" lon="17.890658780326">
        <ele>2.4</ele>
        <time>2016-05-05T11:12:46Z</time>
      </trkpt>
      <trkpt lat="59.323667127515" lon="17.890787023396">
        <ele>2</ele>
        <time>2016-05-05T11:12:47Z</time>
      </trkpt>
      <trkpt lat="59.323647346231" lon="17.890929096601">
        <ele>1.6</ele>
        <time>2016-05-05T11:12:48Z</time>
      </trkpt>
      <trkpt lat="59.32363066625" lon="17.891084832303">
        <ele>1.2</ele>
        <time>2016-05-05T11:12:49Z</time>
      </trkpt>
      <trkpt lat="59.323621529979" lon="17.891242831118">
        <ele>0.6</ele>
        <time>2016-05-05T11:12:50Z</time>
      </trkpt>
      <trkpt lat="59.323615411192" lon="17.891387586531">
        <ele>0.2</ele>
        <time>2016-05-05T11:12:51Z</time>
      </trkpt>
      <trkpt lat="59.323614824459" lon="17.891528234813">
        <ele>0</ele>
        <time>2016-05-05T11:12:52Z</time>
      </trkpt>
      <trkpt lat="59.323614070088" lon="17.891666452344">
        <ele>0</ele>
        <time>2016-05-05T11:12:53Z</time>
      </trkpt>
      <trkpt lat="59.323614656821" lon="17.891802742038">
        <ele>0</ele>
        <time>2016-05-05T11:12:54Z</time>
      </trkpt>
      <trkpt lat="59.323675425596" lon="17.892501038127">
        <ele>0</ele>
        <time>2016-05-05T11:12:59Z</time>
      </trkpt>
      <trkpt lat="59.323766872125" lon="17.893245434666">
        <ele>0</ele>
        <time>2016-05-05T11:13:05Z</time>
      </trkpt>
      <trkpt lat="59.323810960919" lon="17.893609963497">
        <ele>0</ele>
        <time>2016-05-05T11:13:08Z</time>
      </trkpt>
      <trkpt lat="59.323852535143" lon="17.893969630826">
        <ele>0</ele>
        <time>2016-05-05T11:13:11Z</time>
      </trkpt>
      <trkpt lat="59.323944065491" lon="17.894661975766">
        <ele>0</ele>
        <time>2016-05-05T11:13:16Z</time>
      </trkpt>
      <trkpt lat="59.323974240331" lon="17.894967412202">
        <ele>0</ele>
        <time>2016-05-05T11:13:18Z</time>
      </trkpt>
      <trkpt lat="59.324016149831" lon="17.89526681367">
        <ele>0</ele>
        <time>2016-05-05T11:13:20Z</time>
      </trkpt>
      <trkpt lat="59.324052946372" lon="17.895575016133">
        <ele>0</ele>
        <time>2016-05-05T11:13:22Z</time>
      </trkpt>
      <trkpt lat="59.324125868902" lon="17.896145823523">
        <ele>0</ele>
        <time>2016-05-05T11:13:26Z</time>
      </trkpt>
      <trkpt lat="59.324268947935" lon="17.896899775428">
        <ele>0</ele>
        <time>2016-05-05T11:13:32Z</time>
      </trkpt>
      <trkpt lat="59.324461731635" lon="17.897627659624">
        <ele>0</ele>
        <time>2016-05-05T11:13:39Z</time>
      </trkpt>
      <trkpt lat="59.324566673023" lon="17.898044240054">
        <ele>0</ele>
        <time>2016-05-05T11:13:43Z</time>
      </trkpt>
      <trkpt lat="59.324594836207" lon="17.898152198926">
        <ele>0.2</ele>
        <time>2016-05-05T11:13:44Z</time>
      </trkpt>
      <trkpt lat="59.324621239192" lon="17.89825831378">
        <ele>0.6</ele>
        <time>2016-05-05T11:13:45Z</time>
      </trkpt>
      <trkpt lat="59.324648145091" lon="17.898362416978">
        <ele>1.2</ele>
        <time>2016-05-05T11:13:46Z</time>
      </trkpt>
      <trkpt lat="59.324675805361" lon="17.898468615651">
        <ele>1.6</ele>
        <time>2016-05-05T11:13:47Z</time>
      </trkpt>
      <trkpt lat="59.324937655917" lon="17.89940328132">
        <ele>1.6</ele>
        <time>2016-05-05T11:13:56Z</time>
      </trkpt>
      <trkpt lat="59.325137480413" lon="17.900101661228">
        <ele>1.6</ele>
        <time>2016-05-05T11:14:03Z</time>
      </trkpt>
      <trkpt lat="59.325327498086" lon="17.900521929694">
        <ele>1.6</ele>
        <time>2016-05-05T11:14:08Z</time>
      </trkpt>
      <trkpt lat="59.325409221611" lon="17.900929038577">
        <ele>1.6</ele>
        <time>2016-05-05T11:14:12Z</time>
      </trkpt>
      <trkpt lat="59.325416262407" lon="17.901026603893">
        <ele>1.6</ele>
        <time>2016-05-05T11:14:13Z</time>
      </trkpt>
      <trkpt lat="59.325441743383" lon="17.901254507754">
        <ele>1.6</ele>
        <time>2016-05-05T11:14:17Z</time>
      </trkpt>
      <trkpt lat="59.325437133338" lon="17.901304882973">
        <ele>1.6</ele>
        <time>2016-05-05T11:14:18Z</time>
      </trkpt>
      <trkpt lat="59.325401174987" lon="17.90139482076">
        <ele>1.6</ele>
        <time>2016-05-05T11:14:20Z</time>
      </trkpt>
      <trkpt lat="59.325266226397" lon="17.901679134808">
        <ele>1.6</ele>
        <time>2016-05-05T11:14:25Z</time>
      </trkpt>
      <trkpt lat="59.325127003038" lon="17.901934866577">
        <ele>1.6</ele>
        <time>2016-05-05T11:14:29Z</time>
      </trkpt>
      <trkpt lat="59.325059193467" lon="17.902094960867">
        <ele>1.6</ele>
        <time>2016-05-05T11:14:31Z</time>
      </trkpt>
      <trkpt lat="59.324871941821" lon="17.902570885149">
        <ele>1.6</ele>
        <time>2016-05-05T11:14:37Z</time>
      </trkpt>
      <trkpt lat="59.324828188303" lon="17.902740870081">
        <ele>1.6</ele>
        <time>2016-05-05T11:14:39Z</time>
      </trkpt>
      <trkpt lat="59.324785356794" lon="17.903021831369">
        <ele>1.6</ele>
        <time>2016-05-05T11:14:42Z</time>
      </trkpt>
      <trkpt lat="59.324754511402" lon="17.90331343767">
        <ele>1.6</ele>
        <time>2016-05-05T11:14:45Z</time>
      </trkpt>
      <trkpt lat="59.324756523058" lon="17.903631363137">
        <ele>1.6</ele>
        <time>2016-05-05T11:14:48Z</time>
      </trkpt>
      <trkpt lat="59.32476557551" lon="17.903733622317">
        <ele>1.6</ele>
        <time>2016-05-05T11:14:49Z</time>
      </trkpt>
      <trkpt lat="59.324824584086" lon="17.90412564378">
        <ele>1.6</ele>
        <time>2016-05-05T11:14:53Z</time>
      </trkpt>
      <trkpt lat="59.324946540731" lon="17.904822012032">
        <ele>1.6</ele>
        <time>2016-05-05T11:15:00Z</time>
      </trkpt>
      <trkpt lat="59.325043351676" lon="17.905448978152">
        <ele>1.6</ele>
        <time>2016-05-05T11:15:07Z</time>
      </trkpt>
      <trkpt lat="59.325116106568" lon="17.905882657658">
        <ele>1.6</ele>
        <time>2016-05-05T11:15:13Z</time>
      </trkpt>
      <trkpt lat="59.325140414078" lon="17.905922136407">
        <ele>1.6</ele>
        <time>2016-05-05T11:15:14Z</time>
      </trkpt>
      <trkpt lat="59.325189196736" lon="17.905925572986">
        <ele>1.6</ele>
        <time>2016-05-05T11:15:16Z</time>
      </trkpt>
      <trkpt lat="59.325103114623" lon="17.905694567822">
        <ele>0</ele>
        <time>2016-05-05T12:19:16Z</time>
      </trkpt>
      <trkpt lat="59.325106635021" lon="17.905624076043">
        <ele>0</ele>
        <time>2016-05-05T12:19:17Z</time>
      </trkpt>
      <trkpt lat="59.32510252789" lon="17.90555894868">
        <ele>0</ele>
        <time>2016-05-05T12:19:18Z</time>
      </trkpt>
      <trkpt lat="59.325081070226" lon="17.905427269031">
        <ele>0</ele>
        <time>2016-05-05T12:19:20Z</time>
      </trkpt>
      <trkpt lat="59.325071598679" lon="17.905368344274">
        <ele>0</ele>
        <time>2016-05-05T12:19:21Z</time>
      </trkpt>
      <trkpt lat="59.325058020001" lon="17.905299780332">
        <ele>0</ele>
        <time>2016-05-05T12:19:22Z</time>
      </trkpt>
      <trkpt lat="59.32504385459" lon="17.905238089548">
        <ele>0</ele>
        <time>2016-05-05T12:19:23Z</time>
      </trkpt>
      <trkpt lat="59.325029186265" lon="17.905166005208">
        <ele>0</ele>
        <time>2016-05-05T12:19:24Z</time>
      </trkpt>
      <trkpt lat="59.325014434121" lon="17.905079252543">
        <ele>0</ele>
        <time>2016-05-05T12:19:25Z</time>
      </trkpt>
      <trkpt lat="59.324999681977" lon="17.904994260077">
        <ele>0</ele>
        <time>2016-05-05T12:19:26Z</time>
      </trkpt>
      <trkpt lat="59.324989036964" lon="17.904914632027">
        <ele>0</ele>
        <time>2016-05-05T12:19:27Z</time>
      </trkpt>
      <trkpt lat="59.3249759612" lon="17.904840200755">
        <ele>0</ele>
        <time>2016-05-05T12:19:28Z</time>
      </trkpt>
      <trkpt lat="59.324946540731" lon="17.904680609379">
        <ele>0</ele>
        <time>2016-05-05T12:19:30Z</time>
      </trkpt>
      <trkpt lat="59.324928352008" lon="17.90458329552">
        <ele>0</ele>
        <time>2016-05-05T12:19:31Z</time>
      </trkpt>
      <trkpt lat="59.324917706995" lon="17.904488244774">
        <ele>0</ele>
        <time>2016-05-05T12:19:32Z</time>
      </trkpt>
      <trkpt lat="59.324909408914" lon="17.9044005701">
        <ele>0</ele>
        <time>2016-05-05T12:19:33Z</time>
      </trkpt>
      <trkpt lat="59.324904882688" lon="17.904315242358">
        <ele>0</ele>
        <time>2016-05-05T12:19:34Z</time>
      </trkpt>
      <trkpt lat="59.324892226019" lon="17.904227567684">
        <ele>0</ele>
        <time>2016-05-05T12:19:35Z</time>
      </trkpt>
      <trkpt lat="59.324852998727" lon="17.903971752096">
        <ele>0</ele>
        <time>2016-05-05T12:19:38Z</time>
      </trkpt>
      <trkpt lat="59.324837995126" lon="17.903884412698">
        <ele>0</ele>
        <time>2016-05-05T12:19:39Z</time>
      </trkpt>
      <trkpt lat="59.324822069516" lon="17.903805622838">
        <ele>0</ele>
        <time>2016-05-05T12:19:40Z</time>
      </trkpt>
      <trkpt lat="59.324822153335" lon="17.903735214878">
        <ele>0</ele>
        <time>2016-05-05T12:19:41Z</time>
      </trkpt>
      <trkpt lat="59.32481083777" lon="17.903628513291">
        <ele>0</ele>
        <time>2016-05-05T12:19:42Z</time>
      </trkpt>
      <trkpt lat="59.324804718983" lon="17.903535474201">
        <ele>0</ele>
        <time>2016-05-05T12:19:43Z</time>
      </trkpt>
      <trkpt lat="59.324802958784" lon="17.903441261645">
        <ele>0</ele>
        <time>2016-05-05T12:19:44Z</time>
      </trkpt>
      <trkpt lat="59.324796756178" lon="17.903351407677">
        <ele>0</ele>
        <time>2016-05-05T12:19:45Z</time>
      </trkpt>
      <trkpt lat="59.324795666531" lon="17.90326733722">
        <ele>0</ele>
        <time>2016-05-05T12:19:46Z</time>
      </trkpt>
      <trkpt lat="59.324796923816" lon="17.90316926899">
        <ele>0</ele>
        <time>2016-05-05T12:19:47Z</time>
      </trkpt>
      <trkpt lat="59.32480748501" lon="17.903064159964">
        <ele>0</ele>
        <time>2016-05-05T12:19:48Z</time>
      </trkpt>
      <trkpt lat="59.324851657623" lon="17.9027158082">
        <ele>0</ele>
        <time>2016-05-05T12:19:52Z</time>
      </trkpt>
      <trkpt lat="59.324869343432" lon="17.90263618015">
        <ele>0</ele>
        <time>2016-05-05T12:19:53Z</time>
      </trkpt>
      <trkpt lat="59.324897590435" lon="17.902553702254">
        <ele>0.2</ele>
        <time>2016-05-05T12:19:54Z</time>
      </trkpt>
      <trkpt lat="59.324922233221" lon="17.902466530494">
        <ele>0.6</ele>
        <time>2016-05-05T12:19:55Z</time>
      </trkpt>
      <trkpt lat="59.32495584464" lon="17.902373156128">
        <ele>1</ele>
        <time>2016-05-05T12:19:56Z</time>
      </trkpt>
      <trkpt lat="59.325051063024" lon="17.90215338271">
        <ele>1</ele>
        <time>2016-05-05T12:19:59Z</time>
      </trkpt>
      <trkpt lat="59.325207888373" lon="17.901842078944">
        <ele>1</ele>
        <time>2016-05-05T12:20:04Z</time>
      </trkpt>
      <trkpt lat="59.325247115665" lon="17.90179296101">
        <ele>1</ele>
        <time>2016-05-05T12:20:05Z</time>
      </trkpt>
      <trkpt lat="59.325311069562" lon="17.901739903583">
        <ele>3.2</ele>
        <time>2016-05-05T12:20:07Z</time>
      </trkpt>
      <trkpt lat="59.325342920782" lon="17.901679050989">
        <ele>3.2</ele>
        <time>2016-05-05T12:20:09Z</time>
      </trkpt>
      <trkpt lat="59.325425063402" lon="17.901594477618">
        <ele>3.2</ele>
        <time>2016-05-05T12:20:14Z</time>
      </trkpt>
      <trkpt lat="59.325446269609" lon="17.901608223934">
        <ele>3.2</ele>
        <time>2016-05-05T12:20:17Z</time>
      </trkpt>
      <trkpt lat="59.325474516612" lon="17.901569331918">
        <ele>3.2</ele>
        <time>2016-05-05T12:20:42Z</time>
      </trkpt>
      <trkpt lat="59.32554090126" lon="17.901588526469">
        <ele>3.2</ele>
        <time>2016-05-05T12:20:46Z</time>
      </trkpt>
      <trkpt lat="59.325558419431" lon="17.901656000764">
        <ele>3.2</ele>
        <time>2016-05-05T12:20:48Z</time>
      </trkpt>
      <trkpt lat="59.325590605927" lon="17.90179631377">
        <ele>3.2</ele>
        <time>2016-05-05T12:20:50Z</time>
      </trkpt>
      <trkpt lat="59.325697558971" lon="17.902212307467">
        <ele>3.2</ele>
        <time>2016-05-05T12:20:55Z</time>
      </trkpt>
      <trkpt lat="59.325843906945" lon="17.902727961955">
        <ele>3.2</ele>
        <time>2016-05-05T12:21:00Z</time>
      </trkpt>
      <trkpt lat="59.325923786452" lon="17.902990818339">
        <ele>3.2</ele>
        <time>2016-05-05T12:21:03Z</time>
      </trkpt>
      <trkpt lat="59.325968545798" lon="17.903144877661">
        <ele>3.2</ele>
        <time>2016-05-05T12:21:05Z</time>
      </trkpt>
      <trkpt lat="59.32608069562" lon="17.903535474201">
        <ele>3.2</ele>
        <time>2016-05-05T12:21:10Z</time>
      </trkpt>
      <trkpt lat="59.326098213791" lon="17.903617952097">
        <ele>3.2</ele>
        <time>2016-05-05T12:21:11Z</time>
      </trkpt>
      <trkpt lat="59.326161413317" lon="17.903925819284">
        <ele>3.2</ele>
        <time>2016-05-05T12:21:15Z</time>
      </trkpt>
      <trkpt lat="59.326181026963" lon="17.904015924709">
        <ele>3.2</ele>
        <time>2016-05-05T12:21:16Z</time>
      </trkpt>
      <trkpt lat="59.326298876477" lon="17.90444080322">
        <ele>3.2</ele>
        <time>2016-05-05T12:21:22Z</time>
      </trkpt>
      <trkpt lat="59.326426448995" lon="17.904897700589">
        <ele>3.2</ele>
        <time>2016-05-05T12:21:28Z</time>
      </trkpt>
      <trkpt lat="59.326468274676" lon="17.905069361901">
        <ele>3.6</ele>
        <time>2016-05-05T12:21:30Z</time>
      </trkpt>
      <trkpt lat="59.326488810331" lon="17.905151839797">
        <ele>4</ele>
        <time>2016-05-05T12:21:31Z</time>
      </trkpt>
      <trkpt lat="59.326507082873" lon="17.90522115811">
        <ele>4.6</ele>
        <time>2016-05-05T12:21:32Z</time>
      </trkpt>
      <trkpt lat="59.326523846673" lon="17.905288967681">
        <ele>5</ele>
        <time>2016-05-05T12:21:33Z</time>
      </trkpt>
      <trkpt lat="59.326545639613" lon="17.905362057849">
        <ele>5.4</ele>
        <time>2016-05-05T12:21:34Z</time>
      </trkpt>
      <trkpt lat="59.326703303152" lon="17.905925489167">
        <ele>5.4</ele>
        <time>2016-05-05T12:21:41Z</time>
      </trkpt>
      <trkpt lat="59.326745464109" lon="17.906081895421">
        <ele>5.8</ele>
        <time>2016-05-05T12:21:43Z</time>
      </trkpt>
      <trkpt lat="59.32676298228" lon="17.90616328367">
        <ele>6.2</ele>
        <time>2016-05-05T12:21:44Z</time>
      </trkpt>
      <trkpt lat="59.326789301446" lon="17.906248359955">
        <ele>6.6</ele>
        <time>2016-05-05T12:21:45Z</time>
      </trkpt>
      <trkpt lat="59.326812770766" lon="17.906326563082">
        <ele>7.2</ele>
        <time>2016-05-05T12:21:46Z</time>
      </trkpt>
      <trkpt lat="59.32683590481" lon="17.906413148109">
        <ele>7.6</ele>
        <time>2016-05-05T12:21:47Z</time>
      </trkpt>
      <trkpt lat="59.326918717982" lon="17.906726714988">
        <ele>7.6</ele>
        <time>2016-05-05T12:21:51Z</time>
      </trkpt>
      <trkpt lat="59.326981582232" lon="17.906965850595">
        <ele>8</ele>
        <time>2016-05-05T12:21:54Z</time>
      </trkpt>
      <trkpt lat="59.327005638285" lon="17.907037432021">
        <ele>8.4</ele>
        <time>2016-05-05T12:21:55Z</time>
      </trkpt>
      <trkpt lat="59.327027515044" lon="17.907121502478">
        <ele>8.8</ele>
        <time>2016-05-05T12:21:56Z</time>
      </trkpt>
      <trkpt lat="59.327048134518" lon="17.90719761013">
        <ele>9.2</ele>
        <time>2016-05-05T12:21:57Z</time>
      </trkpt>
      <trkpt lat="59.327067748164" lon="17.907272795773">
        <ele>9.6</ele>
        <time>2016-05-05T12:21:58Z</time>
      </trkpt>
      <trkpt lat="59.32714771149" lon="17.907584770091">
        <ele>9.6</ele>
        <time>2016-05-05T12:22:02Z</time>
      </trkpt>
      <trkpt lat="59.327205462781" lon="17.907794149953">
        <ele>10</ele>
        <time>2016-05-05T12:22:05Z</time>
      </trkpt>
      <trkpt lat="59.327224070599" lon="17.907861205153">
        <ele>10.4</ele>
        <time>2016-05-05T12:22:06Z</time>
      </trkpt>
      <trkpt lat="59.327244187159" lon="17.907927757439">
        <ele>10.8</ele>
        <time>2016-05-05T12:22:07Z</time>
      </trkpt>
      <trkpt lat="59.327260531864" lon="17.908010151516">
        <ele>11.8</ele>
        <time>2016-05-05T12:22:08Z</time>
      </trkpt>
      <trkpt lat="59.327374944799" lon="17.908447686696">
        <ele>11.8</ele>
        <time>2016-05-05T12:22:14Z</time>
      </trkpt>
      <trkpt lat="59.327457757971" lon="17.908755637702">
        <ele>12.2</ele>
        <time>2016-05-05T12:22:18Z</time>
      </trkpt>
      <trkpt lat="59.327475946694" lon="17.908833673191">
        <ele>12.6</ele>
        <time>2016-05-05T12:22:19Z</time>
      </trkpt>
      <trkpt lat="59.327501762946" lon="17.908906930997">
        <ele>13</ele>
        <time>2016-05-05T12:22:20Z</time>
      </trkpt>
      <trkpt lat="59.327517856194" lon="17.908975746396">
        <ele>13.4</ele>
        <time>2016-05-05T12:22:21Z</time>
      </trkpt>
      <trkpt lat="59.327534452356" lon="17.909046489632">
        <ele>13.8</ele>
        <time>2016-05-05T12:22:22Z</time>
      </trkpt>
      <trkpt lat="59.327610811465" lon="17.909331222775">
        <ele>13.8</ele>
        <time>2016-05-05T12:22:26Z</time>
      </trkpt>
      <trkpt lat="59.327777359818" lon="17.909940000172">
        <ele>13.8</ele>
        <time>2016-05-05T12:22:34Z</time>
      </trkpt>
      <trkpt lat="59.327836955127" lon="17.91014300979">
        <ele>14.2</ele>
        <time>2016-05-05T12:22:37Z</time>
      </trkpt>
      <trkpt lat="59.327857742239" lon="17.910224649496">
        <ele>14.6</ele>
        <time>2016-05-05T12:22:38Z</time>
      </trkpt>
      <trkpt lat="59.32787945136" lon="17.91030561865">
        <ele>15</ele>
        <time>2016-05-05T12:22:39Z</time>
      </trkpt>
      <trkpt lat="59.327898310635" lon="17.910374936963">
        <ele>15.4</ele>
        <time>2016-05-05T12:22:40Z</time>
      </trkpt>
      <trkpt lat="59.32792052267" lon="17.910460516162">
        <ele>16</ele>
        <time>2016-05-05T12:22:41Z</time>
      </trkpt>
      <trkpt lat="59.327968131862" lon="17.910621951556">
        <ele>16</ele>
        <time>2016-05-05T12:22:43Z</time>
      </trkpt>
      <trkpt lat="59.32811833551" lon="17.911196027887">
        <ele>16</ele>
        <time>2016-05-05T12:22:50Z</time>
      </trkpt>
      <trkpt lat="59.328186899452" lon="17.91144220429">
        <ele>16</ele>
        <time>2016-05-05T12:22:53Z</time>
      </trkpt>
      <trkpt lat="59.328259738163" lon="17.911704054846">
        <ele>16</ele>
        <time>2016-05-05T12:22:56Z</time>
      </trkpt>
      <trkpt lat="59.328279854723" lon="17.911794327909">
        <ele>16</ele>
        <time>2016-05-05T12:22:57Z</time>
      </trkpt>
      <trkpt lat="59.328329056476" lon="17.911958361692">
        <ele>16.4</ele>
        <time>2016-05-05T12:22:59Z</time>
      </trkpt>
      <trkpt lat="59.328355124185" lon="17.912052741886">
        <ele>16.8</ele>
        <time>2016-05-05T12:23:00Z</time>
      </trkpt>
      <trkpt lat="59.328381443351" lon="17.912142512035">
        <ele>17.2</ele>
        <time>2016-05-05T12:23:01Z</time>
      </trkpt>
      <trkpt lat="59.32840164373" lon="17.912231276356">
        <ele>17.6</ele>
        <time>2016-05-05T12:23:02Z</time>
      </trkpt>
      <trkpt lat="59.328423604308" lon="17.912313670433">
        <ele>18</ele>
        <time>2016-05-05T12:23:03Z</time>
      </trkpt>
      <trkpt lat="59.328561067468" lon="17.912806023239">
        <ele>18</ele>
        <time>2016-05-05T12:23:09Z</time>
      </trkpt>
      <trkpt lat="59.328747229467" lon="17.91348990246">
        <ele>18</ele>
        <time>2016-05-05T12:23:17Z</time>
      </trkpt>
      <trkpt lat="59.3289657456" lon="17.91430881409">
        <ele>18</ele>
        <time>2016-05-05T12:23:26Z</time>
      </trkpt>
      <trkpt lat="59.329139167111" lon="17.914937037495">
        <ele>18</ele>
        <time>2016-05-05T12:23:33Z</time>
      </trkpt>
      <trkpt lat="59.329333124277" lon="17.915565093262">
        <ele>18</ele>
        <time>2016-05-05T12:23:40Z</time>
      </trkpt>
      <trkpt lat="59.32950553996" lon="17.915977901837">
        <ele>18</ele>
        <time>2016-05-05T12:23:46Z</time>
      </trkpt>
      <trkpt lat="59.329581312336" lon="17.916041101363">
        <ele>18</ele>
        <time>2016-05-05T12:23:48Z</time>
      </trkpt>
      <trkpt lat="59.329633447754" lon="17.916152245357">
        <ele>18</ele>
        <time>2016-05-05T12:23:50Z</time>
      </trkpt>
      <trkpt lat="59.329664712241" lon="17.91629867715">
        <ele>18</ele>
        <time>2016-05-05T12:23:52Z</time>
      </trkpt>
      <trkpt lat="59.329732605631" lon="17.916472517756">
        <ele>18</ele>
        <time>2016-05-05T12:23:54Z</time>
      </trkpt>
      <trkpt lat="59.329775856235" lon="17.916563796647">
        <ele>18</ele>
        <time>2016-05-05T12:23:55Z</time>
      </trkpt>
      <trkpt lat="59.329835954458" lon="17.916747444076">
        <ele>18</ele>
        <time>2016-05-05T12:23:57Z</time>
      </trkpt>
      <trkpt lat="59.329865794022" lon="17.91683428056">
        <ele>18</ele>
        <time>2016-05-05T12:23:58Z</time>
      </trkpt>
      <trkpt lat="59.329929999376" lon="17.916996470325">
        <ele>18.4</ele>
        <time>2016-05-05T12:24:00Z</time>
      </trkpt>
      <trkpt lat="59.329958581655" lon="17.917081714248">
        <ele>18.8</ele>
        <time>2016-05-05T12:24:01Z</time>
      </trkpt>
      <trkpt lat="59.329997976585" lon="17.917175926804">
        <ele>19.2</ele>
        <time>2016-05-05T12:24:02Z</time>
      </trkpt>
      <trkpt lat="59.330035192221" lon="17.917262763288">
        <ele>19.6</ele>
        <time>2016-05-05T12:24:03Z</time>
      </trkpt>
      <trkpt lat="59.330074587151" lon="17.917352868713">
        <ele>20</ele>
        <time>2016-05-05T12:24:04Z</time>
      </trkpt>
      <trkpt lat="59.330336353888" lon="17.91789626729">
        <ele>20</ele>
        <time>2016-05-05T12:24:10Z</time>
      </trkpt>
      <trkpt lat="59.330466440976" lon="17.918137330734">
        <ele>20</ele>
        <time>2016-05-05T12:24:13Z</time>
      </trkpt>
      <trkpt lat="59.330571801459" lon="17.918305639286">
        <ele>20</ele>
        <time>2016-05-05T12:24:15Z</time>
      </trkpt>
      <trkpt lat="59.330684957109" lon="17.918422315334">
        <ele>19.4</ele>
        <time>2016-05-05T12:24:17Z</time>
      </trkpt>
      <trkpt lat="59.330738601269" lon="17.918492807113">
        <ele>19</ele>
        <time>2016-05-05T12:24:18Z</time>
      </trkpt>
      <trkpt lat="59.330790904325" lon="17.918545948359">
        <ele>18.6</ele>
        <time>2016-05-05T12:24:19Z</time>
      </trkpt>
      <trkpt lat="59.330835831309" lon="17.918596742673">
        <ele>18</ele>
        <time>2016-05-05T12:24:20Z</time>
      </trkpt>
      <trkpt lat="59.330873130764" lon="17.918641502019">
        <ele>17.6</ele>
        <time>2016-05-05T12:24:21Z</time>
      </trkpt>
      <trkpt lat="59.330929373313" lon="17.918715681834">
        <ele>17.6</ele>
        <time>2016-05-05T12:24:23Z</time>
      </trkpt>
      <trkpt lat="59.33105702965" lon="17.918893210476">
        <ele>17.6</ele>
        <time>2016-05-05T12:24:28Z</time>
      </trkpt>
      <trkpt lat="59.33109307182" lon="17.919046599246">
        <ele>17.6</ele>
        <time>2016-05-05T12:24:30Z</time>
      </trkpt>
      <trkpt lat="59.331049737397" lon="17.91912253926">
        <ele>17.2</ele>
        <time>2016-05-05T12:24:31Z</time>
      </trkpt>
      <trkpt lat="59.331000954739" lon="17.919189259184">
        <ele>16.8</ele>
        <time>2016-05-05T12:24:32Z</time>
      </trkpt>
      <trkpt lat="59.330957201221" lon="17.91925664966">
        <ele>16.4</ele>
        <time>2016-05-05T12:24:33Z</time>
      </trkpt>
      <trkpt lat="59.330923673621" lon="17.919331416208">
        <ele>15.8</ele>
        <time>2016-05-05T12:24:34Z</time>
      </trkpt>
      <trkpt lat="59.330913363884" lon="17.919440380908">
        <ele>15.2</ele>
        <time>2016-05-05T12:24:35Z</time>
      </trkpt>
      <trkpt lat="59.330940856516" lon="17.919517242931">
        <ele>14.6</ele>
        <time>2016-05-05T12:24:36Z</time>
      </trkpt>
      <trkpt lat="59.330977485419" lon="17.919604247053">
        <ele>13.4</ele>
        <time>2016-05-05T12:24:37Z</time>
      </trkpt>
      <trkpt lat="59.331054850356" lon="17.919777584745">
        <ele>13.4</ele>
        <time>2016-05-05T12:24:39Z</time>
      </trkpt>
      <trkpt lat="59.33120958023" lon="17.920164493249">
        <ele>13.4</ele>
        <time>2016-05-05T12:24:43Z</time>
      </trkpt>
      <trkpt lat="59.331333045617" lon="17.920465152002">
        <ele>13</ele>
        <time>2016-05-05T12:24:46Z</time>
      </trkpt>
      <trkpt lat="59.331377721144" lon="17.920566908268">
        <ele>12.6</ele>
        <time>2016-05-05T12:24:47Z</time>
      </trkpt>
      <trkpt lat="59.331418624816" lon="17.92067151438">
        <ele>12</ele>
        <time>2016-05-05T12:24:48Z</time>
      </trkpt>
      <trkpt lat="59.331466150189" lon="17.920774025017">
        <ele>11.6</ele>
        <time>2016-05-05T12:24:49Z</time>
      </trkpt>
      <trkpt lat="59.331513256467" lon="17.920886426296">
        <ele>11.2</ele>
        <time>2016-05-05T12:24:50Z</time>
      </trkpt>
      <trkpt lat="59.331562290582" lon="17.920993211702">
        <ele>11.2</ele>
        <time>2016-05-05T12:24:51Z</time>
      </trkpt>
      <trkpt lat="59.331892202166" lon="17.921751270738">
        <ele>11.2</ele>
        <time>2016-05-05T12:24:58Z</time>
      </trkpt>
      <trkpt lat="59.332227478166" lon="17.922487369196">
        <ele>11.2</ele>
        <time>2016-05-05T12:25:05Z</time>
      </trkpt>
      <trkpt lat="59.332298724316" lon="17.922736060169">
        <ele>11.2</ele>
        <time>2016-05-05T12:25:07Z</time>
      </trkpt>
      <trkpt lat="59.332347423155" lon="17.92282733906">
        <ele>11.2</ele>
        <time>2016-05-05T12:25:08Z</time>
      </trkpt>
      <trkpt lat="59.332654033057" lon="17.923502584924">
        <ele>11.2</ele>
        <time>2016-05-05T12:25:14Z</time>
      </trkpt>
      <trkpt lat="59.332810355492" lon="17.923841632779">
        <ele>10.8</ele>
        <time>2016-05-05T12:25:17Z</time>
      </trkpt>
      <trkpt lat="59.332861736539" lon="17.923958141189">
        <ele>10.4</ele>
        <time>2016-05-05T12:25:18Z</time>
      </trkpt>
      <trkpt lat="59.332910351559" lon="17.924064758957">
        <ele>10</ele>
        <time>2016-05-05T12:25:19Z</time>
      </trkpt>
      <trkpt lat="59.332961229692" lon="17.924167185775">
        <ele>9.6</ele>
        <time>2016-05-05T12:25:20Z</time>
      </trkpt>
      <trkpt lat="59.33301085054" lon="17.924266259833">
        <ele>9.2</ele>
        <time>2016-05-05T12:25:21Z</time>
      </trkpt>
      <trkpt lat="59.333059046465" lon="17.92436374133">
        <ele>9.2</ele>
        <time>2016-05-05T12:25:22Z</time>
      </trkpt>
      <trkpt lat="59.333321399935" lon="17.924900099111">
        <ele>9.2</ele>
        <time>2016-05-05T12:25:28Z</time>
      </trkpt>
      <trkpt lat="59.333588028174" lon="17.925504937015">
        <ele>9.2</ele>
        <time>2016-05-05T12:25:34Z</time>
      </trkpt>
      <trkpt lat="59.333921292518" lon="17.926226534786">
        <ele>9.2</ele>
        <time>2016-05-05T12:25:41Z</time>
      </trkpt>
      <trkpt lat="59.334238966528" lon="17.926954754258">
        <ele>9.2</ele>
        <time>2016-05-05T12:25:48Z</time>
      </trkpt>
      <trkpt lat="59.334360001164" lon="17.927262369988">
        <ele>8.2</ele>
        <time>2016-05-05T12:25:51Z</time>
      </trkpt>
      <trkpt lat="59.334402748854" lon="17.927368401023">
        <ele>7.8</ele>
        <time>2016-05-05T12:25:52Z</time>
      </trkpt>
      <trkpt lat="59.334445580363" lon="17.927473593868">
        <ele>7.2</ele>
        <time>2016-05-05T12:25:53Z</time>
      </trkpt>
      <trkpt lat="59.334493943926" lon="17.927580295455">
        <ele>6.8</ele>
        <time>2016-05-05T12:25:54Z</time>
      </trkpt>
      <trkpt lat="59.334776162499" lon="17.928195443096">
        <ele>6.8</ele>
        <time>2016-05-05T12:26:00Z</time>
      </trkpt>
      <trkpt lat="59.335054693036" lon="17.928789719806">
        <ele>6.8</ele>
        <time>2016-05-05T12:26:06Z</time>
      </trkpt>
      <trkpt lat="59.335221660484" lon="17.929156092655">
        <ele>6.8</ele>
        <time>2016-05-05T12:26:10Z</time>
      </trkpt>
      <trkpt lat="59.335259630491" lon="17.929258184197">
        <ele>6.8</ele>
        <time>2016-05-05T12:26:11Z</time>
      </trkpt>
      <trkpt lat="59.335498766098" lon="17.929779622196">
        <ele>6.8</ele>
        <time>2016-05-05T12:26:17Z</time>
      </trkpt>
      <trkpt lat="59.335599516536" lon="17.929954636268">
        <ele>6.8</ele>
        <time>2016-05-05T12:26:21Z</time>
      </trkpt>
      <trkpt lat="59.335620303648" lon="17.929980536339">
        <ele>6.8</ele>
        <time>2016-05-05T12:26:24Z</time>
      </trkpt>
      <trkpt lat="59.335620471286" lon="17.929980871615">
        <ele>6.8</ele>
        <time>2016-05-05T12:26:25Z</time>
      </trkpt>
      <trkpt lat="59.335700686069" lon="17.930194442427">
        <ele>6.8</ele>
        <time>2016-05-05T12:26:30Z</time>
      </trkpt>
      <trkpt lat="59.335842507817" lon="17.93056550914">
        <ele>6.8</ele>
        <time>2016-05-05T12:26:36Z</time>
      </trkpt>
      <trkpt lat="59.335952310707" lon="17.930863820961">
        <ele>6.8</ele>
        <time>2016-05-05T12:26:40Z</time>
      </trkpt>
      <trkpt lat="59.335989693981" lon="17.93094185645">
        <ele>6.8</ele>
        <time>2016-05-05T12:26:41Z</time>
      </trkpt>
      <trkpt lat="59.336159511275" lon="17.93130311634">
        <ele>6.4</ele>
        <time>2016-05-05T12:26:45Z</time>
      </trkpt>
      <trkpt lat="59.336203432431" lon="17.931396825982">
        <ele>6</ele>
        <time>2016-05-05T12:26:46Z</time>
      </trkpt>
      <trkpt lat="59.336249532881" lon="17.931501264456">
        <ele>5.6</ele>
        <time>2016-05-05T12:26:47Z</time>
      </trkpt>
      <trkpt lat="59.336296471521" lon="17.931615845029">
        <ele>5.2</ele>
        <time>2016-05-05T12:26:48Z</time>
      </trkpt>
      <trkpt lat="59.336340057401" lon="17.931715422001">
        <ele>4.6</ele>
        <time>2016-05-05T12:26:49Z</time>
      </trkpt>
      <trkpt lat="59.336626466924" lon="17.932380274309">
        <ele>4.6</ele>
        <time>2016-05-05T12:26:55Z</time>
      </trkpt>
      <trkpt lat="59.336672651193" lon="17.932487897905">
        <ele>4.2</ele>
        <time>2016-05-05T12:26:56Z</time>
      </trkpt>
      <trkpt lat="59.336718751643" lon="17.932596527329">
        <ele>3.8</ele>
        <time>2016-05-05T12:26:57Z</time>
      </trkpt>
      <trkpt lat="59.33676677993" lon="17.932708090418">
        <ele>3.2</ele>
        <time>2016-05-05T12:26:58Z</time>
      </trkpt>
      <trkpt lat="59.336811120181" lon="17.932814205272">
        <ele>2.8</ele>
        <time>2016-05-05T12:26:59Z</time>
      </trkpt>
      <trkpt lat="59.336857388269" lon="17.932924008162">
        <ele>2.2</ele>
        <time>2016-05-05T12:27:00Z</time>
      </trkpt>
      <trkpt lat="59.33695537268" lon="17.933134142395">
        <ele>2.2</ele>
        <time>2016-05-05T12:27:02Z</time>
      </trkpt>
      <trkpt lat="59.337234909045" lon="17.933750463502">
        <ele>2.2</ele>
        <time>2016-05-05T12:27:08Z</time>
      </trkpt>
      <trkpt lat="59.337324595375" lon="17.933947521971">
        <ele>2.2</ele>
        <time>2016-05-05T12:27:10Z</time>
      </trkpt>
      <trkpt lat="59.337598767324" lon="17.934560490318">
        <ele>2.2</ele>
        <time>2016-05-05T12:27:17Z</time>
      </trkpt>
      <trkpt lat="59.337729608783" lon="17.934887552056">
        <ele>2.2</ele>
        <time>2016-05-05T12:27:21Z</time>
      </trkpt>
      <trkpt lat="59.337903281751" lon="17.935271610714">
        <ele>2.2</ele>
        <time>2016-05-05T12:27:26Z</time>
      </trkpt>
      <trkpt lat="59.337932953677" lon="17.935344700882">
        <ele>2.2</ele>
        <time>2016-05-05T12:27:27Z</time>
      </trkpt>
      <trkpt lat="59.338024651663" lon="17.935560618626">
        <ele>2.2</ele>
        <time>2016-05-05T12:27:30Z</time>
      </trkpt>
      <trkpt lat="59.338049797363" lon="17.935637313011">
        <ele>2.2</ele>
        <time>2016-05-05T12:27:31Z</time>
      </trkpt>
      <trkpt lat="59.338101094591" lon="17.93572456859">
        <ele>2.2</ele>
        <time>2016-05-05T12:27:32Z</time>
      </trkpt>
      <trkpt lat="59.338214920793" lon="17.935968398061">
        <ele>2.2</ele>
        <time>2016-05-05T12:27:35Z</time>
      </trkpt>
      <trkpt lat="59.338381804422" lon="17.936313061789">
        <ele>2.2</ele>
        <time>2016-05-05T12:27:40Z</time>
      </trkpt>
      <trkpt lat="59.338413404185" lon="17.936382463921">
        <ele>2.2</ele>
        <time>2016-05-05T12:27:41Z</time>
      </trkpt>
      <trkpt lat="59.338625130979" lon="17.936885042645">
        <ele>2.2</ele>
        <time>2016-05-05T12:27:47Z</time>
      </trkpt>
      <trkpt lat="59.338810370969" lon="17.937297432125">
        <ele>2.2</ele>
        <time>2016-05-05T12:27:53Z</time>
      </trkpt>
      <trkpt lat="59.338988067249" lon="17.937669420847">
        <ele>2.2</ele>
        <time>2016-05-05T12:27:59Z</time>
      </trkpt>
      <trkpt lat="59.339101809632" lon="17.937899420183">
        <ele>2.2</ele>
        <time>2016-05-05T12:28:03Z</time>
      </trkpt>
      <trkpt lat="59.339195100179" lon="17.938110811701">
        <ele>2.2</ele>
        <time>2016-05-05T12:28:07Z</time>
      </trkpt>
      <trkpt lat="59.339270285822" lon="17.938303763039">
        <ele>2.2</ele>
        <time>2016-05-05T12:28:11Z</time>
      </trkpt>
      <trkpt lat="59.339361061799" lon="17.938440890923">
        <ele>2.2</ele>
        <time>2016-05-05T12:28:16Z</time>
      </trkpt>
      <trkpt lat="59.339376316857" lon="17.938456565076">
        <ele>2.2</ele>
        <time>2016-05-05T12:28:17Z</time>
      </trkpt>
      <trkpt lat="59.339451083405" lon="17.938462264768">
        <ele>2.2</ele>
        <time>2016-05-05T12:28:21Z</time>
      </trkpt>
      <trkpt lat="59.339508583239" lon="17.93842856953">
        <ele>2.2</ele>
        <time>2016-05-05T12:28:23Z</time>
      </trkpt>
      <trkpt lat="59.339556360069" lon="17.938414487938">
        <ele>2.2</ele>
        <time>2016-05-05T12:28:24Z</time>
      </trkpt>
      <trkpt lat="59.339794825124" lon="17.938386576211">
        <ele>2.2</ele>
        <time>2016-05-05T12:28:28Z</time>
      </trkpt>
      <trkpt lat="59.33984712818" lon="17.93839252736">
        <ele>2.2</ele>
        <time>2016-05-05T12:28:29Z</time>
      </trkpt>
      <trkpt lat="59.3398957432" lon="17.938413398291">
        <ele>2.8</ele>
        <time>2016-05-05T12:28:30Z</time>
      </trkpt>
      <trkpt lat="59.339940251089" lon="17.938450697746">
        <ele>3.2</ele>
        <time>2016-05-05T12:28:31Z</time>
      </trkpt>
      <trkpt lat="59.339980316571" lon="17.938482548966">
        <ele>3.6</ele>
        <time>2016-05-05T12:28:32Z</time>
      </trkpt>
      <trkpt lat="59.34001476618" lon="17.93848221369">
        <ele>4</ele>
        <time>2016-05-05T12:28:33Z</time>
      </trkpt>
      <trkpt lat="59.340042007355" lon="17.938450613927">
        <ele>4.6</ele>
        <time>2016-05-05T12:28:34Z</time>
      </trkpt>
      <trkpt lat="59.340065979589" lon="17.938394119921">
        <ele>4.6</ele>
        <time>2016-05-05T12:28:35Z</time>
      </trkpt>
      <trkpt lat="59.340089197452" lon="17.938316084432">
        <ele>4.6</ele>
        <time>2016-05-05T12:28:36Z</time>
      </trkpt>
      <trkpt lat="59.340130352581" lon="17.938095389005">
        <ele>4.6</ele>
        <time>2016-05-05T12:28:38Z</time>
      </trkpt>
      <trkpt lat="59.340178799963" lon="17.937849296421">
        <ele>4.6</ele>
        <time>2016-05-05T12:28:40Z</time>
      </trkpt>
      <trkpt lat="59.340257170728" lon="17.937501950485">
        <ele>4.6</ele>
        <time>2016-05-05T12:28:43Z</time>
      </trkpt>
      <trkpt lat="59.340317855684" lon="17.937155778015">
        <ele>4.6</ele>
        <time>2016-05-05T12:28:46Z</time>
      </trkpt>
      <trkpt lat="59.340356999157" lon="17.936956540252">
        <ele>4.6</ele>
        <time>2016-05-05T12:28:48Z</time>
      </trkpt>
      <trkpt lat="59.340445847297" lon="17.936493105001">
        <ele>4.6</ele>
        <time>2016-05-05T12:28:53Z</time>
      </trkpt>
      <trkpt lat="59.340458252509" lon="17.936403083395">
        <ele>4.6</ele>
        <time>2016-05-05T12:28:54Z</time>
      </trkpt>
      <trkpt lat="59.340475267766" lon="17.936246006589">
        <ele>4.6</ele>
        <time>2016-05-05T12:28:56Z</time>
      </trkpt>
    </trkseg>
  </trk>
</gpx>